<?xml version="1.0" encoding="UTF-8" standalone="no" ?>
<gpx xmlns="http://www.topografix.com/GPX/1/1" xmlns:xsi="http://www.w3.org/2001/XMLSchema-instance" xsi:schemaLocation="http://www.topografix.com/GPX/1/1 http://www.topografix.com/GPX/1/1/gpx.xsd" version="1.1" creator="VisuGPX - https://www.visugpx.com">
  <metadata>
    <name>Pesmes,La Résie St Martin</name>
  </metadata>
  <trk>
    <name><![CDATA[Pesmes,La Résie St Martin_1]]></name>
    <extensions>
      <line xmlns="http://www.topografix.com/GPX/gpx_style/0/2">
        <color>0000FF</color>
        <width>4</width>
      </line>
    </extensions>
    <trkseg>
      <trkpt lat="47.27843" lon="5.56787">
        <ele>185.1</ele>
        <time>2021-09-05T06:58:13Z</time>
      </trkpt>
      <trkpt lat="47.27847" lon="5.56797">
        <ele>194.2</ele>
        <time>2021-09-05T06:58:16Z</time>
      </trkpt>
      <trkpt lat="47.27849" lon="5.56807">
        <ele>207.6</ele>
        <time>2021-09-05T06:58:19Z</time>
      </trkpt>
      <trkpt lat="47.27844" lon="5.56807">
        <ele>213.9</ele>
        <time>2021-09-05T06:58:23Z</time>
      </trkpt>
      <trkpt lat="47.27839" lon="5.56806">
        <ele>212.6</ele>
        <time>2021-09-05T06:58:27Z</time>
      </trkpt>
      <trkpt lat="47.27834" lon="5.56803">
        <ele>207.9</ele>
        <time>2021-09-05T06:58:37Z</time>
      </trkpt>
      <trkpt lat="47.27831" lon="5.56799">
        <ele>202.2</ele>
        <time>2021-09-05T06:58:43Z</time>
      </trkpt>
      <trkpt lat="47.27826" lon="5.568">
        <ele>196.3</ele>
        <time>2021-09-05T07:00:46Z</time>
      </trkpt>
      <trkpt lat="47.27825" lon="5.56793">
        <ele>188.6</ele>
        <time>2021-09-05T07:04:28Z</time>
      </trkpt>
      <trkpt lat="47.27829" lon="5.56797">
        <ele>185.4</ele>
        <time>2021-09-05T07:05:20Z</time>
      </trkpt>
      <trkpt lat="47.27825" lon="5.56797">
        <ele>186.1</ele>
        <time>2021-09-05T07:06:26Z</time>
      </trkpt>
      <trkpt lat="47.27829" lon="5.56794">
        <ele>186.4</ele>
        <time>2021-09-05T07:07:09Z</time>
      </trkpt>
      <trkpt lat="47.27825" lon="5.56799">
        <ele>186.7</ele>
        <time>2021-09-05T07:07:32Z</time>
      </trkpt>
      <trkpt lat="47.2783" lon="5.56797">
        <ele>187</ele>
        <time>2021-09-05T07:08:11Z</time>
      </trkpt>
      <trkpt lat="47.27825" lon="5.56802">
        <ele>190.3</ele>
        <time>2021-09-05T07:08:43Z</time>
      </trkpt>
      <trkpt lat="47.27827" lon="5.56794">
        <ele>189.9</ele>
        <time>2021-09-05T07:09:38Z</time>
      </trkpt>
      <trkpt lat="47.27832" lon="5.56792">
        <ele>188.8</ele>
        <time>2021-09-05T07:09:47Z</time>
      </trkpt>
      <trkpt lat="47.27826" lon="5.56798">
        <ele>187.1</ele>
        <time>2021-09-05T07:10:36Z</time>
      </trkpt>
      <trkpt lat="47.27822" lon="5.56801">
        <ele>186.1</ele>
        <time>2021-09-05T07:10:40Z</time>
      </trkpt>
      <trkpt lat="47.27825" lon="5.56797">
        <ele>184.8</ele>
        <time>2021-09-05T07:10:51Z</time>
      </trkpt>
      <trkpt lat="47.27825" lon="5.56789">
        <ele>184.1</ele>
        <time>2021-09-05T07:12:43Z</time>
      </trkpt>
      <trkpt lat="47.27823" lon="5.56782">
        <ele>181.5</ele>
        <time>2021-09-05T07:12:53Z</time>
      </trkpt>
      <trkpt lat="47.27817" lon="5.56782">
        <ele>180.6</ele>
        <time>2021-09-05T07:12:58Z</time>
      </trkpt>
      <trkpt lat="47.27812" lon="5.56784">
        <ele>180.2</ele>
        <time>2021-09-05T07:13:02Z</time>
      </trkpt>
      <trkpt lat="47.27807" lon="5.56785">
        <ele>180.8</ele>
        <time>2021-09-05T07:13:08Z</time>
      </trkpt>
      <trkpt lat="47.27811" lon="5.5678">
        <ele>182.4</ele>
        <time>2021-09-05T07:14:03Z</time>
      </trkpt>
      <trkpt lat="47.27815" lon="5.56779">
        <ele>182.3</ele>
        <time>2021-09-05T07:14:08Z</time>
      </trkpt>
      <trkpt lat="47.2782" lon="5.56781">
        <ele>181.8</ele>
        <time>2021-09-05T07:14:14Z</time>
      </trkpt>
      <trkpt lat="47.27824" lon="5.56785">
        <ele>181.6</ele>
        <time>2021-09-05T07:14:23Z</time>
      </trkpt>
      <trkpt lat="47.27827" lon="5.56791">
        <ele>185.7</ele>
        <time>2021-09-05T07:16:18Z</time>
      </trkpt>
      <trkpt lat="47.27828" lon="5.56784">
        <ele>185.8</ele>
        <time>2021-09-05T07:17:32Z</time>
      </trkpt>
      <trkpt lat="47.27832" lon="5.5678">
        <ele>185.3</ele>
        <time>2021-09-05T07:17:40Z</time>
      </trkpt>
      <trkpt lat="47.27834" lon="5.56773">
        <ele>185.2</ele>
        <time>2021-09-05T07:17:47Z</time>
      </trkpt>
      <trkpt lat="47.27866" lon="5.5678">
        <ele>183.4</ele>
        <time>2021-09-05T07:18:26Z</time>
      </trkpt>
      <trkpt lat="47.27863" lon="5.56772">
        <ele>183.6</ele>
        <time>2021-09-05T07:18:30Z</time>
      </trkpt>
      <trkpt lat="47.27858" lon="5.56769">
        <ele>184.2</ele>
        <time>2021-09-05T07:18:33Z</time>
      </trkpt>
      <trkpt lat="47.27862" lon="5.56764">
        <ele>187</ele>
        <time>2021-09-05T07:18:47Z</time>
      </trkpt>
      <trkpt lat="47.27867" lon="5.56765">
        <ele>188.6</ele>
        <time>2021-09-05T07:19:04Z</time>
      </trkpt>
      <trkpt lat="47.27872" lon="5.56766">
        <ele>189.1</ele>
        <time>2021-09-05T07:19:07Z</time>
      </trkpt>
      <trkpt lat="47.27877" lon="5.5677">
        <ele>189.8</ele>
        <time>2021-09-05T07:19:14Z</time>
      </trkpt>
      <trkpt lat="47.27878" lon="5.56777">
        <ele>189.7</ele>
        <time>2021-09-05T07:19:18Z</time>
      </trkpt>
      <trkpt lat="47.27879" lon="5.56786">
        <ele>189.7</ele>
        <time>2021-09-05T07:19:22Z</time>
      </trkpt>
      <trkpt lat="47.2788" lon="5.56792">
        <ele>189.9</ele>
        <time>2021-09-05T07:19:25Z</time>
      </trkpt>
      <trkpt lat="47.27885" lon="5.56796">
        <ele>190.3</ele>
        <time>2021-09-05T07:19:31Z</time>
      </trkpt>
      <trkpt lat="47.2789" lon="5.56795">
        <ele>190.4</ele>
        <time>2021-09-05T07:19:34Z</time>
      </trkpt>
      <trkpt lat="47.27894" lon="5.56791">
        <ele>191.5</ele>
        <time>2021-09-05T07:19:43Z</time>
      </trkpt>
      <trkpt lat="47.27898" lon="5.56787">
        <ele>193.9</ele>
        <time>2021-09-05T07:19:51Z</time>
      </trkpt>
      <trkpt lat="47.27901" lon="5.56782">
        <ele>195.3</ele>
        <time>2021-09-05T07:19:56Z</time>
      </trkpt>
      <trkpt lat="47.27904" lon="5.56776">
        <ele>196</ele>
        <time>2021-09-05T07:20:00Z</time>
      </trkpt>
      <trkpt lat="47.27907" lon="5.5677">
        <ele>195.9</ele>
        <time>2021-09-05T07:20:04Z</time>
      </trkpt>
      <trkpt lat="47.27911" lon="5.56767">
        <ele>195.6</ele>
        <time>2021-09-05T07:20:08Z</time>
      </trkpt>
      <trkpt lat="47.27914" lon="5.5676">
        <ele>195.3</ele>
        <time>2021-09-05T07:20:13Z</time>
      </trkpt>
      <trkpt lat="47.27914" lon="5.56753">
        <ele>195.1</ele>
        <time>2021-09-05T07:20:17Z</time>
      </trkpt>
      <trkpt lat="47.27915" lon="5.56746">
        <ele>195.2</ele>
        <time>2021-09-05T07:20:22Z</time>
      </trkpt>
      <trkpt lat="47.27918" lon="5.56741">
        <ele>195.2</ele>
        <time>2021-09-05T07:20:28Z</time>
      </trkpt>
      <trkpt lat="47.2792" lon="5.56735">
        <ele>194.9</ele>
        <time>2021-09-05T07:20:37Z</time>
      </trkpt>
      <trkpt lat="47.27919" lon="5.56728">
        <ele>194.5</ele>
        <time>2021-09-05T07:20:44Z</time>
      </trkpt>
      <trkpt lat="47.27915" lon="5.56723">
        <ele>195.8</ele>
        <time>2021-09-05T07:20:55Z</time>
      </trkpt>
      <trkpt lat="47.27913" lon="5.56717">
        <ele>199.2</ele>
        <time>2021-09-05T07:21:02Z</time>
      </trkpt>
      <trkpt lat="47.27908" lon="5.56714">
        <ele>201.4</ele>
        <time>2021-09-05T07:21:06Z</time>
      </trkpt>
      <trkpt lat="47.27903" lon="5.56712">
        <ele>203.1</ele>
        <time>2021-09-05T07:21:09Z</time>
      </trkpt>
      <trkpt lat="47.27899" lon="5.5671">
        <ele>204.9</ele>
        <time>2021-09-05T07:21:13Z</time>
      </trkpt>
      <trkpt lat="47.27894" lon="5.56708">
        <ele>206.3</ele>
        <time>2021-09-05T07:21:19Z</time>
      </trkpt>
      <trkpt lat="47.27891" lon="5.56701">
        <ele>205.2</ele>
        <time>2021-09-05T07:21:26Z</time>
      </trkpt>
      <trkpt lat="47.27891" lon="5.56693">
        <ele>205.2</ele>
        <time>2021-09-05T07:21:29Z</time>
      </trkpt>
      <trkpt lat="47.27887" lon="5.56691">
        <ele>204.7</ele>
        <time>2021-09-05T07:21:35Z</time>
      </trkpt>
      <trkpt lat="47.27891" lon="5.56689">
        <ele>202.2</ele>
        <time>2021-09-05T07:21:46Z</time>
      </trkpt>
      <trkpt lat="47.27896" lon="5.5669">
        <ele>201.7</ele>
        <time>2021-09-05T07:21:53Z</time>
      </trkpt>
      <trkpt lat="47.27902" lon="5.5669">
        <ele>201.3</ele>
        <time>2021-09-05T07:22:04Z</time>
      </trkpt>
      <trkpt lat="47.27901" lon="5.56683">
        <ele>201.1</ele>
        <time>2021-09-05T07:22:07Z</time>
      </trkpt>
      <trkpt lat="47.27901" lon="5.56674">
        <ele>201.2</ele>
        <time>2021-09-05T07:22:10Z</time>
      </trkpt>
      <trkpt lat="47.27901" lon="5.56667">
        <ele>201.2</ele>
        <time>2021-09-05T07:22:13Z</time>
      </trkpt>
      <trkpt lat="47.27901" lon="5.56658">
        <ele>200.6</ele>
        <time>2021-09-05T07:22:18Z</time>
      </trkpt>
      <trkpt lat="47.27901" lon="5.56651">
        <ele>199.9</ele>
        <time>2021-09-05T07:22:22Z</time>
      </trkpt>
      <trkpt lat="47.27901" lon="5.56644">
        <ele>197.5</ele>
        <time>2021-09-05T07:22:30Z</time>
      </trkpt>
      <trkpt lat="47.27902" lon="5.56636">
        <ele>194.5</ele>
        <time>2021-09-05T07:22:38Z</time>
      </trkpt>
      <trkpt lat="47.27903" lon="5.56628">
        <ele>193.4</ele>
        <time>2021-09-05T07:22:44Z</time>
      </trkpt>
      <trkpt lat="47.27905" lon="5.56622">
        <ele>192.9</ele>
        <time>2021-09-05T07:22:47Z</time>
      </trkpt>
      <trkpt lat="47.27907" lon="5.56615">
        <ele>192.4</ele>
        <time>2021-09-05T07:22:50Z</time>
      </trkpt>
      <trkpt lat="47.27907" lon="5.56607">
        <ele>192.3</ele>
        <time>2021-09-05T07:22:55Z</time>
      </trkpt>
      <trkpt lat="47.27906" lon="5.56599">
        <ele>192</ele>
        <time>2021-09-05T07:22:59Z</time>
      </trkpt>
      <trkpt lat="47.2791" lon="5.56593">
        <ele>191.3</ele>
        <time>2021-09-05T07:23:05Z</time>
      </trkpt>
      <trkpt lat="47.27907" lon="5.56586">
        <ele>190.7</ele>
        <time>2021-09-05T07:23:14Z</time>
      </trkpt>
      <trkpt lat="47.27904" lon="5.56581">
        <ele>190.5</ele>
        <time>2021-09-05T07:23:19Z</time>
      </trkpt>
      <trkpt lat="47.279" lon="5.56577">
        <ele>190.6</ele>
        <time>2021-09-05T07:23:23Z</time>
      </trkpt>
      <trkpt lat="47.27896" lon="5.56571">
        <ele>190.7</ele>
        <time>2021-09-05T07:23:28Z</time>
      </trkpt>
      <trkpt lat="47.27894" lon="5.56564">
        <ele>190.8</ele>
        <time>2021-09-05T07:23:35Z</time>
      </trkpt>
      <trkpt lat="47.27891" lon="5.56559">
        <ele>191.2</ele>
        <time>2021-09-05T07:23:40Z</time>
      </trkpt>
      <trkpt lat="47.27887" lon="5.56554">
        <ele>191.9</ele>
        <time>2021-09-05T07:23:45Z</time>
      </trkpt>
      <trkpt lat="47.27884" lon="5.56548">
        <ele>192.9</ele>
        <time>2021-09-05T07:23:51Z</time>
      </trkpt>
      <trkpt lat="47.27878" lon="5.5655">
        <ele>193.8</ele>
        <time>2021-09-05T07:23:57Z</time>
      </trkpt>
      <trkpt lat="47.27874" lon="5.56547">
        <ele>194.7</ele>
        <time>2021-09-05T07:24:04Z</time>
      </trkpt>
      <trkpt lat="47.27869" lon="5.56546">
        <ele>195.1</ele>
        <time>2021-09-05T07:24:09Z</time>
      </trkpt>
      <trkpt lat="47.27867" lon="5.5654">
        <ele>195.4</ele>
        <time>2021-09-05T07:24:14Z</time>
      </trkpt>
      <trkpt lat="47.27866" lon="5.56532">
        <ele>195.9</ele>
        <time>2021-09-05T07:24:19Z</time>
      </trkpt>
      <trkpt lat="47.27866" lon="5.56525">
        <ele>196.3</ele>
        <time>2021-09-05T07:24:23Z</time>
      </trkpt>
      <trkpt lat="47.27866" lon="5.56518">
        <ele>196.8</ele>
        <time>2021-09-05T07:24:27Z</time>
      </trkpt>
      <trkpt lat="47.27866" lon="5.56511">
        <ele>197.5</ele>
        <time>2021-09-05T07:24:31Z</time>
      </trkpt>
      <trkpt lat="47.27865" lon="5.56504">
        <ele>199.2</ele>
        <time>2021-09-05T07:24:35Z</time>
      </trkpt>
      <trkpt lat="47.27861" lon="5.565">
        <ele>201.6</ele>
        <time>2021-09-05T07:24:40Z</time>
      </trkpt>
      <trkpt lat="47.27856" lon="5.56499">
        <ele>203.7</ele>
        <time>2021-09-05T07:24:44Z</time>
      </trkpt>
      <trkpt lat="47.27851" lon="5.56501">
        <ele>206.7</ele>
        <time>2021-09-05T07:24:53Z</time>
      </trkpt>
      <trkpt lat="47.27847" lon="5.56498">
        <ele>209</ele>
        <time>2021-09-05T07:25:05Z</time>
      </trkpt>
      <trkpt lat="47.27842" lon="5.56494">
        <ele>210.9</ele>
        <time>2021-09-05T07:25:19Z</time>
      </trkpt>
      <trkpt lat="47.27838" lon="5.56497">
        <ele>210.7</ele>
        <time>2021-09-05T07:25:23Z</time>
      </trkpt>
      <trkpt lat="47.27834" lon="5.56494">
        <ele>211.3</ele>
        <time>2021-09-05T07:25:33Z</time>
      </trkpt>
      <trkpt lat="47.27832" lon="5.56487">
        <ele>211.1</ele>
        <time>2021-09-05T07:25:38Z</time>
      </trkpt>
      <trkpt lat="47.27829" lon="5.56483">
        <ele>210.5</ele>
        <time>2021-09-05T07:25:45Z</time>
      </trkpt>
      <trkpt lat="47.27827" lon="5.56476">
        <ele>209.6</ele>
        <time>2021-09-05T07:25:53Z</time>
      </trkpt>
      <trkpt lat="47.27824" lon="5.56471">
        <ele>209.5</ele>
        <time>2021-09-05T07:25:59Z</time>
      </trkpt>
      <trkpt lat="47.27824" lon="5.56464">
        <ele>209.6</ele>
        <time>2021-09-05T07:26:13Z</time>
      </trkpt>
      <trkpt lat="47.27823" lon="5.56457">
        <ele>209.3</ele>
        <time>2021-09-05T07:26:26Z</time>
      </trkpt>
      <trkpt lat="47.2782" lon="5.56451">
        <ele>209.5</ele>
        <time>2021-09-05T07:26:44Z</time>
      </trkpt>
      <trkpt lat="47.27818" lon="5.56445">
        <ele>209.9</ele>
        <time>2021-09-05T07:26:54Z</time>
      </trkpt>
      <trkpt lat="47.27817" lon="5.56437">
        <ele>210</ele>
        <time>2021-09-05T07:26:59Z</time>
      </trkpt>
      <trkpt lat="47.27818" lon="5.5643">
        <ele>209.7</ele>
        <time>2021-09-05T07:27:04Z</time>
      </trkpt>
      <trkpt lat="47.27817" lon="5.56423">
        <ele>209.7</ele>
        <time>2021-09-05T07:27:11Z</time>
      </trkpt>
      <trkpt lat="47.27818" lon="5.56416">
        <ele>209.8</ele>
        <time>2021-09-05T07:27:18Z</time>
      </trkpt>
      <trkpt lat="47.27816" lon="5.56409">
        <ele>210.6</ele>
        <time>2021-09-05T07:27:24Z</time>
      </trkpt>
      <trkpt lat="47.27815" lon="5.56401">
        <ele>210.8</ele>
        <time>2021-09-05T07:27:31Z</time>
      </trkpt>
      <trkpt lat="47.27814" lon="5.56395">
        <ele>210</ele>
        <time>2021-09-05T07:27:42Z</time>
      </trkpt>
      <trkpt lat="47.27814" lon="5.56388">
        <ele>209.5</ele>
        <time>2021-09-05T07:27:54Z</time>
      </trkpt>
      <trkpt lat="47.27814" lon="5.56381">
        <ele>209.2</ele>
        <time>2021-09-05T07:28:01Z</time>
      </trkpt>
      <trkpt lat="47.27818" lon="5.56377">
        <ele>208.8</ele>
        <time>2021-09-05T07:28:17Z</time>
      </trkpt>
      <trkpt lat="47.27823" lon="5.56378">
        <ele>208.5</ele>
        <time>2021-09-05T07:28:23Z</time>
      </trkpt>
      <trkpt lat="47.27827" lon="5.56382">
        <ele>208.5</ele>
        <time>2021-09-05T07:28:35Z</time>
      </trkpt>
      <trkpt lat="47.27833" lon="5.56383">
        <ele>209</ele>
        <time>2021-09-05T07:28:40Z</time>
      </trkpt>
      <trkpt lat="47.27837" lon="5.56381">
        <ele>210.1</ele>
        <time>2021-09-05T07:28:47Z</time>
      </trkpt>
      <trkpt lat="47.27842" lon="5.5638">
        <ele>210.9</ele>
        <time>2021-09-05T07:28:52Z</time>
      </trkpt>
      <trkpt lat="47.27846" lon="5.56376">
        <ele>211.6</ele>
        <time>2021-09-05T07:28:58Z</time>
      </trkpt>
      <trkpt lat="47.27847" lon="5.56369">
        <ele>210.8</ele>
        <time>2021-09-05T07:29:06Z</time>
      </trkpt>
      <trkpt lat="47.27845" lon="5.56362">
        <ele>208.6</ele>
        <time>2021-09-05T07:29:16Z</time>
      </trkpt>
      <trkpt lat="47.27844" lon="5.56356">
        <ele>207.1</ele>
        <time>2021-09-05T07:29:23Z</time>
      </trkpt>
      <trkpt lat="47.27842" lon="5.56349">
        <ele>205.9</ele>
        <time>2021-09-05T07:29:29Z</time>
      </trkpt>
      <trkpt lat="47.27842" lon="5.56342">
        <ele>205.1</ele>
        <time>2021-09-05T07:29:34Z</time>
      </trkpt>
      <trkpt lat="47.27837" lon="5.56343">
        <ele>204.2</ele>
        <time>2021-09-05T07:29:41Z</time>
      </trkpt>
      <trkpt lat="47.27832" lon="5.56344">
        <ele>203.7</ele>
        <time>2021-09-05T07:29:44Z</time>
      </trkpt>
      <trkpt lat="47.27835" lon="5.56338">
        <ele>200.9</ele>
        <time>2021-09-05T07:29:54Z</time>
      </trkpt>
      <trkpt lat="47.27839" lon="5.56336">
        <ele>199.3</ele>
        <time>2021-09-05T07:29:58Z</time>
      </trkpt>
      <trkpt lat="47.27844" lon="5.56332">
        <ele>197.9</ele>
        <time>2021-09-05T07:30:02Z</time>
      </trkpt>
      <trkpt lat="47.27849" lon="5.5633">
        <ele>196.9</ele>
        <time>2021-09-05T07:30:05Z</time>
      </trkpt>
      <trkpt lat="47.27853" lon="5.56326">
        <ele>195.4</ele>
        <time>2021-09-05T07:30:09Z</time>
      </trkpt>
      <trkpt lat="47.27859" lon="5.56322">
        <ele>194.1</ele>
        <time>2021-09-05T07:30:13Z</time>
      </trkpt>
      <trkpt lat="47.2786" lon="5.56315">
        <ele>193</ele>
        <time>2021-09-05T07:30:19Z</time>
      </trkpt>
      <trkpt lat="47.27858" lon="5.5631">
        <ele>193</ele>
        <time>2021-09-05T07:30:22Z</time>
      </trkpt>
      <trkpt lat="47.27857" lon="5.56303">
        <ele>193.2</ele>
        <time>2021-09-05T07:30:25Z</time>
      </trkpt>
      <trkpt lat="47.27859" lon="5.56295">
        <ele>193.7</ele>
        <time>2021-09-05T07:30:30Z</time>
      </trkpt>
      <trkpt lat="47.27862" lon="5.56287">
        <ele>194.5</ele>
        <time>2021-09-05T07:30:35Z</time>
      </trkpt>
      <trkpt lat="47.27863" lon="5.56281">
        <ele>195</ele>
        <time>2021-09-05T07:30:38Z</time>
      </trkpt>
      <trkpt lat="47.27864" lon="5.56273">
        <ele>195.8</ele>
        <time>2021-09-05T07:30:42Z</time>
      </trkpt>
      <trkpt lat="47.27865" lon="5.56266">
        <ele>197</ele>
        <time>2021-09-05T07:30:46Z</time>
      </trkpt>
      <trkpt lat="47.27865" lon="5.56259">
        <ele>197.8</ele>
        <time>2021-09-05T07:30:49Z</time>
      </trkpt>
      <trkpt lat="47.27867" lon="5.56253">
        <ele>198.6</ele>
        <time>2021-09-05T07:30:53Z</time>
      </trkpt>
      <trkpt lat="47.27869" lon="5.56246">
        <ele>198.9</ele>
        <time>2021-09-05T07:30:57Z</time>
      </trkpt>
      <trkpt lat="47.2787" lon="5.56239">
        <ele>199.1</ele>
        <time>2021-09-05T07:31:01Z</time>
      </trkpt>
      <trkpt lat="47.27872" lon="5.56232">
        <ele>198.5</ele>
        <time>2021-09-05T07:31:08Z</time>
      </trkpt>
      <trkpt lat="47.27875" lon="5.56226">
        <ele>198.1</ele>
        <time>2021-09-05T07:31:15Z</time>
      </trkpt>
      <trkpt lat="47.27877" lon="5.56219">
        <ele>197.7</ele>
        <time>2021-09-05T07:31:21Z</time>
      </trkpt>
      <trkpt lat="47.27882" lon="5.56215">
        <ele>197.7</ele>
        <time>2021-09-05T07:31:26Z</time>
      </trkpt>
      <trkpt lat="47.27886" lon="5.56212">
        <ele>198.3</ele>
        <time>2021-09-05T07:31:32Z</time>
      </trkpt>
      <trkpt lat="47.2789" lon="5.56208">
        <ele>199.1</ele>
        <time>2021-09-05T07:31:37Z</time>
      </trkpt>
      <trkpt lat="47.27894" lon="5.56204">
        <ele>200</ele>
        <time>2021-09-05T07:31:43Z</time>
      </trkpt>
      <trkpt lat="47.27896" lon="5.56197">
        <ele>200.5</ele>
        <time>2021-09-05T07:31:47Z</time>
      </trkpt>
      <trkpt lat="47.27894" lon="5.5619">
        <ele>201.1</ele>
        <time>2021-09-05T07:31:54Z</time>
      </trkpt>
      <trkpt lat="47.27895" lon="5.56184">
        <ele>202.5</ele>
        <time>2021-09-05T07:32:04Z</time>
      </trkpt>
      <trkpt lat="47.27896" lon="5.56177">
        <ele>203</ele>
        <time>2021-09-05T07:32:10Z</time>
      </trkpt>
      <trkpt lat="47.27891" lon="5.56173">
        <ele>202.8</ele>
        <time>2021-09-05T07:32:15Z</time>
      </trkpt>
      <trkpt lat="47.27895" lon="5.56168">
        <ele>202.6</ele>
        <time>2021-09-05T07:32:22Z</time>
      </trkpt>
      <trkpt lat="47.27901" lon="5.56164">
        <ele>202.6</ele>
        <time>2021-09-05T07:32:27Z</time>
      </trkpt>
      <trkpt lat="47.27906" lon="5.56162">
        <ele>202.7</ele>
        <time>2021-09-05T07:32:30Z</time>
      </trkpt>
      <trkpt lat="47.27902" lon="5.56159">
        <ele>202.7</ele>
        <time>2021-09-05T07:32:42Z</time>
      </trkpt>
      <trkpt lat="47.27897" lon="5.56159">
        <ele>202.3</ele>
        <time>2021-09-05T07:32:49Z</time>
      </trkpt>
      <trkpt lat="47.27893" lon="5.56156">
        <ele>202</ele>
        <time>2021-09-05T07:32:53Z</time>
      </trkpt>
      <trkpt lat="47.27891" lon="5.56148">
        <ele>201.4</ele>
        <time>2021-09-05T07:32:56Z</time>
      </trkpt>
      <trkpt lat="47.2789" lon="5.56141">
        <ele>200.7</ele>
        <time>2021-09-05T07:32:59Z</time>
      </trkpt>
      <trkpt lat="47.27889" lon="5.56133">
        <ele>200</ele>
        <time>2021-09-05T07:33:04Z</time>
      </trkpt>
      <trkpt lat="47.27887" lon="5.56127">
        <ele>199.6</ele>
        <time>2021-09-05T07:33:10Z</time>
      </trkpt>
      <trkpt lat="47.27887" lon="5.56119">
        <ele>197.8</ele>
        <time>2021-09-05T07:33:22Z</time>
      </trkpt>
      <trkpt lat="47.27891" lon="5.56115">
        <ele>196.1</ele>
        <time>2021-09-05T07:33:27Z</time>
      </trkpt>
      <trkpt lat="47.27892" lon="5.56108">
        <ele>193.5</ele>
        <time>2021-09-05T07:33:37Z</time>
      </trkpt>
      <trkpt lat="47.27893" lon="5.56102">
        <ele>191.9</ele>
        <time>2021-09-05T07:33:50Z</time>
      </trkpt>
      <trkpt lat="47.27892" lon="5.56095">
        <ele>191.4</ele>
        <time>2021-09-05T07:34:11Z</time>
      </trkpt>
      <trkpt lat="47.2789" lon="5.56088">
        <ele>190.5</ele>
        <time>2021-09-05T07:34:16Z</time>
      </trkpt>
      <trkpt lat="47.27887" lon="5.56083">
        <ele>187.8</ele>
        <time>2021-09-05T07:34:26Z</time>
      </trkpt>
      <trkpt lat="47.27883" lon="5.56082">
        <ele>187.4</ele>
        <time>2021-09-05T07:34:34Z</time>
      </trkpt>
      <trkpt lat="47.27878" lon="5.56078">
        <ele>187</ele>
        <time>2021-09-05T07:34:38Z</time>
      </trkpt>
      <trkpt lat="47.27875" lon="5.56074">
        <ele>186.7</ele>
        <time>2021-09-05T07:34:42Z</time>
      </trkpt>
      <trkpt lat="47.2787" lon="5.56074">
        <ele>186.6</ele>
        <time>2021-09-05T07:34:46Z</time>
      </trkpt>
      <trkpt lat="47.27865" lon="5.56077">
        <ele>186.4</ele>
        <time>2021-09-05T07:34:50Z</time>
      </trkpt>
      <trkpt lat="47.27862" lon="5.56082">
        <ele>185.9</ele>
        <time>2021-09-05T07:34:53Z</time>
      </trkpt>
      <trkpt lat="47.27859" lon="5.56076">
        <ele>183.4</ele>
        <time>2021-09-05T07:35:01Z</time>
      </trkpt>
      <trkpt lat="47.27855" lon="5.56072">
        <ele>180.8</ele>
        <time>2021-09-05T07:35:08Z</time>
      </trkpt>
      <trkpt lat="47.2785" lon="5.56071">
        <ele>179.2</ele>
        <time>2021-09-05T07:35:12Z</time>
      </trkpt>
      <trkpt lat="47.27845" lon="5.5607">
        <ele>177.2</ele>
        <time>2021-09-05T07:35:17Z</time>
      </trkpt>
      <trkpt lat="47.2784" lon="5.5607">
        <ele>176.5</ele>
        <time>2021-09-05T07:35:21Z</time>
      </trkpt>
      <trkpt lat="47.27835" lon="5.56068">
        <ele>175.7</ele>
        <time>2021-09-05T07:35:27Z</time>
      </trkpt>
      <trkpt lat="47.27831" lon="5.56066">
        <ele>175.4</ele>
        <time>2021-09-05T07:35:31Z</time>
      </trkpt>
      <trkpt lat="47.27827" lon="5.56061">
        <ele>175.4</ele>
        <time>2021-09-05T07:35:36Z</time>
      </trkpt>
      <trkpt lat="47.27824" lon="5.56056">
        <ele>175.7</ele>
        <time>2021-09-05T07:35:42Z</time>
      </trkpt>
      <trkpt lat="47.27819" lon="5.56056">
        <ele>177.1</ele>
        <time>2021-09-05T07:35:47Z</time>
      </trkpt>
      <trkpt lat="47.27814" lon="5.56054">
        <ele>178.8</ele>
        <time>2021-09-05T07:35:52Z</time>
      </trkpt>
      <trkpt lat="47.27812" lon="5.56048">
        <ele>181.5</ele>
        <time>2021-09-05T07:35:58Z</time>
      </trkpt>
      <trkpt lat="47.27807" lon="5.56046">
        <ele>184.3</ele>
        <time>2021-09-05T07:36:04Z</time>
      </trkpt>
      <trkpt lat="47.27803" lon="5.56045">
        <ele>186.1</ele>
        <time>2021-09-05T07:36:09Z</time>
      </trkpt>
      <trkpt lat="47.27798" lon="5.56044">
        <ele>188.7</ele>
        <time>2021-09-05T07:36:17Z</time>
      </trkpt>
      <trkpt lat="47.27795" lon="5.56049">
        <ele>191.5</ele>
        <time>2021-09-05T07:36:31Z</time>
      </trkpt>
      <trkpt lat="47.27799" lon="5.56048">
        <ele>199.4</ele>
        <time>2021-09-05T07:37:11Z</time>
      </trkpt>
      <trkpt lat="47.27804" lon="5.56047">
        <ele>199.4</ele>
        <time>2021-09-05T07:37:16Z</time>
      </trkpt>
      <trkpt lat="47.27809" lon="5.56048">
        <ele>199.4</ele>
        <time>2021-09-05T07:37:20Z</time>
      </trkpt>
      <trkpt lat="47.27814" lon="5.56049">
        <ele>198.8</ele>
        <time>2021-09-05T07:37:24Z</time>
      </trkpt>
      <trkpt lat="47.27819" lon="5.56049">
        <ele>197.8</ele>
        <time>2021-09-05T07:37:29Z</time>
      </trkpt>
      <trkpt lat="47.27824" lon="5.56051">
        <ele>197</ele>
        <time>2021-09-05T07:37:33Z</time>
      </trkpt>
      <trkpt lat="47.27829" lon="5.56055">
        <ele>196</ele>
        <time>2021-09-05T07:37:37Z</time>
      </trkpt>
      <trkpt lat="47.27834" lon="5.56057">
        <ele>194.5</ele>
        <time>2021-09-05T07:37:42Z</time>
      </trkpt>
      <trkpt lat="47.27839" lon="5.56059">
        <ele>193.2</ele>
        <time>2021-09-05T07:37:47Z</time>
      </trkpt>
      <trkpt lat="47.27843" lon="5.56062">
        <ele>191.9</ele>
        <time>2021-09-05T07:37:54Z</time>
      </trkpt>
      <trkpt lat="47.27847" lon="5.56065">
        <ele>190.9</ele>
        <time>2021-09-05T07:38:00Z</time>
      </trkpt>
      <trkpt lat="47.27853" lon="5.56067">
        <ele>190.5</ele>
        <time>2021-09-05T07:38:04Z</time>
      </trkpt>
      <trkpt lat="47.27857" lon="5.56069">
        <ele>190.3</ele>
        <time>2021-09-05T07:38:08Z</time>
      </trkpt>
      <trkpt lat="47.27862" lon="5.5607">
        <ele>190.2</ele>
        <time>2021-09-05T07:38:14Z</time>
      </trkpt>
      <trkpt lat="47.27867" lon="5.56072">
        <ele>190.2</ele>
        <time>2021-09-05T07:38:20Z</time>
      </trkpt>
      <trkpt lat="47.27872" lon="5.56074">
        <ele>190</ele>
        <time>2021-09-05T07:38:24Z</time>
      </trkpt>
      <trkpt lat="47.27878" lon="5.56075">
        <ele>190.2</ele>
        <time>2021-09-05T07:38:29Z</time>
      </trkpt>
      <trkpt lat="47.27881" lon="5.56081">
        <ele>191.1</ele>
        <time>2021-09-05T07:38:33Z</time>
      </trkpt>
      <trkpt lat="47.27886" lon="5.56085">
        <ele>192.3</ele>
        <time>2021-09-05T07:38:38Z</time>
      </trkpt>
      <trkpt lat="47.27891" lon="5.56087">
        <ele>192.8</ele>
        <time>2021-09-05T07:38:42Z</time>
      </trkpt>
      <trkpt lat="47.27895" lon="5.56091">
        <ele>192.7</ele>
        <time>2021-09-05T07:38:46Z</time>
      </trkpt>
      <trkpt lat="47.27898" lon="5.56096">
        <ele>192.2</ele>
        <time>2021-09-05T07:38:51Z</time>
      </trkpt>
      <trkpt lat="47.27903" lon="5.56097">
        <ele>190.7</ele>
        <time>2021-09-05T07:38:59Z</time>
      </trkpt>
      <trkpt lat="47.27907" lon="5.561">
        <ele>191.6</ele>
        <time>2021-09-05T07:39:11Z</time>
      </trkpt>
      <trkpt lat="47.27909" lon="5.56108">
        <ele>193.6</ele>
        <time>2021-09-05T07:39:20Z</time>
      </trkpt>
      <trkpt lat="47.27913" lon="5.56113">
        <ele>194.2</ele>
        <time>2021-09-05T07:39:25Z</time>
      </trkpt>
      <trkpt lat="47.27918" lon="5.56114">
        <ele>194.6</ele>
        <time>2021-09-05T07:39:28Z</time>
      </trkpt>
      <trkpt lat="47.27924" lon="5.56115">
        <ele>194.9</ele>
        <time>2021-09-05T07:39:31Z</time>
      </trkpt>
      <trkpt lat="47.27928" lon="5.56118">
        <ele>195.2</ele>
        <time>2021-09-05T07:39:35Z</time>
      </trkpt>
      <trkpt lat="47.27932" lon="5.56122">
        <ele>195.2</ele>
        <time>2021-09-05T07:39:40Z</time>
      </trkpt>
      <trkpt lat="47.27934" lon="5.56127">
        <ele>195.6</ele>
        <time>2021-09-05T07:39:47Z</time>
      </trkpt>
      <trkpt lat="47.27938" lon="5.56133">
        <ele>195</ele>
        <time>2021-09-05T07:39:54Z</time>
      </trkpt>
      <trkpt lat="47.27942" lon="5.56136">
        <ele>194.6</ele>
        <time>2021-09-05T07:39:58Z</time>
      </trkpt>
      <trkpt lat="47.27947" lon="5.56138">
        <ele>193.9</ele>
        <time>2021-09-05T07:40:03Z</time>
      </trkpt>
      <trkpt lat="47.27951" lon="5.56139">
        <ele>193</ele>
        <time>2021-09-05T07:40:07Z</time>
      </trkpt>
      <trkpt lat="47.27957" lon="5.56141">
        <ele>191.9</ele>
        <time>2021-09-05T07:40:11Z</time>
      </trkpt>
      <trkpt lat="47.27962" lon="5.56142">
        <ele>190.7</ele>
        <time>2021-09-05T07:40:16Z</time>
      </trkpt>
      <trkpt lat="47.27965" lon="5.56148">
        <ele>186.2</ele>
        <time>2021-09-05T07:40:35Z</time>
      </trkpt>
      <trkpt lat="47.27969" lon="5.56152">
        <ele>185.3</ele>
        <time>2021-09-05T07:40:41Z</time>
      </trkpt>
      <trkpt lat="47.27973" lon="5.56155">
        <ele>185</ele>
        <time>2021-09-05T07:40:46Z</time>
      </trkpt>
      <trkpt lat="47.27979" lon="5.56158">
        <ele>184.9</ele>
        <time>2021-09-05T07:40:50Z</time>
      </trkpt>
      <trkpt lat="47.27985" lon="5.5616">
        <ele>184.8</ele>
        <time>2021-09-05T07:40:53Z</time>
      </trkpt>
      <trkpt lat="47.27995" lon="5.56159">
        <ele>185</ele>
        <time>2021-09-05T07:40:56Z</time>
      </trkpt>
      <trkpt lat="47.28004" lon="5.5616">
        <ele>185.9</ele>
        <time>2021-09-05T07:40:59Z</time>
      </trkpt>
      <trkpt lat="47.2801" lon="5.56162">
        <ele>187.1</ele>
        <time>2021-09-05T07:41:02Z</time>
      </trkpt>
      <trkpt lat="47.28015" lon="5.56165">
        <ele>188.9</ele>
        <time>2021-09-05T07:41:06Z</time>
      </trkpt>
      <trkpt lat="47.2802" lon="5.56169">
        <ele>190.3</ele>
        <time>2021-09-05T07:41:10Z</time>
      </trkpt>
      <trkpt lat="47.28024" lon="5.56171">
        <ele>191.7</ele>
        <time>2021-09-05T07:41:22Z</time>
      </trkpt>
      <trkpt lat="47.28029" lon="5.56169">
        <ele>193.4</ele>
        <time>2021-09-05T07:41:28Z</time>
      </trkpt>
      <trkpt lat="47.28033" lon="5.5617">
        <ele>195.4</ele>
        <time>2021-09-05T07:41:34Z</time>
      </trkpt>
      <trkpt lat="47.28036" lon="5.56176">
        <ele>197.4</ele>
        <time>2021-09-05T07:41:41Z</time>
      </trkpt>
      <trkpt lat="47.2804" lon="5.56182">
        <ele>198.9</ele>
        <time>2021-09-05T07:41:46Z</time>
      </trkpt>
      <trkpt lat="47.28038" lon="5.56189">
        <ele>199.2</ele>
        <time>2021-09-05T07:41:51Z</time>
      </trkpt>
      <trkpt lat="47.28036" lon="5.56195">
        <ele>198.4</ele>
        <time>2021-09-05T07:41:59Z</time>
      </trkpt>
      <trkpt lat="47.2804" lon="5.56198">
        <ele>198.4</ele>
        <time>2021-09-05T07:42:03Z</time>
      </trkpt>
      <trkpt lat="47.28045" lon="5.562">
        <ele>198.3</ele>
        <time>2021-09-05T07:42:09Z</time>
      </trkpt>
      <trkpt lat="47.2805" lon="5.56196">
        <ele>198.4</ele>
        <time>2021-09-05T07:42:26Z</time>
      </trkpt>
      <trkpt lat="47.28055" lon="5.56196">
        <ele>198.5</ele>
        <time>2021-09-05T07:42:30Z</time>
      </trkpt>
      <trkpt lat="47.28056" lon="5.56188">
        <ele>198.6</ele>
        <time>2021-09-05T07:42:34Z</time>
      </trkpt>
      <trkpt lat="47.28056" lon="5.56181">
        <ele>199.7</ele>
        <time>2021-09-05T07:42:44Z</time>
      </trkpt>
      <trkpt lat="47.28052" lon="5.5618">
        <ele>199.6</ele>
        <time>2021-09-05T07:42:48Z</time>
      </trkpt>
      <trkpt lat="47.28055" lon="5.56175">
        <ele>197.3</ele>
        <time>2021-09-05T07:42:58Z</time>
      </trkpt>
      <trkpt lat="47.2806" lon="5.56175">
        <ele>196.4</ele>
        <time>2021-09-05T07:43:01Z</time>
      </trkpt>
      <trkpt lat="47.28065" lon="5.56175">
        <ele>195.6</ele>
        <time>2021-09-05T07:43:04Z</time>
      </trkpt>
      <trkpt lat="47.2807" lon="5.56175">
        <ele>195.3</ele>
        <time>2021-09-05T07:43:12Z</time>
      </trkpt>
      <trkpt lat="47.28073" lon="5.56169">
        <ele>195.7</ele>
        <time>2021-09-05T07:43:18Z</time>
      </trkpt>
      <trkpt lat="47.28076" lon="5.56164">
        <ele>196.9</ele>
        <time>2021-09-05T07:43:27Z</time>
      </trkpt>
      <trkpt lat="47.28081" lon="5.56161">
        <ele>196.9</ele>
        <time>2021-09-05T07:43:38Z</time>
      </trkpt>
      <trkpt lat="47.28085" lon="5.56156">
        <ele>196.7</ele>
        <time>2021-09-05T07:43:43Z</time>
      </trkpt>
      <trkpt lat="47.28089" lon="5.56154">
        <ele>196.9</ele>
        <time>2021-09-05T07:43:48Z</time>
      </trkpt>
      <trkpt lat="47.28095" lon="5.56153">
        <ele>197</ele>
        <time>2021-09-05T07:43:55Z</time>
      </trkpt>
      <trkpt lat="47.28097" lon="5.56147">
        <ele>196.4</ele>
        <time>2021-09-05T07:44:02Z</time>
      </trkpt>
      <trkpt lat="47.28099" lon="5.56141">
        <ele>195.6</ele>
        <time>2021-09-05T07:44:07Z</time>
      </trkpt>
      <trkpt lat="47.28103" lon="5.56135">
        <ele>195</ele>
        <time>2021-09-05T07:44:12Z</time>
      </trkpt>
      <trkpt lat="47.28107" lon="5.56131">
        <ele>194.6</ele>
        <time>2021-09-05T07:44:16Z</time>
      </trkpt>
      <trkpt lat="47.2811" lon="5.56125">
        <ele>194.1</ele>
        <time>2021-09-05T07:44:20Z</time>
      </trkpt>
      <trkpt lat="47.28114" lon="5.56119">
        <ele>194.1</ele>
        <time>2021-09-05T07:44:24Z</time>
      </trkpt>
      <trkpt lat="47.28118" lon="5.56114">
        <ele>194.5</ele>
        <time>2021-09-05T07:44:29Z</time>
      </trkpt>
      <trkpt lat="47.28122" lon="5.56108">
        <ele>195</ele>
        <time>2021-09-05T07:44:34Z</time>
      </trkpt>
      <trkpt lat="47.28125" lon="5.56103">
        <ele>195.2</ele>
        <time>2021-09-05T07:44:38Z</time>
      </trkpt>
      <trkpt lat="47.28129" lon="5.56098">
        <ele>195.4</ele>
        <time>2021-09-05T07:44:42Z</time>
      </trkpt>
      <trkpt lat="47.28133" lon="5.56098">
        <ele>195.5</ele>
        <time>2021-09-05T07:44:47Z</time>
      </trkpt>
      <trkpt lat="47.28138" lon="5.56095">
        <ele>194.6</ele>
        <time>2021-09-05T07:44:53Z</time>
      </trkpt>
      <trkpt lat="47.28141" lon="5.56088">
        <ele>193.1</ele>
        <time>2021-09-05T07:44:59Z</time>
      </trkpt>
      <trkpt lat="47.28144" lon="5.56083">
        <ele>192</ele>
        <time>2021-09-05T07:45:03Z</time>
      </trkpt>
      <trkpt lat="47.28147" lon="5.56077">
        <ele>191.3</ele>
        <time>2021-09-05T07:45:07Z</time>
      </trkpt>
      <trkpt lat="47.2815" lon="5.56069">
        <ele>191.4</ele>
        <time>2021-09-05T07:45:11Z</time>
      </trkpt>
      <trkpt lat="47.28153" lon="5.56063">
        <ele>191.3</ele>
        <time>2021-09-05T07:45:15Z</time>
      </trkpt>
      <trkpt lat="47.28156" lon="5.56058">
        <ele>191.3</ele>
        <time>2021-09-05T07:45:18Z</time>
      </trkpt>
      <trkpt lat="47.28158" lon="5.56051">
        <ele>191.2</ele>
        <time>2021-09-05T07:45:23Z</time>
      </trkpt>
      <trkpt lat="47.28162" lon="5.56047">
        <ele>190.8</ele>
        <time>2021-09-05T07:45:28Z</time>
      </trkpt>
      <trkpt lat="47.28165" lon="5.56041">
        <ele>189.7</ele>
        <time>2021-09-05T07:45:33Z</time>
      </trkpt>
      <trkpt lat="47.28168" lon="5.56035">
        <ele>189.3</ele>
        <time>2021-09-05T07:45:38Z</time>
      </trkpt>
      <trkpt lat="47.28169" lon="5.56028">
        <ele>189.3</ele>
        <time>2021-09-05T07:45:42Z</time>
      </trkpt>
      <trkpt lat="47.28171" lon="5.56021">
        <ele>189.5</ele>
        <time>2021-09-05T07:45:46Z</time>
      </trkpt>
      <trkpt lat="47.28175" lon="5.56014">
        <ele>190.4</ele>
        <time>2021-09-05T07:45:50Z</time>
      </trkpt>
      <trkpt lat="47.28177" lon="5.56008">
        <ele>191.3</ele>
        <time>2021-09-05T07:45:54Z</time>
      </trkpt>
      <trkpt lat="47.28179" lon="5.56002">
        <ele>192.2</ele>
        <time>2021-09-05T07:45:58Z</time>
      </trkpt>
      <trkpt lat="47.28183" lon="5.55997">
        <ele>192.8</ele>
        <time>2021-09-05T07:46:03Z</time>
      </trkpt>
      <trkpt lat="47.28187" lon="5.55992">
        <ele>192.4</ele>
        <time>2021-09-05T07:46:10Z</time>
      </trkpt>
      <trkpt lat="47.28189" lon="5.55986">
        <ele>193</ele>
        <time>2021-09-05T07:46:22Z</time>
      </trkpt>
      <trkpt lat="47.28193" lon="5.55981">
        <ele>193.5</ele>
        <time>2021-09-05T07:46:28Z</time>
      </trkpt>
      <trkpt lat="47.28196" lon="5.55975">
        <ele>192.8</ele>
        <time>2021-09-05T07:46:34Z</time>
      </trkpt>
      <trkpt lat="47.28199" lon="5.55969">
        <ele>192.2</ele>
        <time>2021-09-05T07:46:38Z</time>
      </trkpt>
      <trkpt lat="47.28201" lon="5.55962">
        <ele>192</ele>
        <time>2021-09-05T07:46:41Z</time>
      </trkpt>
      <trkpt lat="47.28203" lon="5.55955">
        <ele>192</ele>
        <time>2021-09-05T07:46:46Z</time>
      </trkpt>
      <trkpt lat="47.28206" lon="5.55949">
        <ele>192.3</ele>
        <time>2021-09-05T07:46:51Z</time>
      </trkpt>
      <trkpt lat="47.28209" lon="5.55944">
        <ele>192.4</ele>
        <time>2021-09-05T07:46:56Z</time>
      </trkpt>
      <trkpt lat="47.28211" lon="5.55937">
        <ele>192.6</ele>
        <time>2021-09-05T07:47:01Z</time>
      </trkpt>
      <trkpt lat="47.28216" lon="5.55939">
        <ele>192.1</ele>
        <time>2021-09-05T07:47:06Z</time>
      </trkpt>
      <trkpt lat="47.28221" lon="5.55938">
        <ele>191.4</ele>
        <time>2021-09-05T07:47:10Z</time>
      </trkpt>
      <trkpt lat="47.28225" lon="5.55934">
        <ele>190.2</ele>
        <time>2021-09-05T07:47:16Z</time>
      </trkpt>
      <trkpt lat="47.2823" lon="5.55931">
        <ele>189.2</ele>
        <time>2021-09-05T07:47:22Z</time>
      </trkpt>
      <trkpt lat="47.28235" lon="5.5593">
        <ele>189.1</ele>
        <time>2021-09-05T07:47:28Z</time>
      </trkpt>
      <trkpt lat="47.2824" lon="5.55928">
        <ele>188.7</ele>
        <time>2021-09-05T07:47:33Z</time>
      </trkpt>
      <trkpt lat="47.28244" lon="5.5593">
        <ele>188.6</ele>
        <time>2021-09-05T07:47:41Z</time>
      </trkpt>
      <trkpt lat="47.28248" lon="5.55936">
        <ele>187.8</ele>
        <time>2021-09-05T07:47:49Z</time>
      </trkpt>
      <trkpt lat="47.28253" lon="5.55939">
        <ele>187.2</ele>
        <time>2021-09-05T07:47:52Z</time>
      </trkpt>
      <trkpt lat="47.28258" lon="5.55942">
        <ele>186.5</ele>
        <time>2021-09-05T07:47:56Z</time>
      </trkpt>
      <trkpt lat="47.28261" lon="5.55948">
        <ele>186.3</ele>
        <time>2021-09-05T07:48:01Z</time>
      </trkpt>
      <trkpt lat="47.28266" lon="5.55953">
        <ele>185.1</ele>
        <time>2021-09-05T07:48:06Z</time>
      </trkpt>
      <trkpt lat="47.2827" lon="5.55955">
        <ele>184.2</ele>
        <time>2021-09-05T07:48:10Z</time>
      </trkpt>
      <trkpt lat="47.28275" lon="5.55958">
        <ele>183.6</ele>
        <time>2021-09-05T07:48:14Z</time>
      </trkpt>
      <trkpt lat="47.28279" lon="5.55959">
        <ele>183</ele>
        <time>2021-09-05T07:48:18Z</time>
      </trkpt>
      <trkpt lat="47.28285" lon="5.5596">
        <ele>182.4</ele>
        <time>2021-09-05T07:48:22Z</time>
      </trkpt>
      <trkpt lat="47.2829" lon="5.55961">
        <ele>181.7</ele>
        <time>2021-09-05T07:48:26Z</time>
      </trkpt>
      <trkpt lat="47.28294" lon="5.55965">
        <ele>180.6</ele>
        <time>2021-09-05T07:48:31Z</time>
      </trkpt>
      <trkpt lat="47.28298" lon="5.55969">
        <ele>180</ele>
        <time>2021-09-05T07:48:35Z</time>
      </trkpt>
      <trkpt lat="47.28303" lon="5.55971">
        <ele>180.5</ele>
        <time>2021-09-05T07:48:38Z</time>
      </trkpt>
      <trkpt lat="47.28307" lon="5.55975">
        <ele>180.5</ele>
        <time>2021-09-05T07:48:44Z</time>
      </trkpt>
      <trkpt lat="47.28313" lon="5.55977">
        <ele>181</ele>
        <time>2021-09-05T07:48:48Z</time>
      </trkpt>
      <trkpt lat="47.28318" lon="5.5598">
        <ele>181.6</ele>
        <time>2021-09-05T07:48:52Z</time>
      </trkpt>
      <trkpt lat="47.28323" lon="5.55982">
        <ele>182</ele>
        <time>2021-09-05T07:48:56Z</time>
      </trkpt>
      <trkpt lat="47.28327" lon="5.55984">
        <ele>182.1</ele>
        <time>2021-09-05T07:49:00Z</time>
      </trkpt>
      <trkpt lat="47.28332" lon="5.55987">
        <ele>182.4</ele>
        <time>2021-09-05T07:49:03Z</time>
      </trkpt>
      <trkpt lat="47.28336" lon="5.5599">
        <ele>183.3</ele>
        <time>2021-09-05T07:49:07Z</time>
      </trkpt>
      <trkpt lat="47.28341" lon="5.55991">
        <ele>184.4</ele>
        <time>2021-09-05T07:49:12Z</time>
      </trkpt>
      <trkpt lat="47.28346" lon="5.55992">
        <ele>184.9</ele>
        <time>2021-09-05T07:49:16Z</time>
      </trkpt>
      <trkpt lat="47.28351" lon="5.55993">
        <ele>185.2</ele>
        <time>2021-09-05T07:49:20Z</time>
      </trkpt>
      <trkpt lat="47.28356" lon="5.55995">
        <ele>185.2</ele>
        <time>2021-09-05T07:49:25Z</time>
      </trkpt>
      <trkpt lat="47.28361" lon="5.55995">
        <ele>185.1</ele>
        <time>2021-09-05T07:49:30Z</time>
      </trkpt>
      <trkpt lat="47.28366" lon="5.55996">
        <ele>185.1</ele>
        <time>2021-09-05T07:49:35Z</time>
      </trkpt>
      <trkpt lat="47.2837" lon="5.55995">
        <ele>185</ele>
        <time>2021-09-05T07:49:38Z</time>
      </trkpt>
      <trkpt lat="47.28377" lon="5.55995">
        <ele>185.2</ele>
        <time>2021-09-05T07:49:42Z</time>
      </trkpt>
      <trkpt lat="47.28381" lon="5.55994">
        <ele>185.3</ele>
        <time>2021-09-05T07:49:45Z</time>
      </trkpt>
      <trkpt lat="47.28386" lon="5.55992">
        <ele>185.2</ele>
        <time>2021-09-05T07:49:51Z</time>
      </trkpt>
      <trkpt lat="47.28391" lon="5.55992">
        <ele>184.4</ele>
        <time>2021-09-05T07:49:59Z</time>
      </trkpt>
      <trkpt lat="47.28395" lon="5.55988">
        <ele>184.4</ele>
        <time>2021-09-05T07:50:05Z</time>
      </trkpt>
      <trkpt lat="47.284" lon="5.55984">
        <ele>184.5</ele>
        <time>2021-09-05T07:50:11Z</time>
      </trkpt>
      <trkpt lat="47.28405" lon="5.55981">
        <ele>184.9</ele>
        <time>2021-09-05T07:50:15Z</time>
      </trkpt>
      <trkpt lat="47.2841" lon="5.55977">
        <ele>185.4</ele>
        <time>2021-09-05T07:50:21Z</time>
      </trkpt>
      <trkpt lat="47.28414" lon="5.55976">
        <ele>185.7</ele>
        <time>2021-09-05T07:50:25Z</time>
      </trkpt>
      <trkpt lat="47.28419" lon="5.55975">
        <ele>185.9</ele>
        <time>2021-09-05T07:50:28Z</time>
      </trkpt>
      <trkpt lat="47.28425" lon="5.55973">
        <ele>186.2</ele>
        <time>2021-09-05T07:50:31Z</time>
      </trkpt>
      <trkpt lat="47.2843" lon="5.5597">
        <ele>186.7</ele>
        <time>2021-09-05T07:50:34Z</time>
      </trkpt>
      <trkpt lat="47.28435" lon="5.55969">
        <ele>187.2</ele>
        <time>2021-09-05T07:50:37Z</time>
      </trkpt>
      <trkpt lat="47.2844" lon="5.55966">
        <ele>188.4</ele>
        <time>2021-09-05T07:50:42Z</time>
      </trkpt>
      <trkpt lat="47.28444" lon="5.55962">
        <ele>189.2</ele>
        <time>2021-09-05T07:50:46Z</time>
      </trkpt>
      <trkpt lat="47.28449" lon="5.55959">
        <ele>190.1</ele>
        <time>2021-09-05T07:50:50Z</time>
      </trkpt>
      <trkpt lat="47.28454" lon="5.55956">
        <ele>190.3</ele>
        <time>2021-09-05T07:50:55Z</time>
      </trkpt>
      <trkpt lat="47.28458" lon="5.55953">
        <ele>189.9</ele>
        <time>2021-09-05T07:51:00Z</time>
      </trkpt>
      <trkpt lat="47.28462" lon="5.55952">
        <ele>188.2</ele>
        <time>2021-09-05T07:51:06Z</time>
      </trkpt>
      <trkpt lat="47.28468" lon="5.55948">
        <ele>186.7</ele>
        <time>2021-09-05T07:51:11Z</time>
      </trkpt>
      <trkpt lat="47.28472" lon="5.55946">
        <ele>186.4</ele>
        <time>2021-09-05T07:51:14Z</time>
      </trkpt>
      <trkpt lat="47.28476" lon="5.55943">
        <ele>186</ele>
        <time>2021-09-05T07:51:19Z</time>
      </trkpt>
      <trkpt lat="47.2848" lon="5.55938">
        <ele>186.1</ele>
        <time>2021-09-05T07:51:24Z</time>
      </trkpt>
      <trkpt lat="47.28484" lon="5.55934">
        <ele>186.2</ele>
        <time>2021-09-05T07:51:29Z</time>
      </trkpt>
      <trkpt lat="47.28488" lon="5.55929">
        <ele>186.8</ele>
        <time>2021-09-05T07:51:34Z</time>
      </trkpt>
      <trkpt lat="47.28491" lon="5.55924">
        <ele>187.8</ele>
        <time>2021-09-05T07:51:39Z</time>
      </trkpt>
      <trkpt lat="47.28495" lon="5.55919">
        <ele>188.8</ele>
        <time>2021-09-05T07:51:44Z</time>
      </trkpt>
      <trkpt lat="47.28499" lon="5.55915">
        <ele>189.5</ele>
        <time>2021-09-05T07:51:50Z</time>
      </trkpt>
      <trkpt lat="47.28504" lon="5.55914">
        <ele>190</ele>
        <time>2021-09-05T07:51:54Z</time>
      </trkpt>
      <trkpt lat="47.28508" lon="5.55916">
        <ele>190.3</ele>
        <time>2021-09-05T07:51:57Z</time>
      </trkpt>
      <trkpt lat="47.28513" lon="5.55915">
        <ele>190.5</ele>
        <time>2021-09-05T07:52:01Z</time>
      </trkpt>
      <trkpt lat="47.28517" lon="5.55912">
        <ele>190.2</ele>
        <time>2021-09-05T07:52:05Z</time>
      </trkpt>
      <trkpt lat="47.28523" lon="5.5591">
        <ele>189.5</ele>
        <time>2021-09-05T07:52:11Z</time>
      </trkpt>
      <trkpt lat="47.28527" lon="5.55908">
        <ele>189.4</ele>
        <time>2021-09-05T07:52:15Z</time>
      </trkpt>
      <trkpt lat="47.28532" lon="5.55905">
        <ele>189.5</ele>
        <time>2021-09-05T07:52:20Z</time>
      </trkpt>
      <trkpt lat="47.28536" lon="5.55902">
        <ele>189.3</ele>
        <time>2021-09-05T07:52:24Z</time>
      </trkpt>
      <trkpt lat="47.2854" lon="5.55897">
        <ele>189.3</ele>
        <time>2021-09-05T07:52:28Z</time>
      </trkpt>
      <trkpt lat="47.28544" lon="5.55894">
        <ele>189.5</ele>
        <time>2021-09-05T07:52:32Z</time>
      </trkpt>
      <trkpt lat="47.28549" lon="5.55891">
        <ele>190</ele>
        <time>2021-09-05T07:52:37Z</time>
      </trkpt>
      <trkpt lat="47.28553" lon="5.55887">
        <ele>190.7</ele>
        <time>2021-09-05T07:52:41Z</time>
      </trkpt>
      <trkpt lat="47.28556" lon="5.55882">
        <ele>191.2</ele>
        <time>2021-09-05T07:52:45Z</time>
      </trkpt>
      <trkpt lat="47.2856" lon="5.55877">
        <ele>191.6</ele>
        <time>2021-09-05T07:52:49Z</time>
      </trkpt>
      <trkpt lat="47.28563" lon="5.5587">
        <ele>191.8</ele>
        <time>2021-09-05T07:52:53Z</time>
      </trkpt>
      <trkpt lat="47.28566" lon="5.55865">
        <ele>192.1</ele>
        <time>2021-09-05T07:52:57Z</time>
      </trkpt>
      <trkpt lat="47.2857" lon="5.55861">
        <ele>193.6</ele>
        <time>2021-09-05T07:53:11Z</time>
      </trkpt>
      <trkpt lat="47.28572" lon="5.55854">
        <ele>193.7</ele>
        <time>2021-09-05T07:53:16Z</time>
      </trkpt>
      <trkpt lat="47.28576" lon="5.5585">
        <ele>194</ele>
        <time>2021-09-05T07:53:21Z</time>
      </trkpt>
      <trkpt lat="47.28581" lon="5.55847">
        <ele>194</ele>
        <time>2021-09-05T07:53:26Z</time>
      </trkpt>
      <trkpt lat="47.28585" lon="5.55842">
        <ele>193.6</ele>
        <time>2021-09-05T07:53:32Z</time>
      </trkpt>
      <trkpt lat="47.28587" lon="5.55835">
        <ele>193.2</ele>
        <time>2021-09-05T07:53:37Z</time>
      </trkpt>
      <trkpt lat="47.2859" lon="5.55829">
        <ele>192.8</ele>
        <time>2021-09-05T07:53:41Z</time>
      </trkpt>
      <trkpt lat="47.28592" lon="5.55822">
        <ele>192.4</ele>
        <time>2021-09-05T07:53:46Z</time>
      </trkpt>
      <trkpt lat="47.28594" lon="5.55816">
        <ele>192.5</ele>
        <time>2021-09-05T07:53:51Z</time>
      </trkpt>
      <trkpt lat="47.28595" lon="5.55809">
        <ele>192.9</ele>
        <time>2021-09-05T07:53:56Z</time>
      </trkpt>
      <trkpt lat="47.28591" lon="5.55804">
        <ele>194.3</ele>
        <time>2021-09-05T07:54:03Z</time>
      </trkpt>
      <trkpt lat="47.28588" lon="5.55799">
        <ele>195</ele>
        <time>2021-09-05T07:54:10Z</time>
      </trkpt>
      <trkpt lat="47.28583" lon="5.55797">
        <ele>194.3</ele>
        <time>2021-09-05T07:54:18Z</time>
      </trkpt>
      <trkpt lat="47.28579" lon="5.55795">
        <ele>193.4</ele>
        <time>2021-09-05T07:54:31Z</time>
      </trkpt>
      <trkpt lat="47.28573" lon="5.55795">
        <ele>192.5</ele>
        <time>2021-09-05T07:54:47Z</time>
      </trkpt>
      <trkpt lat="47.28569" lon="5.55797">
        <ele>192.8</ele>
        <time>2021-09-05T07:54:53Z</time>
      </trkpt>
      <trkpt lat="47.2857" lon="5.55803">
        <ele>192.7</ele>
        <time>2021-09-05T07:55:04Z</time>
      </trkpt>
      <trkpt lat="47.28575" lon="5.55803">
        <ele>191.2</ele>
        <time>2021-09-05T07:55:14Z</time>
      </trkpt>
      <trkpt lat="47.2858" lon="5.55804">
        <ele>187.7</ele>
        <time>2021-09-05T07:55:40Z</time>
      </trkpt>
      <trkpt lat="47.28583" lon="5.558">
        <ele>186.5</ele>
        <time>2021-09-05T07:56:14Z</time>
      </trkpt>
      <trkpt lat="47.28584" lon="5.55807">
        <ele>185.2</ele>
        <time>2021-09-05T07:57:33Z</time>
      </trkpt>
      <trkpt lat="47.28582" lon="5.55813">
        <ele>185.4</ele>
        <time>2021-09-05T07:57:41Z</time>
      </trkpt>
      <trkpt lat="47.28586" lon="5.5581">
        <ele>186.1</ele>
        <time>2021-09-05T07:57:53Z</time>
      </trkpt>
      <trkpt lat="47.28581" lon="5.55805">
        <ele>186.3</ele>
        <time>2021-09-05T07:58:58Z</time>
      </trkpt>
      <trkpt lat="47.28577" lon="5.55805">
        <ele>188.1</ele>
        <time>2021-09-05T07:59:13Z</time>
      </trkpt>
      <trkpt lat="47.28579" lon="5.55811">
        <ele>188.2</ele>
        <time>2021-09-05T07:59:37Z</time>
      </trkpt>
      <trkpt lat="47.28578" lon="5.55818">
        <ele>187.1</ele>
        <time>2021-09-05T07:59:47Z</time>
      </trkpt>
      <trkpt lat="47.28583" lon="5.55819">
        <ele>188.1</ele>
        <time>2021-09-05T07:59:55Z</time>
      </trkpt>
      <trkpt lat="47.28587" lon="5.55816">
        <ele>188.3</ele>
        <time>2021-09-05T08:00:03Z</time>
      </trkpt>
      <trkpt lat="47.2859" lon="5.55809">
        <ele>190.6</ele>
        <time>2021-09-05T08:00:16Z</time>
      </trkpt>
      <trkpt lat="47.28595" lon="5.55809">
        <ele>191.3</ele>
        <time>2021-09-05T08:00:21Z</time>
      </trkpt>
      <trkpt lat="47.28599" lon="5.55807">
        <ele>192.3</ele>
        <time>2021-09-05T08:00:29Z</time>
      </trkpt>
      <trkpt lat="47.28604" lon="5.55802">
        <ele>192.3</ele>
        <time>2021-09-05T08:00:36Z</time>
      </trkpt>
      <trkpt lat="47.28607" lon="5.55797">
        <ele>192.2</ele>
        <time>2021-09-05T08:00:40Z</time>
      </trkpt>
      <trkpt lat="47.28607" lon="5.5579">
        <ele>191.1</ele>
        <time>2021-09-05T08:00:46Z</time>
      </trkpt>
      <trkpt lat="47.28609" lon="5.55783">
        <ele>189.7</ele>
        <time>2021-09-05T08:00:52Z</time>
      </trkpt>
      <trkpt lat="47.28611" lon="5.55775">
        <ele>188.8</ele>
        <time>2021-09-05T08:00:57Z</time>
      </trkpt>
      <trkpt lat="47.28614" lon="5.55769">
        <ele>188.6</ele>
        <time>2021-09-05T08:01:00Z</time>
      </trkpt>
      <trkpt lat="47.28616" lon="5.55762">
        <ele>188.6</ele>
        <time>2021-09-05T08:01:04Z</time>
      </trkpt>
      <trkpt lat="47.28619" lon="5.55756">
        <ele>188.8</ele>
        <time>2021-09-05T08:01:08Z</time>
      </trkpt>
      <trkpt lat="47.2862" lon="5.55749">
        <ele>189.8</ele>
        <time>2021-09-05T08:01:13Z</time>
      </trkpt>
      <trkpt lat="47.28621" lon="5.55743">
        <ele>190.9</ele>
        <time>2021-09-05T08:01:17Z</time>
      </trkpt>
      <trkpt lat="47.28623" lon="5.55735">
        <ele>191.8</ele>
        <time>2021-09-05T08:01:21Z</time>
      </trkpt>
      <trkpt lat="47.28624" lon="5.55727">
        <ele>192.7</ele>
        <time>2021-09-05T08:01:26Z</time>
      </trkpt>
      <trkpt lat="47.28625" lon="5.55719">
        <ele>193.3</ele>
        <time>2021-09-05T08:01:30Z</time>
      </trkpt>
      <trkpt lat="47.28627" lon="5.55712">
        <ele>193.8</ele>
        <time>2021-09-05T08:01:34Z</time>
      </trkpt>
      <trkpt lat="47.28629" lon="5.55706">
        <ele>194</ele>
        <time>2021-09-05T08:01:39Z</time>
      </trkpt>
      <trkpt lat="47.2863" lon="5.55698">
        <ele>194.1</ele>
        <time>2021-09-05T08:01:43Z</time>
      </trkpt>
      <trkpt lat="47.28631" lon="5.5569">
        <ele>194.1</ele>
        <time>2021-09-05T08:01:48Z</time>
      </trkpt>
      <trkpt lat="47.28632" lon="5.55684">
        <ele>194.4</ele>
        <time>2021-09-05T08:01:52Z</time>
      </trkpt>
      <trkpt lat="47.28634" lon="5.55677">
        <ele>194.7</ele>
        <time>2021-09-05T08:01:56Z</time>
      </trkpt>
      <trkpt lat="47.28635" lon="5.55669">
        <ele>195</ele>
        <time>2021-09-05T08:02:00Z</time>
      </trkpt>
      <trkpt lat="47.28636" lon="5.55663">
        <ele>195.3</ele>
        <time>2021-09-05T08:02:03Z</time>
      </trkpt>
      <trkpt lat="47.28639" lon="5.55656">
        <ele>195.7</ele>
        <time>2021-09-05T08:02:07Z</time>
      </trkpt>
      <trkpt lat="47.28642" lon="5.5565">
        <ele>195.9</ele>
        <time>2021-09-05T08:02:12Z</time>
      </trkpt>
      <trkpt lat="47.28644" lon="5.55643">
        <ele>195.6</ele>
        <time>2021-09-05T08:02:18Z</time>
      </trkpt>
      <trkpt lat="47.28647" lon="5.55636">
        <ele>195</ele>
        <time>2021-09-05T08:02:24Z</time>
      </trkpt>
      <trkpt lat="47.28649" lon="5.55629">
        <ele>194.6</ele>
        <time>2021-09-05T08:02:28Z</time>
      </trkpt>
      <trkpt lat="47.28651" lon="5.55621">
        <ele>194.5</ele>
        <time>2021-09-05T08:02:32Z</time>
      </trkpt>
      <trkpt lat="47.28653" lon="5.55614">
        <ele>194.3</ele>
        <time>2021-09-05T08:02:36Z</time>
      </trkpt>
      <trkpt lat="47.28654" lon="5.55606">
        <ele>193.6</ele>
        <time>2021-09-05T08:02:41Z</time>
      </trkpt>
      <trkpt lat="47.28657" lon="5.55599">
        <ele>193.2</ele>
        <time>2021-09-05T08:02:46Z</time>
      </trkpt>
      <trkpt lat="47.28659" lon="5.55592">
        <ele>192.9</ele>
        <time>2021-09-05T08:02:50Z</time>
      </trkpt>
      <trkpt lat="47.28662" lon="5.55586">
        <ele>192.7</ele>
        <time>2021-09-05T08:02:54Z</time>
      </trkpt>
      <trkpt lat="47.28664" lon="5.55579">
        <ele>192.4</ele>
        <time>2021-09-05T08:02:58Z</time>
      </trkpt>
      <trkpt lat="47.28666" lon="5.55571">
        <ele>192.2</ele>
        <time>2021-09-05T08:03:03Z</time>
      </trkpt>
      <trkpt lat="47.28666" lon="5.55564">
        <ele>192.1</ele>
        <time>2021-09-05T08:03:07Z</time>
      </trkpt>
      <trkpt lat="47.28669" lon="5.55558">
        <ele>192.1</ele>
        <time>2021-09-05T08:03:11Z</time>
      </trkpt>
      <trkpt lat="47.28672" lon="5.55551">
        <ele>191.1</ele>
        <time>2021-09-05T08:03:16Z</time>
      </trkpt>
      <trkpt lat="47.28677" lon="5.55547">
        <ele>191.2</ele>
        <time>2021-09-05T08:03:20Z</time>
      </trkpt>
      <trkpt lat="47.2868" lon="5.55542">
        <ele>192.4</ele>
        <time>2021-09-05T08:03:25Z</time>
      </trkpt>
      <trkpt lat="47.28683" lon="5.55537">
        <ele>194</ele>
        <time>2021-09-05T08:03:31Z</time>
      </trkpt>
      <trkpt lat="47.28685" lon="5.5553">
        <ele>194.5</ele>
        <time>2021-09-05T08:03:36Z</time>
      </trkpt>
      <trkpt lat="47.28688" lon="5.55524">
        <ele>194.4</ele>
        <time>2021-09-05T08:03:42Z</time>
      </trkpt>
      <trkpt lat="47.2869" lon="5.55517">
        <ele>194.3</ele>
        <time>2021-09-05T08:03:47Z</time>
      </trkpt>
      <trkpt lat="47.28692" lon="5.5551">
        <ele>194.1</ele>
        <time>2021-09-05T08:03:52Z</time>
      </trkpt>
      <trkpt lat="47.28693" lon="5.55504">
        <ele>193.9</ele>
        <time>2021-09-05T08:03:56Z</time>
      </trkpt>
      <trkpt lat="47.28696" lon="5.55497">
        <ele>193.6</ele>
        <time>2021-09-05T08:04:00Z</time>
      </trkpt>
      <trkpt lat="47.28698" lon="5.5549">
        <ele>193.3</ele>
        <time>2021-09-05T08:04:05Z</time>
      </trkpt>
      <trkpt lat="47.28701" lon="5.55483">
        <ele>193.1</ele>
        <time>2021-09-05T08:04:10Z</time>
      </trkpt>
      <trkpt lat="47.28703" lon="5.55477">
        <ele>193.1</ele>
        <time>2021-09-05T08:04:14Z</time>
      </trkpt>
      <trkpt lat="47.28705" lon="5.5547">
        <ele>193</ele>
        <time>2021-09-05T08:04:19Z</time>
      </trkpt>
      <trkpt lat="47.28707" lon="5.55463">
        <ele>193.1</ele>
        <time>2021-09-05T08:04:23Z</time>
      </trkpt>
      <trkpt lat="47.28709" lon="5.55456">
        <ele>193.2</ele>
        <time>2021-09-05T08:04:28Z</time>
      </trkpt>
      <trkpt lat="47.28711" lon="5.55448">
        <ele>192.9</ele>
        <time>2021-09-05T08:04:33Z</time>
      </trkpt>
      <trkpt lat="47.28713" lon="5.55441">
        <ele>192.9</ele>
        <time>2021-09-05T08:04:37Z</time>
      </trkpt>
      <trkpt lat="47.28715" lon="5.55434">
        <ele>193.6</ele>
        <time>2021-09-05T08:04:42Z</time>
      </trkpt>
      <trkpt lat="47.28717" lon="5.55428">
        <ele>194.1</ele>
        <time>2021-09-05T08:04:47Z</time>
      </trkpt>
      <trkpt lat="47.2872" lon="5.55421">
        <ele>194</ele>
        <time>2021-09-05T08:04:52Z</time>
      </trkpt>
      <trkpt lat="47.28722" lon="5.55414">
        <ele>193.4</ele>
        <time>2021-09-05T08:04:56Z</time>
      </trkpt>
      <trkpt lat="47.28724" lon="5.55407">
        <ele>192.2</ele>
        <time>2021-09-05T08:05:02Z</time>
      </trkpt>
      <trkpt lat="47.28726" lon="5.55401">
        <ele>191.4</ele>
        <time>2021-09-05T08:05:07Z</time>
      </trkpt>
      <trkpt lat="47.28729" lon="5.55394">
        <ele>191</ele>
        <time>2021-09-05T08:05:11Z</time>
      </trkpt>
      <trkpt lat="47.28731" lon="5.55388">
        <ele>190.3</ele>
        <time>2021-09-05T08:05:16Z</time>
      </trkpt>
      <trkpt lat="47.28733" lon="5.5538">
        <ele>189.9</ele>
        <time>2021-09-05T08:05:21Z</time>
      </trkpt>
      <trkpt lat="47.28735" lon="5.55373">
        <ele>189.5</ele>
        <time>2021-09-05T08:05:26Z</time>
      </trkpt>
      <trkpt lat="47.28738" lon="5.55366">
        <ele>189.2</ele>
        <time>2021-09-05T08:05:31Z</time>
      </trkpt>
      <trkpt lat="47.28741" lon="5.5536">
        <ele>189.1</ele>
        <time>2021-09-05T08:05:35Z</time>
      </trkpt>
      <trkpt lat="47.28744" lon="5.55353">
        <ele>189.1</ele>
        <time>2021-09-05T08:05:39Z</time>
      </trkpt>
      <trkpt lat="47.28747" lon="5.55346">
        <ele>189.3</ele>
        <time>2021-09-05T08:05:43Z</time>
      </trkpt>
      <trkpt lat="47.2875" lon="5.5534">
        <ele>189.8</ele>
        <time>2021-09-05T08:05:47Z</time>
      </trkpt>
      <trkpt lat="47.28754" lon="5.55333">
        <ele>190.4</ele>
        <time>2021-09-05T08:05:51Z</time>
      </trkpt>
      <trkpt lat="47.28756" lon="5.55327">
        <ele>190.9</ele>
        <time>2021-09-05T08:05:55Z</time>
      </trkpt>
      <trkpt lat="47.28759" lon="5.5532">
        <ele>190.9</ele>
        <time>2021-09-05T08:06:01Z</time>
      </trkpt>
      <trkpt lat="47.28762" lon="5.55314">
        <ele>190.8</ele>
        <time>2021-09-05T08:06:04Z</time>
      </trkpt>
      <trkpt lat="47.28765" lon="5.55307">
        <ele>191</ele>
        <time>2021-09-05T08:06:07Z</time>
      </trkpt>
      <trkpt lat="47.28767" lon="5.55302">
        <ele>191.1</ele>
        <time>2021-09-05T08:06:10Z</time>
      </trkpt>
      <trkpt lat="47.2877" lon="5.55297">
        <ele>191.2</ele>
        <time>2021-09-05T08:06:13Z</time>
      </trkpt>
      <trkpt lat="47.28773" lon="5.55289">
        <ele>191.6</ele>
        <time>2021-09-05T08:06:17Z</time>
      </trkpt>
      <trkpt lat="47.28776" lon="5.55283">
        <ele>192.1</ele>
        <time>2021-09-05T08:06:21Z</time>
      </trkpt>
      <trkpt lat="47.28779" lon="5.55276">
        <ele>192.5</ele>
        <time>2021-09-05T08:06:25Z</time>
      </trkpt>
      <trkpt lat="47.28782" lon="5.55271">
        <ele>193.2</ele>
        <time>2021-09-05T08:06:28Z</time>
      </trkpt>
      <trkpt lat="47.28786" lon="5.55266">
        <ele>193.8</ele>
        <time>2021-09-05T08:06:31Z</time>
      </trkpt>
      <trkpt lat="47.28789" lon="5.55259">
        <ele>194.2</ele>
        <time>2021-09-05T08:06:35Z</time>
      </trkpt>
      <trkpt lat="47.28792" lon="5.55253">
        <ele>194.4</ele>
        <time>2021-09-05T08:06:39Z</time>
      </trkpt>
      <trkpt lat="47.28795" lon="5.55248">
        <ele>194.5</ele>
        <time>2021-09-05T08:06:43Z</time>
      </trkpt>
      <trkpt lat="47.28798" lon="5.55242">
        <ele>194.3</ele>
        <time>2021-09-05T08:06:47Z</time>
      </trkpt>
      <trkpt lat="47.28801" lon="5.55236">
        <ele>194.2</ele>
        <time>2021-09-05T08:06:51Z</time>
      </trkpt>
      <trkpt lat="47.28804" lon="5.55231">
        <ele>193.9</ele>
        <time>2021-09-05T08:06:55Z</time>
      </trkpt>
      <trkpt lat="47.28807" lon="5.55225">
        <ele>193.7</ele>
        <time>2021-09-05T08:06:59Z</time>
      </trkpt>
      <trkpt lat="47.2881" lon="5.5522">
        <ele>193.8</ele>
        <time>2021-09-05T08:07:03Z</time>
      </trkpt>
      <trkpt lat="47.28814" lon="5.55215">
        <ele>193.9</ele>
        <time>2021-09-05T08:07:08Z</time>
      </trkpt>
      <trkpt lat="47.28817" lon="5.5521">
        <ele>193.8</ele>
        <time>2021-09-05T08:07:12Z</time>
      </trkpt>
      <trkpt lat="47.28822" lon="5.55205">
        <ele>193.3</ele>
        <time>2021-09-05T08:07:16Z</time>
      </trkpt>
      <trkpt lat="47.28826" lon="5.552">
        <ele>192.5</ele>
        <time>2021-09-05T08:07:20Z</time>
      </trkpt>
      <trkpt lat="47.28829" lon="5.55193">
        <ele>191.7</ele>
        <time>2021-09-05T08:07:24Z</time>
      </trkpt>
      <trkpt lat="47.28831" lon="5.55186">
        <ele>191.4</ele>
        <time>2021-09-05T08:07:27Z</time>
      </trkpt>
      <trkpt lat="47.28834" lon="5.55179">
        <ele>191.1</ele>
        <time>2021-09-05T08:07:31Z</time>
      </trkpt>
      <trkpt lat="47.28836" lon="5.55173">
        <ele>190.7</ele>
        <time>2021-09-05T08:07:36Z</time>
      </trkpt>
      <trkpt lat="47.2884" lon="5.55168">
        <ele>190.6</ele>
        <time>2021-09-05T08:07:40Z</time>
      </trkpt>
      <trkpt lat="47.28844" lon="5.55165">
        <ele>190.8</ele>
        <time>2021-09-05T08:07:44Z</time>
      </trkpt>
      <trkpt lat="47.28847" lon="5.5516">
        <ele>191.2</ele>
        <time>2021-09-05T08:07:48Z</time>
      </trkpt>
      <trkpt lat="47.28851" lon="5.55155">
        <ele>191.4</ele>
        <time>2021-09-05T08:07:52Z</time>
      </trkpt>
      <trkpt lat="47.28854" lon="5.5515">
        <ele>191.5</ele>
        <time>2021-09-05T08:07:56Z</time>
      </trkpt>
      <trkpt lat="47.28857" lon="5.55145">
        <ele>191.6</ele>
        <time>2021-09-05T08:08:00Z</time>
      </trkpt>
      <trkpt lat="47.28861" lon="5.55139">
        <ele>191.8</ele>
        <time>2021-09-05T08:08:04Z</time>
      </trkpt>
      <trkpt lat="47.28864" lon="5.55134">
        <ele>192.1</ele>
        <time>2021-09-05T08:08:08Z</time>
      </trkpt>
      <trkpt lat="47.28867" lon="5.55128">
        <ele>192.4</ele>
        <time>2021-09-05T08:08:13Z</time>
      </trkpt>
      <trkpt lat="47.28871" lon="5.55123">
        <ele>192.6</ele>
        <time>2021-09-05T08:08:17Z</time>
      </trkpt>
      <trkpt lat="47.28874" lon="5.55118">
        <ele>192.4</ele>
        <time>2021-09-05T08:08:21Z</time>
      </trkpt>
      <trkpt lat="47.28879" lon="5.55114">
        <ele>191.8</ele>
        <time>2021-09-05T08:08:25Z</time>
      </trkpt>
      <trkpt lat="47.28883" lon="5.55107">
        <ele>191.3</ele>
        <time>2021-09-05T08:08:30Z</time>
      </trkpt>
      <trkpt lat="47.28885" lon="5.55102">
        <ele>191.3</ele>
        <time>2021-09-05T08:08:33Z</time>
      </trkpt>
      <trkpt lat="47.28887" lon="5.55094">
        <ele>191.4</ele>
        <time>2021-09-05T08:08:36Z</time>
      </trkpt>
      <trkpt lat="47.28888" lon="5.55088">
        <ele>191.7</ele>
        <time>2021-09-05T08:08:39Z</time>
      </trkpt>
      <trkpt lat="47.28889" lon="5.55081">
        <ele>191.8</ele>
        <time>2021-09-05T08:08:43Z</time>
      </trkpt>
      <trkpt lat="47.28892" lon="5.55075">
        <ele>191.8</ele>
        <time>2021-09-05T08:08:49Z</time>
      </trkpt>
      <trkpt lat="47.28894" lon="5.55068">
        <ele>192.2</ele>
        <time>2021-09-05T08:08:53Z</time>
      </trkpt>
      <trkpt lat="47.28896" lon="5.55061">
        <ele>192.7</ele>
        <time>2021-09-05T08:08:57Z</time>
      </trkpt>
      <trkpt lat="47.28897" lon="5.55054">
        <ele>192.8</ele>
        <time>2021-09-05T08:09:02Z</time>
      </trkpt>
      <trkpt lat="47.28901" lon="5.55048">
        <ele>192</ele>
        <time>2021-09-05T08:09:08Z</time>
      </trkpt>
      <trkpt lat="47.28902" lon="5.55041">
        <ele>192</ele>
        <time>2021-09-05T08:09:12Z</time>
      </trkpt>
      <trkpt lat="47.28905" lon="5.55034">
        <ele>191.7</ele>
        <time>2021-09-05T08:09:17Z</time>
      </trkpt>
      <trkpt lat="47.2891" lon="5.55029">
        <ele>191.6</ele>
        <time>2021-09-05T08:09:21Z</time>
      </trkpt>
      <trkpt lat="47.28913" lon="5.55023">
        <ele>192</ele>
        <time>2021-09-05T08:09:26Z</time>
      </trkpt>
      <trkpt lat="47.28916" lon="5.55018">
        <ele>191.7</ele>
        <time>2021-09-05T08:09:33Z</time>
      </trkpt>
      <trkpt lat="47.28919" lon="5.55011">
        <ele>190.3</ele>
        <time>2021-09-05T08:11:30Z</time>
      </trkpt>
      <trkpt lat="47.28923" lon="5.55007">
        <ele>190.8</ele>
        <time>2021-09-05T08:11:35Z</time>
      </trkpt>
      <trkpt lat="47.28928" lon="5.55006">
        <ele>190.9</ele>
        <time>2021-09-05T08:11:40Z</time>
      </trkpt>
      <trkpt lat="47.28932" lon="5.55001">
        <ele>190.7</ele>
        <time>2021-09-05T08:11:46Z</time>
      </trkpt>
      <trkpt lat="47.28934" lon="5.54995">
        <ele>191.1</ele>
        <time>2021-09-05T08:11:51Z</time>
      </trkpt>
      <trkpt lat="47.28936" lon="5.54989">
        <ele>191.4</ele>
        <time>2021-09-05T08:11:59Z</time>
      </trkpt>
      <trkpt lat="47.2894" lon="5.54984">
        <ele>191.3</ele>
        <time>2021-09-05T08:12:04Z</time>
      </trkpt>
      <trkpt lat="47.28943" lon="5.54979">
        <ele>191.3</ele>
        <time>2021-09-05T08:12:09Z</time>
      </trkpt>
      <trkpt lat="47.28946" lon="5.54973">
        <ele>191.5</ele>
        <time>2021-09-05T08:12:15Z</time>
      </trkpt>
      <trkpt lat="47.28951" lon="5.54971">
        <ele>192.2</ele>
        <time>2021-09-05T08:12:53Z</time>
      </trkpt>
      <trkpt lat="47.28957" lon="5.54968">
        <ele>192.5</ele>
        <time>2021-09-05T08:13:21Z</time>
      </trkpt>
      <trkpt lat="47.28962" lon="5.54967">
        <ele>192.4</ele>
        <time>2021-09-05T08:13:32Z</time>
      </trkpt>
      <trkpt lat="47.28959" lon="5.54961">
        <ele>192.3</ele>
        <time>2021-09-05T08:13:41Z</time>
      </trkpt>
      <trkpt lat="47.28958" lon="5.54954">
        <ele>193.8</ele>
        <time>2021-09-05T08:14:04Z</time>
      </trkpt>
      <trkpt lat="47.28959" lon="5.54947">
        <ele>194.3</ele>
        <time>2021-09-05T08:14:08Z</time>
      </trkpt>
      <trkpt lat="47.28959" lon="5.54941">
        <ele>194.9</ele>
        <time>2021-09-05T08:14:12Z</time>
      </trkpt>
      <trkpt lat="47.28959" lon="5.54933">
        <ele>195.6</ele>
        <time>2021-09-05T08:14:16Z</time>
      </trkpt>
      <trkpt lat="47.28959" lon="5.54926">
        <ele>196</ele>
        <time>2021-09-05T08:14:21Z</time>
      </trkpt>
      <trkpt lat="47.28957" lon="5.54919">
        <ele>196.2</ele>
        <time>2021-09-05T08:14:26Z</time>
      </trkpt>
      <trkpt lat="47.28955" lon="5.54913">
        <ele>196.2</ele>
        <time>2021-09-05T08:14:31Z</time>
      </trkpt>
      <trkpt lat="47.28954" lon="5.54906">
        <ele>196.2</ele>
        <time>2021-09-05T08:14:36Z</time>
      </trkpt>
      <trkpt lat="47.28956" lon="5.54898">
        <ele>196.1</ele>
        <time>2021-09-05T08:14:40Z</time>
      </trkpt>
      <trkpt lat="47.28956" lon="5.54891">
        <ele>195.8</ele>
        <time>2021-09-05T08:14:44Z</time>
      </trkpt>
      <trkpt lat="47.28957" lon="5.54885">
        <ele>195.1</ele>
        <time>2021-09-05T08:14:50Z</time>
      </trkpt>
      <trkpt lat="47.28958" lon="5.54878">
        <ele>193.6</ele>
        <time>2021-09-05T08:14:57Z</time>
      </trkpt>
      <trkpt lat="47.28959" lon="5.54871">
        <ele>192.4</ele>
        <time>2021-09-05T08:15:05Z</time>
      </trkpt>
      <trkpt lat="47.2896" lon="5.54864">
        <ele>191.7</ele>
        <time>2021-09-05T08:15:12Z</time>
      </trkpt>
      <trkpt lat="47.28961" lon="5.54857">
        <ele>191.6</ele>
        <time>2021-09-05T08:15:17Z</time>
      </trkpt>
      <trkpt lat="47.28965" lon="5.54853">
        <ele>191.5</ele>
        <time>2021-09-05T08:15:21Z</time>
      </trkpt>
      <trkpt lat="47.28965" lon="5.54846">
        <ele>191.6</ele>
        <time>2021-09-05T08:15:29Z</time>
      </trkpt>
      <trkpt lat="47.28965" lon="5.54838">
        <ele>191.1</ele>
        <time>2021-09-05T08:15:34Z</time>
      </trkpt>
      <trkpt lat="47.28963" lon="5.54832">
        <ele>190.3</ele>
        <time>2021-09-05T08:15:39Z</time>
      </trkpt>
      <trkpt lat="47.2896" lon="5.54826">
        <ele>188.8</ele>
        <time>2021-09-05T08:15:51Z</time>
      </trkpt>
      <trkpt lat="47.28957" lon="5.54821">
        <ele>188.8</ele>
        <time>2021-09-05T08:15:57Z</time>
      </trkpt>
      <trkpt lat="47.28952" lon="5.54818">
        <ele>189.4</ele>
        <time>2021-09-05T08:16:10Z</time>
      </trkpt>
      <trkpt lat="47.28948" lon="5.54814">
        <ele>189.4</ele>
        <time>2021-09-05T08:16:16Z</time>
      </trkpt>
      <trkpt lat="47.28944" lon="5.54811">
        <ele>189.1</ele>
        <time>2021-09-05T08:16:21Z</time>
      </trkpt>
      <trkpt lat="47.2894" lon="5.54808">
        <ele>188.8</ele>
        <time>2021-09-05T08:16:25Z</time>
      </trkpt>
      <trkpt lat="47.28936" lon="5.54804">
        <ele>188.8</ele>
        <time>2021-09-05T08:16:30Z</time>
      </trkpt>
      <trkpt lat="47.28932" lon="5.548">
        <ele>188.8</ele>
        <time>2021-09-05T08:16:35Z</time>
      </trkpt>
      <trkpt lat="47.28927" lon="5.54796">
        <ele>188.6</ele>
        <time>2021-09-05T08:16:40Z</time>
      </trkpt>
      <trkpt lat="47.28923" lon="5.54792">
        <ele>188.5</ele>
        <time>2021-09-05T08:16:44Z</time>
      </trkpt>
      <trkpt lat="47.28919" lon="5.54787">
        <ele>188.4</ele>
        <time>2021-09-05T08:16:48Z</time>
      </trkpt>
      <trkpt lat="47.28915" lon="5.54783">
        <ele>188.4</ele>
        <time>2021-09-05T08:16:52Z</time>
      </trkpt>
      <trkpt lat="47.2891" lon="5.54781">
        <ele>188.3</ele>
        <time>2021-09-05T08:16:56Z</time>
      </trkpt>
      <trkpt lat="47.28906" lon="5.54777">
        <ele>188.3</ele>
        <time>2021-09-05T08:17:00Z</time>
      </trkpt>
      <trkpt lat="47.28902" lon="5.54774">
        <ele>188.5</ele>
        <time>2021-09-05T08:17:05Z</time>
      </trkpt>
      <trkpt lat="47.28898" lon="5.5477">
        <ele>188.8</ele>
        <time>2021-09-05T08:17:10Z</time>
      </trkpt>
      <trkpt lat="47.28893" lon="5.54768">
        <ele>189.2</ele>
        <time>2021-09-05T08:17:15Z</time>
      </trkpt>
      <trkpt lat="47.28888" lon="5.54765">
        <ele>189.5</ele>
        <time>2021-09-05T08:17:20Z</time>
      </trkpt>
      <trkpt lat="47.28885" lon="5.54759">
        <ele>189.6</ele>
        <time>2021-09-05T08:17:24Z</time>
      </trkpt>
      <trkpt lat="47.28882" lon="5.54754">
        <ele>189.8</ele>
        <time>2021-09-05T08:17:28Z</time>
      </trkpt>
      <trkpt lat="47.28878" lon="5.54751">
        <ele>189.7</ele>
        <time>2021-09-05T08:17:32Z</time>
      </trkpt>
      <trkpt lat="47.28874" lon="5.54747">
        <ele>189.6</ele>
        <time>2021-09-05T08:17:36Z</time>
      </trkpt>
      <trkpt lat="47.28869" lon="5.54743">
        <ele>189.4</ele>
        <time>2021-09-05T08:17:42Z</time>
      </trkpt>
      <trkpt lat="47.28864" lon="5.54739">
        <ele>189.4</ele>
        <time>2021-09-05T08:17:47Z</time>
      </trkpt>
      <trkpt lat="47.28859" lon="5.54737">
        <ele>189.5</ele>
        <time>2021-09-05T08:17:51Z</time>
      </trkpt>
      <trkpt lat="47.28854" lon="5.54734">
        <ele>189.1</ele>
        <time>2021-09-05T08:17:55Z</time>
      </trkpt>
      <trkpt lat="47.2885" lon="5.5473">
        <ele>188.8</ele>
        <time>2021-09-05T08:18:00Z</time>
      </trkpt>
      <trkpt lat="47.28845" lon="5.54729">
        <ele>188.7</ele>
        <time>2021-09-05T08:18:04Z</time>
      </trkpt>
      <trkpt lat="47.28841" lon="5.5473">
        <ele>188.7</ele>
        <time>2021-09-05T08:18:07Z</time>
      </trkpt>
      <trkpt lat="47.28835" lon="5.54729">
        <ele>188.6</ele>
        <time>2021-09-05T08:18:11Z</time>
      </trkpt>
      <trkpt lat="47.28831" lon="5.54726">
        <ele>188.2</ele>
        <time>2021-09-05T08:18:16Z</time>
      </trkpt>
      <trkpt lat="47.28826" lon="5.54725">
        <ele>188.3</ele>
        <time>2021-09-05T08:18:21Z</time>
      </trkpt>
      <trkpt lat="47.28822" lon="5.54722">
        <ele>188.6</ele>
        <time>2021-09-05T08:18:31Z</time>
      </trkpt>
      <trkpt lat="47.28817" lon="5.54719">
        <ele>188.6</ele>
        <time>2021-09-05T08:18:35Z</time>
      </trkpt>
      <trkpt lat="47.28813" lon="5.54716">
        <ele>188.5</ele>
        <time>2021-09-05T08:18:38Z</time>
      </trkpt>
      <trkpt lat="47.28808" lon="5.54711">
        <ele>188.4</ele>
        <time>2021-09-05T08:18:41Z</time>
      </trkpt>
      <trkpt lat="47.28805" lon="5.54705">
        <ele>188.4</ele>
        <time>2021-09-05T08:18:44Z</time>
      </trkpt>
      <trkpt lat="47.28802" lon="5.547">
        <ele>188.7</ele>
        <time>2021-09-05T08:18:48Z</time>
      </trkpt>
      <trkpt lat="47.28799" lon="5.54694">
        <ele>189</ele>
        <time>2021-09-05T08:18:52Z</time>
      </trkpt>
      <trkpt lat="47.28798" lon="5.54686">
        <ele>188.8</ele>
        <time>2021-09-05T08:18:58Z</time>
      </trkpt>
      <trkpt lat="47.28797" lon="5.5468">
        <ele>188.4</ele>
        <time>2021-09-05T08:19:02Z</time>
      </trkpt>
      <trkpt lat="47.28795" lon="5.54672">
        <ele>187.9</ele>
        <time>2021-09-05T08:19:06Z</time>
      </trkpt>
      <trkpt lat="47.28794" lon="5.54665">
        <ele>187.3</ele>
        <time>2021-09-05T08:19:10Z</time>
      </trkpt>
      <trkpt lat="47.28794" lon="5.54657">
        <ele>187</ele>
        <time>2021-09-05T08:19:14Z</time>
      </trkpt>
      <trkpt lat="47.28794" lon="5.5465">
        <ele>187</ele>
        <time>2021-09-05T08:19:18Z</time>
      </trkpt>
      <trkpt lat="47.28793" lon="5.54643">
        <ele>187.2</ele>
        <time>2021-09-05T08:19:22Z</time>
      </trkpt>
      <trkpt lat="47.28793" lon="5.54636">
        <ele>187</ele>
        <time>2021-09-05T08:19:27Z</time>
      </trkpt>
      <trkpt lat="47.28792" lon="5.54628">
        <ele>187.1</ele>
        <time>2021-09-05T08:19:31Z</time>
      </trkpt>
      <trkpt lat="47.28792" lon="5.54621">
        <ele>187.5</ele>
        <time>2021-09-05T08:19:35Z</time>
      </trkpt>
      <trkpt lat="47.28791" lon="5.54614">
        <ele>188</ele>
        <time>2021-09-05T08:19:39Z</time>
      </trkpt>
      <trkpt lat="47.28792" lon="5.54607">
        <ele>188.7</ele>
        <time>2021-09-05T08:19:47Z</time>
      </trkpt>
      <trkpt lat="47.28793" lon="5.546">
        <ele>189.2</ele>
        <time>2021-09-05T08:19:54Z</time>
      </trkpt>
      <trkpt lat="47.28793" lon="5.54593">
        <ele>189.9</ele>
        <time>2021-09-05T08:19:58Z</time>
      </trkpt>
      <trkpt lat="47.28793" lon="5.54586">
        <ele>191</ele>
        <time>2021-09-05T08:20:02Z</time>
      </trkpt>
      <trkpt lat="47.28796" lon="5.5458">
        <ele>192.2</ele>
        <time>2021-09-05T08:20:08Z</time>
      </trkpt>
      <trkpt lat="47.28798" lon="5.54573">
        <ele>192.9</ele>
        <time>2021-09-05T08:20:13Z</time>
      </trkpt>
      <trkpt lat="47.288" lon="5.54566">
        <ele>193.6</ele>
        <time>2021-09-05T08:20:17Z</time>
      </trkpt>
      <trkpt lat="47.28801" lon="5.54559">
        <ele>194.6</ele>
        <time>2021-09-05T08:20:22Z</time>
      </trkpt>
      <trkpt lat="47.28805" lon="5.54554">
        <ele>195.4</ele>
        <time>2021-09-05T08:20:28Z</time>
      </trkpt>
      <trkpt lat="47.28808" lon="5.54549">
        <ele>195.8</ele>
        <time>2021-09-05T08:20:33Z</time>
      </trkpt>
      <trkpt lat="47.2881" lon="5.54543">
        <ele>195.9</ele>
        <time>2021-09-05T08:20:37Z</time>
      </trkpt>
      <trkpt lat="47.28814" lon="5.54538">
        <ele>195.5</ele>
        <time>2021-09-05T08:20:42Z</time>
      </trkpt>
      <trkpt lat="47.28817" lon="5.54532">
        <ele>195</ele>
        <time>2021-09-05T08:20:46Z</time>
      </trkpt>
      <trkpt lat="47.28819" lon="5.54526">
        <ele>194.6</ele>
        <time>2021-09-05T08:20:49Z</time>
      </trkpt>
      <trkpt lat="47.28822" lon="5.5452">
        <ele>194.1</ele>
        <time>2021-09-05T08:20:52Z</time>
      </trkpt>
      <trkpt lat="47.28826" lon="5.54515">
        <ele>192.9</ele>
        <time>2021-09-05T08:20:56Z</time>
      </trkpt>
      <trkpt lat="47.2883" lon="5.54509">
        <ele>191.6</ele>
        <time>2021-09-05T08:21:00Z</time>
      </trkpt>
      <trkpt lat="47.28834" lon="5.54504">
        <ele>190.4</ele>
        <time>2021-09-05T08:21:05Z</time>
      </trkpt>
      <trkpt lat="47.28838" lon="5.545">
        <ele>189.1</ele>
        <time>2021-09-05T08:21:12Z</time>
      </trkpt>
      <trkpt lat="47.28842" lon="5.54496">
        <ele>188.8</ele>
        <time>2021-09-05T08:21:15Z</time>
      </trkpt>
      <trkpt lat="47.28847" lon="5.54492">
        <ele>188.5</ele>
        <time>2021-09-05T08:21:19Z</time>
      </trkpt>
      <trkpt lat="47.28852" lon="5.54489">
        <ele>187.9</ele>
        <time>2021-09-05T08:21:23Z</time>
      </trkpt>
      <trkpt lat="47.28857" lon="5.54486">
        <ele>187.5</ele>
        <time>2021-09-05T08:21:27Z</time>
      </trkpt>
      <trkpt lat="47.28862" lon="5.54482">
        <ele>187.1</ele>
        <time>2021-09-05T08:21:31Z</time>
      </trkpt>
      <trkpt lat="47.28865" lon="5.54476">
        <ele>187.3</ele>
        <time>2021-09-05T08:21:36Z</time>
      </trkpt>
      <trkpt lat="47.28869" lon="5.54471">
        <ele>187.8</ele>
        <time>2021-09-05T08:21:40Z</time>
      </trkpt>
      <trkpt lat="47.28876" lon="5.54471">
        <ele>188.4</ele>
        <time>2021-09-05T08:21:48Z</time>
      </trkpt>
      <trkpt lat="47.28881" lon="5.54472">
        <ele>189.2</ele>
        <time>2021-09-05T08:21:51Z</time>
      </trkpt>
      <trkpt lat="47.28886" lon="5.54472">
        <ele>190.6</ele>
        <time>2021-09-05T08:21:58Z</time>
      </trkpt>
      <trkpt lat="47.28891" lon="5.54471">
        <ele>190.7</ele>
        <time>2021-09-05T08:22:03Z</time>
      </trkpt>
      <trkpt lat="47.28896" lon="5.54468">
        <ele>191</ele>
        <time>2021-09-05T08:22:07Z</time>
      </trkpt>
      <trkpt lat="47.289" lon="5.54463">
        <ele>190.8</ele>
        <time>2021-09-05T08:22:11Z</time>
      </trkpt>
      <trkpt lat="47.28899" lon="5.54456">
        <ele>190.2</ele>
        <time>2021-09-05T08:22:16Z</time>
      </trkpt>
      <trkpt lat="47.28905" lon="5.54456">
        <ele>188.6</ele>
        <time>2021-09-05T08:22:22Z</time>
      </trkpt>
      <trkpt lat="47.2891" lon="5.54455">
        <ele>187.5</ele>
        <time>2021-09-05T08:22:25Z</time>
      </trkpt>
      <trkpt lat="47.28915" lon="5.54452">
        <ele>186.5</ele>
        <time>2021-09-05T08:22:29Z</time>
      </trkpt>
      <trkpt lat="47.2892" lon="5.5445">
        <ele>186.2</ele>
        <time>2021-09-05T08:22:33Z</time>
      </trkpt>
      <trkpt lat="47.28924" lon="5.54447">
        <ele>186.7</ele>
        <time>2021-09-05T08:22:38Z</time>
      </trkpt>
      <trkpt lat="47.28927" lon="5.54441">
        <ele>186.9</ele>
        <time>2021-09-05T08:22:45Z</time>
      </trkpt>
      <trkpt lat="47.28933" lon="5.54441">
        <ele>186</ele>
        <time>2021-09-05T08:22:49Z</time>
      </trkpt>
      <trkpt lat="47.28939" lon="5.5444">
        <ele>185.2</ele>
        <time>2021-09-05T08:22:52Z</time>
      </trkpt>
      <trkpt lat="47.28944" lon="5.54438">
        <ele>183.4</ele>
        <time>2021-09-05T08:22:57Z</time>
      </trkpt>
      <trkpt lat="47.2895" lon="5.54438">
        <ele>181.7</ele>
        <time>2021-09-05T08:23:01Z</time>
      </trkpt>
      <trkpt lat="47.28954" lon="5.54438">
        <ele>180.3</ele>
        <time>2021-09-05T08:23:05Z</time>
      </trkpt>
      <trkpt lat="47.28959" lon="5.54438">
        <ele>178.9</ele>
        <time>2021-09-05T08:23:09Z</time>
      </trkpt>
      <trkpt lat="47.28964" lon="5.54438">
        <ele>177.8</ele>
        <time>2021-09-05T08:23:14Z</time>
      </trkpt>
      <trkpt lat="47.28969" lon="5.54436">
        <ele>177</ele>
        <time>2021-09-05T08:23:21Z</time>
      </trkpt>
      <trkpt lat="47.28974" lon="5.54436">
        <ele>177.6</ele>
        <time>2021-09-05T08:23:24Z</time>
      </trkpt>
      <trkpt lat="47.28978" lon="5.54435">
        <ele>178.5</ele>
        <time>2021-09-05T08:23:29Z</time>
      </trkpt>
      <trkpt lat="47.28985" lon="5.54435">
        <ele>179.2</ele>
        <time>2021-09-05T08:23:33Z</time>
      </trkpt>
      <trkpt lat="47.2899" lon="5.54435">
        <ele>179.8</ele>
        <time>2021-09-05T08:23:36Z</time>
      </trkpt>
      <trkpt lat="47.28996" lon="5.54436">
        <ele>180.4</ele>
        <time>2021-09-05T08:23:39Z</time>
      </trkpt>
      <trkpt lat="47.29001" lon="5.54436">
        <ele>181</ele>
        <time>2021-09-05T08:23:42Z</time>
      </trkpt>
      <trkpt lat="47.29007" lon="5.54439">
        <ele>181.6</ele>
        <time>2021-09-05T08:23:46Z</time>
      </trkpt>
      <trkpt lat="47.29011" lon="5.54441">
        <ele>182.5</ele>
        <time>2021-09-05T08:23:51Z</time>
      </trkpt>
      <trkpt lat="47.29012" lon="5.54449">
        <ele>183.2</ele>
        <time>2021-09-05T08:23:59Z</time>
      </trkpt>
      <trkpt lat="47.29016" lon="5.54454">
        <ele>183.3</ele>
        <time>2021-09-05T08:24:03Z</time>
      </trkpt>
      <trkpt lat="47.2902" lon="5.54458">
        <ele>183.4</ele>
        <time>2021-09-05T08:24:07Z</time>
      </trkpt>
      <trkpt lat="47.29022" lon="5.54464">
        <ele>183.5</ele>
        <time>2021-09-05T08:24:11Z</time>
      </trkpt>
      <trkpt lat="47.29026" lon="5.54469">
        <ele>183.7</ele>
        <time>2021-09-05T08:24:15Z</time>
      </trkpt>
      <trkpt lat="47.29029" lon="5.54474">
        <ele>183.9</ele>
        <time>2021-09-05T08:24:20Z</time>
      </trkpt>
      <trkpt lat="47.2903" lon="5.54481">
        <ele>183.7</ele>
        <time>2021-09-05T08:24:25Z</time>
      </trkpt>
      <trkpt lat="47.29033" lon="5.54489">
        <ele>183.7</ele>
        <time>2021-09-05T08:24:30Z</time>
      </trkpt>
      <trkpt lat="47.29036" lon="5.54495">
        <ele>183.6</ele>
        <time>2021-09-05T08:24:34Z</time>
      </trkpt>
      <trkpt lat="47.29038" lon="5.54503">
        <ele>183.3</ele>
        <time>2021-09-05T08:24:38Z</time>
      </trkpt>
      <trkpt lat="47.29038" lon="5.5451">
        <ele>182.7</ele>
        <time>2021-09-05T08:24:43Z</time>
      </trkpt>
      <trkpt lat="47.29039" lon="5.54517">
        <ele>182.8</ele>
        <time>2021-09-05T08:24:48Z</time>
      </trkpt>
      <trkpt lat="47.29041" lon="5.54523">
        <ele>183.1</ele>
        <time>2021-09-05T08:24:52Z</time>
      </trkpt>
      <trkpt lat="47.29042" lon="5.54531">
        <ele>183.7</ele>
        <time>2021-09-05T08:24:57Z</time>
      </trkpt>
      <trkpt lat="47.29043" lon="5.54537">
        <ele>184.4</ele>
        <time>2021-09-05T08:25:01Z</time>
      </trkpt>
      <trkpt lat="47.29045" lon="5.54544">
        <ele>185.4</ele>
        <time>2021-09-05T08:25:06Z</time>
      </trkpt>
      <trkpt lat="47.29049" lon="5.5455">
        <ele>186.3</ele>
        <time>2021-09-05T08:25:10Z</time>
      </trkpt>
      <trkpt lat="47.29051" lon="5.54556">
        <ele>186.8</ele>
        <time>2021-09-05T08:25:14Z</time>
      </trkpt>
      <trkpt lat="47.2905" lon="5.54564">
        <ele>187</ele>
        <time>2021-09-05T08:25:19Z</time>
      </trkpt>
      <trkpt lat="47.29052" lon="5.54571">
        <ele>187</ele>
        <time>2021-09-05T08:25:25Z</time>
      </trkpt>
      <trkpt lat="47.29055" lon="5.54576">
        <ele>186.7</ele>
        <time>2021-09-05T08:25:29Z</time>
      </trkpt>
      <trkpt lat="47.29059" lon="5.5458">
        <ele>186.5</ele>
        <time>2021-09-05T08:25:32Z</time>
      </trkpt>
      <trkpt lat="47.29063" lon="5.54585">
        <ele>186.2</ele>
        <time>2021-09-05T08:25:36Z</time>
      </trkpt>
      <trkpt lat="47.29067" lon="5.54589">
        <ele>186</ele>
        <time>2021-09-05T08:25:40Z</time>
      </trkpt>
      <trkpt lat="47.29072" lon="5.54595">
        <ele>186</ele>
        <time>2021-09-05T08:25:44Z</time>
      </trkpt>
      <trkpt lat="47.29076" lon="5.546">
        <ele>186</ele>
        <time>2021-09-05T08:25:48Z</time>
      </trkpt>
      <trkpt lat="47.29078" lon="5.54606">
        <ele>186.1</ele>
        <time>2021-09-05T08:25:51Z</time>
      </trkpt>
      <trkpt lat="47.2908" lon="5.54613">
        <ele>185.9</ele>
        <time>2021-09-05T08:25:55Z</time>
      </trkpt>
      <trkpt lat="47.29083" lon="5.54621">
        <ele>185.8</ele>
        <time>2021-09-05T08:26:00Z</time>
      </trkpt>
      <trkpt lat="47.29085" lon="5.54627">
        <ele>185.4</ele>
        <time>2021-09-05T08:26:06Z</time>
      </trkpt>
      <trkpt lat="47.2909" lon="5.5463">
        <ele>185.2</ele>
        <time>2021-09-05T08:26:11Z</time>
      </trkpt>
      <trkpt lat="47.29096" lon="5.54632">
        <ele>184.8</ele>
        <time>2021-09-05T08:26:15Z</time>
      </trkpt>
      <trkpt lat="47.29101" lon="5.54633">
        <ele>184.5</ele>
        <time>2021-09-05T08:26:19Z</time>
      </trkpt>
      <trkpt lat="47.29106" lon="5.54633">
        <ele>184.2</ele>
        <time>2021-09-05T08:26:23Z</time>
      </trkpt>
      <trkpt lat="47.29112" lon="5.54633">
        <ele>184.2</ele>
        <time>2021-09-05T08:26:27Z</time>
      </trkpt>
      <trkpt lat="47.29116" lon="5.54634">
        <ele>183.5</ele>
        <time>2021-09-05T08:26:34Z</time>
      </trkpt>
      <trkpt lat="47.29121" lon="5.54638">
        <ele>181.9</ele>
        <time>2021-09-05T08:26:42Z</time>
      </trkpt>
      <trkpt lat="47.29127" lon="5.5464">
        <ele>181.2</ele>
        <time>2021-09-05T08:26:48Z</time>
      </trkpt>
      <trkpt lat="47.29132" lon="5.5464">
        <ele>181.3</ele>
        <time>2021-09-05T08:26:52Z</time>
      </trkpt>
      <trkpt lat="47.29137" lon="5.54641">
        <ele>181.5</ele>
        <time>2021-09-05T08:26:56Z</time>
      </trkpt>
      <trkpt lat="47.29141" lon="5.54641">
        <ele>181.8</ele>
        <time>2021-09-05T08:26:59Z</time>
      </trkpt>
      <trkpt lat="47.29147" lon="5.54642">
        <ele>182.1</ele>
        <time>2021-09-05T08:27:02Z</time>
      </trkpt>
      <trkpt lat="47.29151" lon="5.54642">
        <ele>182.3</ele>
        <time>2021-09-05T08:27:07Z</time>
      </trkpt>
      <trkpt lat="47.29156" lon="5.54642">
        <ele>182.9</ele>
        <time>2021-09-05T08:27:12Z</time>
      </trkpt>
      <trkpt lat="47.29161" lon="5.5464">
        <ele>184.1</ele>
        <time>2021-09-05T08:27:22Z</time>
      </trkpt>
      <trkpt lat="47.29157" lon="5.54645">
        <ele>186.9</ele>
        <time>2021-09-05T08:28:26Z</time>
      </trkpt>
      <trkpt lat="47.29155" lon="5.54651">
        <ele>190.5</ele>
        <time>2021-09-05T08:29:35Z</time>
      </trkpt>
      <trkpt lat="47.29154" lon="5.54657">
        <ele>191.8</ele>
        <time>2021-09-05T08:30:27Z</time>
      </trkpt>
      <trkpt lat="47.29153" lon="5.54664">
        <ele>189.1</ele>
        <time>2021-09-05T08:30:38Z</time>
      </trkpt>
      <trkpt lat="47.2915" lon="5.5467">
        <ele>188.4</ele>
        <time>2021-09-05T08:30:43Z</time>
      </trkpt>
      <trkpt lat="47.29147" lon="5.54678">
        <ele>188.1</ele>
        <time>2021-09-05T08:30:47Z</time>
      </trkpt>
      <trkpt lat="47.29145" lon="5.54685">
        <ele>187.5</ele>
        <time>2021-09-05T08:30:51Z</time>
      </trkpt>
      <trkpt lat="47.29144" lon="5.54692">
        <ele>186.8</ele>
        <time>2021-09-05T08:30:55Z</time>
      </trkpt>
      <trkpt lat="47.29142" lon="5.54698">
        <ele>185.9</ele>
        <time>2021-09-05T08:31:01Z</time>
      </trkpt>
      <trkpt lat="47.29142" lon="5.54706">
        <ele>185.6</ele>
        <time>2021-09-05T08:31:06Z</time>
      </trkpt>
      <trkpt lat="47.29139" lon="5.54712">
        <ele>185.7</ele>
        <time>2021-09-05T08:31:11Z</time>
      </trkpt>
      <trkpt lat="47.29137" lon="5.5472">
        <ele>185.2</ele>
        <time>2021-09-05T08:31:16Z</time>
      </trkpt>
      <trkpt lat="47.29135" lon="5.54727">
        <ele>184.9</ele>
        <time>2021-09-05T08:31:20Z</time>
      </trkpt>
      <trkpt lat="47.29132" lon="5.54734">
        <ele>185.1</ele>
        <time>2021-09-05T08:31:25Z</time>
      </trkpt>
      <trkpt lat="47.2913" lon="5.5474">
        <ele>185.6</ele>
        <time>2021-09-05T08:31:29Z</time>
      </trkpt>
      <trkpt lat="47.29129" lon="5.54748">
        <ele>186.2</ele>
        <time>2021-09-05T08:31:33Z</time>
      </trkpt>
      <trkpt lat="47.29129" lon="5.54755">
        <ele>186.7</ele>
        <time>2021-09-05T08:31:39Z</time>
      </trkpt>
      <trkpt lat="47.29125" lon="5.5476">
        <ele>186.9</ele>
        <time>2021-09-05T08:31:44Z</time>
      </trkpt>
      <trkpt lat="47.29123" lon="5.54766">
        <ele>186.7</ele>
        <time>2021-09-05T08:31:48Z</time>
      </trkpt>
      <trkpt lat="47.29118" lon="5.54769">
        <ele>186.1</ele>
        <time>2021-09-05T08:31:52Z</time>
      </trkpt>
      <trkpt lat="47.29114" lon="5.54772">
        <ele>185</ele>
        <time>2021-09-05T08:31:56Z</time>
      </trkpt>
      <trkpt lat="47.29113" lon="5.54779">
        <ele>183.9</ele>
        <time>2021-09-05T08:32:01Z</time>
      </trkpt>
      <trkpt lat="47.29112" lon="5.54786">
        <ele>183.2</ele>
        <time>2021-09-05T08:32:04Z</time>
      </trkpt>
      <trkpt lat="47.29111" lon="5.54794">
        <ele>182.7</ele>
        <time>2021-09-05T08:32:08Z</time>
      </trkpt>
      <trkpt lat="47.29108" lon="5.548">
        <ele>182.2</ele>
        <time>2021-09-05T08:32:12Z</time>
      </trkpt>
      <trkpt lat="47.29105" lon="5.54806">
        <ele>181.6</ele>
        <time>2021-09-05T08:32:16Z</time>
      </trkpt>
      <trkpt lat="47.29104" lon="5.54813">
        <ele>180.8</ele>
        <time>2021-09-05T08:32:20Z</time>
      </trkpt>
      <trkpt lat="47.29101" lon="5.5482">
        <ele>180.5</ele>
        <time>2021-09-05T08:32:24Z</time>
      </trkpt>
      <trkpt lat="47.291" lon="5.54827">
        <ele>180.1</ele>
        <time>2021-09-05T08:32:32Z</time>
      </trkpt>
      <trkpt lat="47.291" lon="5.54834">
        <ele>181</ele>
        <time>2021-09-05T08:32:38Z</time>
      </trkpt>
      <trkpt lat="47.29103" lon="5.5484">
        <ele>182</ele>
        <time>2021-09-05T08:32:43Z</time>
      </trkpt>
      <trkpt lat="47.29106" lon="5.54847">
        <ele>183.6</ele>
        <time>2021-09-05T08:32:49Z</time>
      </trkpt>
      <trkpt lat="47.2911" lon="5.54852">
        <ele>185.1</ele>
        <time>2021-09-05T08:32:54Z</time>
      </trkpt>
      <trkpt lat="47.29113" lon="5.54857">
        <ele>186.9</ele>
        <time>2021-09-05T08:33:00Z</time>
      </trkpt>
      <trkpt lat="47.29118" lon="5.54855">
        <ele>187.3</ele>
        <time>2021-09-05T08:33:12Z</time>
      </trkpt>
      <trkpt lat="47.29121" lon="5.5486">
        <ele>187.5</ele>
        <time>2021-09-05T08:33:25Z</time>
      </trkpt>
      <trkpt lat="47.29125" lon="5.54857">
        <ele>188.5</ele>
        <time>2021-09-05T08:33:30Z</time>
      </trkpt>
      <trkpt lat="47.29129" lon="5.54851">
        <ele>189</ele>
        <time>2021-09-05T08:33:34Z</time>
      </trkpt>
      <trkpt lat="47.2913" lon="5.54844">
        <ele>189.4</ele>
        <time>2021-09-05T08:33:39Z</time>
      </trkpt>
      <trkpt lat="47.29131" lon="5.54836">
        <ele>188.9</ele>
        <time>2021-09-05T08:33:45Z</time>
      </trkpt>
      <trkpt lat="47.29134" lon="5.54831">
        <ele>188.2</ele>
        <time>2021-09-05T08:33:51Z</time>
      </trkpt>
      <trkpt lat="47.29138" lon="5.54826">
        <ele>188.7</ele>
        <time>2021-09-05T08:33:57Z</time>
      </trkpt>
      <trkpt lat="47.29141" lon="5.54821">
        <ele>189.3</ele>
        <time>2021-09-05T08:34:01Z</time>
      </trkpt>
      <trkpt lat="47.29143" lon="5.54815">
        <ele>189.4</ele>
        <time>2021-09-05T08:34:05Z</time>
      </trkpt>
      <trkpt lat="47.29143" lon="5.54808">
        <ele>189</ele>
        <time>2021-09-05T08:34:09Z</time>
      </trkpt>
      <trkpt lat="47.29143" lon="5.54801">
        <ele>188.5</ele>
        <time>2021-09-05T08:34:13Z</time>
      </trkpt>
      <trkpt lat="47.29146" lon="5.54794">
        <ele>188.2</ele>
        <time>2021-09-05T08:34:17Z</time>
      </trkpt>
      <trkpt lat="47.29149" lon="5.54788">
        <ele>188.1</ele>
        <time>2021-09-05T08:34:21Z</time>
      </trkpt>
      <trkpt lat="47.29153" lon="5.54784">
        <ele>188.1</ele>
        <time>2021-09-05T08:34:25Z</time>
      </trkpt>
      <trkpt lat="47.29156" lon="5.54778">
        <ele>188.6</ele>
        <time>2021-09-05T08:34:30Z</time>
      </trkpt>
      <trkpt lat="47.2916" lon="5.54773">
        <ele>189.3</ele>
        <time>2021-09-05T08:34:34Z</time>
      </trkpt>
      <trkpt lat="47.29163" lon="5.54767">
        <ele>189.8</ele>
        <time>2021-09-05T08:34:39Z</time>
      </trkpt>
      <trkpt lat="47.29166" lon="5.54761">
        <ele>189.6</ele>
        <time>2021-09-05T08:34:45Z</time>
      </trkpt>
      <trkpt lat="47.29168" lon="5.54755">
        <ele>188.9</ele>
        <time>2021-09-05T08:34:50Z</time>
      </trkpt>
      <trkpt lat="47.29172" lon="5.54749">
        <ele>188.5</ele>
        <time>2021-09-05T08:34:54Z</time>
      </trkpt>
      <trkpt lat="47.29176" lon="5.54743">
        <ele>188.5</ele>
        <time>2021-09-05T08:34:58Z</time>
      </trkpt>
      <trkpt lat="47.29179" lon="5.54737">
        <ele>188.6</ele>
        <time>2021-09-05T08:35:02Z</time>
      </trkpt>
      <trkpt lat="47.29182" lon="5.54731">
        <ele>188.9</ele>
        <time>2021-09-05T08:35:05Z</time>
      </trkpt>
      <trkpt lat="47.29185" lon="5.54725">
        <ele>189.2</ele>
        <time>2021-09-05T08:35:08Z</time>
      </trkpt>
      <trkpt lat="47.29188" lon="5.54719">
        <ele>189.6</ele>
        <time>2021-09-05T08:35:12Z</time>
      </trkpt>
      <trkpt lat="47.29191" lon="5.54713">
        <ele>189.7</ele>
        <time>2021-09-05T08:35:16Z</time>
      </trkpt>
      <trkpt lat="47.29193" lon="5.54707">
        <ele>189.7</ele>
        <time>2021-09-05T08:35:20Z</time>
      </trkpt>
      <trkpt lat="47.29196" lon="5.54702">
        <ele>189.7</ele>
        <time>2021-09-05T08:35:25Z</time>
      </trkpt>
      <trkpt lat="47.292" lon="5.54698">
        <ele>189.5</ele>
        <time>2021-09-05T08:35:29Z</time>
      </trkpt>
      <trkpt lat="47.29204" lon="5.54691">
        <ele>189.3</ele>
        <time>2021-09-05T08:35:33Z</time>
      </trkpt>
      <trkpt lat="47.29207" lon="5.54685">
        <ele>189.3</ele>
        <time>2021-09-05T08:35:38Z</time>
      </trkpt>
      <trkpt lat="47.29209" lon="5.54679">
        <ele>189.5</ele>
        <time>2021-09-05T08:35:43Z</time>
      </trkpt>
      <trkpt lat="47.29214" lon="5.54673">
        <ele>189.6</ele>
        <time>2021-09-05T08:35:48Z</time>
      </trkpt>
      <trkpt lat="47.29217" lon="5.54667">
        <ele>189.8</ele>
        <time>2021-09-05T08:35:52Z</time>
      </trkpt>
      <trkpt lat="47.29219" lon="5.5466">
        <ele>189.4</ele>
        <time>2021-09-05T08:35:58Z</time>
      </trkpt>
      <trkpt lat="47.29223" lon="5.54655">
        <ele>189.4</ele>
        <time>2021-09-05T08:36:03Z</time>
      </trkpt>
      <trkpt lat="47.29227" lon="5.5465">
        <ele>189.3</ele>
        <time>2021-09-05T08:36:08Z</time>
      </trkpt>
      <trkpt lat="47.29231" lon="5.54644">
        <ele>189.2</ele>
        <time>2021-09-05T08:36:13Z</time>
      </trkpt>
      <trkpt lat="47.29234" lon="5.54639">
        <ele>189</ele>
        <time>2021-09-05T08:36:17Z</time>
      </trkpt>
      <trkpt lat="47.29237" lon="5.54634">
        <ele>188.8</ele>
        <time>2021-09-05T08:36:21Z</time>
      </trkpt>
      <trkpt lat="47.29241" lon="5.54628">
        <ele>188.7</ele>
        <time>2021-09-05T08:36:26Z</time>
      </trkpt>
      <trkpt lat="47.29244" lon="5.54623">
        <ele>188.7</ele>
        <time>2021-09-05T08:36:30Z</time>
      </trkpt>
      <trkpt lat="47.29249" lon="5.54617">
        <ele>188.4</ele>
        <time>2021-09-05T08:36:34Z</time>
      </trkpt>
      <trkpt lat="47.29252" lon="5.54613">
        <ele>188.1</ele>
        <time>2021-09-05T08:36:38Z</time>
      </trkpt>
      <trkpt lat="47.29256" lon="5.54609">
        <ele>187.7</ele>
        <time>2021-09-05T08:36:42Z</time>
      </trkpt>
      <trkpt lat="47.2926" lon="5.54605">
        <ele>187.1</ele>
        <time>2021-09-05T08:36:47Z</time>
      </trkpt>
      <trkpt lat="47.29264" lon="5.54599">
        <ele>185.9</ele>
        <time>2021-09-05T08:36:54Z</time>
      </trkpt>
      <trkpt lat="47.29268" lon="5.54594">
        <ele>185.5</ele>
        <time>2021-09-05T08:36:59Z</time>
      </trkpt>
      <trkpt lat="47.29273" lon="5.5459">
        <ele>185.2</ele>
        <time>2021-09-05T08:37:03Z</time>
      </trkpt>
      <trkpt lat="47.29277" lon="5.54585">
        <ele>184.9</ele>
        <time>2021-09-05T08:37:07Z</time>
      </trkpt>
      <trkpt lat="47.29281" lon="5.54582">
        <ele>184.5</ele>
        <time>2021-09-05T08:37:11Z</time>
      </trkpt>
      <trkpt lat="47.29285" lon="5.54578">
        <ele>184.6</ele>
        <time>2021-09-05T08:37:15Z</time>
      </trkpt>
      <trkpt lat="47.2929" lon="5.54574">
        <ele>185</ele>
        <time>2021-09-05T08:37:19Z</time>
      </trkpt>
      <trkpt lat="47.29294" lon="5.54569">
        <ele>185.5</ele>
        <time>2021-09-05T08:37:23Z</time>
      </trkpt>
      <trkpt lat="47.29297" lon="5.54563">
        <ele>185.9</ele>
        <time>2021-09-05T08:37:26Z</time>
      </trkpt>
      <trkpt lat="47.29299" lon="5.54557">
        <ele>185.4</ele>
        <time>2021-09-05T08:37:31Z</time>
      </trkpt>
      <trkpt lat="47.29303" lon="5.54553">
        <ele>185</ele>
        <time>2021-09-05T08:37:36Z</time>
      </trkpt>
      <trkpt lat="47.29309" lon="5.5455">
        <ele>185.5</ele>
        <time>2021-09-05T08:37:40Z</time>
      </trkpt>
      <trkpt lat="47.29314" lon="5.54549">
        <ele>186.2</ele>
        <time>2021-09-05T08:37:44Z</time>
      </trkpt>
      <trkpt lat="47.29319" lon="5.54547">
        <ele>187</ele>
        <time>2021-09-05T08:37:48Z</time>
      </trkpt>
      <trkpt lat="47.29324" lon="5.54544">
        <ele>187.8</ele>
        <time>2021-09-05T08:37:52Z</time>
      </trkpt>
      <trkpt lat="47.29328" lon="5.5454">
        <ele>188.5</ele>
        <time>2021-09-05T08:37:56Z</time>
      </trkpt>
      <trkpt lat="47.29332" lon="5.54535">
        <ele>188.6</ele>
        <time>2021-09-05T08:38:01Z</time>
      </trkpt>
      <trkpt lat="47.29336" lon="5.5453">
        <ele>188.6</ele>
        <time>2021-09-05T08:38:05Z</time>
      </trkpt>
      <trkpt lat="47.29339" lon="5.54525">
        <ele>188.8</ele>
        <time>2021-09-05T08:38:09Z</time>
      </trkpt>
      <trkpt lat="47.29343" lon="5.5452">
        <ele>188.8</ele>
        <time>2021-09-05T08:38:13Z</time>
      </trkpt>
      <trkpt lat="47.29346" lon="5.54515">
        <ele>188.9</ele>
        <time>2021-09-05T08:38:17Z</time>
      </trkpt>
      <trkpt lat="47.29349" lon="5.54509">
        <ele>189.2</ele>
        <time>2021-09-05T08:38:22Z</time>
      </trkpt>
      <trkpt lat="47.29353" lon="5.54504">
        <ele>189.2</ele>
        <time>2021-09-05T08:38:27Z</time>
      </trkpt>
      <trkpt lat="47.29357" lon="5.54499">
        <ele>189.6</ele>
        <time>2021-09-05T08:38:31Z</time>
      </trkpt>
      <trkpt lat="47.29361" lon="5.54494">
        <ele>189.9</ele>
        <time>2021-09-05T08:38:35Z</time>
      </trkpt>
      <trkpt lat="47.29364" lon="5.54488">
        <ele>190.1</ele>
        <time>2021-09-05T08:38:39Z</time>
      </trkpt>
      <trkpt lat="47.29366" lon="5.54482">
        <ele>190.2</ele>
        <time>2021-09-05T08:38:43Z</time>
      </trkpt>
      <trkpt lat="47.29368" lon="5.54475">
        <ele>190.3</ele>
        <time>2021-09-05T08:38:47Z</time>
      </trkpt>
      <trkpt lat="47.2937" lon="5.54468">
        <ele>190.3</ele>
        <time>2021-09-05T08:38:51Z</time>
      </trkpt>
      <trkpt lat="47.29372" lon="5.54462">
        <ele>190</ele>
        <time>2021-09-05T08:38:56Z</time>
      </trkpt>
      <trkpt lat="47.29377" lon="5.54458">
        <ele>189.8</ele>
        <time>2021-09-05T08:39:00Z</time>
      </trkpt>
      <trkpt lat="47.29381" lon="5.54455">
        <ele>189.1</ele>
        <time>2021-09-05T08:39:04Z</time>
      </trkpt>
      <trkpt lat="47.29386" lon="5.54452">
        <ele>188.5</ele>
        <time>2021-09-05T08:39:08Z</time>
      </trkpt>
      <trkpt lat="47.29391" lon="5.54451">
        <ele>188.4</ele>
        <time>2021-09-05T08:39:12Z</time>
      </trkpt>
      <trkpt lat="47.29396" lon="5.5445">
        <ele>188.4</ele>
        <time>2021-09-05T08:39:16Z</time>
      </trkpt>
      <trkpt lat="47.29401" lon="5.54448">
        <ele>188.5</ele>
        <time>2021-09-05T08:39:20Z</time>
      </trkpt>
      <trkpt lat="47.29406" lon="5.54447">
        <ele>188.7</ele>
        <time>2021-09-05T08:39:23Z</time>
      </trkpt>
      <trkpt lat="47.29411" lon="5.54446">
        <ele>189</ele>
        <time>2021-09-05T08:39:27Z</time>
      </trkpt>
      <trkpt lat="47.29416" lon="5.54443">
        <ele>189.2</ele>
        <time>2021-09-05T08:39:32Z</time>
      </trkpt>
      <trkpt lat="47.29421" lon="5.54439">
        <ele>189.3</ele>
        <time>2021-09-05T08:39:36Z</time>
      </trkpt>
      <trkpt lat="47.29427" lon="5.54437">
        <ele>189.2</ele>
        <time>2021-09-05T08:39:40Z</time>
      </trkpt>
      <trkpt lat="47.29431" lon="5.54435">
        <ele>188.2</ele>
        <time>2021-09-05T08:39:47Z</time>
      </trkpt>
      <trkpt lat="47.29436" lon="5.54432">
        <ele>187.7</ele>
        <time>2021-09-05T08:39:52Z</time>
      </trkpt>
      <trkpt lat="47.29441" lon="5.5443">
        <ele>187.6</ele>
        <time>2021-09-05T08:39:56Z</time>
      </trkpt>
      <trkpt lat="47.29446" lon="5.54426">
        <ele>187.7</ele>
        <time>2021-09-05T08:40:00Z</time>
      </trkpt>
      <trkpt lat="47.29451" lon="5.54423">
        <ele>187.8</ele>
        <time>2021-09-05T08:40:04Z</time>
      </trkpt>
      <trkpt lat="47.29456" lon="5.54421">
        <ele>187.2</ele>
        <time>2021-09-05T08:40:09Z</time>
      </trkpt>
      <trkpt lat="47.29461" lon="5.54419">
        <ele>186.5</ele>
        <time>2021-09-05T08:40:13Z</time>
      </trkpt>
      <trkpt lat="47.29467" lon="5.54418">
        <ele>186.4</ele>
        <time>2021-09-05T08:40:17Z</time>
      </trkpt>
      <trkpt lat="47.29472" lon="5.54415">
        <ele>186.6</ele>
        <time>2021-09-05T08:40:21Z</time>
      </trkpt>
      <trkpt lat="47.29475" lon="5.54411">
        <ele>187.4</ele>
        <time>2021-09-05T08:40:28Z</time>
      </trkpt>
      <trkpt lat="47.2948" lon="5.5441">
        <ele>186.6</ele>
        <time>2021-09-05T08:40:35Z</time>
      </trkpt>
      <trkpt lat="47.29485" lon="5.54409">
        <ele>186.1</ele>
        <time>2021-09-05T08:40:39Z</time>
      </trkpt>
      <trkpt lat="47.2949" lon="5.54407">
        <ele>185.9</ele>
        <time>2021-09-05T08:40:42Z</time>
      </trkpt>
      <trkpt lat="47.29495" lon="5.54405">
        <ele>186</ele>
        <time>2021-09-05T08:40:46Z</time>
      </trkpt>
      <trkpt lat="47.29499" lon="5.54401">
        <ele>186.7</ele>
        <time>2021-09-05T08:40:52Z</time>
      </trkpt>
      <trkpt lat="47.29504" lon="5.54397">
        <ele>187</ele>
        <time>2021-09-05T08:40:56Z</time>
      </trkpt>
      <trkpt lat="47.29509" lon="5.54395">
        <ele>187.5</ele>
        <time>2021-09-05T08:41:00Z</time>
      </trkpt>
      <trkpt lat="47.29513" lon="5.54393">
        <ele>187.8</ele>
        <time>2021-09-05T08:41:04Z</time>
      </trkpt>
      <trkpt lat="47.29518" lon="5.5439">
        <ele>187.9</ele>
        <time>2021-09-05T08:41:08Z</time>
      </trkpt>
      <trkpt lat="47.29523" lon="5.54387">
        <ele>187.6</ele>
        <time>2021-09-05T08:41:11Z</time>
      </trkpt>
      <trkpt lat="47.29528" lon="5.54384">
        <ele>187.3</ele>
        <time>2021-09-05T08:41:14Z</time>
      </trkpt>
      <trkpt lat="47.29533" lon="5.5438">
        <ele>186.9</ele>
        <time>2021-09-05T08:41:18Z</time>
      </trkpt>
      <trkpt lat="47.29538" lon="5.54376">
        <ele>186.2</ele>
        <time>2021-09-05T08:41:22Z</time>
      </trkpt>
      <trkpt lat="47.29542" lon="5.54374">
        <ele>186.1</ele>
        <time>2021-09-05T08:41:26Z</time>
      </trkpt>
      <trkpt lat="47.29547" lon="5.54373">
        <ele>186.1</ele>
        <time>2021-09-05T08:41:34Z</time>
      </trkpt>
      <trkpt lat="47.29553" lon="5.54371">
        <ele>185.7</ele>
        <time>2021-09-05T08:41:40Z</time>
      </trkpt>
      <trkpt lat="47.29557" lon="5.54369">
        <ele>185.9</ele>
        <time>2021-09-05T08:41:44Z</time>
      </trkpt>
      <trkpt lat="47.29562" lon="5.54364">
        <ele>184</ele>
        <time>2021-09-05T08:41:53Z</time>
      </trkpt>
      <trkpt lat="47.29566" lon="5.54362">
        <ele>183.2</ele>
        <time>2021-09-05T08:41:56Z</time>
      </trkpt>
      <trkpt lat="47.29571" lon="5.54359">
        <ele>182.8</ele>
        <time>2021-09-05T08:41:59Z</time>
      </trkpt>
      <trkpt lat="47.29576" lon="5.54356">
        <ele>182.5</ele>
        <time>2021-09-05T08:42:02Z</time>
      </trkpt>
      <trkpt lat="47.2958" lon="5.54353">
        <ele>182.5</ele>
        <time>2021-09-05T08:42:05Z</time>
      </trkpt>
      <trkpt lat="47.29586" lon="5.5435">
        <ele>183</ele>
        <time>2021-09-05T08:42:09Z</time>
      </trkpt>
      <trkpt lat="47.2959" lon="5.54349">
        <ele>183.6</ele>
        <time>2021-09-05T08:42:13Z</time>
      </trkpt>
      <trkpt lat="47.29594" lon="5.54344">
        <ele>184.6</ele>
        <time>2021-09-05T08:42:19Z</time>
      </trkpt>
      <trkpt lat="47.29599" lon="5.54342">
        <ele>185.8</ele>
        <time>2021-09-05T08:42:23Z</time>
      </trkpt>
      <trkpt lat="47.29603" lon="5.5434">
        <ele>186.7</ele>
        <time>2021-09-05T08:42:27Z</time>
      </trkpt>
      <trkpt lat="47.29609" lon="5.54339">
        <ele>187.3</ele>
        <time>2021-09-05T08:42:31Z</time>
      </trkpt>
      <trkpt lat="47.29614" lon="5.54339">
        <ele>187.8</ele>
        <time>2021-09-05T08:42:34Z</time>
      </trkpt>
      <trkpt lat="47.29619" lon="5.54338">
        <ele>188.4</ele>
        <time>2021-09-05T08:42:37Z</time>
      </trkpt>
      <trkpt lat="47.29623" lon="5.54336">
        <ele>188.8</ele>
        <time>2021-09-05T08:42:40Z</time>
      </trkpt>
      <trkpt lat="47.29628" lon="5.54333">
        <ele>188.8</ele>
        <time>2021-09-05T08:42:44Z</time>
      </trkpt>
      <trkpt lat="47.29633" lon="5.54331">
        <ele>188.1</ele>
        <time>2021-09-05T08:42:49Z</time>
      </trkpt>
      <trkpt lat="47.29638" lon="5.54329">
        <ele>188.4</ele>
        <time>2021-09-05T08:42:55Z</time>
      </trkpt>
      <trkpt lat="47.29643" lon="5.54328">
        <ele>188.4</ele>
        <time>2021-09-05T08:42:59Z</time>
      </trkpt>
      <trkpt lat="47.29648" lon="5.54328">
        <ele>187.9</ele>
        <time>2021-09-05T08:43:03Z</time>
      </trkpt>
      <trkpt lat="47.29653" lon="5.54327">
        <ele>187.4</ele>
        <time>2021-09-05T08:43:06Z</time>
      </trkpt>
      <trkpt lat="47.29658" lon="5.54325">
        <ele>187</ele>
        <time>2021-09-05T08:43:09Z</time>
      </trkpt>
      <trkpt lat="47.29663" lon="5.54324">
        <ele>186.6</ele>
        <time>2021-09-05T08:43:14Z</time>
      </trkpt>
      <trkpt lat="47.29668" lon="5.54324">
        <ele>186.4</ele>
        <time>2021-09-05T08:43:17Z</time>
      </trkpt>
      <trkpt lat="47.29673" lon="5.54326">
        <ele>186</ele>
        <time>2021-09-05T08:43:21Z</time>
      </trkpt>
      <trkpt lat="47.29678" lon="5.54326">
        <ele>184.7</ele>
        <time>2021-09-05T08:43:33Z</time>
      </trkpt>
      <trkpt lat="47.29682" lon="5.54328">
        <ele>189.9</ele>
        <time>2021-09-05T08:45:48Z</time>
      </trkpt>
      <trkpt lat="47.29687" lon="5.54326">
        <ele>189.7</ele>
        <time>2021-09-05T08:45:54Z</time>
      </trkpt>
      <trkpt lat="47.29689" lon="5.54332">
        <ele>188.7</ele>
        <time>2021-09-05T08:46:22Z</time>
      </trkpt>
      <trkpt lat="47.29694" lon="5.5433">
        <ele>188.3</ele>
        <time>2021-09-05T08:46:33Z</time>
      </trkpt>
      <trkpt lat="47.29698" lon="5.54329">
        <ele>188.9</ele>
        <time>2021-09-05T08:46:37Z</time>
      </trkpt>
      <trkpt lat="47.29703" lon="5.54328">
        <ele>189.5</ele>
        <time>2021-09-05T08:46:42Z</time>
      </trkpt>
      <trkpt lat="47.29709" lon="5.54328">
        <ele>190.3</ele>
        <time>2021-09-05T08:46:47Z</time>
      </trkpt>
      <trkpt lat="47.29714" lon="5.54327">
        <ele>190.9</ele>
        <time>2021-09-05T08:46:52Z</time>
      </trkpt>
      <trkpt lat="47.29719" lon="5.54328">
        <ele>190.9</ele>
        <time>2021-09-05T08:46:58Z</time>
      </trkpt>
      <trkpt lat="47.29724" lon="5.54328">
        <ele>190.7</ele>
        <time>2021-09-05T08:47:02Z</time>
      </trkpt>
      <trkpt lat="47.29729" lon="5.5433">
        <ele>190.6</ele>
        <time>2021-09-05T08:47:07Z</time>
      </trkpt>
      <trkpt lat="47.29734" lon="5.54332">
        <ele>191</ele>
        <time>2021-09-05T08:47:12Z</time>
      </trkpt>
      <trkpt lat="47.2974" lon="5.54334">
        <ele>191.2</ele>
        <time>2021-09-05T08:47:17Z</time>
      </trkpt>
      <trkpt lat="47.29744" lon="5.54335">
        <ele>191.1</ele>
        <time>2021-09-05T08:47:21Z</time>
      </trkpt>
      <trkpt lat="47.29749" lon="5.54333">
        <ele>190.9</ele>
        <time>2021-09-05T08:47:25Z</time>
      </trkpt>
      <trkpt lat="47.29754" lon="5.54332">
        <ele>190.5</ele>
        <time>2021-09-05T08:47:30Z</time>
      </trkpt>
      <trkpt lat="47.29758" lon="5.54332">
        <ele>189.9</ele>
        <time>2021-09-05T08:47:35Z</time>
      </trkpt>
      <trkpt lat="47.29764" lon="5.54331">
        <ele>189.8</ele>
        <time>2021-09-05T08:47:39Z</time>
      </trkpt>
      <trkpt lat="47.2977" lon="5.54331">
        <ele>190.1</ele>
        <time>2021-09-05T08:47:43Z</time>
      </trkpt>
      <trkpt lat="47.29775" lon="5.54332">
        <ele>190.3</ele>
        <time>2021-09-05T08:47:47Z</time>
      </trkpt>
      <trkpt lat="47.29779" lon="5.54334">
        <ele>190.4</ele>
        <time>2021-09-05T08:47:52Z</time>
      </trkpt>
      <trkpt lat="47.29784" lon="5.54337">
        <ele>190.4</ele>
        <time>2021-09-05T08:47:59Z</time>
      </trkpt>
      <trkpt lat="47.29789" lon="5.54339">
        <ele>190.3</ele>
        <time>2021-09-05T08:48:02Z</time>
      </trkpt>
      <trkpt lat="47.29793" lon="5.5434">
        <ele>190.5</ele>
        <time>2021-09-05T08:48:06Z</time>
      </trkpt>
      <trkpt lat="47.29798" lon="5.54341">
        <ele>190.3</ele>
        <time>2021-09-05T08:48:10Z</time>
      </trkpt>
      <trkpt lat="47.29804" lon="5.54342">
        <ele>189.8</ele>
        <time>2021-09-05T08:48:14Z</time>
      </trkpt>
      <trkpt lat="47.29809" lon="5.54342">
        <ele>189.9</ele>
        <time>2021-09-05T08:48:19Z</time>
      </trkpt>
      <trkpt lat="47.29814" lon="5.54342">
        <ele>189.7</ele>
        <time>2021-09-05T08:48:24Z</time>
      </trkpt>
      <trkpt lat="47.29819" lon="5.54341">
        <ele>189.1</ele>
        <time>2021-09-05T08:48:28Z</time>
      </trkpt>
      <trkpt lat="47.29825" lon="5.54339">
        <ele>188.6</ele>
        <time>2021-09-05T08:48:32Z</time>
      </trkpt>
      <trkpt lat="47.2983" lon="5.54338">
        <ele>188</ele>
        <time>2021-09-05T08:48:36Z</time>
      </trkpt>
      <trkpt lat="47.29835" lon="5.54337">
        <ele>187.4</ele>
        <time>2021-09-05T08:48:41Z</time>
      </trkpt>
      <trkpt lat="47.29839" lon="5.54335">
        <ele>187.4</ele>
        <time>2021-09-05T08:48:45Z</time>
      </trkpt>
      <trkpt lat="47.29844" lon="5.54333">
        <ele>187.7</ele>
        <time>2021-09-05T08:48:49Z</time>
      </trkpt>
      <trkpt lat="47.29849" lon="5.5433">
        <ele>188.2</ele>
        <time>2021-09-05T08:48:54Z</time>
      </trkpt>
      <trkpt lat="47.29854" lon="5.54327">
        <ele>188.5</ele>
        <time>2021-09-05T08:48:58Z</time>
      </trkpt>
      <trkpt lat="47.29857" lon="5.54322">
        <ele>188.3</ele>
        <time>2021-09-05T08:49:02Z</time>
      </trkpt>
      <trkpt lat="47.29862" lon="5.54319">
        <ele>188.2</ele>
        <time>2021-09-05T08:49:07Z</time>
      </trkpt>
      <trkpt lat="47.29866" lon="5.54313">
        <ele>188.2</ele>
        <time>2021-09-05T08:49:12Z</time>
      </trkpt>
      <trkpt lat="47.2987" lon="5.54309">
        <ele>188.5</ele>
        <time>2021-09-05T08:49:16Z</time>
      </trkpt>
      <trkpt lat="47.29874" lon="5.54303">
        <ele>188.7</ele>
        <time>2021-09-05T08:49:21Z</time>
      </trkpt>
      <trkpt lat="47.29878" lon="5.54298">
        <ele>188.9</ele>
        <time>2021-09-05T08:49:25Z</time>
      </trkpt>
      <trkpt lat="47.29882" lon="5.54294">
        <ele>189.1</ele>
        <time>2021-09-05T08:49:29Z</time>
      </trkpt>
      <trkpt lat="47.29886" lon="5.5429">
        <ele>189.4</ele>
        <time>2021-09-05T08:49:35Z</time>
      </trkpt>
      <trkpt lat="47.2989" lon="5.54284">
        <ele>189.3</ele>
        <time>2021-09-05T08:49:39Z</time>
      </trkpt>
      <trkpt lat="47.29894" lon="5.5428">
        <ele>188.8</ele>
        <time>2021-09-05T08:49:43Z</time>
      </trkpt>
      <trkpt lat="47.29897" lon="5.54276">
        <ele>187.8</ele>
        <time>2021-09-05T08:49:47Z</time>
      </trkpt>
      <trkpt lat="47.29901" lon="5.54272">
        <ele>186.5</ele>
        <time>2021-09-05T08:49:52Z</time>
      </trkpt>
      <trkpt lat="47.29905" lon="5.54269">
        <ele>185.4</ele>
        <time>2021-09-05T08:49:57Z</time>
      </trkpt>
      <trkpt lat="47.29909" lon="5.54265">
        <ele>184.7</ele>
        <time>2021-09-05T08:50:02Z</time>
      </trkpt>
      <trkpt lat="47.29913" lon="5.54261">
        <ele>183.9</ele>
        <time>2021-09-05T08:50:06Z</time>
      </trkpt>
      <trkpt lat="47.29916" lon="5.54256">
        <ele>183.5</ele>
        <time>2021-09-05T08:50:10Z</time>
      </trkpt>
      <trkpt lat="47.2992" lon="5.54251">
        <ele>183.5</ele>
        <time>2021-09-05T08:50:15Z</time>
      </trkpt>
      <trkpt lat="47.29925" lon="5.54247">
        <ele>183.6</ele>
        <time>2021-09-05T08:50:19Z</time>
      </trkpt>
      <trkpt lat="47.29929" lon="5.54244">
        <ele>183.6</ele>
        <time>2021-09-05T08:50:23Z</time>
      </trkpt>
      <trkpt lat="47.29933" lon="5.5424">
        <ele>184.2</ele>
        <time>2021-09-05T08:50:28Z</time>
      </trkpt>
      <trkpt lat="47.29937" lon="5.54237">
        <ele>185.1</ele>
        <time>2021-09-05T08:50:32Z</time>
      </trkpt>
      <trkpt lat="47.29939" lon="5.54231">
        <ele>186.4</ele>
        <time>2021-09-05T08:50:37Z</time>
      </trkpt>
      <trkpt lat="47.29938" lon="5.54224">
        <ele>188</ele>
        <time>2021-09-05T08:50:42Z</time>
      </trkpt>
      <trkpt lat="47.29936" lon="5.54217">
        <ele>190.8</ele>
        <time>2021-09-05T08:50:49Z</time>
      </trkpt>
      <trkpt lat="47.29934" lon="5.54211">
        <ele>192.3</ele>
        <time>2021-09-05T08:50:53Z</time>
      </trkpt>
      <trkpt lat="47.29933" lon="5.54204">
        <ele>193.9</ele>
        <time>2021-09-05T08:50:58Z</time>
      </trkpt>
      <trkpt lat="47.29934" lon="5.54196">
        <ele>194.1</ele>
        <time>2021-09-05T08:51:03Z</time>
      </trkpt>
      <trkpt lat="47.29933" lon="5.54188">
        <ele>194.3</ele>
        <time>2021-09-05T08:51:08Z</time>
      </trkpt>
      <trkpt lat="47.29932" lon="5.5418">
        <ele>194.5</ele>
        <time>2021-09-05T08:51:13Z</time>
      </trkpt>
      <trkpt lat="47.2993" lon="5.54173">
        <ele>195.1</ele>
        <time>2021-09-05T08:51:17Z</time>
      </trkpt>
      <trkpt lat="47.29929" lon="5.54166">
        <ele>195.8</ele>
        <time>2021-09-05T08:51:21Z</time>
      </trkpt>
      <trkpt lat="47.29928" lon="5.5416">
        <ele>196.1</ele>
        <time>2021-09-05T08:51:25Z</time>
      </trkpt>
      <trkpt lat="47.29928" lon="5.54152">
        <ele>196.6</ele>
        <time>2021-09-05T08:51:30Z</time>
      </trkpt>
      <trkpt lat="47.29927" lon="5.54144">
        <ele>197</ele>
        <time>2021-09-05T08:51:35Z</time>
      </trkpt>
      <trkpt lat="47.29927" lon="5.54137">
        <ele>197.1</ele>
        <time>2021-09-05T08:51:40Z</time>
      </trkpt>
      <trkpt lat="47.29927" lon="5.5413">
        <ele>196.3</ele>
        <time>2021-09-05T08:51:44Z</time>
      </trkpt>
      <trkpt lat="47.29927" lon="5.54122">
        <ele>195.1</ele>
        <time>2021-09-05T08:51:49Z</time>
      </trkpt>
      <trkpt lat="47.29927" lon="5.54115">
        <ele>193.9</ele>
        <time>2021-09-05T08:51:54Z</time>
      </trkpt>
      <trkpt lat="47.29929" lon="5.54109">
        <ele>192.7</ele>
        <time>2021-09-05T08:52:00Z</time>
      </trkpt>
      <trkpt lat="47.29933" lon="5.54102">
        <ele>192.5</ele>
        <time>2021-09-05T08:52:07Z</time>
      </trkpt>
      <trkpt lat="47.29933" lon="5.54095">
        <ele>192.4</ele>
        <time>2021-09-05T08:52:11Z</time>
      </trkpt>
      <trkpt lat="47.29935" lon="5.54088">
        <ele>191.9</ele>
        <time>2021-09-05T08:52:18Z</time>
      </trkpt>
      <trkpt lat="47.29939" lon="5.54084">
        <ele>191.2</ele>
        <time>2021-09-05T08:52:23Z</time>
      </trkpt>
      <trkpt lat="47.29943" lon="5.54079">
        <ele>190.6</ele>
        <time>2021-09-05T08:52:27Z</time>
      </trkpt>
      <trkpt lat="47.29947" lon="5.54074">
        <ele>190.3</ele>
        <time>2021-09-05T08:52:31Z</time>
      </trkpt>
      <trkpt lat="47.29951" lon="5.54069">
        <ele>190.2</ele>
        <time>2021-09-05T08:52:35Z</time>
      </trkpt>
      <trkpt lat="47.29952" lon="5.54062">
        <ele>190.1</ele>
        <time>2021-09-05T08:52:39Z</time>
      </trkpt>
      <trkpt lat="47.29953" lon="5.54055">
        <ele>189.5</ele>
        <time>2021-09-05T08:52:43Z</time>
      </trkpt>
      <trkpt lat="47.29954" lon="5.54048">
        <ele>188.7</ele>
        <time>2021-09-05T08:52:47Z</time>
      </trkpt>
      <trkpt lat="47.29957" lon="5.54042">
        <ele>187.9</ele>
        <time>2021-09-05T08:52:52Z</time>
      </trkpt>
      <trkpt lat="47.2996" lon="5.54037">
        <ele>187.3</ele>
        <time>2021-09-05T08:52:58Z</time>
      </trkpt>
      <trkpt lat="47.29962" lon="5.5403">
        <ele>186.9</ele>
        <time>2021-09-05T08:53:03Z</time>
      </trkpt>
      <trkpt lat="47.29964" lon="5.54024">
        <ele>186.9</ele>
        <time>2021-09-05T08:53:06Z</time>
      </trkpt>
      <trkpt lat="47.29967" lon="5.54017">
        <ele>187</ele>
        <time>2021-09-05T08:53:09Z</time>
      </trkpt>
      <trkpt lat="47.29969" lon="5.54009">
        <ele>187.3</ele>
        <time>2021-09-05T08:53:13Z</time>
      </trkpt>
      <trkpt lat="47.29971" lon="5.54002">
        <ele>187.4</ele>
        <time>2021-09-05T08:53:17Z</time>
      </trkpt>
      <trkpt lat="47.29972" lon="5.53995">
        <ele>187.3</ele>
        <time>2021-09-05T08:53:22Z</time>
      </trkpt>
      <trkpt lat="47.29972" lon="5.53987">
        <ele>186</ele>
        <time>2021-09-05T08:53:28Z</time>
      </trkpt>
      <trkpt lat="47.29973" lon="5.5398">
        <ele>185.1</ele>
        <time>2021-09-05T08:53:33Z</time>
      </trkpt>
      <trkpt lat="47.29977" lon="5.53975">
        <ele>184.4</ele>
        <time>2021-09-05T08:53:37Z</time>
      </trkpt>
      <trkpt lat="47.2998" lon="5.5397">
        <ele>183.6</ele>
        <time>2021-09-05T08:53:41Z</time>
      </trkpt>
      <trkpt lat="47.29984" lon="5.53964">
        <ele>183.1</ele>
        <time>2021-09-05T08:53:45Z</time>
      </trkpt>
      <trkpt lat="47.29988" lon="5.53959">
        <ele>182.5</ele>
        <time>2021-09-05T08:53:49Z</time>
      </trkpt>
      <trkpt lat="47.29991" lon="5.53953">
        <ele>182.6</ele>
        <time>2021-09-05T08:53:53Z</time>
      </trkpt>
      <trkpt lat="47.29993" lon="5.53946">
        <ele>183.3</ele>
        <time>2021-09-05T08:53:57Z</time>
      </trkpt>
      <trkpt lat="47.29995" lon="5.53939">
        <ele>184.3</ele>
        <time>2021-09-05T08:54:01Z</time>
      </trkpt>
      <trkpt lat="47.29997" lon="5.53931">
        <ele>185.1</ele>
        <time>2021-09-05T08:54:05Z</time>
      </trkpt>
      <trkpt lat="47.29998" lon="5.53925">
        <ele>185.8</ele>
        <time>2021-09-05T08:54:09Z</time>
      </trkpt>
      <trkpt lat="47.3" lon="5.53919">
        <ele>186.2</ele>
        <time>2021-09-05T08:54:13Z</time>
      </trkpt>
      <trkpt lat="47.30003" lon="5.53912">
        <ele>186.5</ele>
        <time>2021-09-05T08:54:17Z</time>
      </trkpt>
      <trkpt lat="47.30006" lon="5.53906">
        <ele>186.6</ele>
        <time>2021-09-05T08:54:22Z</time>
      </trkpt>
      <trkpt lat="47.30009" lon="5.53901">
        <ele>186.5</ele>
        <time>2021-09-05T08:54:28Z</time>
      </trkpt>
      <trkpt lat="47.30014" lon="5.53898">
        <ele>186.2</ele>
        <time>2021-09-05T08:54:32Z</time>
      </trkpt>
      <trkpt lat="47.30017" lon="5.53892">
        <ele>185.6</ele>
        <time>2021-09-05T08:54:37Z</time>
      </trkpt>
      <trkpt lat="47.30021" lon="5.53888">
        <ele>184.6</ele>
        <time>2021-09-05T08:54:42Z</time>
      </trkpt>
      <trkpt lat="47.30025" lon="5.53887">
        <ele>183.9</ele>
        <time>2021-09-05T08:54:46Z</time>
      </trkpt>
      <trkpt lat="47.3003" lon="5.53885">
        <ele>183.1</ele>
        <time>2021-09-05T08:54:52Z</time>
      </trkpt>
      <trkpt lat="47.30034" lon="5.53882">
        <ele>182.6</ele>
        <time>2021-09-05T08:54:57Z</time>
      </trkpt>
      <trkpt lat="47.30039" lon="5.53877">
        <ele>182.2</ele>
        <time>2021-09-05T08:55:02Z</time>
      </trkpt>
      <trkpt lat="47.30044" lon="5.53874">
        <ele>182.3</ele>
        <time>2021-09-05T08:55:06Z</time>
      </trkpt>
      <trkpt lat="47.30049" lon="5.53871">
        <ele>182.1</ele>
        <time>2021-09-05T08:55:10Z</time>
      </trkpt>
      <trkpt lat="47.30053" lon="5.53867">
        <ele>181.6</ele>
        <time>2021-09-05T08:55:14Z</time>
      </trkpt>
      <trkpt lat="47.30058" lon="5.53864">
        <ele>181.3</ele>
        <time>2021-09-05T08:55:19Z</time>
      </trkpt>
      <trkpt lat="47.30062" lon="5.5386">
        <ele>181.8</ele>
        <time>2021-09-05T08:55:24Z</time>
      </trkpt>
      <trkpt lat="47.30067" lon="5.53857">
        <ele>182.7</ele>
        <time>2021-09-05T08:55:29Z</time>
      </trkpt>
      <trkpt lat="47.30071" lon="5.53854">
        <ele>183.3</ele>
        <time>2021-09-05T08:55:33Z</time>
      </trkpt>
      <trkpt lat="47.30076" lon="5.5385">
        <ele>184.3</ele>
        <time>2021-09-05T08:55:39Z</time>
      </trkpt>
      <trkpt lat="47.3008" lon="5.53848">
        <ele>184.8</ele>
        <time>2021-09-05T08:55:43Z</time>
      </trkpt>
      <trkpt lat="47.30085" lon="5.53846">
        <ele>185.3</ele>
        <time>2021-09-05T08:55:48Z</time>
      </trkpt>
      <trkpt lat="47.30089" lon="5.53842">
        <ele>185.8</ele>
        <time>2021-09-05T08:55:53Z</time>
      </trkpt>
      <trkpt lat="47.30093" lon="5.53838">
        <ele>186.3</ele>
        <time>2021-09-05T08:55:57Z</time>
      </trkpt>
      <trkpt lat="47.30097" lon="5.53834">
        <ele>187</ele>
        <time>2021-09-05T08:56:02Z</time>
      </trkpt>
      <trkpt lat="47.30102" lon="5.53831">
        <ele>187.5</ele>
        <time>2021-09-05T08:56:06Z</time>
      </trkpt>
      <trkpt lat="47.30106" lon="5.53828">
        <ele>188.1</ele>
        <time>2021-09-05T08:56:09Z</time>
      </trkpt>
      <trkpt lat="47.30112" lon="5.53827">
        <ele>188.2</ele>
        <time>2021-09-05T08:56:12Z</time>
      </trkpt>
      <trkpt lat="47.30117" lon="5.53824">
        <ele>188.1</ele>
        <time>2021-09-05T08:56:16Z</time>
      </trkpt>
      <trkpt lat="47.30122" lon="5.53823">
        <ele>188</ele>
        <time>2021-09-05T08:56:20Z</time>
      </trkpt>
      <trkpt lat="47.30128" lon="5.53824">
        <ele>188.3</ele>
        <time>2021-09-05T08:56:24Z</time>
      </trkpt>
      <trkpt lat="47.30132" lon="5.53822">
        <ele>188.4</ele>
        <time>2021-09-05T08:56:27Z</time>
      </trkpt>
      <trkpt lat="47.30136" lon="5.53818">
        <ele>188.3</ele>
        <time>2021-09-05T08:56:32Z</time>
      </trkpt>
      <trkpt lat="47.30141" lon="5.53815">
        <ele>188.8</ele>
        <time>2021-09-05T08:56:38Z</time>
      </trkpt>
      <trkpt lat="47.30147" lon="5.53812">
        <ele>189.1</ele>
        <time>2021-09-05T08:56:42Z</time>
      </trkpt>
      <trkpt lat="47.30151" lon="5.53808">
        <ele>189.5</ele>
        <time>2021-09-05T08:56:46Z</time>
      </trkpt>
      <trkpt lat="47.30156" lon="5.53805">
        <ele>189.4</ele>
        <time>2021-09-05T08:56:51Z</time>
      </trkpt>
      <trkpt lat="47.30161" lon="5.53803">
        <ele>188.5</ele>
        <time>2021-09-05T08:56:56Z</time>
      </trkpt>
      <trkpt lat="47.30166" lon="5.53801">
        <ele>188.2</ele>
        <time>2021-09-05T08:57:01Z</time>
      </trkpt>
      <trkpt lat="47.3017" lon="5.53797">
        <ele>188.5</ele>
        <time>2021-09-05T08:57:05Z</time>
      </trkpt>
      <trkpt lat="47.30174" lon="5.53791">
        <ele>188.7</ele>
        <time>2021-09-05T08:57:09Z</time>
      </trkpt>
      <trkpt lat="47.30179" lon="5.53786">
        <ele>189.3</ele>
        <time>2021-09-05T08:57:13Z</time>
      </trkpt>
      <trkpt lat="47.30184" lon="5.53784">
        <ele>190</ele>
        <time>2021-09-05T08:57:17Z</time>
      </trkpt>
      <trkpt lat="47.30189" lon="5.53785">
        <ele>190.4</ele>
        <time>2021-09-05T08:57:20Z</time>
      </trkpt>
      <trkpt lat="47.30193" lon="5.53785">
        <ele>190.7</ele>
        <time>2021-09-05T08:57:24Z</time>
      </trkpt>
      <trkpt lat="47.30198" lon="5.53784">
        <ele>190.9</ele>
        <time>2021-09-05T08:57:29Z</time>
      </trkpt>
      <trkpt lat="47.30203" lon="5.5378">
        <ele>191.3</ele>
        <time>2021-09-05T08:57:34Z</time>
      </trkpt>
      <trkpt lat="47.30207" lon="5.53778">
        <ele>191.3</ele>
        <time>2021-09-05T08:57:39Z</time>
      </trkpt>
      <trkpt lat="47.30212" lon="5.53777">
        <ele>190.4</ele>
        <time>2021-09-05T08:57:43Z</time>
      </trkpt>
      <trkpt lat="47.30217" lon="5.53776">
        <ele>189</ele>
        <time>2021-09-05T08:57:47Z</time>
      </trkpt>
      <trkpt lat="47.30223" lon="5.53775">
        <ele>187.4</ele>
        <time>2021-09-05T08:57:51Z</time>
      </trkpt>
      <trkpt lat="47.30228" lon="5.53773">
        <ele>185.6</ele>
        <time>2021-09-05T08:57:56Z</time>
      </trkpt>
      <trkpt lat="47.30233" lon="5.53769">
        <ele>184.6</ele>
        <time>2021-09-05T08:58:00Z</time>
      </trkpt>
      <trkpt lat="47.30238" lon="5.53769">
        <ele>184.2</ele>
        <time>2021-09-05T08:58:04Z</time>
      </trkpt>
      <trkpt lat="47.30243" lon="5.53766">
        <ele>184</ele>
        <time>2021-09-05T08:58:09Z</time>
      </trkpt>
      <trkpt lat="47.30247" lon="5.53763">
        <ele>184.4</ele>
        <time>2021-09-05T08:58:13Z</time>
      </trkpt>
      <trkpt lat="47.30252" lon="5.53759">
        <ele>185</ele>
        <time>2021-09-05T08:58:17Z</time>
      </trkpt>
      <trkpt lat="47.30257" lon="5.53756">
        <ele>185.8</ele>
        <time>2021-09-05T08:58:21Z</time>
      </trkpt>
      <trkpt lat="47.30262" lon="5.53755">
        <ele>186.7</ele>
        <time>2021-09-05T08:58:25Z</time>
      </trkpt>
      <trkpt lat="47.30267" lon="5.53755">
        <ele>187.9</ele>
        <time>2021-09-05T08:58:29Z</time>
      </trkpt>
      <trkpt lat="47.30272" lon="5.53754">
        <ele>189.2</ele>
        <time>2021-09-05T08:58:33Z</time>
      </trkpt>
      <trkpt lat="47.30277" lon="5.53753">
        <ele>190.4</ele>
        <time>2021-09-05T08:58:37Z</time>
      </trkpt>
      <trkpt lat="47.30282" lon="5.53752">
        <ele>191.6</ele>
        <time>2021-09-05T08:58:42Z</time>
      </trkpt>
      <trkpt lat="47.30286" lon="5.5375">
        <ele>192.7</ele>
        <time>2021-09-05T08:58:47Z</time>
      </trkpt>
      <trkpt lat="47.3029" lon="5.53746">
        <ele>193.5</ele>
        <time>2021-09-05T08:58:50Z</time>
      </trkpt>
      <trkpt lat="47.30295" lon="5.53742">
        <ele>194.2</ele>
        <time>2021-09-05T08:58:53Z</time>
      </trkpt>
      <trkpt lat="47.303" lon="5.53739">
        <ele>194.9</ele>
        <time>2021-09-05T08:58:57Z</time>
      </trkpt>
      <trkpt lat="47.30305" lon="5.53738">
        <ele>195.2</ele>
        <time>2021-09-05T08:59:01Z</time>
      </trkpt>
      <trkpt lat="47.3031" lon="5.53738">
        <ele>195.4</ele>
        <time>2021-09-05T08:59:05Z</time>
      </trkpt>
      <trkpt lat="47.30315" lon="5.53737">
        <ele>195.4</ele>
        <time>2021-09-05T08:59:10Z</time>
      </trkpt>
      <trkpt lat="47.3032" lon="5.53735">
        <ele>195</ele>
        <time>2021-09-05T08:59:14Z</time>
      </trkpt>
      <trkpt lat="47.30325" lon="5.53733">
        <ele>194.6</ele>
        <time>2021-09-05T08:59:18Z</time>
      </trkpt>
      <trkpt lat="47.3033" lon="5.53731">
        <ele>194.3</ele>
        <time>2021-09-05T08:59:23Z</time>
      </trkpt>
      <trkpt lat="47.30335" lon="5.53732">
        <ele>193.7</ele>
        <time>2021-09-05T08:59:32Z</time>
      </trkpt>
      <trkpt lat="47.30341" lon="5.53734">
        <ele>193.4</ele>
        <time>2021-09-05T08:59:36Z</time>
      </trkpt>
      <trkpt lat="47.30346" lon="5.53735">
        <ele>193.2</ele>
        <time>2021-09-05T08:59:39Z</time>
      </trkpt>
      <trkpt lat="47.30351" lon="5.53735">
        <ele>193.2</ele>
        <time>2021-09-05T08:59:42Z</time>
      </trkpt>
      <trkpt lat="47.30356" lon="5.53734">
        <ele>193.1</ele>
        <time>2021-09-05T08:59:46Z</time>
      </trkpt>
      <trkpt lat="47.30362" lon="5.53733">
        <ele>192.9</ele>
        <time>2021-09-05T08:59:50Z</time>
      </trkpt>
      <trkpt lat="47.30366" lon="5.53733">
        <ele>192.6</ele>
        <time>2021-09-05T08:59:55Z</time>
      </trkpt>
      <trkpt lat="47.30371" lon="5.53733">
        <ele>192.4</ele>
        <time>2021-09-05T08:59:59Z</time>
      </trkpt>
      <trkpt lat="47.30376" lon="5.53733">
        <ele>192.1</ele>
        <time>2021-09-05T09:00:04Z</time>
      </trkpt>
      <trkpt lat="47.30381" lon="5.53733">
        <ele>192.3</ele>
        <time>2021-09-05T09:00:09Z</time>
      </trkpt>
      <trkpt lat="47.30387" lon="5.53735">
        <ele>192.3</ele>
        <time>2021-09-05T09:00:13Z</time>
      </trkpt>
      <trkpt lat="47.30391" lon="5.53737">
        <ele>192.1</ele>
        <time>2021-09-05T09:00:16Z</time>
      </trkpt>
      <trkpt lat="47.30396" lon="5.53737">
        <ele>192.2</ele>
        <time>2021-09-05T09:00:20Z</time>
      </trkpt>
      <trkpt lat="47.30401" lon="5.5374">
        <ele>192.2</ele>
        <time>2021-09-05T09:00:26Z</time>
      </trkpt>
      <trkpt lat="47.30406" lon="5.53743">
        <ele>192.6</ele>
        <time>2021-09-05T09:00:32Z</time>
      </trkpt>
      <trkpt lat="47.30411" lon="5.53742">
        <ele>193</ele>
        <time>2021-09-05T09:00:36Z</time>
      </trkpt>
      <trkpt lat="47.30417" lon="5.5374">
        <ele>193.9</ele>
        <time>2021-09-05T09:00:40Z</time>
      </trkpt>
      <trkpt lat="47.30422" lon="5.53739">
        <ele>194.5</ele>
        <time>2021-09-05T09:00:45Z</time>
      </trkpt>
      <trkpt lat="47.30426" lon="5.5374">
        <ele>194.7</ele>
        <time>2021-09-05T09:00:50Z</time>
      </trkpt>
      <trkpt lat="47.30431" lon="5.53741">
        <ele>194.3</ele>
        <time>2021-09-05T09:00:55Z</time>
      </trkpt>
      <trkpt lat="47.30437" lon="5.5374">
        <ele>193.7</ele>
        <time>2021-09-05T09:00:59Z</time>
      </trkpt>
      <trkpt lat="47.30441" lon="5.53738">
        <ele>193.3</ele>
        <time>2021-09-05T09:01:04Z</time>
      </trkpt>
      <trkpt lat="47.30446" lon="5.53736">
        <ele>193.4</ele>
        <time>2021-09-05T09:01:12Z</time>
      </trkpt>
      <trkpt lat="47.30451" lon="5.53735">
        <ele>193.4</ele>
        <time>2021-09-05T09:01:16Z</time>
      </trkpt>
      <trkpt lat="47.30456" lon="5.53731">
        <ele>193</ele>
        <time>2021-09-05T09:01:20Z</time>
      </trkpt>
      <trkpt lat="47.3046" lon="5.53729">
        <ele>192.6</ele>
        <time>2021-09-05T09:01:25Z</time>
      </trkpt>
      <trkpt lat="47.30465" lon="5.53727">
        <ele>192.5</ele>
        <time>2021-09-05T09:01:29Z</time>
      </trkpt>
      <trkpt lat="47.3047" lon="5.53723">
        <ele>193</ele>
        <time>2021-09-05T09:01:32Z</time>
      </trkpt>
      <trkpt lat="47.30475" lon="5.53719">
        <ele>193.9</ele>
        <time>2021-09-05T09:01:35Z</time>
      </trkpt>
      <trkpt lat="47.3048" lon="5.53715">
        <ele>194.9</ele>
        <time>2021-09-05T09:01:38Z</time>
      </trkpt>
      <trkpt lat="47.30484" lon="5.53712">
        <ele>195.9</ele>
        <time>2021-09-05T09:01:43Z</time>
      </trkpt>
      <trkpt lat="47.30489" lon="5.53709">
        <ele>196.3</ele>
        <time>2021-09-05T09:01:50Z</time>
      </trkpt>
      <trkpt lat="47.30494" lon="5.53707">
        <ele>196.2</ele>
        <time>2021-09-05T09:01:55Z</time>
      </trkpt>
      <trkpt lat="47.30498" lon="5.53705">
        <ele>195.6</ele>
        <time>2021-09-05T09:02:03Z</time>
      </trkpt>
      <trkpt lat="47.30502" lon="5.537">
        <ele>194.7</ele>
        <time>2021-09-05T09:02:07Z</time>
      </trkpt>
      <trkpt lat="47.30506" lon="5.53696">
        <ele>193.7</ele>
        <time>2021-09-05T09:02:11Z</time>
      </trkpt>
      <trkpt lat="47.30511" lon="5.53693">
        <ele>192.8</ele>
        <time>2021-09-05T09:02:16Z</time>
      </trkpt>
      <trkpt lat="47.30515" lon="5.53691">
        <ele>193.1</ele>
        <time>2021-09-05T09:02:21Z</time>
      </trkpt>
      <trkpt lat="47.30519" lon="5.53685">
        <ele>193.5</ele>
        <time>2021-09-05T09:02:26Z</time>
      </trkpt>
      <trkpt lat="47.30523" lon="5.53681">
        <ele>193.7</ele>
        <time>2021-09-05T09:02:29Z</time>
      </trkpt>
      <trkpt lat="47.30527" lon="5.53677">
        <ele>193.9</ele>
        <time>2021-09-05T09:02:33Z</time>
      </trkpt>
      <trkpt lat="47.30531" lon="5.53674">
        <ele>193.8</ele>
        <time>2021-09-05T09:02:36Z</time>
      </trkpt>
      <trkpt lat="47.30534" lon="5.53667">
        <ele>193.4</ele>
        <time>2021-09-05T09:02:40Z</time>
      </trkpt>
      <trkpt lat="47.30538" lon="5.53662">
        <ele>193</ele>
        <time>2021-09-05T09:02:44Z</time>
      </trkpt>
      <trkpt lat="47.30541" lon="5.53657">
        <ele>192.7</ele>
        <time>2021-09-05T09:02:48Z</time>
      </trkpt>
      <trkpt lat="47.30547" lon="5.53652">
        <ele>189.7</ele>
        <time>2021-09-05T09:03:54Z</time>
      </trkpt>
      <trkpt lat="47.30552" lon="5.53651">
        <ele>188.8</ele>
        <time>2021-09-05T09:05:42Z</time>
      </trkpt>
      <trkpt lat="47.30548" lon="5.53655">
        <ele>188.5</ele>
        <time>2021-09-05T09:05:53Z</time>
      </trkpt>
      <trkpt lat="47.30552" lon="5.53659">
        <ele>188.6</ele>
        <time>2021-09-05T09:07:18Z</time>
      </trkpt>
      <trkpt lat="47.30555" lon="5.53663">
        <ele>189.8</ele>
        <time>2021-09-05T09:07:28Z</time>
      </trkpt>
      <trkpt lat="47.3056" lon="5.53666">
        <ele>189.9</ele>
        <time>2021-09-05T09:07:32Z</time>
      </trkpt>
      <trkpt lat="47.30566" lon="5.53669">
        <ele>189.1</ele>
        <time>2021-09-05T09:07:36Z</time>
      </trkpt>
      <trkpt lat="47.30571" lon="5.53671">
        <ele>187.8</ele>
        <time>2021-09-05T09:07:41Z</time>
      </trkpt>
      <trkpt lat="47.30575" lon="5.53676">
        <ele>187.2</ele>
        <time>2021-09-05T09:07:45Z</time>
      </trkpt>
      <trkpt lat="47.30579" lon="5.53683">
        <ele>187.2</ele>
        <time>2021-09-05T09:07:48Z</time>
      </trkpt>
      <trkpt lat="47.30583" lon="5.53686">
        <ele>187.4</ele>
        <time>2021-09-05T09:07:52Z</time>
      </trkpt>
      <trkpt lat="47.30587" lon="5.53692">
        <ele>188.1</ele>
        <time>2021-09-05T09:07:57Z</time>
      </trkpt>
      <trkpt lat="47.30588" lon="5.53699">
        <ele>188.8</ele>
        <time>2021-09-05T09:08:01Z</time>
      </trkpt>
      <trkpt lat="47.30592" lon="5.53703">
        <ele>190</ele>
        <time>2021-09-05T09:08:05Z</time>
      </trkpt>
      <trkpt lat="47.30596" lon="5.53706">
        <ele>192.7</ele>
        <time>2021-09-05T09:08:11Z</time>
      </trkpt>
      <trkpt lat="47.306" lon="5.5371">
        <ele>194.4</ele>
        <time>2021-09-05T09:08:16Z</time>
      </trkpt>
      <trkpt lat="47.30604" lon="5.53715">
        <ele>195.2</ele>
        <time>2021-09-05T09:08:21Z</time>
      </trkpt>
      <trkpt lat="47.30608" lon="5.53718">
        <ele>195.6</ele>
        <time>2021-09-05T09:08:25Z</time>
      </trkpt>
      <trkpt lat="47.30613" lon="5.53721">
        <ele>195.5</ele>
        <time>2021-09-05T09:08:31Z</time>
      </trkpt>
      <trkpt lat="47.30618" lon="5.53725">
        <ele>195.1</ele>
        <time>2021-09-05T09:08:35Z</time>
      </trkpt>
      <trkpt lat="47.30622" lon="5.53727">
        <ele>194.9</ele>
        <time>2021-09-05T09:08:38Z</time>
      </trkpt>
      <trkpt lat="47.30625" lon="5.53733">
        <ele>195</ele>
        <time>2021-09-05T09:08:43Z</time>
      </trkpt>
      <trkpt lat="47.3063" lon="5.53735">
        <ele>195</ele>
        <time>2021-09-05T09:08:47Z</time>
      </trkpt>
      <trkpt lat="47.30633" lon="5.53739">
        <ele>195.1</ele>
        <time>2021-09-05T09:08:50Z</time>
      </trkpt>
      <trkpt lat="47.30638" lon="5.53742">
        <ele>194.7</ele>
        <time>2021-09-05T09:08:56Z</time>
      </trkpt>
      <trkpt lat="47.30642" lon="5.53749">
        <ele>194</ele>
        <time>2021-09-05T09:09:01Z</time>
      </trkpt>
      <trkpt lat="47.30644" lon="5.53756">
        <ele>193</ele>
        <time>2021-09-05T09:09:06Z</time>
      </trkpt>
      <trkpt lat="47.30648" lon="5.53761">
        <ele>192</ele>
        <time>2021-09-05T09:09:10Z</time>
      </trkpt>
      <trkpt lat="47.3065" lon="5.53767">
        <ele>191.3</ele>
        <time>2021-09-05T09:09:14Z</time>
      </trkpt>
      <trkpt lat="47.30655" lon="5.53771">
        <ele>190.9</ele>
        <time>2021-09-05T09:09:18Z</time>
      </trkpt>
      <trkpt lat="47.30659" lon="5.53773">
        <ele>190.4</ele>
        <time>2021-09-05T09:09:22Z</time>
      </trkpt>
      <trkpt lat="47.30663" lon="5.53776">
        <ele>190.2</ele>
        <time>2021-09-05T09:09:26Z</time>
      </trkpt>
      <trkpt lat="47.30667" lon="5.53779">
        <ele>189.7</ele>
        <time>2021-09-05T09:09:30Z</time>
      </trkpt>
      <trkpt lat="47.30671" lon="5.53784">
        <ele>189.1</ele>
        <time>2021-09-05T09:09:35Z</time>
      </trkpt>
      <trkpt lat="47.30676" lon="5.53788">
        <ele>187.9</ele>
        <time>2021-09-05T09:09:39Z</time>
      </trkpt>
      <trkpt lat="47.30681" lon="5.53789">
        <ele>186.4</ele>
        <time>2021-09-05T09:09:44Z</time>
      </trkpt>
      <trkpt lat="47.30685" lon="5.53794">
        <ele>185.8</ele>
        <time>2021-09-05T09:09:49Z</time>
      </trkpt>
      <trkpt lat="47.30687" lon="5.538">
        <ele>185.9</ele>
        <time>2021-09-05T09:09:53Z</time>
      </trkpt>
      <trkpt lat="47.30687" lon="5.53807">
        <ele>185.9</ele>
        <time>2021-09-05T09:09:58Z</time>
      </trkpt>
      <trkpt lat="47.3069" lon="5.53813">
        <ele>185.3</ele>
        <time>2021-09-05T09:10:02Z</time>
      </trkpt>
      <trkpt lat="47.30695" lon="5.53816">
        <ele>184.2</ele>
        <time>2021-09-05T09:10:06Z</time>
      </trkpt>
      <trkpt lat="47.30699" lon="5.53818">
        <ele>182.1</ele>
        <time>2021-09-05T09:10:10Z</time>
      </trkpt>
      <trkpt lat="47.30704" lon="5.53822">
        <ele>180.5</ele>
        <time>2021-09-05T09:10:14Z</time>
      </trkpt>
      <trkpt lat="47.30708" lon="5.53827">
        <ele>178.1</ele>
        <time>2021-09-05T09:10:20Z</time>
      </trkpt>
      <trkpt lat="47.30712" lon="5.53831">
        <ele>176.6</ele>
        <time>2021-09-05T09:10:25Z</time>
      </trkpt>
      <trkpt lat="47.30717" lon="5.53834">
        <ele>175.8</ele>
        <time>2021-09-05T09:10:29Z</time>
      </trkpt>
      <trkpt lat="47.30722" lon="5.53837">
        <ele>175.3</ele>
        <time>2021-09-05T09:10:32Z</time>
      </trkpt>
      <trkpt lat="47.30727" lon="5.5384">
        <ele>175</ele>
        <time>2021-09-05T09:10:35Z</time>
      </trkpt>
      <trkpt lat="47.30731" lon="5.53844">
        <ele>175</ele>
        <time>2021-09-05T09:10:38Z</time>
      </trkpt>
      <trkpt lat="47.30735" lon="5.53848">
        <ele>175.5</ele>
        <time>2021-09-05T09:10:41Z</time>
      </trkpt>
      <trkpt lat="47.3074" lon="5.53853">
        <ele>176.5</ele>
        <time>2021-09-05T09:10:46Z</time>
      </trkpt>
      <trkpt lat="47.30744" lon="5.53856">
        <ele>177.4</ele>
        <time>2021-09-05T09:10:50Z</time>
      </trkpt>
      <trkpt lat="47.30749" lon="5.53859">
        <ele>178.1</ele>
        <time>2021-09-05T09:10:54Z</time>
      </trkpt>
      <trkpt lat="47.30754" lon="5.5386">
        <ele>178.3</ele>
        <time>2021-09-05T09:10:58Z</time>
      </trkpt>
      <trkpt lat="47.30758" lon="5.53864">
        <ele>178.4</ele>
        <time>2021-09-05T09:11:03Z</time>
      </trkpt>
      <trkpt lat="47.30762" lon="5.53869">
        <ele>179.1</ele>
        <time>2021-09-05T09:11:08Z</time>
      </trkpt>
      <trkpt lat="47.30765" lon="5.53875">
        <ele>180.3</ele>
        <time>2021-09-05T09:11:13Z</time>
      </trkpt>
      <trkpt lat="47.30769" lon="5.53879">
        <ele>180.8</ele>
        <time>2021-09-05T09:11:17Z</time>
      </trkpt>
      <trkpt lat="47.30773" lon="5.53883">
        <ele>181.3</ele>
        <time>2021-09-05T09:11:21Z</time>
      </trkpt>
      <trkpt lat="47.30776" lon="5.53888">
        <ele>181.8</ele>
        <time>2021-09-05T09:11:25Z</time>
      </trkpt>
      <trkpt lat="47.3078" lon="5.53892">
        <ele>181.8</ele>
        <time>2021-09-05T09:11:29Z</time>
      </trkpt>
      <trkpt lat="47.30784" lon="5.53897">
        <ele>181.9</ele>
        <time>2021-09-05T09:11:33Z</time>
      </trkpt>
      <trkpt lat="47.30787" lon="5.53902">
        <ele>182.2</ele>
        <time>2021-09-05T09:11:37Z</time>
      </trkpt>
      <trkpt lat="47.3079" lon="5.53908">
        <ele>182.4</ele>
        <time>2021-09-05T09:11:41Z</time>
      </trkpt>
      <trkpt lat="47.30793" lon="5.53913">
        <ele>182.6</ele>
        <time>2021-09-05T09:11:45Z</time>
      </trkpt>
      <trkpt lat="47.30799" lon="5.53915">
        <ele>183.1</ele>
        <time>2021-09-05T09:11:49Z</time>
      </trkpt>
      <trkpt lat="47.30803" lon="5.53919">
        <ele>184.1</ele>
        <time>2021-09-05T09:11:53Z</time>
      </trkpt>
      <trkpt lat="47.30807" lon="5.53922">
        <ele>184.7</ele>
        <time>2021-09-05T09:11:56Z</time>
      </trkpt>
      <trkpt lat="47.30811" lon="5.53925">
        <ele>185.3</ele>
        <time>2021-09-05T09:11:59Z</time>
      </trkpt>
      <trkpt lat="47.30815" lon="5.5393">
        <ele>186.4</ele>
        <time>2021-09-05T09:12:03Z</time>
      </trkpt>
      <trkpt lat="47.30819" lon="5.53934">
        <ele>187.7</ele>
        <time>2021-09-05T09:12:07Z</time>
      </trkpt>
      <trkpt lat="47.30823" lon="5.53938">
        <ele>188.5</ele>
        <time>2021-09-05T09:12:11Z</time>
      </trkpt>
      <trkpt lat="47.30827" lon="5.53943">
        <ele>188.7</ele>
        <time>2021-09-05T09:12:15Z</time>
      </trkpt>
      <trkpt lat="47.3083" lon="5.53949">
        <ele>188.5</ele>
        <time>2021-09-05T09:12:19Z</time>
      </trkpt>
      <trkpt lat="47.30832" lon="5.53955">
        <ele>188.3</ele>
        <time>2021-09-05T09:12:23Z</time>
      </trkpt>
      <trkpt lat="47.30836" lon="5.5396">
        <ele>188.3</ele>
        <time>2021-09-05T09:12:27Z</time>
      </trkpt>
      <trkpt lat="47.3084" lon="5.53964">
        <ele>188.8</ele>
        <time>2021-09-05T09:12:31Z</time>
      </trkpt>
      <trkpt lat="47.30844" lon="5.53967">
        <ele>189.8</ele>
        <time>2021-09-05T09:12:35Z</time>
      </trkpt>
      <trkpt lat="47.30848" lon="5.53972">
        <ele>190.4</ele>
        <time>2021-09-05T09:12:39Z</time>
      </trkpt>
      <trkpt lat="47.30852" lon="5.53977">
        <ele>190.6</ele>
        <time>2021-09-05T09:12:43Z</time>
      </trkpt>
      <trkpt lat="47.30856" lon="5.53982">
        <ele>190.7</ele>
        <time>2021-09-05T09:12:47Z</time>
      </trkpt>
      <trkpt lat="47.30859" lon="5.53986">
        <ele>190.9</ele>
        <time>2021-09-05T09:12:52Z</time>
      </trkpt>
      <trkpt lat="47.30864" lon="5.5399">
        <ele>191.6</ele>
        <time>2021-09-05T09:12:57Z</time>
      </trkpt>
      <trkpt lat="47.30868" lon="5.53994">
        <ele>192.4</ele>
        <time>2021-09-05T09:13:01Z</time>
      </trkpt>
      <trkpt lat="47.30873" lon="5.53998">
        <ele>193.7</ele>
        <time>2021-09-05T09:13:05Z</time>
      </trkpt>
      <trkpt lat="47.30877" lon="5.54002">
        <ele>195.1</ele>
        <time>2021-09-05T09:13:09Z</time>
      </trkpt>
      <trkpt lat="47.30882" lon="5.54007">
        <ele>196.7</ele>
        <time>2021-09-05T09:13:14Z</time>
      </trkpt>
      <trkpt lat="47.30885" lon="5.54011">
        <ele>197</ele>
        <time>2021-09-05T09:13:18Z</time>
      </trkpt>
      <trkpt lat="47.30889" lon="5.54017">
        <ele>197.3</ele>
        <time>2021-09-05T09:13:22Z</time>
      </trkpt>
      <trkpt lat="47.30892" lon="5.54024">
        <ele>197.9</ele>
        <time>2021-09-05T09:13:26Z</time>
      </trkpt>
      <trkpt lat="47.30896" lon="5.54028">
        <ele>198.4</ele>
        <time>2021-09-05T09:13:30Z</time>
      </trkpt>
      <trkpt lat="47.309" lon="5.54031">
        <ele>198.2</ele>
        <time>2021-09-05T09:13:34Z</time>
      </trkpt>
      <trkpt lat="47.30905" lon="5.54036">
        <ele>198.1</ele>
        <time>2021-09-05T09:13:39Z</time>
      </trkpt>
      <trkpt lat="47.30907" lon="5.54041">
        <ele>198.4</ele>
        <time>2021-09-05T09:13:43Z</time>
      </trkpt>
      <trkpt lat="47.30912" lon="5.54045">
        <ele>198.7</ele>
        <time>2021-09-05T09:13:48Z</time>
      </trkpt>
      <trkpt lat="47.30916" lon="5.5405">
        <ele>199</ele>
        <time>2021-09-05T09:13:53Z</time>
      </trkpt>
      <trkpt lat="47.3092" lon="5.54054">
        <ele>199.1</ele>
        <time>2021-09-05T09:13:57Z</time>
      </trkpt>
      <trkpt lat="47.30925" lon="5.54059">
        <ele>198.8</ele>
        <time>2021-09-05T09:14:01Z</time>
      </trkpt>
      <trkpt lat="47.30929" lon="5.54063">
        <ele>198.5</ele>
        <time>2021-09-05T09:14:06Z</time>
      </trkpt>
      <trkpt lat="47.30932" lon="5.54069">
        <ele>198.3</ele>
        <time>2021-09-05T09:14:11Z</time>
      </trkpt>
      <trkpt lat="47.30937" lon="5.54072">
        <ele>198</ele>
        <time>2021-09-05T09:14:16Z</time>
      </trkpt>
      <trkpt lat="47.30943" lon="5.54073">
        <ele>197.3</ele>
        <time>2021-09-05T09:14:20Z</time>
      </trkpt>
      <trkpt lat="47.30948" lon="5.54074">
        <ele>195.1</ele>
        <time>2021-09-05T09:14:25Z</time>
      </trkpt>
      <trkpt lat="47.3095" lon="5.54081">
        <ele>193.1</ele>
        <time>2021-09-05T09:14:35Z</time>
      </trkpt>
      <trkpt lat="47.30953" lon="5.54086">
        <ele>190.9</ele>
        <time>2021-09-05T09:15:29Z</time>
      </trkpt>
      <trkpt lat="47.30958" lon="5.5409">
        <ele>191.6</ele>
        <time>2021-09-05T09:15:33Z</time>
      </trkpt>
      <trkpt lat="47.30963" lon="5.54094">
        <ele>192.5</ele>
        <time>2021-09-05T09:15:37Z</time>
      </trkpt>
      <trkpt lat="47.30968" lon="5.54098">
        <ele>193.6</ele>
        <time>2021-09-05T09:15:42Z</time>
      </trkpt>
      <trkpt lat="47.30973" lon="5.54099">
        <ele>194.5</ele>
        <time>2021-09-05T09:15:47Z</time>
      </trkpt>
      <trkpt lat="47.30976" lon="5.54104">
        <ele>195.5</ele>
        <time>2021-09-05T09:15:52Z</time>
      </trkpt>
      <trkpt lat="47.3098" lon="5.54108">
        <ele>197.1</ele>
        <time>2021-09-05T09:15:58Z</time>
      </trkpt>
      <trkpt lat="47.30985" lon="5.54112">
        <ele>198</ele>
        <time>2021-09-05T09:16:03Z</time>
      </trkpt>
      <trkpt lat="47.30988" lon="5.54116">
        <ele>198.1</ele>
        <time>2021-09-05T09:16:10Z</time>
      </trkpt>
      <trkpt lat="47.30993" lon="5.54121">
        <ele>197.3</ele>
        <time>2021-09-05T09:16:15Z</time>
      </trkpt>
      <trkpt lat="47.30996" lon="5.54128">
        <ele>196.4</ele>
        <time>2021-09-05T09:16:19Z</time>
      </trkpt>
      <trkpt lat="47.31" lon="5.54133">
        <ele>195.4</ele>
        <time>2021-09-05T09:16:24Z</time>
      </trkpt>
      <trkpt lat="47.31003" lon="5.54139">
        <ele>195.1</ele>
        <time>2021-09-05T09:16:33Z</time>
      </trkpt>
      <trkpt lat="47.31004" lon="5.54145">
        <ele>196</ele>
        <time>2021-09-05T09:16:38Z</time>
      </trkpt>
      <trkpt lat="47.31008" lon="5.54149">
        <ele>197.3</ele>
        <time>2021-09-05T09:16:42Z</time>
      </trkpt>
      <trkpt lat="47.31013" lon="5.54152">
        <ele>198.5</ele>
        <time>2021-09-05T09:16:46Z</time>
      </trkpt>
      <trkpt lat="47.31018" lon="5.54154">
        <ele>199.5</ele>
        <time>2021-09-05T09:16:49Z</time>
      </trkpt>
      <trkpt lat="47.31023" lon="5.54157">
        <ele>200.7</ele>
        <time>2021-09-05T09:16:53Z</time>
      </trkpt>
      <trkpt lat="47.31027" lon="5.54161">
        <ele>201.7</ele>
        <time>2021-09-05T09:16:56Z</time>
      </trkpt>
      <trkpt lat="47.31032" lon="5.54166">
        <ele>202.5</ele>
        <time>2021-09-05T09:16:59Z</time>
      </trkpt>
      <trkpt lat="47.31037" lon="5.54172">
        <ele>203.8</ele>
        <time>2021-09-05T09:17:03Z</time>
      </trkpt>
      <trkpt lat="47.3104" lon="5.54176">
        <ele>204.9</ele>
        <time>2021-09-05T09:17:07Z</time>
      </trkpt>
      <trkpt lat="47.31044" lon="5.54181">
        <ele>206</ele>
        <time>2021-09-05T09:17:13Z</time>
      </trkpt>
      <trkpt lat="47.31048" lon="5.54185">
        <ele>205.7</ele>
        <time>2021-09-05T09:17:19Z</time>
      </trkpt>
      <trkpt lat="47.31051" lon="5.54191">
        <ele>204.9</ele>
        <time>2021-09-05T09:17:23Z</time>
      </trkpt>
      <trkpt lat="47.31054" lon="5.54197">
        <ele>203.4</ele>
        <time>2021-09-05T09:17:28Z</time>
      </trkpt>
      <trkpt lat="47.31057" lon="5.54201">
        <ele>202.3</ele>
        <time>2021-09-05T09:17:32Z</time>
      </trkpt>
      <trkpt lat="47.31061" lon="5.54207">
        <ele>201.3</ele>
        <time>2021-09-05T09:17:37Z</time>
      </trkpt>
      <trkpt lat="47.31063" lon="5.54212">
        <ele>200.4</ele>
        <time>2021-09-05T09:17:41Z</time>
      </trkpt>
      <trkpt lat="47.31067" lon="5.54217">
        <ele>200.3</ele>
        <time>2021-09-05T09:17:44Z</time>
      </trkpt>
      <trkpt lat="47.31071" lon="5.54221">
        <ele>200.5</ele>
        <time>2021-09-05T09:17:47Z</time>
      </trkpt>
      <trkpt lat="47.31076" lon="5.54224">
        <ele>200.8</ele>
        <time>2021-09-05T09:17:50Z</time>
      </trkpt>
      <trkpt lat="47.31081" lon="5.54224">
        <ele>201.1</ele>
        <time>2021-09-05T09:17:53Z</time>
      </trkpt>
      <trkpt lat="47.31086" lon="5.54225">
        <ele>201.4</ele>
        <time>2021-09-05T09:17:56Z</time>
      </trkpt>
      <trkpt lat="47.3109" lon="5.54227">
        <ele>201.6</ele>
        <time>2021-09-05T09:18:00Z</time>
      </trkpt>
      <trkpt lat="47.31094" lon="5.54232">
        <ele>200.9</ele>
        <time>2021-09-05T09:18:05Z</time>
      </trkpt>
      <trkpt lat="47.31097" lon="5.54237">
        <ele>199.4</ele>
        <time>2021-09-05T09:18:11Z</time>
      </trkpt>
      <trkpt lat="47.31101" lon="5.54241">
        <ele>198.8</ele>
        <time>2021-09-05T09:18:15Z</time>
      </trkpt>
      <trkpt lat="47.31105" lon="5.54246">
        <ele>198.6</ele>
        <time>2021-09-05T09:18:20Z</time>
      </trkpt>
      <trkpt lat="47.31109" lon="5.5425">
        <ele>198.3</ele>
        <time>2021-09-05T09:18:24Z</time>
      </trkpt>
      <trkpt lat="47.31113" lon="5.54255">
        <ele>197.5</ele>
        <time>2021-09-05T09:18:29Z</time>
      </trkpt>
      <trkpt lat="47.31116" lon="5.5426">
        <ele>196.9</ele>
        <time>2021-09-05T09:18:33Z</time>
      </trkpt>
      <trkpt lat="47.3112" lon="5.54264">
        <ele>196.5</ele>
        <time>2021-09-05T09:18:37Z</time>
      </trkpt>
      <trkpt lat="47.31124" lon="5.54269">
        <ele>196.4</ele>
        <time>2021-09-05T09:18:42Z</time>
      </trkpt>
      <trkpt lat="47.31128" lon="5.54275">
        <ele>196.8</ele>
        <time>2021-09-05T09:18:47Z</time>
      </trkpt>
      <trkpt lat="47.31133" lon="5.54277">
        <ele>196.7</ele>
        <time>2021-09-05T09:18:52Z</time>
      </trkpt>
      <trkpt lat="47.31137" lon="5.54279">
        <ele>196.5</ele>
        <time>2021-09-05T09:18:55Z</time>
      </trkpt>
      <trkpt lat="47.31143" lon="5.54284">
        <ele>196.5</ele>
        <time>2021-09-05T09:18:58Z</time>
      </trkpt>
      <trkpt lat="47.31148" lon="5.54287">
        <ele>197.2</ele>
        <time>2021-09-05T09:19:01Z</time>
      </trkpt>
      <trkpt lat="47.31153" lon="5.5429">
        <ele>198.3</ele>
        <time>2021-09-05T09:19:04Z</time>
      </trkpt>
      <trkpt lat="47.31157" lon="5.54293">
        <ele>199.3</ele>
        <time>2021-09-05T09:19:07Z</time>
      </trkpt>
      <trkpt lat="47.31161" lon="5.54298">
        <ele>199.9</ele>
        <time>2021-09-05T09:19:10Z</time>
      </trkpt>
      <trkpt lat="47.31165" lon="5.54301">
        <ele>200.6</ele>
        <time>2021-09-05T09:19:19Z</time>
      </trkpt>
      <trkpt lat="47.31169" lon="5.54307">
        <ele>200.5</ele>
        <time>2021-09-05T09:19:25Z</time>
      </trkpt>
      <trkpt lat="47.31173" lon="5.54313">
        <ele>200.5</ele>
        <time>2021-09-05T09:19:29Z</time>
      </trkpt>
      <trkpt lat="47.31177" lon="5.54317">
        <ele>200.6</ele>
        <time>2021-09-05T09:19:33Z</time>
      </trkpt>
      <trkpt lat="47.3118" lon="5.54323">
        <ele>200.9</ele>
        <time>2021-09-05T09:19:37Z</time>
      </trkpt>
      <trkpt lat="47.31182" lon="5.54329">
        <ele>201.4</ele>
        <time>2021-09-05T09:19:41Z</time>
      </trkpt>
      <trkpt lat="47.31186" lon="5.54333">
        <ele>201.9</ele>
        <time>2021-09-05T09:19:45Z</time>
      </trkpt>
      <trkpt lat="47.31191" lon="5.54337">
        <ele>202.6</ele>
        <time>2021-09-05T09:19:50Z</time>
      </trkpt>
      <trkpt lat="47.31195" lon="5.54341">
        <ele>203.8</ele>
        <time>2021-09-05T09:19:58Z</time>
      </trkpt>
      <trkpt lat="47.31198" lon="5.54347">
        <ele>204.1</ele>
        <time>2021-09-05T09:20:05Z</time>
      </trkpt>
      <trkpt lat="47.31202" lon="5.54352">
        <ele>204.3</ele>
        <time>2021-09-05T09:20:09Z</time>
      </trkpt>
      <trkpt lat="47.31207" lon="5.54357">
        <ele>204.7</ele>
        <time>2021-09-05T09:20:13Z</time>
      </trkpt>
      <trkpt lat="47.31211" lon="5.54361">
        <ele>205</ele>
        <time>2021-09-05T09:20:17Z</time>
      </trkpt>
      <trkpt lat="47.31216" lon="5.54364">
        <ele>205.6</ele>
        <time>2021-09-05T09:20:21Z</time>
      </trkpt>
      <trkpt lat="47.3122" lon="5.54367">
        <ele>206.3</ele>
        <time>2021-09-05T09:20:25Z</time>
      </trkpt>
      <trkpt lat="47.31224" lon="5.54372">
        <ele>207</ele>
        <time>2021-09-05T09:20:29Z</time>
      </trkpt>
      <trkpt lat="47.31228" lon="5.54375">
        <ele>207.2</ele>
        <time>2021-09-05T09:20:32Z</time>
      </trkpt>
      <trkpt lat="47.31232" lon="5.54378">
        <ele>207.1</ele>
        <time>2021-09-05T09:20:36Z</time>
      </trkpt>
      <trkpt lat="47.31236" lon="5.54383">
        <ele>206.2</ele>
        <time>2021-09-05T09:20:42Z</time>
      </trkpt>
      <trkpt lat="47.31239" lon="5.54389">
        <ele>205.3</ele>
        <time>2021-09-05T09:20:46Z</time>
      </trkpt>
      <trkpt lat="47.31242" lon="5.54394">
        <ele>204.9</ele>
        <time>2021-09-05T09:20:49Z</time>
      </trkpt>
      <trkpt lat="47.31246" lon="5.54399">
        <ele>204.1</ele>
        <time>2021-09-05T09:20:53Z</time>
      </trkpt>
      <trkpt lat="47.31251" lon="5.54402">
        <ele>202.8</ele>
        <time>2021-09-05T09:20:57Z</time>
      </trkpt>
      <trkpt lat="47.31254" lon="5.54407">
        <ele>201.8</ele>
        <time>2021-09-05T09:21:01Z</time>
      </trkpt>
      <trkpt lat="47.31258" lon="5.54412">
        <ele>200.9</ele>
        <time>2021-09-05T09:21:06Z</time>
      </trkpt>
      <trkpt lat="47.31263" lon="5.54414">
        <ele>200.3</ele>
        <time>2021-09-05T09:21:10Z</time>
      </trkpt>
      <trkpt lat="47.31268" lon="5.54416">
        <ele>199.9</ele>
        <time>2021-09-05T09:21:14Z</time>
      </trkpt>
      <trkpt lat="47.31272" lon="5.54419">
        <ele>199.7</ele>
        <time>2021-09-05T09:21:18Z</time>
      </trkpt>
      <trkpt lat="47.31275" lon="5.54425">
        <ele>199.7</ele>
        <time>2021-09-05T09:21:22Z</time>
      </trkpt>
      <trkpt lat="47.31278" lon="5.54431">
        <ele>199.6</ele>
        <time>2021-09-05T09:21:26Z</time>
      </trkpt>
      <trkpt lat="47.31281" lon="5.54435">
        <ele>199.3</ele>
        <time>2021-09-05T09:21:30Z</time>
      </trkpt>
      <trkpt lat="47.31285" lon="5.54439">
        <ele>199.3</ele>
        <time>2021-09-05T09:21:35Z</time>
      </trkpt>
      <trkpt lat="47.31288" lon="5.54446">
        <ele>199.8</ele>
        <time>2021-09-05T09:21:40Z</time>
      </trkpt>
      <trkpt lat="47.31292" lon="5.54452">
        <ele>200.6</ele>
        <time>2021-09-05T09:21:46Z</time>
      </trkpt>
      <trkpt lat="47.31296" lon="5.54457">
        <ele>201.3</ele>
        <time>2021-09-05T09:21:50Z</time>
      </trkpt>
      <trkpt lat="47.31301" lon="5.54463">
        <ele>202.2</ele>
        <time>2021-09-05T09:21:54Z</time>
      </trkpt>
      <trkpt lat="47.31306" lon="5.54465">
        <ele>202.5</ele>
        <time>2021-09-05T09:21:58Z</time>
      </trkpt>
      <trkpt lat="47.31311" lon="5.5447">
        <ele>202</ele>
        <time>2021-09-05T09:22:02Z</time>
      </trkpt>
      <trkpt lat="47.31315" lon="5.54474">
        <ele>201.9</ele>
        <time>2021-09-05T09:22:05Z</time>
      </trkpt>
      <trkpt lat="47.31319" lon="5.54477">
        <ele>201.7</ele>
        <time>2021-09-05T09:22:08Z</time>
      </trkpt>
      <trkpt lat="47.31323" lon="5.54481">
        <ele>201.6</ele>
        <time>2021-09-05T09:22:11Z</time>
      </trkpt>
      <trkpt lat="47.31327" lon="5.54485">
        <ele>200.8</ele>
        <time>2021-09-05T09:22:18Z</time>
      </trkpt>
      <trkpt lat="47.31331" lon="5.54488">
        <ele>200.6</ele>
        <time>2021-09-05T09:22:24Z</time>
      </trkpt>
      <trkpt lat="47.31335" lon="5.54492">
        <ele>200.6</ele>
        <time>2021-09-05T09:22:28Z</time>
      </trkpt>
      <trkpt lat="47.3134" lon="5.54494">
        <ele>200.7</ele>
        <time>2021-09-05T09:22:31Z</time>
      </trkpt>
      <trkpt lat="47.31343" lon="5.545">
        <ele>201</ele>
        <time>2021-09-05T09:22:35Z</time>
      </trkpt>
      <trkpt lat="47.31347" lon="5.54504">
        <ele>200.9</ele>
        <time>2021-09-05T09:22:39Z</time>
      </trkpt>
      <trkpt lat="47.31351" lon="5.54507">
        <ele>200.6</ele>
        <time>2021-09-05T09:22:44Z</time>
      </trkpt>
      <trkpt lat="47.31354" lon="5.54513">
        <ele>199.4</ele>
        <time>2021-09-05T09:22:51Z</time>
      </trkpt>
      <trkpt lat="47.31359" lon="5.54517">
        <ele>199.3</ele>
        <time>2021-09-05T09:22:55Z</time>
      </trkpt>
      <trkpt lat="47.31364" lon="5.54521">
        <ele>199.4</ele>
        <time>2021-09-05T09:22:58Z</time>
      </trkpt>
      <trkpt lat="47.3137" lon="5.54525">
        <ele>199.8</ele>
        <time>2021-09-05T09:23:01Z</time>
      </trkpt>
      <trkpt lat="47.31376" lon="5.5453">
        <ele>200.3</ele>
        <time>2021-09-05T09:23:04Z</time>
      </trkpt>
      <trkpt lat="47.31381" lon="5.54534">
        <ele>201</ele>
        <time>2021-09-05T09:23:07Z</time>
      </trkpt>
      <trkpt lat="47.31385" lon="5.54538">
        <ele>201.9</ele>
        <time>2021-09-05T09:23:11Z</time>
      </trkpt>
      <trkpt lat="47.31389" lon="5.54543">
        <ele>202.1</ele>
        <time>2021-09-05T09:23:16Z</time>
      </trkpt>
      <trkpt lat="47.31392" lon="5.54549">
        <ele>201.9</ele>
        <time>2021-09-05T09:23:20Z</time>
      </trkpt>
      <trkpt lat="47.31395" lon="5.54555">
        <ele>201.9</ele>
        <time>2021-09-05T09:23:25Z</time>
      </trkpt>
      <trkpt lat="47.31396" lon="5.54563">
        <ele>202</ele>
        <time>2021-09-05T09:23:29Z</time>
      </trkpt>
      <trkpt lat="47.31395" lon="5.5457">
        <ele>201.6</ele>
        <time>2021-09-05T09:23:34Z</time>
      </trkpt>
      <trkpt lat="47.31396" lon="5.54577">
        <ele>200.2</ele>
        <time>2021-09-05T09:23:41Z</time>
      </trkpt>
      <trkpt lat="47.31399" lon="5.54583">
        <ele>198.9</ele>
        <time>2021-09-05T09:23:47Z</time>
      </trkpt>
      <trkpt lat="47.31403" lon="5.54588">
        <ele>197.1</ele>
        <time>2021-09-05T09:23:54Z</time>
      </trkpt>
      <trkpt lat="47.31407" lon="5.5459">
        <ele>193.9</ele>
        <time>2021-09-05T09:24:09Z</time>
      </trkpt>
      <trkpt lat="47.31412" lon="5.54592">
        <ele>193.9</ele>
        <time>2021-09-05T09:24:13Z</time>
      </trkpt>
      <trkpt lat="47.31414" lon="5.54599">
        <ele>194.3</ele>
        <time>2021-09-05T09:24:19Z</time>
      </trkpt>
      <trkpt lat="47.31413" lon="5.54605">
        <ele>193.6</ele>
        <time>2021-09-05T09:24:36Z</time>
      </trkpt>
      <trkpt lat="47.31418" lon="5.5461">
        <ele>192.3</ele>
        <time>2021-09-05T09:24:47Z</time>
      </trkpt>
      <trkpt lat="47.31413" lon="5.54607">
        <ele>191.6</ele>
        <time>2021-09-05T09:24:55Z</time>
      </trkpt>
      <trkpt lat="47.31406" lon="5.54601">
        <ele>191.7</ele>
        <time>2021-09-05T09:24:58Z</time>
      </trkpt>
      <trkpt lat="47.31402" lon="5.54596">
        <ele>192</ele>
        <time>2021-09-05T09:25:01Z</time>
      </trkpt>
      <trkpt lat="47.31398" lon="5.54598">
        <ele>194.1</ele>
        <time>2021-09-05T09:25:08Z</time>
      </trkpt>
      <trkpt lat="47.31393" lon="5.54599">
        <ele>194.7</ele>
        <time>2021-09-05T09:25:11Z</time>
      </trkpt>
      <trkpt lat="47.31392" lon="5.54606">
        <ele>198</ele>
        <time>2021-09-05T09:25:31Z</time>
      </trkpt>
      <trkpt lat="47.31387" lon="5.54608">
        <ele>198.7</ele>
        <time>2021-09-05T09:25:53Z</time>
      </trkpt>
      <trkpt lat="47.31382" lon="5.54611">
        <ele>198.3</ele>
        <time>2021-09-05T09:25:58Z</time>
      </trkpt>
      <trkpt lat="47.31378" lon="5.54615">
        <ele>198.1</ele>
        <time>2021-09-05T09:26:01Z</time>
      </trkpt>
      <trkpt lat="47.31373" lon="5.5462">
        <ele>197.8</ele>
        <time>2021-09-05T09:26:05Z</time>
      </trkpt>
      <trkpt lat="47.31368" lon="5.54622">
        <ele>197.7</ele>
        <time>2021-09-05T09:26:09Z</time>
      </trkpt>
      <trkpt lat="47.31364" lon="5.54623">
        <ele>197.8</ele>
        <time>2021-09-05T09:26:14Z</time>
      </trkpt>
      <trkpt lat="47.3136" lon="5.54626">
        <ele>198.2</ele>
        <time>2021-09-05T09:26:20Z</time>
      </trkpt>
      <trkpt lat="47.31355" lon="5.54628">
        <ele>198</ele>
        <time>2021-09-05T09:26:26Z</time>
      </trkpt>
      <trkpt lat="47.3135" lon="5.54629">
        <ele>197.7</ele>
        <time>2021-09-05T09:26:31Z</time>
      </trkpt>
      <trkpt lat="47.31346" lon="5.54632">
        <ele>197.6</ele>
        <time>2021-09-05T09:26:36Z</time>
      </trkpt>
      <trkpt lat="47.31341" lon="5.54635">
        <ele>197.3</ele>
        <time>2021-09-05T09:26:40Z</time>
      </trkpt>
      <trkpt lat="47.31337" lon="5.54641">
        <ele>197.2</ele>
        <time>2021-09-05T09:26:43Z</time>
      </trkpt>
      <trkpt lat="47.31332" lon="5.54646">
        <ele>197.1</ele>
        <time>2021-09-05T09:26:46Z</time>
      </trkpt>
      <trkpt lat="47.31328" lon="5.5465">
        <ele>197</ele>
        <time>2021-09-05T09:26:50Z</time>
      </trkpt>
      <trkpt lat="47.31324" lon="5.54654">
        <ele>197</ele>
        <time>2021-09-05T09:26:55Z</time>
      </trkpt>
      <trkpt lat="47.3132" lon="5.54657">
        <ele>196.8</ele>
        <time>2021-09-05T09:26:59Z</time>
      </trkpt>
      <trkpt lat="47.31315" lon="5.5466">
        <ele>196.7</ele>
        <time>2021-09-05T09:27:03Z</time>
      </trkpt>
      <trkpt lat="47.31311" lon="5.54663">
        <ele>196.9</ele>
        <time>2021-09-05T09:27:07Z</time>
      </trkpt>
      <trkpt lat="47.31306" lon="5.54665">
        <ele>197.2</ele>
        <time>2021-09-05T09:27:11Z</time>
      </trkpt>
      <trkpt lat="47.31301" lon="5.54666">
        <ele>197.5</ele>
        <time>2021-09-05T09:27:15Z</time>
      </trkpt>
      <trkpt lat="47.31297" lon="5.54669">
        <ele>197.8</ele>
        <time>2021-09-05T09:27:19Z</time>
      </trkpt>
      <trkpt lat="47.31293" lon="5.54673">
        <ele>198.1</ele>
        <time>2021-09-05T09:27:23Z</time>
      </trkpt>
      <trkpt lat="47.31288" lon="5.54677">
        <ele>198.4</ele>
        <time>2021-09-05T09:27:27Z</time>
      </trkpt>
      <trkpt lat="47.31283" lon="5.54681">
        <ele>199.1</ele>
        <time>2021-09-05T09:27:30Z</time>
      </trkpt>
      <trkpt lat="47.3128" lon="5.54685">
        <ele>200.2</ele>
        <time>2021-09-05T09:27:33Z</time>
      </trkpt>
      <trkpt lat="47.31275" lon="5.5469">
        <ele>201.7</ele>
        <time>2021-09-05T09:27:38Z</time>
      </trkpt>
      <trkpt lat="47.31271" lon="5.54692">
        <ele>202.2</ele>
        <time>2021-09-05T09:27:41Z</time>
      </trkpt>
      <trkpt lat="47.31266" lon="5.54694">
        <ele>202.6</ele>
        <time>2021-09-05T09:27:44Z</time>
      </trkpt>
      <trkpt lat="47.31261" lon="5.54694">
        <ele>203.1</ele>
        <time>2021-09-05T09:27:48Z</time>
      </trkpt>
      <trkpt lat="47.31256" lon="5.54696">
        <ele>203.4</ele>
        <time>2021-09-05T09:27:52Z</time>
      </trkpt>
      <trkpt lat="47.31252" lon="5.54698">
        <ele>203.2</ele>
        <time>2021-09-05T09:27:56Z</time>
      </trkpt>
      <trkpt lat="47.31247" lon="5.54701">
        <ele>203.1</ele>
        <time>2021-09-05T09:28:01Z</time>
      </trkpt>
      <trkpt lat="47.31242" lon="5.54704">
        <ele>203</ele>
        <time>2021-09-05T09:28:06Z</time>
      </trkpt>
      <trkpt lat="47.31238" lon="5.54706">
        <ele>203.2</ele>
        <time>2021-09-05T09:28:10Z</time>
      </trkpt>
      <trkpt lat="47.31233" lon="5.54707">
        <ele>203.2</ele>
        <time>2021-09-05T09:28:14Z</time>
      </trkpt>
      <trkpt lat="47.31227" lon="5.54708">
        <ele>202.7</ele>
        <time>2021-09-05T09:28:18Z</time>
      </trkpt>
      <trkpt lat="47.31223" lon="5.54711">
        <ele>202</ele>
        <time>2021-09-05T09:28:22Z</time>
      </trkpt>
      <trkpt lat="47.3122" lon="5.54716">
        <ele>201.4</ele>
        <time>2021-09-05T09:28:26Z</time>
      </trkpt>
      <trkpt lat="47.31217" lon="5.54722">
        <ele>201.3</ele>
        <time>2021-09-05T09:28:30Z</time>
      </trkpt>
      <trkpt lat="47.31213" lon="5.54726">
        <ele>201.3</ele>
        <time>2021-09-05T09:28:34Z</time>
      </trkpt>
      <trkpt lat="47.31208" lon="5.5473">
        <ele>201.3</ele>
        <time>2021-09-05T09:28:38Z</time>
      </trkpt>
      <trkpt lat="47.31203" lon="5.54734">
        <ele>201.4</ele>
        <time>2021-09-05T09:28:42Z</time>
      </trkpt>
      <trkpt lat="47.31199" lon="5.54738">
        <ele>201.4</ele>
        <time>2021-09-05T09:28:46Z</time>
      </trkpt>
      <trkpt lat="47.31194" lon="5.54743">
        <ele>201.3</ele>
        <time>2021-09-05T09:28:50Z</time>
      </trkpt>
      <trkpt lat="47.31189" lon="5.54746">
        <ele>201.4</ele>
        <time>2021-09-05T09:28:53Z</time>
      </trkpt>
      <trkpt lat="47.31185" lon="5.54748">
        <ele>201.4</ele>
        <time>2021-09-05T09:28:57Z</time>
      </trkpt>
      <trkpt lat="47.31181" lon="5.54752">
        <ele>201.8</ele>
        <time>2021-09-05T09:29:00Z</time>
      </trkpt>
      <trkpt lat="47.31177" lon="5.54756">
        <ele>202.7</ele>
        <time>2021-09-05T09:29:04Z</time>
      </trkpt>
      <trkpt lat="47.31173" lon="5.5476">
        <ele>204.1</ele>
        <time>2021-09-05T09:29:10Z</time>
      </trkpt>
      <trkpt lat="47.31168" lon="5.54763">
        <ele>204.7</ele>
        <time>2021-09-05T09:29:15Z</time>
      </trkpt>
      <trkpt lat="47.31162" lon="5.54767">
        <ele>205.4</ele>
        <time>2021-09-05T09:29:19Z</time>
      </trkpt>
      <trkpt lat="47.31157" lon="5.54769">
        <ele>206.3</ele>
        <time>2021-09-05T09:29:23Z</time>
      </trkpt>
      <trkpt lat="47.31153" lon="5.54772">
        <ele>206.6</ele>
        <time>2021-09-05T09:29:26Z</time>
      </trkpt>
      <trkpt lat="47.31148" lon="5.54776">
        <ele>206.5</ele>
        <time>2021-09-05T09:29:29Z</time>
      </trkpt>
      <trkpt lat="47.31143" lon="5.54778">
        <ele>206.5</ele>
        <time>2021-09-05T09:29:33Z</time>
      </trkpt>
      <trkpt lat="47.31138" lon="5.54781">
        <ele>206.8</ele>
        <time>2021-09-05T09:29:38Z</time>
      </trkpt>
      <trkpt lat="47.31133" lon="5.54785">
        <ele>207.2</ele>
        <time>2021-09-05T09:29:42Z</time>
      </trkpt>
      <trkpt lat="47.31129" lon="5.54789">
        <ele>207.7</ele>
        <time>2021-09-05T09:29:46Z</time>
      </trkpt>
      <trkpt lat="47.31125" lon="5.54793">
        <ele>208.1</ele>
        <time>2021-09-05T09:29:51Z</time>
      </trkpt>
      <trkpt lat="47.3112" lon="5.54796">
        <ele>208.4</ele>
        <time>2021-09-05T09:29:56Z</time>
      </trkpt>
      <trkpt lat="47.31115" lon="5.54797">
        <ele>208.3</ele>
        <time>2021-09-05T09:30:02Z</time>
      </trkpt>
      <trkpt lat="47.3111" lon="5.548">
        <ele>208.2</ele>
        <time>2021-09-05T09:30:07Z</time>
      </trkpt>
      <trkpt lat="47.31106" lon="5.54804">
        <ele>208.4</ele>
        <time>2021-09-05T09:30:14Z</time>
      </trkpt>
      <trkpt lat="47.31101" lon="5.54808">
        <ele>208.5</ele>
        <time>2021-09-05T09:30:20Z</time>
      </trkpt>
      <trkpt lat="47.31097" lon="5.54811">
        <ele>208.4</ele>
        <time>2021-09-05T09:30:23Z</time>
      </trkpt>
      <trkpt lat="47.31092" lon="5.54816">
        <ele>208.1</ele>
        <time>2021-09-05T09:30:28Z</time>
      </trkpt>
      <trkpt lat="47.31095" lon="5.54823">
        <ele>207.8</ele>
        <time>2021-09-05T09:30:32Z</time>
      </trkpt>
      <trkpt lat="47.31098" lon="5.54829">
        <ele>207</ele>
        <time>2021-09-05T09:30:37Z</time>
      </trkpt>
      <trkpt lat="47.31102" lon="5.54834">
        <ele>206.2</ele>
        <time>2021-09-05T09:30:41Z</time>
      </trkpt>
      <trkpt lat="47.31107" lon="5.54839">
        <ele>205.5</ele>
        <time>2021-09-05T09:30:46Z</time>
      </trkpt>
      <trkpt lat="47.31111" lon="5.54844">
        <ele>205</ele>
        <time>2021-09-05T09:30:50Z</time>
      </trkpt>
      <trkpt lat="47.31114" lon="5.54849">
        <ele>204</ele>
        <time>2021-09-05T09:30:55Z</time>
      </trkpt>
      <trkpt lat="47.31119" lon="5.54853">
        <ele>203.5</ele>
        <time>2021-09-05T09:30:59Z</time>
      </trkpt>
      <trkpt lat="47.31123" lon="5.54858">
        <ele>203.3</ele>
        <time>2021-09-05T09:31:03Z</time>
      </trkpt>
      <trkpt lat="47.31127" lon="5.54864">
        <ele>202.9</ele>
        <time>2021-09-05T09:31:07Z</time>
      </trkpt>
      <trkpt lat="47.31132" lon="5.54868">
        <ele>202.5</ele>
        <time>2021-09-05T09:31:12Z</time>
      </trkpt>
      <trkpt lat="47.31134" lon="5.54874">
        <ele>202.4</ele>
        <time>2021-09-05T09:31:17Z</time>
      </trkpt>
      <trkpt lat="47.31139" lon="5.54878">
        <ele>202.5</ele>
        <time>2021-09-05T09:31:21Z</time>
      </trkpt>
      <trkpt lat="47.31144" lon="5.5488">
        <ele>203</ele>
        <time>2021-09-05T09:31:26Z</time>
      </trkpt>
      <trkpt lat="47.31149" lon="5.54884">
        <ele>203.3</ele>
        <time>2021-09-05T09:31:32Z</time>
      </trkpt>
      <trkpt lat="47.31152" lon="5.5489">
        <ele>203</ele>
        <time>2021-09-05T09:31:38Z</time>
      </trkpt>
      <trkpt lat="47.31157" lon="5.54895">
        <ele>202.6</ele>
        <time>2021-09-05T09:31:42Z</time>
      </trkpt>
      <trkpt lat="47.31162" lon="5.54898">
        <ele>201.7</ele>
        <time>2021-09-05T09:31:46Z</time>
      </trkpt>
      <trkpt lat="47.31167" lon="5.54902">
        <ele>200.4</ele>
        <time>2021-09-05T09:31:51Z</time>
      </trkpt>
      <trkpt lat="47.31172" lon="5.54905">
        <ele>199.4</ele>
        <time>2021-09-05T09:31:55Z</time>
      </trkpt>
      <trkpt lat="47.31177" lon="5.54906">
        <ele>198.5</ele>
        <time>2021-09-05T09:31:59Z</time>
      </trkpt>
      <trkpt lat="47.31182" lon="5.54909">
        <ele>197.6</ele>
        <time>2021-09-05T09:32:02Z</time>
      </trkpt>
      <trkpt lat="47.31184" lon="5.54915">
        <ele>196.6</ele>
        <time>2021-09-05T09:32:06Z</time>
      </trkpt>
      <trkpt lat="47.31186" lon="5.54921">
        <ele>196.2</ele>
        <time>2021-09-05T09:32:10Z</time>
      </trkpt>
      <trkpt lat="47.31188" lon="5.54927">
        <ele>195.9</ele>
        <time>2021-09-05T09:32:14Z</time>
      </trkpt>
      <trkpt lat="47.31191" lon="5.54933">
        <ele>195.8</ele>
        <time>2021-09-05T09:32:19Z</time>
      </trkpt>
      <trkpt lat="47.31195" lon="5.54937">
        <ele>195.7</ele>
        <time>2021-09-05T09:32:23Z</time>
      </trkpt>
      <trkpt lat="47.31199" lon="5.54941">
        <ele>196</ele>
        <time>2021-09-05T09:32:27Z</time>
      </trkpt>
      <trkpt lat="47.31204" lon="5.54945">
        <ele>196.3</ele>
        <time>2021-09-05T09:32:31Z</time>
      </trkpt>
      <trkpt lat="47.31207" lon="5.54949">
        <ele>196.7</ele>
        <time>2021-09-05T09:32:34Z</time>
      </trkpt>
      <trkpt lat="47.31212" lon="5.54952">
        <ele>197.1</ele>
        <time>2021-09-05T09:32:37Z</time>
      </trkpt>
      <trkpt lat="47.31215" lon="5.54958">
        <ele>198</ele>
        <time>2021-09-05T09:32:41Z</time>
      </trkpt>
      <trkpt lat="47.31217" lon="5.54964">
        <ele>199</ele>
        <time>2021-09-05T09:32:46Z</time>
      </trkpt>
      <trkpt lat="47.31222" lon="5.54969">
        <ele>199.7</ele>
        <time>2021-09-05T09:32:52Z</time>
      </trkpt>
      <trkpt lat="47.31226" lon="5.54973">
        <ele>200.1</ele>
        <time>2021-09-05T09:32:56Z</time>
      </trkpt>
      <trkpt lat="47.31229" lon="5.54979">
        <ele>200.5</ele>
        <time>2021-09-05T09:33:00Z</time>
      </trkpt>
      <trkpt lat="47.31232" lon="5.54984">
        <ele>200.8</ele>
        <time>2021-09-05T09:33:04Z</time>
      </trkpt>
      <trkpt lat="47.31237" lon="5.54986">
        <ele>200.9</ele>
        <time>2021-09-05T09:33:13Z</time>
      </trkpt>
      <trkpt lat="47.31234" lon="5.54981">
        <ele>203.3</ele>
        <time>2021-09-05T09:34:04Z</time>
      </trkpt>
      <trkpt lat="47.31237" lon="5.54986">
        <ele>203.6</ele>
        <time>2021-09-05T09:34:20Z</time>
      </trkpt>
      <trkpt lat="47.31241" lon="5.54991">
        <ele>203.2</ele>
        <time>2021-09-05T09:34:25Z</time>
      </trkpt>
      <trkpt lat="47.3124" lon="5.54997">
        <ele>205.8</ele>
        <time>2021-09-05T09:34:52Z</time>
      </trkpt>
      <trkpt lat="47.31236" lon="5.55001">
        <ele>206.9</ele>
        <time>2021-09-05T09:35:00Z</time>
      </trkpt>
      <trkpt lat="47.31241" lon="5.55001">
        <ele>206.2</ele>
        <time>2021-09-05T09:35:03Z</time>
      </trkpt>
      <trkpt lat="47.31247" lon="5.54999">
        <ele>204.7</ele>
        <time>2021-09-05T09:35:06Z</time>
      </trkpt>
      <trkpt lat="47.31252" lon="5.55">
        <ele>202.5</ele>
        <time>2021-09-05T09:35:10Z</time>
      </trkpt>
      <trkpt lat="47.31256" lon="5.55002">
        <ele>200.4</ele>
        <time>2021-09-05T09:35:14Z</time>
      </trkpt>
      <trkpt lat="47.31259" lon="5.55006">
        <ele>197.7</ele>
        <time>2021-09-05T09:35:19Z</time>
      </trkpt>
      <trkpt lat="47.31261" lon="5.55013">
        <ele>195.7</ele>
        <time>2021-09-05T09:35:24Z</time>
      </trkpt>
      <trkpt lat="47.31264" lon="5.55019">
        <ele>194.2</ele>
        <time>2021-09-05T09:35:29Z</time>
      </trkpt>
      <trkpt lat="47.31267" lon="5.55024">
        <ele>193.3</ele>
        <time>2021-09-05T09:35:33Z</time>
      </trkpt>
      <trkpt lat="47.31272" lon="5.55029">
        <ele>193.3</ele>
        <time>2021-09-05T09:35:37Z</time>
      </trkpt>
      <trkpt lat="47.31275" lon="5.55034">
        <ele>193.2</ele>
        <time>2021-09-05T09:35:44Z</time>
      </trkpt>
      <trkpt lat="47.3128" lon="5.55038">
        <ele>193.5</ele>
        <time>2021-09-05T09:35:48Z</time>
      </trkpt>
      <trkpt lat="47.31285" lon="5.55043">
        <ele>194</ele>
        <time>2021-09-05T09:35:52Z</time>
      </trkpt>
      <trkpt lat="47.31289" lon="5.55049">
        <ele>194.5</ele>
        <time>2021-09-05T09:35:56Z</time>
      </trkpt>
      <trkpt lat="47.31293" lon="5.55054">
        <ele>195.5</ele>
        <time>2021-09-05T09:36:00Z</time>
      </trkpt>
      <trkpt lat="47.31297" lon="5.55061">
        <ele>196.5</ele>
        <time>2021-09-05T09:36:04Z</time>
      </trkpt>
      <trkpt lat="47.313" lon="5.55067">
        <ele>197.6</ele>
        <time>2021-09-05T09:36:08Z</time>
      </trkpt>
      <trkpt lat="47.31302" lon="5.55073">
        <ele>198.1</ele>
        <time>2021-09-05T09:36:12Z</time>
      </trkpt>
      <trkpt lat="47.31304" lon="5.55079">
        <ele>198</ele>
        <time>2021-09-05T09:36:17Z</time>
      </trkpt>
      <trkpt lat="47.31307" lon="5.55084">
        <ele>197.4</ele>
        <time>2021-09-05T09:36:21Z</time>
      </trkpt>
      <trkpt lat="47.31312" lon="5.55087">
        <ele>196.3</ele>
        <time>2021-09-05T09:36:25Z</time>
      </trkpt>
      <trkpt lat="47.31318" lon="5.55089">
        <ele>195.1</ele>
        <time>2021-09-05T09:36:30Z</time>
      </trkpt>
      <trkpt lat="47.31322" lon="5.55093">
        <ele>194.9</ele>
        <time>2021-09-05T09:36:33Z</time>
      </trkpt>
      <trkpt lat="47.31326" lon="5.55098">
        <ele>195</ele>
        <time>2021-09-05T09:36:36Z</time>
      </trkpt>
      <trkpt lat="47.3133" lon="5.55102">
        <ele>195</ele>
        <time>2021-09-05T09:36:40Z</time>
      </trkpt>
      <trkpt lat="47.31334" lon="5.55106">
        <ele>195.3</ele>
        <time>2021-09-05T09:36:44Z</time>
      </trkpt>
      <trkpt lat="47.31339" lon="5.55109">
        <ele>195.4</ele>
        <time>2021-09-05T09:36:49Z</time>
      </trkpt>
      <trkpt lat="47.31343" lon="5.55114">
        <ele>195.5</ele>
        <time>2021-09-05T09:36:53Z</time>
      </trkpt>
      <trkpt lat="47.31345" lon="5.55119">
        <ele>195.6</ele>
        <time>2021-09-05T09:36:57Z</time>
      </trkpt>
      <trkpt lat="47.31349" lon="5.55124">
        <ele>193.9</ele>
        <time>2021-09-05T09:37:05Z</time>
      </trkpt>
      <trkpt lat="47.31353" lon="5.5513">
        <ele>193.3</ele>
        <time>2021-09-05T09:37:09Z</time>
      </trkpt>
      <trkpt lat="47.31357" lon="5.55136">
        <ele>193.4</ele>
        <time>2021-09-05T09:37:13Z</time>
      </trkpt>
      <trkpt lat="47.31361" lon="5.5514">
        <ele>194.1</ele>
        <time>2021-09-05T09:37:17Z</time>
      </trkpt>
      <trkpt lat="47.31365" lon="5.55144">
        <ele>194.8</ele>
        <time>2021-09-05T09:37:20Z</time>
      </trkpt>
      <trkpt lat="47.31369" lon="5.55149">
        <ele>196</ele>
        <time>2021-09-05T09:37:24Z</time>
      </trkpt>
      <trkpt lat="47.31373" lon="5.55154">
        <ele>196.9</ele>
        <time>2021-09-05T09:37:29Z</time>
      </trkpt>
      <trkpt lat="47.31379" lon="5.55156">
        <ele>197.7</ele>
        <time>2021-09-05T09:37:33Z</time>
      </trkpt>
      <trkpt lat="47.31386" lon="5.55158">
        <ele>198.2</ele>
        <time>2021-09-05T09:37:36Z</time>
      </trkpt>
      <trkpt lat="47.31391" lon="5.5516">
        <ele>198.8</ele>
        <time>2021-09-05T09:37:39Z</time>
      </trkpt>
      <trkpt lat="47.31395" lon="5.55165">
        <ele>200</ele>
        <time>2021-09-05T09:37:43Z</time>
      </trkpt>
      <trkpt lat="47.31398" lon="5.55171">
        <ele>202.1</ele>
        <time>2021-09-05T09:37:48Z</time>
      </trkpt>
      <trkpt lat="47.31401" lon="5.55177">
        <ele>203.6</ele>
        <time>2021-09-05T09:37:54Z</time>
      </trkpt>
      <trkpt lat="47.31406" lon="5.55182">
        <ele>204.5</ele>
        <time>2021-09-05T09:37:59Z</time>
      </trkpt>
      <trkpt lat="47.31411" lon="5.55186">
        <ele>205.4</ele>
        <time>2021-09-05T09:38:03Z</time>
      </trkpt>
      <trkpt lat="47.31415" lon="5.55191">
        <ele>206</ele>
        <time>2021-09-05T09:38:08Z</time>
      </trkpt>
      <trkpt lat="47.31419" lon="5.55194">
        <ele>206.1</ele>
        <time>2021-09-05T09:38:11Z</time>
      </trkpt>
      <trkpt lat="47.31424" lon="5.55196">
        <ele>205.8</ele>
        <time>2021-09-05T09:38:14Z</time>
      </trkpt>
      <trkpt lat="47.31425" lon="5.55203">
        <ele>205.1</ele>
        <time>2021-09-05T09:38:20Z</time>
      </trkpt>
      <trkpt lat="47.31428" lon="5.55209">
        <ele>205.2</ele>
        <time>2021-09-05T09:38:28Z</time>
      </trkpt>
      <trkpt lat="47.31432" lon="5.55214">
        <ele>205.3</ele>
        <time>2021-09-05T09:38:33Z</time>
      </trkpt>
      <trkpt lat="47.31436" lon="5.55219">
        <ele>205.8</ele>
        <time>2021-09-05T09:38:37Z</time>
      </trkpt>
      <trkpt lat="47.31439" lon="5.55225">
        <ele>206.3</ele>
        <time>2021-09-05T09:38:41Z</time>
      </trkpt>
      <trkpt lat="47.31441" lon="5.55231">
        <ele>206.7</ele>
        <time>2021-09-05T09:38:45Z</time>
      </trkpt>
      <trkpt lat="47.31445" lon="5.55235">
        <ele>207.3</ele>
        <time>2021-09-05T09:38:50Z</time>
      </trkpt>
      <trkpt lat="47.31449" lon="5.55239">
        <ele>208.2</ele>
        <time>2021-09-05T09:38:54Z</time>
      </trkpt>
      <trkpt lat="47.31453" lon="5.55242">
        <ele>208.8</ele>
        <time>2021-09-05T09:38:57Z</time>
      </trkpt>
      <trkpt lat="47.31459" lon="5.55244">
        <ele>209.4</ele>
        <time>2021-09-05T09:39:01Z</time>
      </trkpt>
      <trkpt lat="47.31464" lon="5.55247">
        <ele>210</ele>
        <time>2021-09-05T09:39:05Z</time>
      </trkpt>
      <trkpt lat="47.31468" lon="5.55253">
        <ele>210.5</ele>
        <time>2021-09-05T09:39:09Z</time>
      </trkpt>
      <trkpt lat="47.31472" lon="5.55258">
        <ele>211.4</ele>
        <time>2021-09-05T09:39:13Z</time>
      </trkpt>
      <trkpt lat="47.31477" lon="5.55262">
        <ele>211.8</ele>
        <time>2021-09-05T09:39:17Z</time>
      </trkpt>
      <trkpt lat="47.31481" lon="5.55266">
        <ele>212.2</ele>
        <time>2021-09-05T09:39:22Z</time>
      </trkpt>
      <trkpt lat="47.31485" lon="5.55272">
        <ele>212.6</ele>
        <time>2021-09-05T09:39:26Z</time>
      </trkpt>
      <trkpt lat="47.31489" lon="5.55275">
        <ele>212.8</ele>
        <time>2021-09-05T09:39:29Z</time>
      </trkpt>
      <trkpt lat="47.31492" lon="5.5528">
        <ele>213.2</ele>
        <time>2021-09-05T09:39:34Z</time>
      </trkpt>
      <trkpt lat="47.31496" lon="5.55284">
        <ele>214</ele>
        <time>2021-09-05T09:39:39Z</time>
      </trkpt>
      <trkpt lat="47.31498" lon="5.55292">
        <ele>214.9</ele>
        <time>2021-09-05T09:39:44Z</time>
      </trkpt>
      <trkpt lat="47.31501" lon="5.55296">
        <ele>215.9</ele>
        <time>2021-09-05T09:39:48Z</time>
      </trkpt>
      <trkpt lat="47.31506" lon="5.55301">
        <ele>216.7</ele>
        <time>2021-09-05T09:39:55Z</time>
      </trkpt>
      <trkpt lat="47.31509" lon="5.55307">
        <ele>216.8</ele>
        <time>2021-09-05T09:40:02Z</time>
      </trkpt>
      <trkpt lat="47.31513" lon="5.55311">
        <ele>216.7</ele>
        <time>2021-09-05T09:40:06Z</time>
      </trkpt>
      <trkpt lat="47.31517" lon="5.55315">
        <ele>216.4</ele>
        <time>2021-09-05T09:40:12Z</time>
      </trkpt>
      <trkpt lat="47.31522" lon="5.55318">
        <ele>215.7</ele>
        <time>2021-09-05T09:40:17Z</time>
      </trkpt>
      <trkpt lat="47.31526" lon="5.55323">
        <ele>214.3</ele>
        <time>2021-09-05T09:40:23Z</time>
      </trkpt>
      <trkpt lat="47.3153" lon="5.55329">
        <ele>212.7</ele>
        <time>2021-09-05T09:40:27Z</time>
      </trkpt>
      <trkpt lat="47.31534" lon="5.55336">
        <ele>211.4</ele>
        <time>2021-09-05T09:40:30Z</time>
      </trkpt>
      <trkpt lat="47.31538" lon="5.55342">
        <ele>210.5</ele>
        <time>2021-09-05T09:40:33Z</time>
      </trkpt>
      <trkpt lat="47.31541" lon="5.55347">
        <ele>209.5</ele>
        <time>2021-09-05T09:40:36Z</time>
      </trkpt>
      <trkpt lat="47.31545" lon="5.55353">
        <ele>208.2</ele>
        <time>2021-09-05T09:40:40Z</time>
      </trkpt>
      <trkpt lat="47.31549" lon="5.55356">
        <ele>207.1</ele>
        <time>2021-09-05T09:40:44Z</time>
      </trkpt>
      <trkpt lat="47.31553" lon="5.55361">
        <ele>206.5</ele>
        <time>2021-09-05T09:40:48Z</time>
      </trkpt>
      <trkpt lat="47.31556" lon="5.55367">
        <ele>206.6</ele>
        <time>2021-09-05T09:40:52Z</time>
      </trkpt>
      <trkpt lat="47.31559" lon="5.55373">
        <ele>207.2</ele>
        <time>2021-09-05T09:40:56Z</time>
      </trkpt>
      <trkpt lat="47.31563" lon="5.55376">
        <ele>208</ele>
        <time>2021-09-05T09:41:01Z</time>
      </trkpt>
      <trkpt lat="47.31568" lon="5.55378">
        <ele>208.4</ele>
        <time>2021-09-05T09:41:06Z</time>
      </trkpt>
      <trkpt lat="47.31573" lon="5.5538">
        <ele>208.5</ele>
        <time>2021-09-05T09:41:11Z</time>
      </trkpt>
      <trkpt lat="47.31577" lon="5.55383">
        <ele>208.4</ele>
        <time>2021-09-05T09:41:15Z</time>
      </trkpt>
      <trkpt lat="47.31581" lon="5.55388">
        <ele>208.3</ele>
        <time>2021-09-05T09:41:19Z</time>
      </trkpt>
      <trkpt lat="47.31584" lon="5.55394">
        <ele>208.7</ele>
        <time>2021-09-05T09:41:23Z</time>
      </trkpt>
      <trkpt lat="47.31588" lon="5.554">
        <ele>209.5</ele>
        <time>2021-09-05T09:41:27Z</time>
      </trkpt>
      <trkpt lat="47.31591" lon="5.55404">
        <ele>210.1</ele>
        <time>2021-09-05T09:41:31Z</time>
      </trkpt>
      <trkpt lat="47.31595" lon="5.55408">
        <ele>210.4</ele>
        <time>2021-09-05T09:41:35Z</time>
      </trkpt>
      <trkpt lat="47.31599" lon="5.55412">
        <ele>210.2</ele>
        <time>2021-09-05T09:41:40Z</time>
      </trkpt>
      <trkpt lat="47.31602" lon="5.55419">
        <ele>210.1</ele>
        <time>2021-09-05T09:41:46Z</time>
      </trkpt>
      <trkpt lat="47.31607" lon="5.5542">
        <ele>210.3</ele>
        <time>2021-09-05T09:41:50Z</time>
      </trkpt>
      <trkpt lat="47.31611" lon="5.55423">
        <ele>210.9</ele>
        <time>2021-09-05T09:41:54Z</time>
      </trkpt>
      <trkpt lat="47.31615" lon="5.55428">
        <ele>211.6</ele>
        <time>2021-09-05T09:41:58Z</time>
      </trkpt>
      <trkpt lat="47.31619" lon="5.55432">
        <ele>211.9</ele>
        <time>2021-09-05T09:42:01Z</time>
      </trkpt>
      <trkpt lat="47.31624" lon="5.55435">
        <ele>212.6</ele>
        <time>2021-09-05T09:42:04Z</time>
      </trkpt>
      <trkpt lat="47.31628" lon="5.55439">
        <ele>213.3</ele>
        <time>2021-09-05T09:42:07Z</time>
      </trkpt>
      <trkpt lat="47.31633" lon="5.55443">
        <ele>214.2</ele>
        <time>2021-09-05T09:42:11Z</time>
      </trkpt>
      <trkpt lat="47.31637" lon="5.55447">
        <ele>215.2</ele>
        <time>2021-09-05T09:42:15Z</time>
      </trkpt>
      <trkpt lat="47.31641" lon="5.55451">
        <ele>216.2</ele>
        <time>2021-09-05T09:42:18Z</time>
      </trkpt>
      <trkpt lat="47.31644" lon="5.55457">
        <ele>217.6</ele>
        <time>2021-09-05T09:42:21Z</time>
      </trkpt>
      <trkpt lat="47.31647" lon="5.55464">
        <ele>218.8</ele>
        <time>2021-09-05T09:42:24Z</time>
      </trkpt>
      <trkpt lat="47.31649" lon="5.5547">
        <ele>219.9</ele>
        <time>2021-09-05T09:42:28Z</time>
      </trkpt>
      <trkpt lat="47.31653" lon="5.55474">
        <ele>220</ele>
        <time>2021-09-05T09:42:33Z</time>
      </trkpt>
      <trkpt lat="47.31657" lon="5.5548">
        <ele>219.6</ele>
        <time>2021-09-05T09:42:38Z</time>
      </trkpt>
      <trkpt lat="47.31661" lon="5.55485">
        <ele>219.1</ele>
        <time>2021-09-05T09:42:42Z</time>
      </trkpt>
      <trkpt lat="47.31664" lon="5.55489">
        <ele>218.7</ele>
        <time>2021-09-05T09:42:45Z</time>
      </trkpt>
      <trkpt lat="47.31667" lon="5.55495">
        <ele>218.4</ele>
        <time>2021-09-05T09:42:49Z</time>
      </trkpt>
      <trkpt lat="47.31672" lon="5.55499">
        <ele>218.2</ele>
        <time>2021-09-05T09:42:54Z</time>
      </trkpt>
      <trkpt lat="47.31676" lon="5.555">
        <ele>218.3</ele>
        <time>2021-09-05T09:42:57Z</time>
      </trkpt>
      <trkpt lat="47.31681" lon="5.55501">
        <ele>217.6</ele>
        <time>2021-09-05T09:43:01Z</time>
      </trkpt>
      <trkpt lat="47.31684" lon="5.55506">
        <ele>216.6</ele>
        <time>2021-09-05T09:43:06Z</time>
      </trkpt>
      <trkpt lat="47.31687" lon="5.55512">
        <ele>216.2</ele>
        <time>2021-09-05T09:43:10Z</time>
      </trkpt>
      <trkpt lat="47.3169" lon="5.55518">
        <ele>215.4</ele>
        <time>2021-09-05T09:43:14Z</time>
      </trkpt>
      <trkpt lat="47.31694" lon="5.55523">
        <ele>214.4</ele>
        <time>2021-09-05T09:43:18Z</time>
      </trkpt>
      <trkpt lat="47.31698" lon="5.55526">
        <ele>213</ele>
        <time>2021-09-05T09:43:22Z</time>
      </trkpt>
      <trkpt lat="47.31702" lon="5.55532">
        <ele>211.3</ele>
        <time>2021-09-05T09:43:28Z</time>
      </trkpt>
      <trkpt lat="47.31705" lon="5.55538">
        <ele>210.1</ele>
        <time>2021-09-05T09:43:33Z</time>
      </trkpt>
      <trkpt lat="47.31709" lon="5.55542">
        <ele>209.4</ele>
        <time>2021-09-05T09:43:37Z</time>
      </trkpt>
      <trkpt lat="47.31713" lon="5.55547">
        <ele>208.4</ele>
        <time>2021-09-05T09:43:42Z</time>
      </trkpt>
      <trkpt lat="47.31718" lon="5.5555">
        <ele>208</ele>
        <time>2021-09-05T09:43:46Z</time>
      </trkpt>
      <trkpt lat="47.31723" lon="5.55555">
        <ele>208.3</ele>
        <time>2021-09-05T09:43:50Z</time>
      </trkpt>
      <trkpt lat="47.31727" lon="5.5556">
        <ele>209.3</ele>
        <time>2021-09-05T09:43:54Z</time>
      </trkpt>
      <trkpt lat="47.31731" lon="5.55565">
        <ele>210.8</ele>
        <time>2021-09-05T09:43:58Z</time>
      </trkpt>
      <trkpt lat="47.31735" lon="5.5557">
        <ele>212.1</ele>
        <time>2021-09-05T09:44:02Z</time>
      </trkpt>
      <trkpt lat="47.31738" lon="5.55573">
        <ele>213</ele>
        <time>2021-09-05T09:44:06Z</time>
      </trkpt>
      <trkpt lat="47.31742" lon="5.55578">
        <ele>213.7</ele>
        <time>2021-09-05T09:44:10Z</time>
      </trkpt>
      <trkpt lat="47.31746" lon="5.55583">
        <ele>214.1</ele>
        <time>2021-09-05T09:44:13Z</time>
      </trkpt>
      <trkpt lat="47.3175" lon="5.55588">
        <ele>214</ele>
        <time>2021-09-05T09:44:17Z</time>
      </trkpt>
      <trkpt lat="47.31753" lon="5.55593">
        <ele>213.8</ele>
        <time>2021-09-05T09:44:21Z</time>
      </trkpt>
      <trkpt lat="47.31755" lon="5.55599">
        <ele>213.1</ele>
        <time>2021-09-05T09:44:26Z</time>
      </trkpt>
      <trkpt lat="47.3176" lon="5.55603">
        <ele>212.4</ele>
        <time>2021-09-05T09:44:31Z</time>
      </trkpt>
      <trkpt lat="47.31764" lon="5.55606">
        <ele>211.8</ele>
        <time>2021-09-05T09:44:37Z</time>
      </trkpt>
      <trkpt lat="47.31768" lon="5.55609">
        <ele>210.6</ele>
        <time>2021-09-05T09:44:43Z</time>
      </trkpt>
      <trkpt lat="47.31772" lon="5.55613">
        <ele>209.4</ele>
        <time>2021-09-05T09:44:50Z</time>
      </trkpt>
      <trkpt lat="47.31773" lon="5.5562">
        <ele>208.6</ele>
        <time>2021-09-05T09:44:56Z</time>
      </trkpt>
      <trkpt lat="47.31777" lon="5.55623">
        <ele>208</ele>
        <time>2021-09-05T09:44:59Z</time>
      </trkpt>
      <trkpt lat="47.31781" lon="5.55627">
        <ele>206.1</ele>
        <time>2021-09-05T09:45:04Z</time>
      </trkpt>
      <trkpt lat="47.31786" lon="5.55631">
        <ele>203.2</ele>
        <time>2021-09-05T09:45:14Z</time>
      </trkpt>
      <trkpt lat="47.3179" lon="5.55637">
        <ele>202.5</ele>
        <time>2021-09-05T09:45:18Z</time>
      </trkpt>
      <trkpt lat="47.31795" lon="5.55642">
        <ele>202.2</ele>
        <time>2021-09-05T09:45:21Z</time>
      </trkpt>
      <trkpt lat="47.31801" lon="5.55645">
        <ele>202.3</ele>
        <time>2021-09-05T09:45:24Z</time>
      </trkpt>
      <trkpt lat="47.31805" lon="5.5565">
        <ele>202.6</ele>
        <time>2021-09-05T09:45:29Z</time>
      </trkpt>
      <trkpt lat="47.31809" lon="5.55655">
        <ele>202.8</ele>
        <time>2021-09-05T09:45:34Z</time>
      </trkpt>
      <trkpt lat="47.31816" lon="5.5566">
        <ele>203</ele>
        <time>2021-09-05T09:45:37Z</time>
      </trkpt>
      <trkpt lat="47.31822" lon="5.55664">
        <ele>203.2</ele>
        <time>2021-09-05T09:45:40Z</time>
      </trkpt>
      <trkpt lat="47.31829" lon="5.55666">
        <ele>203.6</ele>
        <time>2021-09-05T09:45:43Z</time>
      </trkpt>
      <trkpt lat="47.31835" lon="5.55668">
        <ele>204.4</ele>
        <time>2021-09-05T09:45:46Z</time>
      </trkpt>
      <trkpt lat="47.3184" lon="5.55669">
        <ele>205.3</ele>
        <time>2021-09-05T09:45:49Z</time>
      </trkpt>
      <trkpt lat="47.31846" lon="5.55669">
        <ele>206.2</ele>
        <time>2021-09-05T09:45:53Z</time>
      </trkpt>
      <trkpt lat="47.31851" lon="5.55669">
        <ele>209</ele>
        <time>2021-09-05T09:46:00Z</time>
      </trkpt>
      <trkpt lat="47.31846" lon="5.55666">
        <ele>209.8</ele>
        <time>2021-09-05T09:46:08Z</time>
      </trkpt>
      <trkpt lat="47.31841" lon="5.55668">
        <ele>209</ele>
        <time>2021-09-05T09:46:14Z</time>
      </trkpt>
      <trkpt lat="47.31839" lon="5.55662">
        <ele>208</ele>
        <time>2021-09-05T09:46:29Z</time>
      </trkpt>
      <trkpt lat="47.31841" lon="5.55656">
        <ele>207.8</ele>
        <time>2021-09-05T09:46:33Z</time>
      </trkpt>
      <trkpt lat="47.31837" lon="5.55659">
        <ele>206.1</ele>
        <time>2021-09-05T09:46:49Z</time>
      </trkpt>
      <trkpt lat="47.31833" lon="5.55664">
        <ele>205.1</ele>
        <time>2021-09-05T09:46:58Z</time>
      </trkpt>
      <trkpt lat="47.31835" lon="5.55671">
        <ele>206.6</ele>
        <time>2021-09-05T09:47:18Z</time>
      </trkpt>
      <trkpt lat="47.31831" lon="5.55675">
        <ele>214.2</ele>
        <time>2021-09-05T09:48:05Z</time>
      </trkpt>
      <trkpt lat="47.31834" lon="5.55669">
        <ele>215.8</ele>
        <time>2021-09-05T09:48:26Z</time>
      </trkpt>
      <trkpt lat="47.31838" lon="5.55667">
        <ele>216.1</ele>
        <time>2021-09-05T09:48:30Z</time>
      </trkpt>
      <trkpt lat="47.31834" lon="5.5567">
        <ele>215.6</ele>
        <time>2021-09-05T09:48:43Z</time>
      </trkpt>
      <trkpt lat="47.31832" lon="5.55676">
        <ele>216.7</ele>
        <time>2021-09-05T09:49:09Z</time>
      </trkpt>
      <trkpt lat="47.31835" lon="5.55682">
        <ele>216.9</ele>
        <time>2021-09-05T09:49:15Z</time>
      </trkpt>
      <trkpt lat="47.3184" lon="5.55685">
        <ele>216.9</ele>
        <time>2021-09-05T09:49:18Z</time>
      </trkpt>
      <trkpt lat="47.31845" lon="5.55687">
        <ele>216.8</ele>
        <time>2021-09-05T09:49:22Z</time>
      </trkpt>
      <trkpt lat="47.31849" lon="5.55688">
        <ele>216.7</ele>
        <time>2021-09-05T09:49:25Z</time>
      </trkpt>
      <trkpt lat="47.31854" lon="5.55691">
        <ele>216.3</ele>
        <time>2021-09-05T09:49:30Z</time>
      </trkpt>
      <trkpt lat="47.31858" lon="5.55695">
        <ele>215.9</ele>
        <time>2021-09-05T09:49:35Z</time>
      </trkpt>
      <trkpt lat="47.31862" lon="5.55692">
        <ele>214</ele>
        <time>2021-09-05T09:49:41Z</time>
      </trkpt>
      <trkpt lat="47.31867" lon="5.55695">
        <ele>212</ele>
        <time>2021-09-05T09:49:47Z</time>
      </trkpt>
      <trkpt lat="47.31867" lon="5.55703">
        <ele>210.9</ele>
        <time>2021-09-05T09:49:53Z</time>
      </trkpt>
      <trkpt lat="47.3187" lon="5.55709">
        <ele>210.4</ele>
        <time>2021-09-05T09:50:00Z</time>
      </trkpt>
      <trkpt lat="47.31876" lon="5.55708">
        <ele>210</ele>
        <time>2021-09-05T09:50:04Z</time>
      </trkpt>
      <trkpt lat="47.31881" lon="5.55709">
        <ele>209.4</ele>
        <time>2021-09-05T09:50:07Z</time>
      </trkpt>
      <trkpt lat="47.31886" lon="5.5571">
        <ele>208.6</ele>
        <time>2021-09-05T09:50:10Z</time>
      </trkpt>
      <trkpt lat="47.31891" lon="5.55712">
        <ele>207.7</ele>
        <time>2021-09-05T09:50:14Z</time>
      </trkpt>
      <trkpt lat="47.31896" lon="5.55716">
        <ele>207</ele>
        <time>2021-09-05T09:50:18Z</time>
      </trkpt>
      <trkpt lat="47.31898" lon="5.55722">
        <ele>206</ele>
        <time>2021-09-05T09:50:22Z</time>
      </trkpt>
      <trkpt lat="47.31901" lon="5.55728">
        <ele>204.6</ele>
        <time>2021-09-05T09:50:27Z</time>
      </trkpt>
      <trkpt lat="47.31906" lon="5.55731">
        <ele>203.6</ele>
        <time>2021-09-05T09:50:31Z</time>
      </trkpt>
      <trkpt lat="47.31911" lon="5.55732">
        <ele>202.8</ele>
        <time>2021-09-05T09:50:35Z</time>
      </trkpt>
      <trkpt lat="47.31916" lon="5.55736">
        <ele>201.5</ele>
        <time>2021-09-05T09:50:40Z</time>
      </trkpt>
      <trkpt lat="47.3192" lon="5.55739">
        <ele>200.8</ele>
        <time>2021-09-05T09:50:44Z</time>
      </trkpt>
      <trkpt lat="47.31924" lon="5.55744">
        <ele>200.7</ele>
        <time>2021-09-05T09:50:48Z</time>
      </trkpt>
      <trkpt lat="47.31929" lon="5.55747">
        <ele>200.8</ele>
        <time>2021-09-05T09:50:52Z</time>
      </trkpt>
      <trkpt lat="47.31934" lon="5.55748">
        <ele>200.6</ele>
        <time>2021-09-05T09:50:56Z</time>
      </trkpt>
      <trkpt lat="47.31938" lon="5.55753">
        <ele>199.9</ele>
        <time>2021-09-05T09:51:02Z</time>
      </trkpt>
      <trkpt lat="47.31942" lon="5.55756">
        <ele>199.5</ele>
        <time>2021-09-05T09:51:06Z</time>
      </trkpt>
      <trkpt lat="47.31948" lon="5.5576">
        <ele>199.4</ele>
        <time>2021-09-05T09:51:11Z</time>
      </trkpt>
      <trkpt lat="47.31953" lon="5.55762">
        <ele>199.4</ele>
        <time>2021-09-05T09:51:15Z</time>
      </trkpt>
      <trkpt lat="47.31957" lon="5.55766">
        <ele>199</ele>
        <time>2021-09-05T09:51:19Z</time>
      </trkpt>
      <trkpt lat="47.3196" lon="5.55772">
        <ele>198.2</ele>
        <time>2021-09-05T09:51:24Z</time>
      </trkpt>
      <trkpt lat="47.31963" lon="5.55777">
        <ele>198.2</ele>
        <time>2021-09-05T09:51:28Z</time>
      </trkpt>
      <trkpt lat="47.31967" lon="5.55781">
        <ele>198.3</ele>
        <time>2021-09-05T09:51:32Z</time>
      </trkpt>
      <trkpt lat="47.31971" lon="5.55783">
        <ele>198.9</ele>
        <time>2021-09-05T09:51:36Z</time>
      </trkpt>
      <trkpt lat="47.31976" lon="5.55787">
        <ele>199.9</ele>
        <time>2021-09-05T09:51:40Z</time>
      </trkpt>
      <trkpt lat="47.31981" lon="5.55789">
        <ele>200.7</ele>
        <time>2021-09-05T09:51:44Z</time>
      </trkpt>
      <trkpt lat="47.31986" lon="5.55792">
        <ele>200.7</ele>
        <time>2021-09-05T09:51:49Z</time>
      </trkpt>
      <trkpt lat="47.3199" lon="5.55795">
        <ele>200.4</ele>
        <time>2021-09-05T09:51:52Z</time>
      </trkpt>
      <trkpt lat="47.31995" lon="5.55798">
        <ele>199.8</ele>
        <time>2021-09-05T09:51:56Z</time>
      </trkpt>
      <trkpt lat="47.31999" lon="5.55803">
        <ele>199.1</ele>
        <time>2021-09-05T09:52:00Z</time>
      </trkpt>
      <trkpt lat="47.32003" lon="5.55806">
        <ele>198.4</ele>
        <time>2021-09-05T09:52:04Z</time>
      </trkpt>
      <trkpt lat="47.32007" lon="5.55808">
        <ele>198.1</ele>
        <time>2021-09-05T09:52:08Z</time>
      </trkpt>
      <trkpt lat="47.32012" lon="5.55811">
        <ele>197.9</ele>
        <time>2021-09-05T09:52:13Z</time>
      </trkpt>
      <trkpt lat="47.32016" lon="5.55816">
        <ele>198.4</ele>
        <time>2021-09-05T09:52:17Z</time>
      </trkpt>
      <trkpt lat="47.32019" lon="5.55821">
        <ele>199.2</ele>
        <time>2021-09-05T09:52:21Z</time>
      </trkpt>
      <trkpt lat="47.32024" lon="5.55824">
        <ele>200.1</ele>
        <time>2021-09-05T09:52:25Z</time>
      </trkpt>
      <trkpt lat="47.32029" lon="5.55826">
        <ele>200.4</ele>
        <time>2021-09-05T09:52:28Z</time>
      </trkpt>
      <trkpt lat="47.32033" lon="5.55828">
        <ele>200.7</ele>
        <time>2021-09-05T09:52:31Z</time>
      </trkpt>
      <trkpt lat="47.32037" lon="5.55833">
        <ele>201.2</ele>
        <time>2021-09-05T09:52:35Z</time>
      </trkpt>
      <trkpt lat="47.32042" lon="5.55835">
        <ele>201.4</ele>
        <time>2021-09-05T09:52:40Z</time>
      </trkpt>
      <trkpt lat="47.32046" lon="5.55839">
        <ele>201.4</ele>
        <time>2021-09-05T09:52:44Z</time>
      </trkpt>
      <trkpt lat="47.3205" lon="5.55843">
        <ele>201.1</ele>
        <time>2021-09-05T09:52:48Z</time>
      </trkpt>
      <trkpt lat="47.32054" lon="5.55848">
        <ele>200.6</ele>
        <time>2021-09-05T09:52:53Z</time>
      </trkpt>
      <trkpt lat="47.32059" lon="5.55851">
        <ele>200.4</ele>
        <time>2021-09-05T09:52:57Z</time>
      </trkpt>
      <trkpt lat="47.32064" lon="5.55854">
        <ele>200.2</ele>
        <time>2021-09-05T09:53:01Z</time>
      </trkpt>
      <trkpt lat="47.32069" lon="5.55858">
        <ele>200.2</ele>
        <time>2021-09-05T09:53:05Z</time>
      </trkpt>
      <trkpt lat="47.32074" lon="5.55861">
        <ele>200.2</ele>
        <time>2021-09-05T09:53:09Z</time>
      </trkpt>
      <trkpt lat="47.32077" lon="5.55865">
        <ele>200.4</ele>
        <time>2021-09-05T09:53:13Z</time>
      </trkpt>
      <trkpt lat="47.32081" lon="5.55871">
        <ele>200.5</ele>
        <time>2021-09-05T09:53:17Z</time>
      </trkpt>
      <trkpt lat="47.32085" lon="5.55875">
        <ele>200.7</ele>
        <time>2021-09-05T09:53:21Z</time>
      </trkpt>
      <trkpt lat="47.3209" lon="5.55878">
        <ele>201.2</ele>
        <time>2021-09-05T09:53:25Z</time>
      </trkpt>
      <trkpt lat="47.32094" lon="5.55882">
        <ele>201.6</ele>
        <time>2021-09-05T09:53:30Z</time>
      </trkpt>
      <trkpt lat="47.32099" lon="5.55885">
        <ele>201.8</ele>
        <time>2021-09-05T09:53:34Z</time>
      </trkpt>
      <trkpt lat="47.32104" lon="5.55888">
        <ele>202.2</ele>
        <time>2021-09-05T09:53:38Z</time>
      </trkpt>
      <trkpt lat="47.32109" lon="5.55892">
        <ele>202.4</ele>
        <time>2021-09-05T09:53:41Z</time>
      </trkpt>
      <trkpt lat="47.32114" lon="5.55896">
        <ele>202.7</ele>
        <time>2021-09-05T09:53:45Z</time>
      </trkpt>
      <trkpt lat="47.32118" lon="5.55899">
        <ele>203.3</ele>
        <time>2021-09-05T09:53:49Z</time>
      </trkpt>
      <trkpt lat="47.32122" lon="5.55903">
        <ele>204.1</ele>
        <time>2021-09-05T09:53:56Z</time>
      </trkpt>
      <trkpt lat="47.32126" lon="5.55905">
        <ele>204.5</ele>
        <time>2021-09-05T09:54:01Z</time>
      </trkpt>
      <trkpt lat="47.32131" lon="5.55909">
        <ele>204.3</ele>
        <time>2021-09-05T09:54:06Z</time>
      </trkpt>
      <trkpt lat="47.32136" lon="5.55912">
        <ele>204</ele>
        <time>2021-09-05T09:54:10Z</time>
      </trkpt>
      <trkpt lat="47.3214" lon="5.55916">
        <ele>203.9</ele>
        <time>2021-09-05T09:54:14Z</time>
      </trkpt>
      <trkpt lat="47.32144" lon="5.55921">
        <ele>203.6</ele>
        <time>2021-09-05T09:54:19Z</time>
      </trkpt>
      <trkpt lat="47.32148" lon="5.55926">
        <ele>203.1</ele>
        <time>2021-09-05T09:54:26Z</time>
      </trkpt>
      <trkpt lat="47.32153" lon="5.55931">
        <ele>202.8</ele>
        <time>2021-09-05T09:54:30Z</time>
      </trkpt>
      <trkpt lat="47.32157" lon="5.55935">
        <ele>202.7</ele>
        <time>2021-09-05T09:54:34Z</time>
      </trkpt>
      <trkpt lat="47.32161" lon="5.55939">
        <ele>202.7</ele>
        <time>2021-09-05T09:54:38Z</time>
      </trkpt>
      <trkpt lat="47.32166" lon="5.55944">
        <ele>202.7</ele>
        <time>2021-09-05T09:54:43Z</time>
      </trkpt>
      <trkpt lat="47.32171" lon="5.55948">
        <ele>202.8</ele>
        <time>2021-09-05T09:54:47Z</time>
      </trkpt>
      <trkpt lat="47.32176" lon="5.55952">
        <ele>203</ele>
        <time>2021-09-05T09:54:50Z</time>
      </trkpt>
      <trkpt lat="47.3218" lon="5.55956">
        <ele>203.2</ele>
        <time>2021-09-05T09:54:53Z</time>
      </trkpt>
      <trkpt lat="47.32185" lon="5.5596">
        <ele>203.4</ele>
        <time>2021-09-05T09:54:56Z</time>
      </trkpt>
      <trkpt lat="47.32189" lon="5.55966">
        <ele>202.9</ele>
        <time>2021-09-05T09:55:00Z</time>
      </trkpt>
      <trkpt lat="47.32193" lon="5.5597">
        <ele>202.4</ele>
        <time>2021-09-05T09:55:04Z</time>
      </trkpt>
      <trkpt lat="47.32198" lon="5.55973">
        <ele>201.8</ele>
        <time>2021-09-05T09:55:10Z</time>
      </trkpt>
      <trkpt lat="47.32202" lon="5.55977">
        <ele>201.5</ele>
        <time>2021-09-05T09:55:17Z</time>
      </trkpt>
      <trkpt lat="47.32206" lon="5.55981">
        <ele>201.4</ele>
        <time>2021-09-05T09:55:21Z</time>
      </trkpt>
      <trkpt lat="47.32211" lon="5.55982">
        <ele>201.7</ele>
        <time>2021-09-05T09:55:25Z</time>
      </trkpt>
      <trkpt lat="47.32214" lon="5.55989">
        <ele>201.5</ele>
        <time>2021-09-05T09:55:30Z</time>
      </trkpt>
      <trkpt lat="47.32218" lon="5.55994">
        <ele>200.6</ele>
        <time>2021-09-05T09:55:36Z</time>
      </trkpt>
      <trkpt lat="47.32223" lon="5.55998">
        <ele>199.9</ele>
        <time>2021-09-05T09:55:40Z</time>
      </trkpt>
      <trkpt lat="47.32228" lon="5.56001">
        <ele>199.5</ele>
        <time>2021-09-05T09:55:44Z</time>
      </trkpt>
      <trkpt lat="47.32233" lon="5.56003">
        <ele>199.3</ele>
        <time>2021-09-05T09:55:47Z</time>
      </trkpt>
      <trkpt lat="47.32237" lon="5.56006">
        <ele>199.4</ele>
        <time>2021-09-05T09:55:50Z</time>
      </trkpt>
      <trkpt lat="47.32241" lon="5.56009">
        <ele>199.7</ele>
        <time>2021-09-05T09:55:54Z</time>
      </trkpt>
      <trkpt lat="47.32246" lon="5.56014">
        <ele>200.5</ele>
        <time>2021-09-05T09:55:59Z</time>
      </trkpt>
      <trkpt lat="47.32251" lon="5.56017">
        <ele>201.2</ele>
        <time>2021-09-05T09:56:04Z</time>
      </trkpt>
      <trkpt lat="47.32255" lon="5.56022">
        <ele>201.4</ele>
        <time>2021-09-05T09:56:09Z</time>
      </trkpt>
      <trkpt lat="47.3226" lon="5.56025">
        <ele>201.8</ele>
        <time>2021-09-05T09:56:13Z</time>
      </trkpt>
      <trkpt lat="47.32262" lon="5.5603">
        <ele>203.5</ele>
        <time>2021-09-05T09:56:22Z</time>
      </trkpt>
      <trkpt lat="47.32263" lon="5.56038">
        <ele>203.9</ele>
        <time>2021-09-05T09:56:29Z</time>
      </trkpt>
      <trkpt lat="47.32262" lon="5.56045">
        <ele>203.8</ele>
        <time>2021-09-05T09:56:36Z</time>
      </trkpt>
      <trkpt lat="47.32258" lon="5.5605">
        <ele>203.7</ele>
        <time>2021-09-05T09:56:43Z</time>
      </trkpt>
      <trkpt lat="47.32257" lon="5.56056">
        <ele>203.7</ele>
        <time>2021-09-05T09:56:48Z</time>
      </trkpt>
      <trkpt lat="47.32254" lon="5.56065">
        <ele>203.5</ele>
        <time>2021-09-05T09:56:52Z</time>
      </trkpt>
      <trkpt lat="47.32252" lon="5.56071">
        <ele>203.3</ele>
        <time>2021-09-05T09:56:55Z</time>
      </trkpt>
      <trkpt lat="47.3225" lon="5.56078">
        <ele>203.2</ele>
        <time>2021-09-05T09:56:59Z</time>
      </trkpt>
      <trkpt lat="47.32248" lon="5.56085">
        <ele>202.5</ele>
        <time>2021-09-05T09:57:06Z</time>
      </trkpt>
      <trkpt lat="47.32245" lon="5.5609">
        <ele>201.4</ele>
        <time>2021-09-05T09:57:13Z</time>
      </trkpt>
      <trkpt lat="47.32241" lon="5.56096">
        <ele>200.4</ele>
        <time>2021-09-05T09:57:19Z</time>
      </trkpt>
      <trkpt lat="47.32238" lon="5.56103">
        <ele>199.9</ele>
        <time>2021-09-05T09:57:23Z</time>
      </trkpt>
      <trkpt lat="47.32236" lon="5.56109">
        <ele>199.6</ele>
        <time>2021-09-05T09:57:27Z</time>
      </trkpt>
      <trkpt lat="47.32233" lon="5.56117">
        <ele>199.4</ele>
        <time>2021-09-05T09:57:31Z</time>
      </trkpt>
      <trkpt lat="47.32231" lon="5.56123">
        <ele>199.5</ele>
        <time>2021-09-05T09:57:34Z</time>
      </trkpt>
      <trkpt lat="47.32227" lon="5.56131">
        <ele>199.8</ele>
        <time>2021-09-05T09:57:37Z</time>
      </trkpt>
      <trkpt lat="47.32222" lon="5.56139">
        <ele>200.5</ele>
        <time>2021-09-05T09:57:40Z</time>
      </trkpt>
      <trkpt lat="47.32219" lon="5.56144">
        <ele>201.5</ele>
        <time>2021-09-05T09:57:43Z</time>
      </trkpt>
      <trkpt lat="47.32216" lon="5.56151">
        <ele>202.3</ele>
        <time>2021-09-05T09:57:47Z</time>
      </trkpt>
      <trkpt lat="47.32213" lon="5.56157">
        <ele>202.5</ele>
        <time>2021-09-05T09:57:51Z</time>
      </trkpt>
      <trkpt lat="47.3221" lon="5.56163">
        <ele>202.1</ele>
        <time>2021-09-05T09:57:56Z</time>
      </trkpt>
      <trkpt lat="47.32209" lon="5.56169">
        <ele>202</ele>
        <time>2021-09-05T09:58:02Z</time>
      </trkpt>
      <trkpt lat="47.32207" lon="5.56176">
        <ele>202.1</ele>
        <time>2021-09-05T09:58:08Z</time>
      </trkpt>
      <trkpt lat="47.32203" lon="5.56182">
        <ele>202.1</ele>
        <time>2021-09-05T09:58:13Z</time>
      </trkpt>
      <trkpt lat="47.322" lon="5.56188">
        <ele>201.8</ele>
        <time>2021-09-05T09:58:17Z</time>
      </trkpt>
      <trkpt lat="47.32197" lon="5.56193">
        <ele>201.4</ele>
        <time>2021-09-05T09:58:21Z</time>
      </trkpt>
      <trkpt lat="47.32195" lon="5.56201">
        <ele>200.6</ele>
        <time>2021-09-05T09:58:25Z</time>
      </trkpt>
      <trkpt lat="47.32192" lon="5.56208">
        <ele>199.7</ele>
        <time>2021-09-05T09:58:29Z</time>
      </trkpt>
      <trkpt lat="47.32189" lon="5.56213">
        <ele>198.3</ele>
        <time>2021-09-05T09:58:33Z</time>
      </trkpt>
      <trkpt lat="47.32185" lon="5.56218">
        <ele>196.8</ele>
        <time>2021-09-05T09:58:38Z</time>
      </trkpt>
      <trkpt lat="47.32183" lon="5.56226">
        <ele>195.7</ele>
        <time>2021-09-05T09:58:43Z</time>
      </trkpt>
      <trkpt lat="47.32181" lon="5.56232">
        <ele>195.2</ele>
        <time>2021-09-05T09:58:46Z</time>
      </trkpt>
      <trkpt lat="47.32181" lon="5.5624">
        <ele>194.5</ele>
        <time>2021-09-05T09:58:50Z</time>
      </trkpt>
      <trkpt lat="47.32179" lon="5.56247">
        <ele>194.1</ele>
        <time>2021-09-05T09:58:54Z</time>
      </trkpt>
      <trkpt lat="47.32177" lon="5.56254">
        <ele>194.2</ele>
        <time>2021-09-05T09:58:59Z</time>
      </trkpt>
      <trkpt lat="47.32173" lon="5.5626">
        <ele>194</ele>
        <time>2021-09-05T09:59:05Z</time>
      </trkpt>
      <trkpt lat="47.32169" lon="5.56264">
        <ele>193.5</ele>
        <time>2021-09-05T09:59:10Z</time>
      </trkpt>
      <trkpt lat="47.32165" lon="5.56268">
        <ele>193.3</ele>
        <time>2021-09-05T09:59:15Z</time>
      </trkpt>
      <trkpt lat="47.32161" lon="5.56272">
        <ele>192.8</ele>
        <time>2021-09-05T09:59:19Z</time>
      </trkpt>
      <trkpt lat="47.32158" lon="5.56278">
        <ele>192.3</ele>
        <time>2021-09-05T09:59:23Z</time>
      </trkpt>
      <trkpt lat="47.32156" lon="5.56284">
        <ele>191.8</ele>
        <time>2021-09-05T09:59:27Z</time>
      </trkpt>
      <trkpt lat="47.32154" lon="5.56292">
        <ele>191.3</ele>
        <time>2021-09-05T09:59:31Z</time>
      </trkpt>
      <trkpt lat="47.32154" lon="5.56301">
        <ele>191.3</ele>
        <time>2021-09-05T09:59:34Z</time>
      </trkpt>
      <trkpt lat="47.32154" lon="5.56308">
        <ele>191.5</ele>
        <time>2021-09-05T09:59:37Z</time>
      </trkpt>
      <trkpt lat="47.32151" lon="5.56314">
        <ele>191.9</ele>
        <time>2021-09-05T09:59:42Z</time>
      </trkpt>
      <trkpt lat="47.3215" lon="5.56321">
        <ele>192</ele>
        <time>2021-09-05T09:59:46Z</time>
      </trkpt>
      <trkpt lat="47.32149" lon="5.56328">
        <ele>192.3</ele>
        <time>2021-09-05T09:59:49Z</time>
      </trkpt>
      <trkpt lat="47.32147" lon="5.56334">
        <ele>193.2</ele>
        <time>2021-09-05T09:59:53Z</time>
      </trkpt>
      <trkpt lat="47.32145" lon="5.56341">
        <ele>194.2</ele>
        <time>2021-09-05T09:59:57Z</time>
      </trkpt>
      <trkpt lat="47.32144" lon="5.56348">
        <ele>196</ele>
        <time>2021-09-05T10:00:01Z</time>
      </trkpt>
      <trkpt lat="47.32144" lon="5.56355">
        <ele>197.9</ele>
        <time>2021-09-05T10:00:04Z</time>
      </trkpt>
      <trkpt lat="47.32143" lon="5.56364">
        <ele>200.1</ele>
        <time>2021-09-05T10:00:08Z</time>
      </trkpt>
      <trkpt lat="47.32141" lon="5.5637">
        <ele>201.8</ele>
        <time>2021-09-05T10:00:12Z</time>
      </trkpt>
      <trkpt lat="47.32138" lon="5.56375">
        <ele>203.5</ele>
        <time>2021-09-05T10:00:16Z</time>
      </trkpt>
      <trkpt lat="47.32135" lon="5.5638">
        <ele>204.8</ele>
        <time>2021-09-05T10:00:20Z</time>
      </trkpt>
      <trkpt lat="47.32132" lon="5.56387">
        <ele>206</ele>
        <time>2021-09-05T10:00:24Z</time>
      </trkpt>
      <trkpt lat="47.32128" lon="5.56392">
        <ele>207.6</ele>
        <time>2021-09-05T10:00:30Z</time>
      </trkpt>
      <trkpt lat="47.32131" lon="5.56398">
        <ele>210</ele>
        <time>2021-09-05T10:00:44Z</time>
      </trkpt>
      <trkpt lat="47.32136" lon="5.56402">
        <ele>209.1</ele>
        <time>2021-09-05T10:00:57Z</time>
      </trkpt>
      <trkpt lat="47.32139" lon="5.56408">
        <ele>208.6</ele>
        <time>2021-09-05T10:01:00Z</time>
      </trkpt>
      <trkpt lat="47.32142" lon="5.56413">
        <ele>207.5</ele>
        <time>2021-09-05T10:01:05Z</time>
      </trkpt>
      <trkpt lat="47.32147" lon="5.56416">
        <ele>206.1</ele>
        <time>2021-09-05T10:01:11Z</time>
      </trkpt>
      <trkpt lat="47.32148" lon="5.56422">
        <ele>205.8</ele>
        <time>2021-09-05T10:01:16Z</time>
      </trkpt>
      <trkpt lat="47.32153" lon="5.56426">
        <ele>206</ele>
        <time>2021-09-05T10:01:25Z</time>
      </trkpt>
      <trkpt lat="47.32158" lon="5.56428">
        <ele>205.7</ele>
        <time>2021-09-05T10:01:31Z</time>
      </trkpt>
      <trkpt lat="47.32163" lon="5.56429">
        <ele>205.5</ele>
        <time>2021-09-05T10:01:35Z</time>
      </trkpt>
      <trkpt lat="47.32168" lon="5.56433">
        <ele>205.5</ele>
        <time>2021-09-05T10:01:39Z</time>
      </trkpt>
      <trkpt lat="47.32173" lon="5.56437">
        <ele>205.5</ele>
        <time>2021-09-05T10:01:43Z</time>
      </trkpt>
      <trkpt lat="47.32177" lon="5.56443">
        <ele>205.3</ele>
        <time>2021-09-05T10:01:47Z</time>
      </trkpt>
      <trkpt lat="47.32181" lon="5.56445">
        <ele>204.9</ele>
        <time>2021-09-05T10:01:51Z</time>
      </trkpt>
      <trkpt lat="47.32185" lon="5.5645">
        <ele>203</ele>
        <time>2021-09-05T10:02:00Z</time>
      </trkpt>
      <trkpt lat="47.32188" lon="5.56454">
        <ele>202.5</ele>
        <time>2021-09-05T10:02:07Z</time>
      </trkpt>
      <trkpt lat="47.32193" lon="5.5646">
        <ele>202.6</ele>
        <time>2021-09-05T10:02:11Z</time>
      </trkpt>
      <trkpt lat="47.32198" lon="5.56463">
        <ele>202.4</ele>
        <time>2021-09-05T10:02:15Z</time>
      </trkpt>
      <trkpt lat="47.32203" lon="5.56464">
        <ele>202.1</ele>
        <time>2021-09-05T10:02:19Z</time>
      </trkpt>
      <trkpt lat="47.32207" lon="5.56469">
        <ele>201.8</ele>
        <time>2021-09-05T10:02:23Z</time>
      </trkpt>
      <trkpt lat="47.3221" lon="5.56474">
        <ele>201.2</ele>
        <time>2021-09-05T10:02:28Z</time>
      </trkpt>
      <trkpt lat="47.32213" lon="5.56481">
        <ele>200.3</ele>
        <time>2021-09-05T10:02:39Z</time>
      </trkpt>
      <trkpt lat="47.32217" lon="5.56485">
        <ele>200.7</ele>
        <time>2021-09-05T10:02:44Z</time>
      </trkpt>
      <trkpt lat="47.32221" lon="5.56488">
        <ele>201.3</ele>
        <time>2021-09-05T10:02:49Z</time>
      </trkpt>
      <trkpt lat="47.32226" lon="5.56491">
        <ele>201</ele>
        <time>2021-09-05T10:02:57Z</time>
      </trkpt>
      <trkpt lat="47.3223" lon="5.56494">
        <ele>201.2</ele>
        <time>2021-09-05T10:03:03Z</time>
      </trkpt>
      <trkpt lat="47.32235" lon="5.56498">
        <ele>199.5</ele>
        <time>2021-09-05T10:03:26Z</time>
      </trkpt>
      <trkpt lat="47.3224" lon="5.56501">
        <ele>199.3</ele>
        <time>2021-09-05T10:03:32Z</time>
      </trkpt>
      <trkpt lat="47.32245" lon="5.56499">
        <ele>199.9</ele>
        <time>2021-09-05T10:03:43Z</time>
      </trkpt>
      <trkpt lat="47.32249" lon="5.56494">
        <ele>201.7</ele>
        <time>2021-09-05T10:04:42Z</time>
      </trkpt>
      <trkpt lat="47.32244" lon="5.56497">
        <ele>204.4</ele>
        <time>2021-09-05T10:05:21Z</time>
      </trkpt>
      <trkpt lat="47.32239" lon="5.56497">
        <ele>204.3</ele>
        <time>2021-09-05T10:05:26Z</time>
      </trkpt>
      <trkpt lat="47.32244" lon="5.56495">
        <ele>202.5</ele>
        <time>2021-09-05T10:05:54Z</time>
      </trkpt>
      <trkpt lat="47.32244" lon="5.56488">
        <ele>202.9</ele>
        <time>2021-09-05T10:07:28Z</time>
      </trkpt>
      <trkpt lat="47.32243" lon="5.56496">
        <ele>200.8</ele>
        <time>2021-09-05T10:07:40Z</time>
      </trkpt>
      <trkpt lat="47.32248" lon="5.56495">
        <ele>200.8</ele>
        <time>2021-09-05T10:09:08Z</time>
      </trkpt>
      <trkpt lat="47.3225" lon="5.56488">
        <ele>201.2</ele>
        <time>2021-09-05T10:09:12Z</time>
      </trkpt>
      <trkpt lat="47.3225" lon="5.56481">
        <ele>201.2</ele>
        <time>2021-09-05T10:09:16Z</time>
      </trkpt>
      <trkpt lat="47.3225" lon="5.56474">
        <ele>200.8</ele>
        <time>2021-09-05T10:09:20Z</time>
      </trkpt>
      <trkpt lat="47.32251" lon="5.56466">
        <ele>200.9</ele>
        <time>2021-09-05T10:09:24Z</time>
      </trkpt>
      <trkpt lat="47.32253" lon="5.5646">
        <ele>201.1</ele>
        <time>2021-09-05T10:09:28Z</time>
      </trkpt>
      <trkpt lat="47.32256" lon="5.56454">
        <ele>201.6</ele>
        <time>2021-09-05T10:09:34Z</time>
      </trkpt>
      <trkpt lat="47.3226" lon="5.5645">
        <ele>201.3</ele>
        <time>2021-09-05T10:09:40Z</time>
      </trkpt>
      <trkpt lat="47.32264" lon="5.5645">
        <ele>201.3</ele>
        <time>2021-09-05T10:09:46Z</time>
      </trkpt>
      <trkpt lat="47.3227" lon="5.56451">
        <ele>201.2</ele>
        <time>2021-09-05T10:09:51Z</time>
      </trkpt>
      <trkpt lat="47.32274" lon="5.56451">
        <ele>200.8</ele>
        <time>2021-09-05T10:09:55Z</time>
      </trkpt>
      <trkpt lat="47.32279" lon="5.56453">
        <ele>199.8</ele>
        <time>2021-09-05T10:10:02Z</time>
      </trkpt>
      <trkpt lat="47.32284" lon="5.56455">
        <ele>199.8</ele>
        <time>2021-09-05T10:10:23Z</time>
      </trkpt>
      <trkpt lat="47.32288" lon="5.56458">
        <ele>199.4</ele>
        <time>2021-09-05T10:10:28Z</time>
      </trkpt>
      <trkpt lat="47.32292" lon="5.56461">
        <ele>198.9</ele>
        <time>2021-09-05T10:10:35Z</time>
      </trkpt>
      <trkpt lat="47.32295" lon="5.56466">
        <ele>198.2</ele>
        <time>2021-09-05T10:10:44Z</time>
      </trkpt>
      <trkpt lat="47.32299" lon="5.5647">
        <ele>197.8</ele>
        <time>2021-09-05T10:11:01Z</time>
      </trkpt>
      <trkpt lat="47.32304" lon="5.56472">
        <ele>198.2</ele>
        <time>2021-09-05T10:11:38Z</time>
      </trkpt>
      <trkpt lat="47.3231" lon="5.56474">
        <ele>204.4</ele>
        <time>2021-09-05T10:13:21Z</time>
      </trkpt>
      <trkpt lat="47.32314" lon="5.56475">
        <ele>202.4</ele>
        <time>2021-09-05T10:13:38Z</time>
      </trkpt>
      <trkpt lat="47.32319" lon="5.56478">
        <ele>201.4</ele>
        <time>2021-09-05T10:13:46Z</time>
      </trkpt>
      <trkpt lat="47.32324" lon="5.5648">
        <ele>200.9</ele>
        <time>2021-09-05T10:13:52Z</time>
      </trkpt>
      <trkpt lat="47.32329" lon="5.5648">
        <ele>200.7</ele>
        <time>2021-09-05T10:13:57Z</time>
      </trkpt>
      <trkpt lat="47.32334" lon="5.56483">
        <ele>200.6</ele>
        <time>2021-09-05T10:14:02Z</time>
      </trkpt>
      <trkpt lat="47.32338" lon="5.56484">
        <ele>200.2</ele>
        <time>2021-09-05T10:14:08Z</time>
      </trkpt>
      <trkpt lat="47.32343" lon="5.56484">
        <ele>199</ele>
        <time>2021-09-05T10:14:16Z</time>
      </trkpt>
      <trkpt lat="47.32342" lon="5.56491">
        <ele>198.7</ele>
        <time>2021-09-05T10:14:56Z</time>
      </trkpt>
      <trkpt lat="47.32339" lon="5.56497">
        <ele>198.2</ele>
        <time>2021-09-05T10:15:01Z</time>
      </trkpt>
      <trkpt lat="47.32335" lon="5.565">
        <ele>196.5</ele>
        <time>2021-09-05T10:15:07Z</time>
      </trkpt>
      <trkpt lat="47.3233" lon="5.565">
        <ele>195.4</ele>
        <time>2021-09-05T10:15:13Z</time>
      </trkpt>
      <trkpt lat="47.32326" lon="5.565">
        <ele>195.6</ele>
        <time>2021-09-05T10:15:19Z</time>
      </trkpt>
      <trkpt lat="47.32326" lon="5.56508">
        <ele>199.3</ele>
        <time>2021-09-05T10:15:36Z</time>
      </trkpt>
      <trkpt lat="47.32327" lon="5.56515">
        <ele>200.1</ele>
        <time>2021-09-05T10:15:39Z</time>
      </trkpt>
      <trkpt lat="47.32328" lon="5.56522">
        <ele>200.7</ele>
        <time>2021-09-05T10:15:43Z</time>
      </trkpt>
      <trkpt lat="47.32331" lon="5.56528">
        <ele>200.5</ele>
        <time>2021-09-05T10:15:49Z</time>
      </trkpt>
      <trkpt lat="47.32333" lon="5.56535">
        <ele>199.6</ele>
        <time>2021-09-05T10:15:55Z</time>
      </trkpt>
      <trkpt lat="47.32332" lon="5.56529">
        <ele>198.8</ele>
        <time>2021-09-05T10:16:09Z</time>
      </trkpt>
      <trkpt lat="47.32329" lon="5.56522">
        <ele>198.3</ele>
        <time>2021-09-05T10:16:15Z</time>
      </trkpt>
      <trkpt lat="47.32327" lon="5.56515">
        <ele>197.7</ele>
        <time>2021-09-05T10:16:20Z</time>
      </trkpt>
      <trkpt lat="47.32324" lon="5.56509">
        <ele>198.2</ele>
        <time>2021-09-05T10:16:27Z</time>
      </trkpt>
      <trkpt lat="47.3232" lon="5.56505">
        <ele>198.2</ele>
        <time>2021-09-05T10:16:32Z</time>
      </trkpt>
      <trkpt lat="47.32324" lon="5.565">
        <ele>200</ele>
        <time>2021-09-05T11:08:22Z</time>
      </trkpt>
      <trkpt lat="47.32324" lon="5.56493">
        <ele>200</ele>
        <time>2021-09-05T11:08:25Z</time>
      </trkpt>
      <trkpt lat="47.32324" lon="5.565">
        <ele>200.3</ele>
        <time>2021-09-05T11:09:01Z</time>
      </trkpt>
      <trkpt lat="47.32322" lon="5.56506">
        <ele>198.9</ele>
        <time>2021-09-05T11:09:12Z</time>
      </trkpt>
      <trkpt lat="47.32323" lon="5.56499">
        <ele>198.2</ele>
        <time>2021-09-05T11:09:54Z</time>
      </trkpt>
      <trkpt lat="47.32318" lon="5.565">
        <ele>198.6</ele>
        <time>2021-09-05T11:10:09Z</time>
      </trkpt>
      <trkpt lat="47.32317" lon="5.56507">
        <ele>197.1</ele>
        <time>2021-09-05T11:10:19Z</time>
      </trkpt>
      <trkpt lat="47.3232" lon="5.56502">
        <ele>198.5</ele>
        <time>2021-09-05T11:11:19Z</time>
      </trkpt>
      <trkpt lat="47.32321" lon="5.56495">
        <ele>198.1</ele>
        <time>2021-09-05T11:12:17Z</time>
      </trkpt>
      <trkpt lat="47.32326" lon="5.56492">
        <ele>199.7</ele>
        <time>2021-09-05T11:12:33Z</time>
      </trkpt>
      <trkpt lat="47.3233" lon="5.5649">
        <ele>201.6</ele>
        <time>2021-09-05T11:12:46Z</time>
      </trkpt>
      <trkpt lat="47.32333" lon="5.56484">
        <ele>201.8</ele>
        <time>2021-09-05T11:12:55Z</time>
      </trkpt>
      <trkpt lat="47.32334" lon="5.56478">
        <ele>202</ele>
        <time>2021-09-05T11:13:03Z</time>
      </trkpt>
      <trkpt lat="47.32337" lon="5.56471">
        <ele>201.9</ele>
        <time>2021-09-05T11:13:11Z</time>
      </trkpt>
      <trkpt lat="47.32339" lon="5.56465">
        <ele>201.3</ele>
        <time>2021-09-05T11:13:16Z</time>
      </trkpt>
      <trkpt lat="47.32342" lon="5.5646">
        <ele>200.1</ele>
        <time>2021-09-05T11:13:21Z</time>
      </trkpt>
      <trkpt lat="47.32344" lon="5.56454">
        <ele>198.3</ele>
        <time>2021-09-05T11:13:26Z</time>
      </trkpt>
      <trkpt lat="47.32347" lon="5.56449">
        <ele>197.3</ele>
        <time>2021-09-05T11:13:30Z</time>
      </trkpt>
      <trkpt lat="47.32351" lon="5.56443">
        <ele>196.8</ele>
        <time>2021-09-05T11:13:36Z</time>
      </trkpt>
      <trkpt lat="47.32355" lon="5.56438">
        <ele>197.1</ele>
        <time>2021-09-05T11:13:43Z</time>
      </trkpt>
      <trkpt lat="47.32357" lon="5.56432">
        <ele>197.8</ele>
        <time>2021-09-05T11:13:48Z</time>
      </trkpt>
      <trkpt lat="47.32361" lon="5.56429">
        <ele>198.4</ele>
        <time>2021-09-05T11:13:54Z</time>
      </trkpt>
      <trkpt lat="47.32365" lon="5.56424">
        <ele>198.1</ele>
        <time>2021-09-05T11:13:59Z</time>
      </trkpt>
      <trkpt lat="47.32369" lon="5.5642">
        <ele>198</ele>
        <time>2021-09-05T11:14:04Z</time>
      </trkpt>
      <trkpt lat="47.32374" lon="5.56418">
        <ele>198.1</ele>
        <time>2021-09-05T11:14:08Z</time>
      </trkpt>
      <trkpt lat="47.32379" lon="5.56416">
        <ele>198.3</ele>
        <time>2021-09-05T11:14:12Z</time>
      </trkpt>
      <trkpt lat="47.32383" lon="5.56416">
        <ele>198.3</ele>
        <time>2021-09-05T11:14:16Z</time>
      </trkpt>
      <trkpt lat="47.32388" lon="5.56413">
        <ele>197.3</ele>
        <time>2021-09-05T11:14:22Z</time>
      </trkpt>
      <trkpt lat="47.32392" lon="5.56408">
        <ele>196.9</ele>
        <time>2021-09-05T11:14:27Z</time>
      </trkpt>
      <trkpt lat="47.32396" lon="5.56402">
        <ele>197.1</ele>
        <time>2021-09-05T11:14:31Z</time>
      </trkpt>
      <trkpt lat="47.32399" lon="5.56396">
        <ele>197.3</ele>
        <time>2021-09-05T11:14:36Z</time>
      </trkpt>
      <trkpt lat="47.32404" lon="5.56396">
        <ele>196.8</ele>
        <time>2021-09-05T11:14:43Z</time>
      </trkpt>
      <trkpt lat="47.32409" lon="5.56393">
        <ele>196.7</ele>
        <time>2021-09-05T11:14:49Z</time>
      </trkpt>
      <trkpt lat="47.32414" lon="5.56392">
        <ele>196.1</ele>
        <time>2021-09-05T11:14:55Z</time>
      </trkpt>
      <trkpt lat="47.32419" lon="5.56393">
        <ele>195.4</ele>
        <time>2021-09-05T11:14:59Z</time>
      </trkpt>
      <trkpt lat="47.32423" lon="5.56389">
        <ele>194.5</ele>
        <time>2021-09-05T11:15:03Z</time>
      </trkpt>
      <trkpt lat="47.32426" lon="5.56382">
        <ele>193.9</ele>
        <time>2021-09-05T11:15:07Z</time>
      </trkpt>
      <trkpt lat="47.32428" lon="5.56377">
        <ele>194</ele>
        <time>2021-09-05T11:15:10Z</time>
      </trkpt>
      <trkpt lat="47.32434" lon="5.56375">
        <ele>194.5</ele>
        <time>2021-09-05T11:15:16Z</time>
      </trkpt>
      <trkpt lat="47.32439" lon="5.56379">
        <ele>195.2</ele>
        <time>2021-09-05T11:15:19Z</time>
      </trkpt>
      <trkpt lat="47.32445" lon="5.56382">
        <ele>196.2</ele>
        <time>2021-09-05T11:15:23Z</time>
      </trkpt>
      <trkpt lat="47.32449" lon="5.56381">
        <ele>196.9</ele>
        <time>2021-09-05T11:15:27Z</time>
      </trkpt>
      <trkpt lat="47.32453" lon="5.56377">
        <ele>197.4</ele>
        <time>2021-09-05T11:15:32Z</time>
      </trkpt>
      <trkpt lat="47.32453" lon="5.5637">
        <ele>197.8</ele>
        <time>2021-09-05T11:15:40Z</time>
      </trkpt>
      <trkpt lat="47.32451" lon="5.56363">
        <ele>198</ele>
        <time>2021-09-05T11:15:46Z</time>
      </trkpt>
      <trkpt lat="47.32448" lon="5.56358">
        <ele>198.3</ele>
        <time>2021-09-05T11:15:51Z</time>
      </trkpt>
      <trkpt lat="47.32444" lon="5.56354">
        <ele>198.2</ele>
        <time>2021-09-05T11:15:59Z</time>
      </trkpt>
      <trkpt lat="47.3244" lon="5.5635">
        <ele>197.8</ele>
        <time>2021-09-05T11:16:08Z</time>
      </trkpt>
      <trkpt lat="47.32436" lon="5.56343">
        <ele>197.7</ele>
        <time>2021-09-05T11:16:12Z</time>
      </trkpt>
      <trkpt lat="47.32433" lon="5.56337">
        <ele>197.4</ele>
        <time>2021-09-05T11:16:16Z</time>
      </trkpt>
      <trkpt lat="47.32431" lon="5.5633">
        <ele>197</ele>
        <time>2021-09-05T11:16:20Z</time>
      </trkpt>
      <trkpt lat="47.32427" lon="5.56323">
        <ele>196.6</ele>
        <time>2021-09-05T11:16:23Z</time>
      </trkpt>
      <trkpt lat="47.32423" lon="5.56318">
        <ele>196.3</ele>
        <time>2021-09-05T11:16:26Z</time>
      </trkpt>
      <trkpt lat="47.32419" lon="5.56321">
        <ele>194.2</ele>
        <time>2021-09-05T11:16:45Z</time>
      </trkpt>
      <trkpt lat="47.32416" lon="5.56327">
        <ele>192.4</ele>
        <time>2021-09-05T11:16:53Z</time>
      </trkpt>
      <trkpt lat="47.32413" lon="5.56331">
        <ele>192</ele>
        <time>2021-09-05T11:16:57Z</time>
      </trkpt>
      <trkpt lat="47.32409" lon="5.56338">
        <ele>191.8</ele>
        <time>2021-09-05T11:17:01Z</time>
      </trkpt>
      <trkpt lat="47.32405" lon="5.56334">
        <ele>191.4</ele>
        <time>2021-09-05T11:17:11Z</time>
      </trkpt>
      <trkpt lat="47.324" lon="5.56335">
        <ele>190.8</ele>
        <time>2021-09-05T11:17:16Z</time>
      </trkpt>
      <trkpt lat="47.32397" lon="5.5634">
        <ele>190.5</ele>
        <time>2021-09-05T11:17:20Z</time>
      </trkpt>
      <trkpt lat="47.32393" lon="5.56345">
        <ele>190.5</ele>
        <time>2021-09-05T11:17:24Z</time>
      </trkpt>
      <trkpt lat="47.32389" lon="5.56343">
        <ele>191.4</ele>
        <time>2021-09-05T11:17:32Z</time>
      </trkpt>
      <trkpt lat="47.32384" lon="5.56344">
        <ele>192.2</ele>
        <time>2021-09-05T11:17:37Z</time>
      </trkpt>
      <trkpt lat="47.32379" lon="5.56346">
        <ele>193.4</ele>
        <time>2021-09-05T11:17:43Z</time>
      </trkpt>
      <trkpt lat="47.32374" lon="5.56349">
        <ele>194.1</ele>
        <time>2021-09-05T11:17:48Z</time>
      </trkpt>
      <trkpt lat="47.32371" lon="5.56354">
        <ele>194.1</ele>
        <time>2021-09-05T11:17:52Z</time>
      </trkpt>
      <trkpt lat="47.32367" lon="5.56359">
        <ele>193.6</ele>
        <time>2021-09-05T11:17:58Z</time>
      </trkpt>
      <trkpt lat="47.32362" lon="5.56361">
        <ele>194.5</ele>
        <time>2021-09-05T11:18:04Z</time>
      </trkpt>
      <trkpt lat="47.32357" lon="5.56363">
        <ele>195.8</ele>
        <time>2021-09-05T11:18:09Z</time>
      </trkpt>
      <trkpt lat="47.32353" lon="5.56366">
        <ele>195.9</ele>
        <time>2021-09-05T11:18:13Z</time>
      </trkpt>
      <trkpt lat="47.32348" lon="5.56369">
        <ele>194.6</ele>
        <time>2021-09-05T11:18:19Z</time>
      </trkpt>
      <trkpt lat="47.32344" lon="5.56373">
        <ele>193.4</ele>
        <time>2021-09-05T11:18:24Z</time>
      </trkpt>
      <trkpt lat="47.32341" lon="5.56378">
        <ele>193.6</ele>
        <time>2021-09-05T11:18:29Z</time>
      </trkpt>
      <trkpt lat="47.32336" lon="5.56381">
        <ele>194.2</ele>
        <time>2021-09-05T11:18:34Z</time>
      </trkpt>
      <trkpt lat="47.32331" lon="5.56382">
        <ele>194.4</ele>
        <time>2021-09-05T11:18:39Z</time>
      </trkpt>
      <trkpt lat="47.32326" lon="5.56384">
        <ele>194.5</ele>
        <time>2021-09-05T11:18:44Z</time>
      </trkpt>
      <trkpt lat="47.32322" lon="5.56383">
        <ele>194.8</ele>
        <time>2021-09-05T11:18:49Z</time>
      </trkpt>
      <trkpt lat="47.32317" lon="5.56385">
        <ele>196</ele>
        <time>2021-09-05T11:18:55Z</time>
      </trkpt>
      <trkpt lat="47.32313" lon="5.56388">
        <ele>197.9</ele>
        <time>2021-09-05T11:19:00Z</time>
      </trkpt>
      <trkpt lat="47.32309" lon="5.56393">
        <ele>199.2</ele>
        <time>2021-09-05T11:19:04Z</time>
      </trkpt>
      <trkpt lat="47.32306" lon="5.56398">
        <ele>199.6</ele>
        <time>2021-09-05T11:19:08Z</time>
      </trkpt>
      <trkpt lat="47.32301" lon="5.56401">
        <ele>199.9</ele>
        <time>2021-09-05T11:19:14Z</time>
      </trkpt>
      <trkpt lat="47.32297" lon="5.56403">
        <ele>199.9</ele>
        <time>2021-09-05T11:19:18Z</time>
      </trkpt>
      <trkpt lat="47.32292" lon="5.56407">
        <ele>199.8</ele>
        <time>2021-09-05T11:19:24Z</time>
      </trkpt>
      <trkpt lat="47.32287" lon="5.56409">
        <ele>198.3</ele>
        <time>2021-09-05T11:19:32Z</time>
      </trkpt>
      <trkpt lat="47.32284" lon="5.56415">
        <ele>197.5</ele>
        <time>2021-09-05T11:19:36Z</time>
      </trkpt>
      <trkpt lat="47.32282" lon="5.56423">
        <ele>197.4</ele>
        <time>2021-09-05T11:19:40Z</time>
      </trkpt>
      <trkpt lat="47.32282" lon="5.56431">
        <ele>197.6</ele>
        <time>2021-09-05T11:19:47Z</time>
      </trkpt>
      <trkpt lat="47.32279" lon="5.56437">
        <ele>198.6</ele>
        <time>2021-09-05T11:19:52Z</time>
      </trkpt>
      <trkpt lat="47.32276" lon="5.56442">
        <ele>199.6</ele>
        <time>2021-09-05T11:19:58Z</time>
      </trkpt>
      <trkpt lat="47.32272" lon="5.56448">
        <ele>200.5</ele>
        <time>2021-09-05T11:20:02Z</time>
      </trkpt>
      <trkpt lat="47.3227" lon="5.56455">
        <ele>201.7</ele>
        <time>2021-09-05T11:20:07Z</time>
      </trkpt>
      <trkpt lat="47.32267" lon="5.5646">
        <ele>203</ele>
        <time>2021-09-05T11:20:14Z</time>
      </trkpt>
      <trkpt lat="47.32262" lon="5.5646">
        <ele>204.6</ele>
        <time>2021-09-05T11:20:19Z</time>
      </trkpt>
      <trkpt lat="47.32257" lon="5.56462">
        <ele>206.5</ele>
        <time>2021-09-05T11:20:26Z</time>
      </trkpt>
      <trkpt lat="47.32253" lon="5.56468">
        <ele>207.9</ele>
        <time>2021-09-05T11:20:34Z</time>
      </trkpt>
      <trkpt lat="47.32249" lon="5.5647">
        <ele>207.7</ele>
        <time>2021-09-05T11:20:41Z</time>
      </trkpt>
      <trkpt lat="47.32245" lon="5.56475">
        <ele>207.1</ele>
        <time>2021-09-05T11:20:46Z</time>
      </trkpt>
      <trkpt lat="47.32242" lon="5.56482">
        <ele>205.9</ele>
        <time>2021-09-05T11:20:50Z</time>
      </trkpt>
      <trkpt lat="47.32242" lon="5.56489">
        <ele>204.5</ele>
        <time>2021-09-05T11:20:54Z</time>
      </trkpt>
      <trkpt lat="47.32242" lon="5.56496">
        <ele>203.2</ele>
        <time>2021-09-05T11:20:59Z</time>
      </trkpt>
      <trkpt lat="47.32244" lon="5.56503">
        <ele>203.1</ele>
        <time>2021-09-05T11:21:04Z</time>
      </trkpt>
      <trkpt lat="47.32239" lon="5.56505">
        <ele>203.6</ele>
        <time>2021-09-05T11:21:28Z</time>
      </trkpt>
      <trkpt lat="47.32234" lon="5.56508">
        <ele>204.5</ele>
        <time>2021-09-05T11:21:34Z</time>
      </trkpt>
      <trkpt lat="47.32231" lon="5.56503">
        <ele>204.6</ele>
        <time>2021-09-05T11:21:49Z</time>
      </trkpt>
      <trkpt lat="47.32229" lon="5.56497">
        <ele>204.6</ele>
        <time>2021-09-05T11:21:53Z</time>
      </trkpt>
      <trkpt lat="47.32224" lon="5.56494">
        <ele>204.8</ele>
        <time>2021-09-05T11:21:59Z</time>
      </trkpt>
      <trkpt lat="47.3222" lon="5.56489">
        <ele>204.6</ele>
        <time>2021-09-05T11:22:10Z</time>
      </trkpt>
      <trkpt lat="47.32216" lon="5.56487">
        <ele>205.4</ele>
        <time>2021-09-05T11:22:19Z</time>
      </trkpt>
      <trkpt lat="47.32212" lon="5.56483">
        <ele>207.9</ele>
        <time>2021-09-05T11:22:28Z</time>
      </trkpt>
      <trkpt lat="47.32208" lon="5.56479">
        <ele>209</ele>
        <time>2021-09-05T11:22:32Z</time>
      </trkpt>
      <trkpt lat="47.32206" lon="5.56472">
        <ele>210.1</ele>
        <time>2021-09-05T11:22:36Z</time>
      </trkpt>
      <trkpt lat="47.32201" lon="5.56471">
        <ele>210.9</ele>
        <time>2021-09-05T11:22:39Z</time>
      </trkpt>
      <trkpt lat="47.32196" lon="5.56471">
        <ele>212.1</ele>
        <time>2021-09-05T11:22:43Z</time>
      </trkpt>
      <trkpt lat="47.32191" lon="5.56471">
        <ele>213.3</ele>
        <time>2021-09-05T11:22:47Z</time>
      </trkpt>
      <trkpt lat="47.32187" lon="5.56469">
        <ele>215</ele>
        <time>2021-09-05T11:22:53Z</time>
      </trkpt>
      <trkpt lat="47.32184" lon="5.56461">
        <ele>215.9</ele>
        <time>2021-09-05T11:22:58Z</time>
      </trkpt>
      <trkpt lat="47.32182" lon="5.56455">
        <ele>216.3</ele>
        <time>2021-09-05T11:23:02Z</time>
      </trkpt>
      <trkpt lat="47.32178" lon="5.56451">
        <ele>216.4</ele>
        <time>2021-09-05T11:23:06Z</time>
      </trkpt>
      <trkpt lat="47.32174" lon="5.56448">
        <ele>215.7</ele>
        <time>2021-09-05T11:23:11Z</time>
      </trkpt>
      <trkpt lat="47.3217" lon="5.56442">
        <ele>214.4</ele>
        <time>2021-09-05T11:23:16Z</time>
      </trkpt>
      <trkpt lat="47.32166" lon="5.5644">
        <ele>212.7</ele>
        <time>2021-09-05T11:23:20Z</time>
      </trkpt>
      <trkpt lat="47.32162" lon="5.56437">
        <ele>211.7</ele>
        <time>2021-09-05T11:23:24Z</time>
      </trkpt>
      <trkpt lat="47.32158" lon="5.56431">
        <ele>211.1</ele>
        <time>2021-09-05T11:23:27Z</time>
      </trkpt>
      <trkpt lat="47.32154" lon="5.56427">
        <ele>210.5</ele>
        <time>2021-09-05T11:23:30Z</time>
      </trkpt>
      <trkpt lat="47.32149" lon="5.56423">
        <ele>210.1</ele>
        <time>2021-09-05T11:23:34Z</time>
      </trkpt>
      <trkpt lat="47.32144" lon="5.5642">
        <ele>209.4</ele>
        <time>2021-09-05T11:23:39Z</time>
      </trkpt>
      <trkpt lat="47.3214" lon="5.56416">
        <ele>208.6</ele>
        <time>2021-09-05T11:23:45Z</time>
      </trkpt>
      <trkpt lat="47.32135" lon="5.56416">
        <ele>208.2</ele>
        <time>2021-09-05T11:23:49Z</time>
      </trkpt>
      <trkpt lat="47.32131" lon="5.56413">
        <ele>208.2</ele>
        <time>2021-09-05T11:23:56Z</time>
      </trkpt>
      <trkpt lat="47.32128" lon="5.56407">
        <ele>208.7</ele>
        <time>2021-09-05T11:24:07Z</time>
      </trkpt>
      <trkpt lat="47.32125" lon="5.56401">
        <ele>208.6</ele>
        <time>2021-09-05T11:24:14Z</time>
      </trkpt>
      <trkpt lat="47.3212" lon="5.564">
        <ele>208.6</ele>
        <time>2021-09-05T11:24:21Z</time>
      </trkpt>
      <trkpt lat="47.32115" lon="5.56398">
        <ele>208.7</ele>
        <time>2021-09-05T11:24:25Z</time>
      </trkpt>
      <trkpt lat="47.32112" lon="5.56403">
        <ele>208.7</ele>
        <time>2021-09-05T11:24:29Z</time>
      </trkpt>
      <trkpt lat="47.32111" lon="5.5641">
        <ele>208.4</ele>
        <time>2021-09-05T11:24:32Z</time>
      </trkpt>
      <trkpt lat="47.32107" lon="5.56414">
        <ele>207.6</ele>
        <time>2021-09-05T11:24:36Z</time>
      </trkpt>
      <trkpt lat="47.32103" lon="5.56415">
        <ele>205.9</ele>
        <time>2021-09-05T11:24:40Z</time>
      </trkpt>
      <trkpt lat="47.32099" lon="5.56419">
        <ele>202.8</ele>
        <time>2021-09-05T11:24:48Z</time>
      </trkpt>
      <trkpt lat="47.32096" lon="5.56425">
        <ele>202</ele>
        <time>2021-09-05T11:24:53Z</time>
      </trkpt>
      <trkpt lat="47.32093" lon="5.56431">
        <ele>201.5</ele>
        <time>2021-09-05T11:24:57Z</time>
      </trkpt>
      <trkpt lat="47.32088" lon="5.56431">
        <ele>202</ele>
        <time>2021-09-05T11:25:07Z</time>
      </trkpt>
      <trkpt lat="47.32083" lon="5.5643">
        <ele>201</ele>
        <time>2021-09-05T11:25:17Z</time>
      </trkpt>
      <trkpt lat="47.32079" lon="5.56425">
        <ele>200.9</ele>
        <time>2021-09-05T11:25:20Z</time>
      </trkpt>
      <trkpt lat="47.32075" lon="5.56423">
        <ele>200.6</ele>
        <time>2021-09-05T11:25:23Z</time>
      </trkpt>
      <trkpt lat="47.3207" lon="5.56425">
        <ele>200.3</ele>
        <time>2021-09-05T11:25:26Z</time>
      </trkpt>
      <trkpt lat="47.32065" lon="5.56428">
        <ele>200</ele>
        <time>2021-09-05T11:25:29Z</time>
      </trkpt>
      <trkpt lat="47.32062" lon="5.56432">
        <ele>200</ele>
        <time>2021-09-05T11:25:33Z</time>
      </trkpt>
      <trkpt lat="47.32058" lon="5.56438">
        <ele>200</ele>
        <time>2021-09-05T11:25:38Z</time>
      </trkpt>
      <trkpt lat="47.32053" lon="5.5644">
        <ele>199.8</ele>
        <time>2021-09-05T11:25:47Z</time>
      </trkpt>
      <trkpt lat="47.32048" lon="5.56439">
        <ele>200.6</ele>
        <time>2021-09-05T11:25:53Z</time>
      </trkpt>
      <trkpt lat="47.32043" lon="5.5644">
        <ele>201.1</ele>
        <time>2021-09-05T11:25:58Z</time>
      </trkpt>
      <trkpt lat="47.32039" lon="5.56444">
        <ele>201.2</ele>
        <time>2021-09-05T11:26:06Z</time>
      </trkpt>
      <trkpt lat="47.32036" lon="5.5645">
        <ele>200.3</ele>
        <time>2021-09-05T11:26:12Z</time>
      </trkpt>
      <trkpt lat="47.32031" lon="5.56454">
        <ele>199.8</ele>
        <time>2021-09-05T11:26:17Z</time>
      </trkpt>
      <trkpt lat="47.32027" lon="5.56457">
        <ele>199.8</ele>
        <time>2021-09-05T11:26:20Z</time>
      </trkpt>
      <trkpt lat="47.32023" lon="5.56461">
        <ele>199.9</ele>
        <time>2021-09-05T11:26:23Z</time>
      </trkpt>
      <trkpt lat="47.32018" lon="5.56465">
        <ele>200</ele>
        <time>2021-09-05T11:26:26Z</time>
      </trkpt>
      <trkpt lat="47.32013" lon="5.56468">
        <ele>200.4</ele>
        <time>2021-09-05T11:26:29Z</time>
      </trkpt>
      <trkpt lat="47.32008" lon="5.56471">
        <ele>201</ele>
        <time>2021-09-05T11:26:32Z</time>
      </trkpt>
      <trkpt lat="47.32004" lon="5.56476">
        <ele>202</ele>
        <time>2021-09-05T11:26:36Z</time>
      </trkpt>
      <trkpt lat="47.32" lon="5.56481">
        <ele>203.7</ele>
        <time>2021-09-05T11:26:42Z</time>
      </trkpt>
      <trkpt lat="47.31996" lon="5.56485">
        <ele>204.7</ele>
        <time>2021-09-05T11:26:47Z</time>
      </trkpt>
      <trkpt lat="47.31993" lon="5.5649">
        <ele>207.6</ele>
        <time>2021-09-05T11:26:55Z</time>
      </trkpt>
      <trkpt lat="47.3199" lon="5.56497">
        <ele>209.5</ele>
        <time>2021-09-05T11:27:00Z</time>
      </trkpt>
      <trkpt lat="47.31989" lon="5.56504">
        <ele>210.1</ele>
        <time>2021-09-05T11:27:03Z</time>
      </trkpt>
      <trkpt lat="47.31989" lon="5.56512">
        <ele>211.3</ele>
        <time>2021-09-05T11:27:07Z</time>
      </trkpt>
      <trkpt lat="47.3199" lon="5.5652">
        <ele>212.6</ele>
        <time>2021-09-05T11:27:11Z</time>
      </trkpt>
      <trkpt lat="47.3199" lon="5.56527">
        <ele>213.7</ele>
        <time>2021-09-05T11:27:14Z</time>
      </trkpt>
      <trkpt lat="47.31989" lon="5.56534">
        <ele>215</ele>
        <time>2021-09-05T11:27:17Z</time>
      </trkpt>
      <trkpt lat="47.31986" lon="5.56542">
        <ele>217.3</ele>
        <time>2021-09-05T11:27:22Z</time>
      </trkpt>
      <trkpt lat="47.31982" lon="5.56546">
        <ele>218.4</ele>
        <time>2021-09-05T11:27:25Z</time>
      </trkpt>
      <trkpt lat="47.31978" lon="5.5655">
        <ele>219.4</ele>
        <time>2021-09-05T11:27:28Z</time>
      </trkpt>
      <trkpt lat="47.31975" lon="5.56556">
        <ele>220.4</ele>
        <time>2021-09-05T11:27:32Z</time>
      </trkpt>
      <trkpt lat="47.31975" lon="5.56563">
        <ele>221.1</ele>
        <time>2021-09-05T11:27:40Z</time>
      </trkpt>
      <trkpt lat="47.31978" lon="5.5657">
        <ele>220.7</ele>
        <time>2021-09-05T11:27:45Z</time>
      </trkpt>
      <trkpt lat="47.3198" lon="5.56577">
        <ele>220.8</ele>
        <time>2021-09-05T11:27:53Z</time>
      </trkpt>
      <trkpt lat="47.31977" lon="5.56583">
        <ele>221.9</ele>
        <time>2021-09-05T11:27:59Z</time>
      </trkpt>
      <trkpt lat="47.31974" lon="5.56588">
        <ele>222.2</ele>
        <time>2021-09-05T11:28:04Z</time>
      </trkpt>
      <trkpt lat="47.3197" lon="5.56594">
        <ele>221.1</ele>
        <time>2021-09-05T11:28:08Z</time>
      </trkpt>
      <trkpt lat="47.31967" lon="5.566">
        <ele>219.2</ele>
        <time>2021-09-05T11:28:13Z</time>
      </trkpt>
      <trkpt lat="47.31964" lon="5.56607">
        <ele>216.6</ele>
        <time>2021-09-05T11:28:21Z</time>
      </trkpt>
      <trkpt lat="47.31961" lon="5.56613">
        <ele>215.4</ele>
        <time>2021-09-05T11:28:25Z</time>
      </trkpt>
      <trkpt lat="47.31958" lon="5.56619">
        <ele>214.3</ele>
        <time>2021-09-05T11:28:28Z</time>
      </trkpt>
      <trkpt lat="47.31953" lon="5.56624">
        <ele>212.5</ele>
        <time>2021-09-05T11:28:32Z</time>
      </trkpt>
      <trkpt lat="47.31949" lon="5.56624">
        <ele>209.8</ele>
        <time>2021-09-05T11:28:39Z</time>
      </trkpt>
      <trkpt lat="47.31945" lon="5.56628">
        <ele>207.5</ele>
        <time>2021-09-05T11:28:46Z</time>
      </trkpt>
      <trkpt lat="47.31942" lon="5.56633">
        <ele>206.9</ele>
        <time>2021-09-05T11:28:49Z</time>
      </trkpt>
      <trkpt lat="47.3194" lon="5.5664">
        <ele>206.5</ele>
        <time>2021-09-05T11:28:52Z</time>
      </trkpt>
      <trkpt lat="47.31938" lon="5.56647">
        <ele>205.9</ele>
        <time>2021-09-05T11:28:56Z</time>
      </trkpt>
      <trkpt lat="47.31935" lon="5.56653">
        <ele>205.4</ele>
        <time>2021-09-05T11:29:00Z</time>
      </trkpt>
      <trkpt lat="47.31932" lon="5.5666">
        <ele>205</ele>
        <time>2021-09-05T11:29:06Z</time>
      </trkpt>
      <trkpt lat="47.31928" lon="5.56663">
        <ele>204.8</ele>
        <time>2021-09-05T11:29:11Z</time>
      </trkpt>
      <trkpt lat="47.31928" lon="5.5667">
        <ele>204.6</ele>
        <time>2021-09-05T11:29:19Z</time>
      </trkpt>
      <trkpt lat="47.3193" lon="5.56676">
        <ele>204.2</ele>
        <time>2021-09-05T11:29:25Z</time>
      </trkpt>
      <trkpt lat="47.31935" lon="5.56675">
        <ele>204.8</ele>
        <time>2021-09-05T11:29:30Z</time>
      </trkpt>
      <trkpt lat="47.31935" lon="5.56682">
        <ele>206.2</ele>
        <time>2021-09-05T11:29:36Z</time>
      </trkpt>
      <trkpt lat="47.31935" lon="5.56689">
        <ele>207.5</ele>
        <time>2021-09-05T11:29:42Z</time>
      </trkpt>
      <trkpt lat="47.31934" lon="5.56695">
        <ele>207.5</ele>
        <time>2021-09-05T11:29:48Z</time>
      </trkpt>
      <trkpt lat="47.31932" lon="5.56702">
        <ele>206.3</ele>
        <time>2021-09-05T11:29:53Z</time>
      </trkpt>
      <trkpt lat="47.31928" lon="5.56707">
        <ele>204.9</ele>
        <time>2021-09-05T11:29:57Z</time>
      </trkpt>
      <trkpt lat="47.31925" lon="5.56712">
        <ele>204.1</ele>
        <time>2021-09-05T11:30:00Z</time>
      </trkpt>
      <trkpt lat="47.31922" lon="5.56719">
        <ele>203.2</ele>
        <time>2021-09-05T11:30:05Z</time>
      </trkpt>
      <trkpt lat="47.31918" lon="5.56724">
        <ele>202.3</ele>
        <time>2021-09-05T11:30:11Z</time>
      </trkpt>
      <trkpt lat="47.31915" lon="5.56731">
        <ele>202.1</ele>
        <time>2021-09-05T11:30:14Z</time>
      </trkpt>
      <trkpt lat="47.31916" lon="5.56738">
        <ele>200.7</ele>
        <time>2021-09-05T11:30:18Z</time>
      </trkpt>
      <trkpt lat="47.31913" lon="5.56743">
        <ele>199.3</ele>
        <time>2021-09-05T11:30:24Z</time>
      </trkpt>
      <trkpt lat="47.3191" lon="5.5675">
        <ele>199.6</ele>
        <time>2021-09-05T11:30:28Z</time>
      </trkpt>
      <trkpt lat="47.31907" lon="5.56758">
        <ele>200.1</ele>
        <time>2021-09-05T11:30:32Z</time>
      </trkpt>
      <trkpt lat="47.31905" lon="5.56764">
        <ele>200.4</ele>
        <time>2021-09-05T11:30:35Z</time>
      </trkpt>
      <trkpt lat="47.31902" lon="5.56771">
        <ele>200.5</ele>
        <time>2021-09-05T11:30:39Z</time>
      </trkpt>
      <trkpt lat="47.31898" lon="5.56778">
        <ele>200.5</ele>
        <time>2021-09-05T11:30:43Z</time>
      </trkpt>
      <trkpt lat="47.31897" lon="5.56786">
        <ele>200.9</ele>
        <time>2021-09-05T11:30:47Z</time>
      </trkpt>
      <trkpt lat="47.31898" lon="5.56792">
        <ele>200.8</ele>
        <time>2021-09-05T11:30:54Z</time>
      </trkpt>
      <trkpt lat="47.31896" lon="5.56799">
        <ele>199.1</ele>
        <time>2021-09-05T11:30:59Z</time>
      </trkpt>
      <trkpt lat="47.31893" lon="5.56806">
        <ele>198</ele>
        <time>2021-09-05T11:31:02Z</time>
      </trkpt>
      <trkpt lat="47.31889" lon="5.56808">
        <ele>194.3</ele>
        <time>2021-09-05T11:31:15Z</time>
      </trkpt>
      <trkpt lat="47.31885" lon="5.56814">
        <ele>193.8</ele>
        <time>2021-09-05T11:31:19Z</time>
      </trkpt>
      <trkpt lat="47.31882" lon="5.5682">
        <ele>193.7</ele>
        <time>2021-09-05T11:31:22Z</time>
      </trkpt>
      <trkpt lat="47.3188" lon="5.56826">
        <ele>193.5</ele>
        <time>2021-09-05T11:31:25Z</time>
      </trkpt>
      <trkpt lat="47.3188" lon="5.56833">
        <ele>192.5</ele>
        <time>2021-09-05T11:31:30Z</time>
      </trkpt>
      <trkpt lat="47.31877" lon="5.56838">
        <ele>190.6</ele>
        <time>2021-09-05T11:31:38Z</time>
      </trkpt>
      <trkpt lat="47.3188" lon="5.56844">
        <ele>189.5</ele>
        <time>2021-09-05T11:31:56Z</time>
      </trkpt>
      <trkpt lat="47.31883" lon="5.56849">
        <ele>192.5</ele>
        <time>2021-09-05T11:32:11Z</time>
      </trkpt>
      <trkpt lat="47.31887" lon="5.56854">
        <ele>192.7</ele>
        <time>2021-09-05T11:32:14Z</time>
      </trkpt>
      <trkpt lat="47.31891" lon="5.56858">
        <ele>193.3</ele>
        <time>2021-09-05T11:32:19Z</time>
      </trkpt>
      <trkpt lat="47.31894" lon="5.56863">
        <ele>194.3</ele>
        <time>2021-09-05T11:32:24Z</time>
      </trkpt>
      <trkpt lat="47.31899" lon="5.56865">
        <ele>195</ele>
        <time>2021-09-05T11:32:27Z</time>
      </trkpt>
      <trkpt lat="47.31904" lon="5.56864">
        <ele>196.4</ele>
        <time>2021-09-05T11:32:31Z</time>
      </trkpt>
      <trkpt lat="47.31908" lon="5.56861">
        <ele>199.2</ele>
        <time>2021-09-05T11:32:37Z</time>
      </trkpt>
      <trkpt lat="47.31913" lon="5.56865">
        <ele>202.2</ele>
        <time>2021-09-05T11:32:44Z</time>
      </trkpt>
      <trkpt lat="47.31918" lon="5.5687">
        <ele>203.3</ele>
        <time>2021-09-05T11:32:48Z</time>
      </trkpt>
      <trkpt lat="47.31922" lon="5.56874">
        <ele>203.7</ele>
        <time>2021-09-05T11:32:51Z</time>
      </trkpt>
      <trkpt lat="47.31925" lon="5.5688">
        <ele>203.8</ele>
        <time>2021-09-05T11:32:54Z</time>
      </trkpt>
      <trkpt lat="47.31926" lon="5.56887">
        <ele>204.2</ele>
        <time>2021-09-05T11:32:58Z</time>
      </trkpt>
      <trkpt lat="47.3193" lon="5.56891">
        <ele>206</ele>
        <time>2021-09-05T11:33:05Z</time>
      </trkpt>
      <trkpt lat="47.31934" lon="5.56894">
        <ele>207.1</ele>
        <time>2021-09-05T11:33:10Z</time>
      </trkpt>
      <trkpt lat="47.3194" lon="5.56895">
        <ele>208.4</ele>
        <time>2021-09-05T11:33:15Z</time>
      </trkpt>
      <trkpt lat="47.31944" lon="5.56898">
        <ele>209.7</ele>
        <time>2021-09-05T11:33:22Z</time>
      </trkpt>
      <trkpt lat="47.31949" lon="5.56899">
        <ele>208.6</ele>
        <time>2021-09-05T11:33:31Z</time>
      </trkpt>
      <trkpt lat="47.31955" lon="5.56899">
        <ele>207.7</ele>
        <time>2021-09-05T11:33:36Z</time>
      </trkpt>
      <trkpt lat="47.31959" lon="5.56904">
        <ele>207</ele>
        <time>2021-09-05T11:33:40Z</time>
      </trkpt>
      <trkpt lat="47.31964" lon="5.5691">
        <ele>206.4</ele>
        <time>2021-09-05T11:33:43Z</time>
      </trkpt>
      <trkpt lat="47.31969" lon="5.56914">
        <ele>205.6</ele>
        <time>2021-09-05T11:33:47Z</time>
      </trkpt>
      <trkpt lat="47.31974" lon="5.56915">
        <ele>205.1</ele>
        <time>2021-09-05T11:33:50Z</time>
      </trkpt>
      <trkpt lat="47.31978" lon="5.5692">
        <ele>204.8</ele>
        <time>2021-09-05T11:33:57Z</time>
      </trkpt>
      <trkpt lat="47.31975" lon="5.56924">
        <ele>204</ele>
        <time>2021-09-05T11:34:03Z</time>
      </trkpt>
      <trkpt lat="47.31978" lon="5.56929">
        <ele>204.5</ele>
        <time>2021-09-05T11:34:11Z</time>
      </trkpt>
      <trkpt lat="47.31983" lon="5.56934">
        <ele>205.1</ele>
        <time>2021-09-05T11:34:16Z</time>
      </trkpt>
      <trkpt lat="47.31986" lon="5.56939">
        <ele>205.4</ele>
        <time>2021-09-05T11:34:19Z</time>
      </trkpt>
      <trkpt lat="47.3199" lon="5.56942">
        <ele>205.4</ele>
        <time>2021-09-05T11:34:24Z</time>
      </trkpt>
      <trkpt lat="47.31996" lon="5.56944">
        <ele>205.7</ele>
        <time>2021-09-05T11:34:29Z</time>
      </trkpt>
      <trkpt lat="47.32002" lon="5.56944">
        <ele>206.1</ele>
        <time>2021-09-05T11:34:33Z</time>
      </trkpt>
      <trkpt lat="47.32007" lon="5.56948">
        <ele>206.4</ele>
        <time>2021-09-05T11:34:37Z</time>
      </trkpt>
      <trkpt lat="47.32009" lon="5.56953">
        <ele>206.4</ele>
        <time>2021-09-05T11:34:41Z</time>
      </trkpt>
      <trkpt lat="47.32014" lon="5.56956">
        <ele>206.5</ele>
        <time>2021-09-05T11:34:49Z</time>
      </trkpt>
      <trkpt lat="47.32018" lon="5.5696">
        <ele>206.2</ele>
        <time>2021-09-05T11:34:54Z</time>
      </trkpt>
      <trkpt lat="47.3202" lon="5.56965">
        <ele>206</ele>
        <time>2021-09-05T11:34:58Z</time>
      </trkpt>
      <trkpt lat="47.32023" lon="5.56973">
        <ele>205.1</ele>
        <time>2021-09-05T11:35:01Z</time>
      </trkpt>
      <trkpt lat="47.32026" lon="5.56979">
        <ele>203.8</ele>
        <time>2021-09-05T11:35:04Z</time>
      </trkpt>
      <trkpt lat="47.3203" lon="5.56979">
        <ele>201.5</ele>
        <time>2021-09-05T11:35:12Z</time>
      </trkpt>
      <trkpt lat="47.32035" lon="5.56981">
        <ele>200.7</ele>
        <time>2021-09-05T11:35:20Z</time>
      </trkpt>
      <trkpt lat="47.3204" lon="5.5698">
        <ele>200.9</ele>
        <time>2021-09-05T11:35:25Z</time>
      </trkpt>
      <trkpt lat="47.32045" lon="5.5698">
        <ele>201.6</ele>
        <time>2021-09-05T11:35:29Z</time>
      </trkpt>
      <trkpt lat="47.32049" lon="5.56984">
        <ele>202.4</ele>
        <time>2021-09-05T11:35:33Z</time>
      </trkpt>
      <trkpt lat="47.32054" lon="5.56986">
        <ele>203.6</ele>
        <time>2021-09-05T11:35:38Z</time>
      </trkpt>
      <trkpt lat="47.32059" lon="5.56987">
        <ele>204.6</ele>
        <time>2021-09-05T11:35:43Z</time>
      </trkpt>
      <trkpt lat="47.32062" lon="5.56993">
        <ele>206.6</ele>
        <time>2021-09-05T11:35:50Z</time>
      </trkpt>
      <trkpt lat="47.32064" lon="5.57">
        <ele>207.6</ele>
        <time>2021-09-05T11:35:56Z</time>
      </trkpt>
      <trkpt lat="47.32067" lon="5.57007">
        <ele>209</ele>
        <time>2021-09-05T11:36:13Z</time>
      </trkpt>
      <trkpt lat="47.32072" lon="5.57008">
        <ele>209.2</ele>
        <time>2021-09-05T11:36:16Z</time>
      </trkpt>
      <trkpt lat="47.32077" lon="5.57011">
        <ele>209.4</ele>
        <time>2021-09-05T11:36:19Z</time>
      </trkpt>
      <trkpt lat="47.32081" lon="5.57012">
        <ele>209.8</ele>
        <time>2021-09-05T11:36:45Z</time>
      </trkpt>
      <trkpt lat="47.32085" lon="5.57016">
        <ele>210.7</ele>
        <time>2021-09-05T11:36:52Z</time>
      </trkpt>
      <trkpt lat="47.32086" lon="5.57023">
        <ele>214.9</ele>
        <time>2021-09-05T11:37:09Z</time>
      </trkpt>
      <trkpt lat="47.32088" lon="5.57029">
        <ele>215.7</ele>
        <time>2021-09-05T11:37:13Z</time>
      </trkpt>
      <trkpt lat="47.32087" lon="5.57036">
        <ele>215.2</ele>
        <time>2021-09-05T11:37:18Z</time>
      </trkpt>
      <trkpt lat="47.32081" lon="5.57039">
        <ele>214.6</ele>
        <time>2021-09-05T11:37:21Z</time>
      </trkpt>
      <trkpt lat="47.32078" lon="5.57045">
        <ele>214.4</ele>
        <time>2021-09-05T11:37:25Z</time>
      </trkpt>
      <trkpt lat="47.32072" lon="5.57046">
        <ele>214.6</ele>
        <time>2021-09-05T11:37:28Z</time>
      </trkpt>
      <trkpt lat="47.32067" lon="5.57045">
        <ele>215.3</ele>
        <time>2021-09-05T11:37:32Z</time>
      </trkpt>
      <trkpt lat="47.32063" lon="5.5705">
        <ele>214.2</ele>
        <time>2021-09-05T11:37:39Z</time>
      </trkpt>
      <trkpt lat="47.32065" lon="5.57056">
        <ele>212.1</ele>
        <time>2021-09-05T11:37:45Z</time>
      </trkpt>
      <trkpt lat="47.32066" lon="5.57063">
        <ele>208.1</ele>
        <time>2021-09-05T11:38:05Z</time>
      </trkpt>
      <trkpt lat="47.32062" lon="5.57068">
        <ele>208.2</ele>
        <time>2021-09-05T11:38:08Z</time>
      </trkpt>
      <trkpt lat="47.32057" lon="5.57071">
        <ele>208.7</ele>
        <time>2021-09-05T11:38:12Z</time>
      </trkpt>
      <trkpt lat="47.32053" lon="5.57068">
        <ele>209.7</ele>
        <time>2021-09-05T11:38:19Z</time>
      </trkpt>
      <trkpt lat="47.32048" lon="5.5707">
        <ele>211.1</ele>
        <time>2021-09-05T11:38:35Z</time>
      </trkpt>
      <trkpt lat="47.32043" lon="5.57068">
        <ele>209.6</ele>
        <time>2021-09-05T11:38:46Z</time>
      </trkpt>
      <trkpt lat="47.32039" lon="5.57066">
        <ele>208.7</ele>
        <time>2021-09-05T11:38:52Z</time>
      </trkpt>
      <trkpt lat="47.32034" lon="5.5707">
        <ele>207</ele>
        <time>2021-09-05T11:38:58Z</time>
      </trkpt>
      <trkpt lat="47.3203" lon="5.57076">
        <ele>206.8</ele>
        <time>2021-09-05T11:39:02Z</time>
      </trkpt>
      <trkpt lat="47.32026" lon="5.57079">
        <ele>207.4</ele>
        <time>2021-09-05T11:39:07Z</time>
      </trkpt>
      <trkpt lat="47.32021" lon="5.57081">
        <ele>208</ele>
        <time>2021-09-05T11:39:13Z</time>
      </trkpt>
      <trkpt lat="47.32018" lon="5.57086">
        <ele>208.2</ele>
        <time>2021-09-05T11:39:19Z</time>
      </trkpt>
      <trkpt lat="47.32014" lon="5.5709">
        <ele>207.6</ele>
        <time>2021-09-05T11:39:27Z</time>
      </trkpt>
      <trkpt lat="47.3201" lon="5.57088">
        <ele>206.7</ele>
        <time>2021-09-05T11:39:40Z</time>
      </trkpt>
      <trkpt lat="47.32015" lon="5.57087">
        <ele>206.3</ele>
        <time>2021-09-05T11:40:03Z</time>
      </trkpt>
      <trkpt lat="47.32015" lon="5.57094">
        <ele>206.5</ele>
        <time>2021-09-05T11:40:11Z</time>
      </trkpt>
      <trkpt lat="47.32011" lon="5.57098">
        <ele>203.9</ele>
        <time>2021-09-05T11:40:40Z</time>
      </trkpt>
      <trkpt lat="47.32009" lon="5.57104">
        <ele>202.3</ele>
        <time>2021-09-05T11:40:48Z</time>
      </trkpt>
      <trkpt lat="47.32006" lon="5.57109">
        <ele>202.4</ele>
        <time>2021-09-05T11:40:54Z</time>
      </trkpt>
      <trkpt lat="47.32004" lon="5.57116">
        <ele>203.3</ele>
        <time>2021-09-05T11:41:00Z</time>
      </trkpt>
      <trkpt lat="47.32001" lon="5.5712">
        <ele>203.7</ele>
        <time>2021-09-05T11:41:07Z</time>
      </trkpt>
      <trkpt lat="47.31998" lon="5.57127">
        <ele>204.2</ele>
        <time>2021-09-05T11:41:14Z</time>
      </trkpt>
      <trkpt lat="47.31997" lon="5.57134">
        <ele>203.8</ele>
        <time>2021-09-05T11:41:19Z</time>
      </trkpt>
      <trkpt lat="47.31993" lon="5.57135">
        <ele>203</ele>
        <time>2021-09-05T11:41:25Z</time>
      </trkpt>
      <trkpt lat="47.31989" lon="5.57129">
        <ele>201.9</ele>
        <time>2021-09-05T11:41:30Z</time>
      </trkpt>
      <trkpt lat="47.31985" lon="5.57125">
        <ele>200.8</ele>
        <time>2021-09-05T11:41:34Z</time>
      </trkpt>
      <trkpt lat="47.31981" lon="5.5712">
        <ele>198.9</ele>
        <time>2021-09-05T11:41:39Z</time>
      </trkpt>
      <trkpt lat="47.31976" lon="5.57123">
        <ele>197.2</ele>
        <time>2021-09-05T11:41:47Z</time>
      </trkpt>
      <trkpt lat="47.31971" lon="5.57126">
        <ele>197.1</ele>
        <time>2021-09-05T11:41:52Z</time>
      </trkpt>
      <trkpt lat="47.31966" lon="5.57129">
        <ele>197.7</ele>
        <time>2021-09-05T11:41:56Z</time>
      </trkpt>
      <trkpt lat="47.31962" lon="5.57129">
        <ele>199.2</ele>
        <time>2021-09-05T11:42:01Z</time>
      </trkpt>
      <trkpt lat="47.31958" lon="5.57133">
        <ele>201.2</ele>
        <time>2021-09-05T11:42:07Z</time>
      </trkpt>
      <trkpt lat="47.31954" lon="5.57136">
        <ele>201.5</ele>
        <time>2021-09-05T11:42:21Z</time>
      </trkpt>
      <trkpt lat="47.31949" lon="5.57134">
        <ele>201.5</ele>
        <time>2021-09-05T11:42:27Z</time>
      </trkpt>
      <trkpt lat="47.31946" lon="5.57139">
        <ele>201.4</ele>
        <time>2021-09-05T11:42:37Z</time>
      </trkpt>
      <trkpt lat="47.31944" lon="5.57146">
        <ele>200.9</ele>
        <time>2021-09-05T11:42:43Z</time>
      </trkpt>
      <trkpt lat="47.31948" lon="5.57144">
        <ele>202.1</ele>
        <time>2021-09-05T11:42:53Z</time>
      </trkpt>
      <trkpt lat="47.31952" lon="5.5714">
        <ele>203.7</ele>
        <time>2021-09-05T11:43:01Z</time>
      </trkpt>
      <trkpt lat="47.31947" lon="5.57139">
        <ele>197.9</ele>
        <time>2021-09-05T11:43:28Z</time>
      </trkpt>
      <trkpt lat="47.31943" lon="5.57133">
        <ele>196.6</ele>
        <time>2021-09-05T11:43:32Z</time>
      </trkpt>
      <trkpt lat="47.31945" lon="5.57126">
        <ele>196.6</ele>
        <time>2021-09-05T11:43:41Z</time>
      </trkpt>
      <trkpt lat="47.31941" lon="5.57128">
        <ele>202.1</ele>
        <time>2021-09-05T11:43:51Z</time>
      </trkpt>
      <trkpt lat="47.31939" lon="5.57134">
        <ele>205.3</ele>
        <time>2021-09-05T11:44:00Z</time>
      </trkpt>
      <trkpt lat="47.31934" lon="5.57136">
        <ele>204.6</ele>
        <time>2021-09-05T11:44:12Z</time>
      </trkpt>
      <trkpt lat="47.3193" lon="5.5714">
        <ele>204.3</ele>
        <time>2021-09-05T11:44:18Z</time>
      </trkpt>
      <trkpt lat="47.31926" lon="5.57144">
        <ele>205</ele>
        <time>2021-09-05T11:44:27Z</time>
      </trkpt>
      <trkpt lat="47.31929" lon="5.57139">
        <ele>203.8</ele>
        <time>2021-09-05T11:44:54Z</time>
      </trkpt>
      <trkpt lat="47.31925" lon="5.57143">
        <ele>203.5</ele>
        <time>2021-09-05T11:45:04Z</time>
      </trkpt>
      <trkpt lat="47.31928" lon="5.57148">
        <ele>203.7</ele>
        <time>2021-09-05T11:45:25Z</time>
      </trkpt>
      <trkpt lat="47.31933" lon="5.5715">
        <ele>203.8</ele>
        <time>2021-09-05T11:45:33Z</time>
      </trkpt>
      <trkpt lat="47.31932" lon="5.57158">
        <ele>205.2</ele>
        <time>2021-09-05T11:45:40Z</time>
      </trkpt>
      <trkpt lat="47.31927" lon="5.57159">
        <ele>206.5</ele>
        <time>2021-09-05T11:45:47Z</time>
      </trkpt>
      <trkpt lat="47.31923" lon="5.5716">
        <ele>206</ele>
        <time>2021-09-05T11:45:51Z</time>
      </trkpt>
      <trkpt lat="47.31923" lon="5.57166">
        <ele>203.2</ele>
        <time>2021-09-05T11:46:03Z</time>
      </trkpt>
      <trkpt lat="47.31925" lon="5.57172">
        <ele>203.1</ele>
        <time>2021-09-05T11:46:09Z</time>
      </trkpt>
      <trkpt lat="47.31929" lon="5.57177">
        <ele>202.8</ele>
        <time>2021-09-05T11:46:14Z</time>
      </trkpt>
      <trkpt lat="47.3193" lon="5.57184">
        <ele>202.9</ele>
        <time>2021-09-05T11:46:20Z</time>
      </trkpt>
      <trkpt lat="47.3193" lon="5.57192">
        <ele>203.4</ele>
        <time>2021-09-05T11:46:26Z</time>
      </trkpt>
      <trkpt lat="47.31929" lon="5.57199">
        <ele>202.8</ele>
        <time>2021-09-05T11:46:31Z</time>
      </trkpt>
      <trkpt lat="47.31929" lon="5.57206">
        <ele>202.1</ele>
        <time>2021-09-05T11:46:38Z</time>
      </trkpt>
      <trkpt lat="47.31929" lon="5.57213">
        <ele>202.5</ele>
        <time>2021-09-05T11:46:44Z</time>
      </trkpt>
      <trkpt lat="47.31928" lon="5.5722">
        <ele>203</ele>
        <time>2021-09-05T11:46:48Z</time>
      </trkpt>
      <trkpt lat="47.31929" lon="5.57228">
        <ele>203.7</ele>
        <time>2021-09-05T11:46:54Z</time>
      </trkpt>
      <trkpt lat="47.31933" lon="5.57233">
        <ele>204</ele>
        <time>2021-09-05T11:46:59Z</time>
      </trkpt>
      <trkpt lat="47.31936" lon="5.57239">
        <ele>204.4</ele>
        <time>2021-09-05T11:47:04Z</time>
      </trkpt>
      <trkpt lat="47.3194" lon="5.57245">
        <ele>205.2</ele>
        <time>2021-09-05T11:47:11Z</time>
      </trkpt>
      <trkpt lat="47.31943" lon="5.57251">
        <ele>204.9</ele>
        <time>2021-09-05T11:47:16Z</time>
      </trkpt>
      <trkpt lat="47.31947" lon="5.57255">
        <ele>205</ele>
        <time>2021-09-05T11:47:20Z</time>
      </trkpt>
      <trkpt lat="47.31951" lon="5.57258">
        <ele>204.8</ele>
        <time>2021-09-05T11:47:24Z</time>
      </trkpt>
      <trkpt lat="47.31956" lon="5.57263">
        <ele>204.3</ele>
        <time>2021-09-05T11:47:29Z</time>
      </trkpt>
      <trkpt lat="47.3196" lon="5.57267">
        <ele>203.5</ele>
        <time>2021-09-05T11:47:33Z</time>
      </trkpt>
      <trkpt lat="47.31963" lon="5.57274">
        <ele>201.4</ele>
        <time>2021-09-05T11:47:39Z</time>
      </trkpt>
      <trkpt lat="47.31967" lon="5.57277">
        <ele>199.4</ele>
        <time>2021-09-05T11:47:44Z</time>
      </trkpt>
      <trkpt lat="47.3197" lon="5.57281">
        <ele>197.8</ele>
        <time>2021-09-05T11:47:49Z</time>
      </trkpt>
      <trkpt lat="47.31975" lon="5.57281">
        <ele>196.1</ele>
        <time>2021-09-05T11:48:02Z</time>
      </trkpt>
      <trkpt lat="47.31979" lon="5.57275">
        <ele>197.1</ele>
        <time>2021-09-05T11:48:06Z</time>
      </trkpt>
      <trkpt lat="47.31984" lon="5.57271">
        <ele>198.6</ele>
        <time>2021-09-05T11:48:11Z</time>
      </trkpt>
      <trkpt lat="47.31986" lon="5.57264">
        <ele>199.7</ele>
        <time>2021-09-05T11:48:17Z</time>
      </trkpt>
      <trkpt lat="47.31986" lon="5.57257">
        <ele>200.1</ele>
        <time>2021-09-05T11:48:28Z</time>
      </trkpt>
      <trkpt lat="47.31985" lon="5.57249">
        <ele>199.8</ele>
        <time>2021-09-05T11:48:33Z</time>
      </trkpt>
      <trkpt lat="47.31983" lon="5.57242">
        <ele>200</ele>
        <time>2021-09-05T11:48:37Z</time>
      </trkpt>
      <trkpt lat="47.31983" lon="5.57235">
        <ele>199.9</ele>
        <time>2021-09-05T11:48:40Z</time>
      </trkpt>
      <trkpt lat="47.31984" lon="5.57228">
        <ele>198.7</ele>
        <time>2021-09-05T11:48:45Z</time>
      </trkpt>
      <trkpt lat="47.31986" lon="5.57222">
        <ele>197.9</ele>
        <time>2021-09-05T11:48:57Z</time>
      </trkpt>
      <trkpt lat="47.31987" lon="5.57214">
        <ele>197.5</ele>
        <time>2021-09-05T11:49:10Z</time>
      </trkpt>
      <trkpt lat="47.31988" lon="5.57207">
        <ele>197.9</ele>
        <time>2021-09-05T11:49:13Z</time>
      </trkpt>
      <trkpt lat="47.31987" lon="5.572">
        <ele>197.7</ele>
        <time>2021-09-05T11:49:16Z</time>
      </trkpt>
      <trkpt lat="47.31985" lon="5.57207">
        <ele>197.8</ele>
        <time>2021-09-05T11:49:24Z</time>
      </trkpt>
      <trkpt lat="47.31979" lon="5.57209">
        <ele>198</ele>
        <time>2021-09-05T11:49:48Z</time>
      </trkpt>
      <trkpt lat="47.31975" lon="5.57214">
        <ele>198.4</ele>
        <time>2021-09-05T11:50:04Z</time>
      </trkpt>
      <trkpt lat="47.31974" lon="5.57221">
        <ele>199.1</ele>
        <time>2021-09-05T11:50:09Z</time>
      </trkpt>
      <trkpt lat="47.31972" lon="5.57227">
        <ele>200.1</ele>
        <time>2021-09-05T11:50:14Z</time>
      </trkpt>
      <trkpt lat="47.31973" lon="5.57219">
        <ele>201.5</ele>
        <time>2021-09-05T11:50:29Z</time>
      </trkpt>
      <trkpt lat="47.31976" lon="5.57214">
        <ele>201.1</ele>
        <time>2021-09-05T11:50:38Z</time>
      </trkpt>
      <trkpt lat="47.31979" lon="5.57209">
        <ele>200.5</ele>
        <time>2021-09-05T11:50:45Z</time>
      </trkpt>
      <trkpt lat="47.31984" lon="5.57208">
        <ele>199.8</ele>
        <time>2021-09-05T11:50:52Z</time>
      </trkpt>
      <trkpt lat="47.31987" lon="5.57212">
        <ele>199.5</ele>
        <time>2021-09-05T11:50:57Z</time>
      </trkpt>
      <trkpt lat="47.3199" lon="5.57218">
        <ele>200</ele>
        <time>2021-09-05T11:51:06Z</time>
      </trkpt>
      <trkpt lat="47.31987" lon="5.57224">
        <ele>197.3</ele>
        <time>2021-09-05T11:51:28Z</time>
      </trkpt>
      <trkpt lat="47.31984" lon="5.57219">
        <ele>196</ele>
        <time>2021-09-05T11:51:49Z</time>
      </trkpt>
      <trkpt lat="47.31989" lon="5.57224">
        <ele>196.6</ele>
        <time>2021-09-05T11:51:59Z</time>
      </trkpt>
      <trkpt lat="47.31992" lon="5.57229">
        <ele>196.3</ele>
        <time>2021-09-05T11:52:03Z</time>
      </trkpt>
      <trkpt lat="47.31992" lon="5.57222">
        <ele>197.1</ele>
        <time>2021-09-05T11:52:26Z</time>
      </trkpt>
      <trkpt lat="47.31994" lon="5.57216">
        <ele>198.3</ele>
        <time>2021-09-05T11:52:44Z</time>
      </trkpt>
      <trkpt lat="47.31994" lon="5.57208">
        <ele>200.4</ele>
        <time>2021-09-05T11:53:02Z</time>
      </trkpt>
      <trkpt lat="47.31993" lon="5.57214">
        <ele>200.9</ele>
        <time>2021-09-05T11:53:10Z</time>
      </trkpt>
      <trkpt lat="47.3199" lon="5.57219">
        <ele>201.2</ele>
        <time>2021-09-05T11:53:22Z</time>
      </trkpt>
      <trkpt lat="47.31985" lon="5.57215">
        <ele>200.9</ele>
        <time>2021-09-05T11:53:27Z</time>
      </trkpt>
      <trkpt lat="47.31982" lon="5.5721">
        <ele>200.2</ele>
        <time>2021-09-05T11:53:33Z</time>
      </trkpt>
      <trkpt lat="47.31986" lon="5.57216">
        <ele>198.9</ele>
        <time>2021-09-05T11:53:39Z</time>
      </trkpt>
      <trkpt lat="47.3199" lon="5.57218">
        <ele>198.6</ele>
        <time>2021-09-05T11:53:44Z</time>
      </trkpt>
      <trkpt lat="47.31993" lon="5.57224">
        <ele>198.3</ele>
        <time>2021-09-05T11:53:48Z</time>
      </trkpt>
      <trkpt lat="47.31995" lon="5.5723">
        <ele>197.6</ele>
        <time>2021-09-05T11:53:51Z</time>
      </trkpt>
      <trkpt lat="47.31991" lon="5.57234">
        <ele>193.5</ele>
        <time>2021-09-05T11:54:05Z</time>
      </trkpt>
      <trkpt lat="47.31986" lon="5.57233">
        <ele>192.6</ele>
        <time>2021-09-05T11:54:17Z</time>
      </trkpt>
      <trkpt lat="47.31982" lon="5.57235">
        <ele>191.8</ele>
        <time>2021-09-05T11:54:21Z</time>
      </trkpt>
      <trkpt lat="47.31982" lon="5.57242">
        <ele>191.6</ele>
        <time>2021-09-05T11:54:27Z</time>
      </trkpt>
      <trkpt lat="47.31981" lon="5.5725">
        <ele>193.3</ele>
        <time>2021-09-05T11:54:35Z</time>
      </trkpt>
      <trkpt lat="47.31981" lon="5.57256">
        <ele>194.5</ele>
        <time>2021-09-05T11:54:40Z</time>
      </trkpt>
      <trkpt lat="47.31982" lon="5.57263">
        <ele>197.5</ele>
        <time>2021-09-05T11:54:47Z</time>
      </trkpt>
      <trkpt lat="47.31983" lon="5.57272">
        <ele>202</ele>
        <time>2021-09-05T11:54:58Z</time>
      </trkpt>
      <trkpt lat="47.31984" lon="5.57279">
        <ele>202.8</ele>
        <time>2021-09-05T11:55:01Z</time>
      </trkpt>
      <trkpt lat="47.31985" lon="5.57286">
        <ele>203</ele>
        <time>2021-09-05T11:55:04Z</time>
      </trkpt>
      <trkpt lat="47.31986" lon="5.57293">
        <ele>203.3</ele>
        <time>2021-09-05T11:55:08Z</time>
      </trkpt>
      <trkpt lat="47.31987" lon="5.57299">
        <ele>203.5</ele>
        <time>2021-09-05T11:55:11Z</time>
      </trkpt>
      <trkpt lat="47.31987" lon="5.57307">
        <ele>203.9</ele>
        <time>2021-09-05T11:55:15Z</time>
      </trkpt>
      <trkpt lat="47.31986" lon="5.57315">
        <ele>204.4</ele>
        <time>2021-09-05T11:55:20Z</time>
      </trkpt>
      <trkpt lat="47.31988" lon="5.57323">
        <ele>205.1</ele>
        <time>2021-09-05T11:55:24Z</time>
      </trkpt>
      <trkpt lat="47.31991" lon="5.57328">
        <ele>205.5</ele>
        <time>2021-09-05T11:55:28Z</time>
      </trkpt>
      <trkpt lat="47.31993" lon="5.57335">
        <ele>206</ele>
        <time>2021-09-05T11:55:32Z</time>
      </trkpt>
      <trkpt lat="47.31994" lon="5.57343">
        <ele>206.3</ele>
        <time>2021-09-05T11:55:37Z</time>
      </trkpt>
      <trkpt lat="47.31994" lon="5.5735">
        <ele>206.2</ele>
        <time>2021-09-05T11:55:43Z</time>
      </trkpt>
      <trkpt lat="47.31993" lon="5.57357">
        <ele>206.3</ele>
        <time>2021-09-05T11:55:47Z</time>
      </trkpt>
      <trkpt lat="47.31992" lon="5.57364">
        <ele>206.4</ele>
        <time>2021-09-05T11:55:51Z</time>
      </trkpt>
      <trkpt lat="47.31993" lon="5.57371">
        <ele>206.1</ele>
        <time>2021-09-05T11:55:58Z</time>
      </trkpt>
      <trkpt lat="47.31994" lon="5.57378">
        <ele>205</ele>
        <time>2021-09-05T11:56:04Z</time>
      </trkpt>
      <trkpt lat="47.31993" lon="5.57386">
        <ele>205.2</ele>
        <time>2021-09-05T11:56:09Z</time>
      </trkpt>
      <trkpt lat="47.31994" lon="5.57393">
        <ele>207.6</ele>
        <time>2021-09-05T11:56:14Z</time>
      </trkpt>
      <trkpt lat="47.31996" lon="5.57401">
        <ele>210.1</ele>
        <time>2021-09-05T11:56:18Z</time>
      </trkpt>
      <trkpt lat="47.31998" lon="5.57408">
        <ele>213.8</ele>
        <time>2021-09-05T11:56:22Z</time>
      </trkpt>
      <trkpt lat="47.32002" lon="5.57412">
        <ele>218.1</ele>
        <time>2021-09-05T11:56:33Z</time>
      </trkpt>
      <trkpt lat="47.32003" lon="5.57419">
        <ele>218.3</ele>
        <time>2021-09-05T11:56:38Z</time>
      </trkpt>
      <trkpt lat="47.32003" lon="5.57426">
        <ele>218.2</ele>
        <time>2021-09-05T11:56:42Z</time>
      </trkpt>
      <trkpt lat="47.32003" lon="5.57433">
        <ele>218</ele>
        <time>2021-09-05T11:56:47Z</time>
      </trkpt>
      <trkpt lat="47.32004" lon="5.57441">
        <ele>216.9</ele>
        <time>2021-09-05T11:56:54Z</time>
      </trkpt>
      <trkpt lat="47.32005" lon="5.57448">
        <ele>215.6</ele>
        <time>2021-09-05T11:56:59Z</time>
      </trkpt>
      <trkpt lat="47.32006" lon="5.57455">
        <ele>213.6</ele>
        <time>2021-09-05T11:57:05Z</time>
      </trkpt>
      <trkpt lat="47.32005" lon="5.57462">
        <ele>212.3</ele>
        <time>2021-09-05T11:57:10Z</time>
      </trkpt>
      <trkpt lat="47.32002" lon="5.57467">
        <ele>211.9</ele>
        <time>2021-09-05T11:57:13Z</time>
      </trkpt>
      <trkpt lat="47.31999" lon="5.57473">
        <ele>211.7</ele>
        <time>2021-09-05T11:57:18Z</time>
      </trkpt>
      <trkpt lat="47.31995" lon="5.57478">
        <ele>211.5</ele>
        <time>2021-09-05T11:57:22Z</time>
      </trkpt>
      <trkpt lat="47.31991" lon="5.57483">
        <ele>211.5</ele>
        <time>2021-09-05T11:57:25Z</time>
      </trkpt>
      <trkpt lat="47.31989" lon="5.5749">
        <ele>211.2</ele>
        <time>2021-09-05T11:57:29Z</time>
      </trkpt>
      <trkpt lat="47.31984" lon="5.57495">
        <ele>210.6</ele>
        <time>2021-09-05T11:57:34Z</time>
      </trkpt>
      <trkpt lat="47.31983" lon="5.57502">
        <ele>209.6</ele>
        <time>2021-09-05T11:57:39Z</time>
      </trkpt>
      <trkpt lat="47.31982" lon="5.57509">
        <ele>208.4</ele>
        <time>2021-09-05T11:57:45Z</time>
      </trkpt>
      <trkpt lat="47.31981" lon="5.57516">
        <ele>208.1</ele>
        <time>2021-09-05T11:57:49Z</time>
      </trkpt>
      <trkpt lat="47.31981" lon="5.57523">
        <ele>208.1</ele>
        <time>2021-09-05T11:57:53Z</time>
      </trkpt>
      <trkpt lat="47.31981" lon="5.57532">
        <ele>208.8</ele>
        <time>2021-09-05T11:57:59Z</time>
      </trkpt>
      <trkpt lat="47.3198" lon="5.57539">
        <ele>208.9</ele>
        <time>2021-09-05T11:58:07Z</time>
      </trkpt>
      <trkpt lat="47.31979" lon="5.57546">
        <ele>209.2</ele>
        <time>2021-09-05T11:58:11Z</time>
      </trkpt>
      <trkpt lat="47.31979" lon="5.57554">
        <ele>209.4</ele>
        <time>2021-09-05T11:58:15Z</time>
      </trkpt>
      <trkpt lat="47.31977" lon="5.57561">
        <ele>210.2</ele>
        <time>2021-09-05T11:58:20Z</time>
      </trkpt>
      <trkpt lat="47.31976" lon="5.57567">
        <ele>210.7</ele>
        <time>2021-09-05T11:58:27Z</time>
      </trkpt>
      <trkpt lat="47.31972" lon="5.57572">
        <ele>211.1</ele>
        <time>2021-09-05T11:59:05Z</time>
      </trkpt>
      <trkpt lat="47.31968" lon="5.57575">
        <ele>211</ele>
        <time>2021-09-05T11:59:09Z</time>
      </trkpt>
      <trkpt lat="47.31963" lon="5.57576">
        <ele>210.6</ele>
        <time>2021-09-05T11:59:13Z</time>
      </trkpt>
      <trkpt lat="47.31957" lon="5.57575">
        <ele>210.2</ele>
        <time>2021-09-05T11:59:18Z</time>
      </trkpt>
      <trkpt lat="47.31952" lon="5.57575">
        <ele>210</ele>
        <time>2021-09-05T11:59:22Z</time>
      </trkpt>
      <trkpt lat="47.31946" lon="5.57574">
        <ele>209.7</ele>
        <time>2021-09-05T11:59:26Z</time>
      </trkpt>
      <trkpt lat="47.31941" lon="5.57574">
        <ele>209.7</ele>
        <time>2021-09-05T11:59:29Z</time>
      </trkpt>
      <trkpt lat="47.31937" lon="5.57575">
        <ele>209.8</ele>
        <time>2021-09-05T11:59:33Z</time>
      </trkpt>
      <trkpt lat="47.31933" lon="5.57569">
        <ele>209.8</ele>
        <time>2021-09-05T11:59:39Z</time>
      </trkpt>
      <trkpt lat="47.31928" lon="5.57566">
        <ele>209.3</ele>
        <time>2021-09-05T11:59:47Z</time>
      </trkpt>
      <trkpt lat="47.31924" lon="5.57563">
        <ele>208.3</ele>
        <time>2021-09-05T11:59:53Z</time>
      </trkpt>
      <trkpt lat="47.31919" lon="5.57562">
        <ele>206.4</ele>
        <time>2021-09-05T12:00:01Z</time>
      </trkpt>
      <trkpt lat="47.31915" lon="5.57566">
        <ele>205.1</ele>
        <time>2021-09-05T12:00:08Z</time>
      </trkpt>
      <trkpt lat="47.31911" lon="5.57569">
        <ele>204.7</ele>
        <time>2021-09-05T12:00:12Z</time>
      </trkpt>
      <trkpt lat="47.31907" lon="5.57571">
        <ele>204.6</ele>
        <time>2021-09-05T12:00:16Z</time>
      </trkpt>
      <trkpt lat="47.31903" lon="5.57576">
        <ele>204.5</ele>
        <time>2021-09-05T12:00:22Z</time>
      </trkpt>
      <trkpt lat="47.31903" lon="5.57584">
        <ele>204.3</ele>
        <time>2021-09-05T12:00:27Z</time>
      </trkpt>
      <trkpt lat="47.31903" lon="5.57592">
        <ele>204</ele>
        <time>2021-09-05T12:00:32Z</time>
      </trkpt>
      <trkpt lat="47.31902" lon="5.57599">
        <ele>203.9</ele>
        <time>2021-09-05T12:00:37Z</time>
      </trkpt>
      <trkpt lat="47.31899" lon="5.57605">
        <ele>203.8</ele>
        <time>2021-09-05T12:00:43Z</time>
      </trkpt>
      <trkpt lat="47.31899" lon="5.57612">
        <ele>203.2</ele>
        <time>2021-09-05T12:00:48Z</time>
      </trkpt>
      <trkpt lat="47.31897" lon="5.57619">
        <ele>202.7</ele>
        <time>2021-09-05T12:00:55Z</time>
      </trkpt>
      <trkpt lat="47.31896" lon="5.57625">
        <ele>202.5</ele>
        <time>2021-09-05T12:01:00Z</time>
      </trkpt>
      <trkpt lat="47.31896" lon="5.57632">
        <ele>202.3</ele>
        <time>2021-09-05T12:01:04Z</time>
      </trkpt>
      <trkpt lat="47.31895" lon="5.57638">
        <ele>202</ele>
        <time>2021-09-05T12:01:08Z</time>
      </trkpt>
      <trkpt lat="47.31892" lon="5.57644">
        <ele>202.2</ele>
        <time>2021-09-05T12:01:12Z</time>
      </trkpt>
      <trkpt lat="47.31889" lon="5.57651">
        <ele>202.6</ele>
        <time>2021-09-05T12:01:16Z</time>
      </trkpt>
      <trkpt lat="47.31888" lon="5.57658">
        <ele>203.2</ele>
        <time>2021-09-05T12:01:21Z</time>
      </trkpt>
      <trkpt lat="47.31887" lon="5.57664">
        <ele>203.2</ele>
        <time>2021-09-05T12:01:25Z</time>
      </trkpt>
      <trkpt lat="47.31887" lon="5.57671">
        <ele>202.9</ele>
        <time>2021-09-05T12:01:28Z</time>
      </trkpt>
      <trkpt lat="47.31884" lon="5.57678">
        <ele>202.5</ele>
        <time>2021-09-05T12:01:32Z</time>
      </trkpt>
      <trkpt lat="47.31882" lon="5.57684">
        <ele>202.5</ele>
        <time>2021-09-05T12:01:37Z</time>
      </trkpt>
      <trkpt lat="47.31881" lon="5.57692">
        <ele>203</ele>
        <time>2021-09-05T12:01:42Z</time>
      </trkpt>
      <trkpt lat="47.3188" lon="5.577">
        <ele>203.2</ele>
        <time>2021-09-05T12:01:46Z</time>
      </trkpt>
      <trkpt lat="47.31878" lon="5.57706">
        <ele>203.9</ele>
        <time>2021-09-05T12:01:50Z</time>
      </trkpt>
      <trkpt lat="47.31875" lon="5.57712">
        <ele>204.9</ele>
        <time>2021-09-05T12:01:55Z</time>
      </trkpt>
      <trkpt lat="47.31874" lon="5.57719">
        <ele>205.7</ele>
        <time>2021-09-05T12:02:00Z</time>
      </trkpt>
      <trkpt lat="47.31872" lon="5.57726">
        <ele>206.2</ele>
        <time>2021-09-05T12:02:04Z</time>
      </trkpt>
      <trkpt lat="47.31871" lon="5.57733">
        <ele>206.3</ele>
        <time>2021-09-05T12:02:10Z</time>
      </trkpt>
      <trkpt lat="47.31869" lon="5.57741">
        <ele>206.3</ele>
        <time>2021-09-05T12:02:15Z</time>
      </trkpt>
      <trkpt lat="47.31867" lon="5.57747">
        <ele>206.4</ele>
        <time>2021-09-05T12:02:19Z</time>
      </trkpt>
      <trkpt lat="47.31866" lon="5.57754">
        <ele>206.4</ele>
        <time>2021-09-05T12:02:24Z</time>
      </trkpt>
      <trkpt lat="47.31864" lon="5.57762">
        <ele>206.4</ele>
        <time>2021-09-05T12:02:28Z</time>
      </trkpt>
      <trkpt lat="47.31864" lon="5.57768">
        <ele>206.1</ele>
        <time>2021-09-05T12:02:31Z</time>
      </trkpt>
      <trkpt lat="47.31864" lon="5.57775">
        <ele>206.1</ele>
        <time>2021-09-05T12:02:34Z</time>
      </trkpt>
      <trkpt lat="47.31864" lon="5.57783">
        <ele>205.9</ele>
        <time>2021-09-05T12:02:38Z</time>
      </trkpt>
      <trkpt lat="47.31862" lon="5.5779">
        <ele>205.9</ele>
        <time>2021-09-05T12:02:44Z</time>
      </trkpt>
      <trkpt lat="47.31862" lon="5.57797">
        <ele>206.3</ele>
        <time>2021-09-05T12:02:50Z</time>
      </trkpt>
      <trkpt lat="47.31862" lon="5.57805">
        <ele>206.7</ele>
        <time>2021-09-05T12:02:55Z</time>
      </trkpt>
      <trkpt lat="47.31861" lon="5.57812">
        <ele>207.9</ele>
        <time>2021-09-05T12:03:01Z</time>
      </trkpt>
      <trkpt lat="47.3186" lon="5.5782">
        <ele>208.7</ele>
        <time>2021-09-05T12:03:08Z</time>
      </trkpt>
      <trkpt lat="47.3186" lon="5.57827">
        <ele>209</ele>
        <time>2021-09-05T12:03:13Z</time>
      </trkpt>
      <trkpt lat="47.31858" lon="5.57834">
        <ele>209.7</ele>
        <time>2021-09-05T12:03:17Z</time>
      </trkpt>
      <trkpt lat="47.31857" lon="5.57841">
        <ele>210.6</ele>
        <time>2021-09-05T12:03:21Z</time>
      </trkpt>
      <trkpt lat="47.31855" lon="5.5785">
        <ele>211.5</ele>
        <time>2021-09-05T12:03:25Z</time>
      </trkpt>
      <trkpt lat="47.31853" lon="5.57857">
        <ele>212.3</ele>
        <time>2021-09-05T12:03:29Z</time>
      </trkpt>
      <trkpt lat="47.31851" lon="5.57863">
        <ele>213.7</ele>
        <time>2021-09-05T12:03:33Z</time>
      </trkpt>
      <trkpt lat="47.31851" lon="5.5787">
        <ele>215.5</ele>
        <time>2021-09-05T12:03:38Z</time>
      </trkpt>
      <trkpt lat="47.31852" lon="5.57877">
        <ele>216.8</ele>
        <time>2021-09-05T12:03:42Z</time>
      </trkpt>
      <trkpt lat="47.31851" lon="5.57885">
        <ele>218</ele>
        <time>2021-09-05T12:03:47Z</time>
      </trkpt>
      <trkpt lat="47.31849" lon="5.57891">
        <ele>218.7</ele>
        <time>2021-09-05T12:03:52Z</time>
      </trkpt>
      <trkpt lat="47.31848" lon="5.579">
        <ele>219.5</ele>
        <time>2021-09-05T12:03:57Z</time>
      </trkpt>
      <trkpt lat="47.31848" lon="5.57908">
        <ele>220</ele>
        <time>2021-09-05T12:04:01Z</time>
      </trkpt>
      <trkpt lat="47.31847" lon="5.57917">
        <ele>221.2</ele>
        <time>2021-09-05T12:04:06Z</time>
      </trkpt>
      <trkpt lat="47.31848" lon="5.57925">
        <ele>221</ele>
        <time>2021-09-05T12:04:10Z</time>
      </trkpt>
      <trkpt lat="47.31848" lon="5.57932">
        <ele>220.5</ele>
        <time>2021-09-05T12:04:14Z</time>
      </trkpt>
      <trkpt lat="47.31848" lon="5.57939">
        <ele>219.8</ele>
        <time>2021-09-05T12:04:18Z</time>
      </trkpt>
      <trkpt lat="47.31848" lon="5.57946">
        <ele>218</ele>
        <time>2021-09-05T12:04:24Z</time>
      </trkpt>
      <trkpt lat="47.31846" lon="5.57952">
        <ele>215.8</ele>
        <time>2021-09-05T12:04:31Z</time>
      </trkpt>
      <trkpt lat="47.31844" lon="5.57959">
        <ele>215.3</ele>
        <time>2021-09-05T12:04:36Z</time>
      </trkpt>
      <trkpt lat="47.31843" lon="5.57966">
        <ele>215.4</ele>
        <time>2021-09-05T12:04:40Z</time>
      </trkpt>
      <trkpt lat="47.31842" lon="5.57973">
        <ele>214.8</ele>
        <time>2021-09-05T12:04:44Z</time>
      </trkpt>
      <trkpt lat="47.31841" lon="5.5798">
        <ele>212.6</ele>
        <time>2021-09-05T12:04:54Z</time>
      </trkpt>
      <trkpt lat="47.31842" lon="5.57987">
        <ele>209.9</ele>
        <time>2021-09-05T12:05:08Z</time>
      </trkpt>
      <trkpt lat="47.31843" lon="5.57993">
        <ele>209.4</ele>
        <time>2021-09-05T12:05:43Z</time>
      </trkpt>
      <trkpt lat="47.31841" lon="5.58">
        <ele>210.2</ele>
        <time>2021-09-05T12:05:48Z</time>
      </trkpt>
      <trkpt lat="47.3184" lon="5.58009">
        <ele>211</ele>
        <time>2021-09-05T12:05:52Z</time>
      </trkpt>
      <trkpt lat="47.31838" lon="5.58016">
        <ele>212.2</ele>
        <time>2021-09-05T12:05:56Z</time>
      </trkpt>
      <trkpt lat="47.31838" lon="5.58024">
        <ele>212.5</ele>
        <time>2021-09-05T12:06:00Z</time>
      </trkpt>
      <trkpt lat="47.31838" lon="5.58031">
        <ele>212.1</ele>
        <time>2021-09-05T12:06:04Z</time>
      </trkpt>
      <trkpt lat="47.3184" lon="5.58037">
        <ele>210.5</ele>
        <time>2021-09-05T12:06:11Z</time>
      </trkpt>
      <trkpt lat="47.31837" lon="5.58045">
        <ele>210.3</ele>
        <time>2021-09-05T12:06:15Z</time>
      </trkpt>
      <trkpt lat="47.31835" lon="5.58051">
        <ele>210.3</ele>
        <time>2021-09-05T12:06:19Z</time>
      </trkpt>
      <trkpt lat="47.31834" lon="5.58058">
        <ele>210.4</ele>
        <time>2021-09-05T12:06:23Z</time>
      </trkpt>
      <trkpt lat="47.31832" lon="5.58065">
        <ele>210.1</ele>
        <time>2021-09-05T12:06:27Z</time>
      </trkpt>
      <trkpt lat="47.31832" lon="5.58073">
        <ele>209.9</ele>
        <time>2021-09-05T12:06:31Z</time>
      </trkpt>
      <trkpt lat="47.31833" lon="5.5808">
        <ele>210.1</ele>
        <time>2021-09-05T12:06:35Z</time>
      </trkpt>
      <trkpt lat="47.31829" lon="5.58085">
        <ele>212.3</ele>
        <time>2021-09-05T12:06:44Z</time>
      </trkpt>
      <trkpt lat="47.31827" lon="5.58091">
        <ele>216.2</ele>
        <time>2021-09-05T12:07:08Z</time>
      </trkpt>
      <trkpt lat="47.31826" lon="5.58098">
        <ele>217.8</ele>
        <time>2021-09-05T12:07:14Z</time>
      </trkpt>
      <trkpt lat="47.31826" lon="5.58105">
        <ele>219.9</ele>
        <time>2021-09-05T12:07:21Z</time>
      </trkpt>
      <trkpt lat="47.31825" lon="5.58112">
        <ele>220.7</ele>
        <time>2021-09-05T12:07:29Z</time>
      </trkpt>
      <trkpt lat="47.31823" lon="5.58118">
        <ele>220.8</ele>
        <time>2021-09-05T12:07:34Z</time>
      </trkpt>
      <trkpt lat="47.31823" lon="5.58125">
        <ele>221.2</ele>
        <time>2021-09-05T12:07:38Z</time>
      </trkpt>
      <trkpt lat="47.31823" lon="5.58133">
        <ele>221.4</ele>
        <time>2021-09-05T12:07:43Z</time>
      </trkpt>
      <trkpt lat="47.31823" lon="5.5814">
        <ele>221.6</ele>
        <time>2021-09-05T12:07:46Z</time>
      </trkpt>
      <trkpt lat="47.31822" lon="5.58148">
        <ele>221.6</ele>
        <time>2021-09-05T12:07:49Z</time>
      </trkpt>
      <trkpt lat="47.31821" lon="5.58155">
        <ele>221.8</ele>
        <time>2021-09-05T12:07:52Z</time>
      </trkpt>
      <trkpt lat="47.31818" lon="5.58162">
        <ele>221.8</ele>
        <time>2021-09-05T12:07:55Z</time>
      </trkpt>
      <trkpt lat="47.31816" lon="5.58169">
        <ele>222</ele>
        <time>2021-09-05T12:07:58Z</time>
      </trkpt>
      <trkpt lat="47.31816" lon="5.58175">
        <ele>222</ele>
        <time>2021-09-05T12:08:02Z</time>
      </trkpt>
      <trkpt lat="47.31815" lon="5.58183">
        <ele>223.7</ele>
        <time>2021-09-05T12:08:09Z</time>
      </trkpt>
      <trkpt lat="47.31813" lon="5.5819">
        <ele>225.9</ele>
        <time>2021-09-05T12:08:15Z</time>
      </trkpt>
      <trkpt lat="47.31813" lon="5.58197">
        <ele>227.7</ele>
        <time>2021-09-05T12:08:20Z</time>
      </trkpt>
      <trkpt lat="47.31815" lon="5.58204">
        <ele>229.3</ele>
        <time>2021-09-05T12:08:25Z</time>
      </trkpt>
      <trkpt lat="47.31815" lon="5.58211">
        <ele>230.6</ele>
        <time>2021-09-05T12:08:31Z</time>
      </trkpt>
      <trkpt lat="47.31813" lon="5.58218">
        <ele>231.4</ele>
        <time>2021-09-05T12:08:37Z</time>
      </trkpt>
      <trkpt lat="47.31812" lon="5.58225">
        <ele>231.5</ele>
        <time>2021-09-05T12:08:42Z</time>
      </trkpt>
      <trkpt lat="47.31811" lon="5.58232">
        <ele>231.5</ele>
        <time>2021-09-05T12:08:47Z</time>
      </trkpt>
      <trkpt lat="47.31811" lon="5.58239">
        <ele>231.5</ele>
        <time>2021-09-05T12:08:51Z</time>
      </trkpt>
      <trkpt lat="47.31811" lon="5.58247">
        <ele>231.6</ele>
        <time>2021-09-05T12:08:55Z</time>
      </trkpt>
      <trkpt lat="47.31811" lon="5.58254">
        <ele>232</ele>
        <time>2021-09-05T12:09:00Z</time>
      </trkpt>
      <trkpt lat="47.31811" lon="5.58262">
        <ele>233.2</ele>
        <time>2021-09-05T12:09:06Z</time>
      </trkpt>
      <trkpt lat="47.3181" lon="5.5827">
        <ele>233.6</ele>
        <time>2021-09-05T12:09:11Z</time>
      </trkpt>
      <trkpt lat="47.3181" lon="5.58277">
        <ele>233.5</ele>
        <time>2021-09-05T12:09:16Z</time>
      </trkpt>
      <trkpt lat="47.31808" lon="5.58285">
        <ele>233.7</ele>
        <time>2021-09-05T12:09:22Z</time>
      </trkpt>
      <trkpt lat="47.31808" lon="5.58292">
        <ele>233.8</ele>
        <time>2021-09-05T12:09:27Z</time>
      </trkpt>
      <trkpt lat="47.31808" lon="5.58299">
        <ele>233.5</ele>
        <time>2021-09-05T12:09:32Z</time>
      </trkpt>
      <trkpt lat="47.31806" lon="5.58305">
        <ele>233.8</ele>
        <time>2021-09-05T12:09:37Z</time>
      </trkpt>
      <trkpt lat="47.31805" lon="5.58312">
        <ele>234.3</ele>
        <time>2021-09-05T12:09:43Z</time>
      </trkpt>
      <trkpt lat="47.31803" lon="5.58319">
        <ele>234.1</ele>
        <time>2021-09-05T12:09:49Z</time>
      </trkpt>
      <trkpt lat="47.31802" lon="5.58327">
        <ele>233.8</ele>
        <time>2021-09-05T12:09:54Z</time>
      </trkpt>
      <trkpt lat="47.31802" lon="5.58335">
        <ele>233.8</ele>
        <time>2021-09-05T12:10:00Z</time>
      </trkpt>
      <trkpt lat="47.31801" lon="5.58342">
        <ele>233.9</ele>
        <time>2021-09-05T12:10:05Z</time>
      </trkpt>
      <trkpt lat="47.318" lon="5.58349">
        <ele>234</ele>
        <time>2021-09-05T12:10:11Z</time>
      </trkpt>
      <trkpt lat="47.31799" lon="5.58357">
        <ele>234</ele>
        <time>2021-09-05T12:10:16Z</time>
      </trkpt>
      <trkpt lat="47.31798" lon="5.58364">
        <ele>233.8</ele>
        <time>2021-09-05T12:10:20Z</time>
      </trkpt>
      <trkpt lat="47.31797" lon="5.58371">
        <ele>233.8</ele>
        <time>2021-09-05T12:10:24Z</time>
      </trkpt>
      <trkpt lat="47.31797" lon="5.58379">
        <ele>234.2</ele>
        <time>2021-09-05T12:10:28Z</time>
      </trkpt>
      <trkpt lat="47.31798" lon="5.58387">
        <ele>234.6</ele>
        <time>2021-09-05T12:10:32Z</time>
      </trkpt>
      <trkpt lat="47.31798" lon="5.58394">
        <ele>234.9</ele>
        <time>2021-09-05T12:10:37Z</time>
      </trkpt>
      <trkpt lat="47.31797" lon="5.58402">
        <ele>235.1</ele>
        <time>2021-09-05T12:10:42Z</time>
      </trkpt>
      <trkpt lat="47.31794" lon="5.58408">
        <ele>234.2</ele>
        <time>2021-09-05T12:10:49Z</time>
      </trkpt>
      <trkpt lat="47.31792" lon="5.58415">
        <ele>232.9</ele>
        <time>2021-09-05T12:10:55Z</time>
      </trkpt>
      <trkpt lat="47.31789" lon="5.5842">
        <ele>232.1</ele>
        <time>2021-09-05T12:10:59Z</time>
      </trkpt>
      <trkpt lat="47.31786" lon="5.58426">
        <ele>231.5</ele>
        <time>2021-09-05T12:11:03Z</time>
      </trkpt>
      <trkpt lat="47.31782" lon="5.58431">
        <ele>231</ele>
        <time>2021-09-05T12:11:08Z</time>
      </trkpt>
      <trkpt lat="47.31779" lon="5.58437">
        <ele>230.6</ele>
        <time>2021-09-05T12:11:12Z</time>
      </trkpt>
      <trkpt lat="47.31776" lon="5.58442">
        <ele>230</ele>
        <time>2021-09-05T12:11:17Z</time>
      </trkpt>
      <trkpt lat="47.31773" lon="5.58448">
        <ele>228.9</ele>
        <time>2021-09-05T12:11:22Z</time>
      </trkpt>
      <trkpt lat="47.31769" lon="5.58453">
        <ele>228.3</ele>
        <time>2021-09-05T12:11:26Z</time>
      </trkpt>
      <trkpt lat="47.31765" lon="5.58458">
        <ele>227.9</ele>
        <time>2021-09-05T12:11:32Z</time>
      </trkpt>
      <trkpt lat="47.3176" lon="5.58463">
        <ele>227.7</ele>
        <time>2021-09-05T12:11:37Z</time>
      </trkpt>
      <trkpt lat="47.31756" lon="5.58467">
        <ele>227.7</ele>
        <time>2021-09-05T12:11:41Z</time>
      </trkpt>
      <trkpt lat="47.31752" lon="5.58471">
        <ele>227.3</ele>
        <time>2021-09-05T12:11:45Z</time>
      </trkpt>
      <trkpt lat="47.31748" lon="5.58475">
        <ele>227.2</ele>
        <time>2021-09-05T12:11:48Z</time>
      </trkpt>
      <trkpt lat="47.31744" lon="5.58479">
        <ele>226.6</ele>
        <time>2021-09-05T12:11:52Z</time>
      </trkpt>
      <trkpt lat="47.31739" lon="5.58481">
        <ele>225.5</ele>
        <time>2021-09-05T12:11:58Z</time>
      </trkpt>
      <trkpt lat="47.31735" lon="5.58485">
        <ele>224.6</ele>
        <time>2021-09-05T12:12:04Z</time>
      </trkpt>
      <trkpt lat="47.31731" lon="5.58489">
        <ele>223.5</ele>
        <time>2021-09-05T12:12:09Z</time>
      </trkpt>
      <trkpt lat="47.31727" lon="5.58493">
        <ele>222.4</ele>
        <time>2021-09-05T12:12:15Z</time>
      </trkpt>
      <trkpt lat="47.31723" lon="5.585">
        <ele>221.8</ele>
        <time>2021-09-05T12:12:19Z</time>
      </trkpt>
      <trkpt lat="47.31721" lon="5.58506">
        <ele>221.3</ele>
        <time>2021-09-05T12:12:22Z</time>
      </trkpt>
      <trkpt lat="47.31716" lon="5.58511">
        <ele>220.8</ele>
        <time>2021-09-05T12:12:27Z</time>
      </trkpt>
      <trkpt lat="47.31712" lon="5.58514">
        <ele>221</ele>
        <time>2021-09-05T12:12:30Z</time>
      </trkpt>
      <trkpt lat="47.31707" lon="5.58516">
        <ele>221.2</ele>
        <time>2021-09-05T12:12:33Z</time>
      </trkpt>
      <trkpt lat="47.31703" lon="5.5852">
        <ele>221.3</ele>
        <time>2021-09-05T12:12:36Z</time>
      </trkpt>
      <trkpt lat="47.317" lon="5.58525">
        <ele>221.6</ele>
        <time>2021-09-05T12:12:40Z</time>
      </trkpt>
      <trkpt lat="47.31696" lon="5.5853">
        <ele>222</ele>
        <time>2021-09-05T12:12:44Z</time>
      </trkpt>
      <trkpt lat="47.31692" lon="5.58535">
        <ele>222.5</ele>
        <time>2021-09-05T12:12:49Z</time>
      </trkpt>
      <trkpt lat="47.31689" lon="5.5854">
        <ele>222.4</ele>
        <time>2021-09-05T12:12:55Z</time>
      </trkpt>
      <trkpt lat="47.31686" lon="5.58545">
        <ele>222</ele>
        <time>2021-09-05T12:13:00Z</time>
      </trkpt>
      <trkpt lat="47.31683" lon="5.58551">
        <ele>221.7</ele>
        <time>2021-09-05T12:13:06Z</time>
      </trkpt>
      <trkpt lat="47.3168" lon="5.58558">
        <ele>221.7</ele>
        <time>2021-09-05T12:13:10Z</time>
      </trkpt>
      <trkpt lat="47.31679" lon="5.58564">
        <ele>221.4</ele>
        <time>2021-09-05T12:13:15Z</time>
      </trkpt>
      <trkpt lat="47.31677" lon="5.58573">
        <ele>220.4</ele>
        <time>2021-09-05T12:13:20Z</time>
      </trkpt>
      <trkpt lat="47.31675" lon="5.58581">
        <ele>219.9</ele>
        <time>2021-09-05T12:13:24Z</time>
      </trkpt>
      <trkpt lat="47.31673" lon="5.58588">
        <ele>219.8</ele>
        <time>2021-09-05T12:13:29Z</time>
      </trkpt>
      <trkpt lat="47.3167" lon="5.58594">
        <ele>219.7</ele>
        <time>2021-09-05T12:13:34Z</time>
      </trkpt>
      <trkpt lat="47.31669" lon="5.58601">
        <ele>219.9</ele>
        <time>2021-09-05T12:13:41Z</time>
      </trkpt>
      <trkpt lat="47.31667" lon="5.58608">
        <ele>220.1</ele>
        <time>2021-09-05T12:13:45Z</time>
      </trkpt>
      <trkpt lat="47.31666" lon="5.58616">
        <ele>220.2</ele>
        <time>2021-09-05T12:13:49Z</time>
      </trkpt>
      <trkpt lat="47.31665" lon="5.58622">
        <ele>219.8</ele>
        <time>2021-09-05T12:13:53Z</time>
      </trkpt>
      <trkpt lat="47.31662" lon="5.58629">
        <ele>219.1</ele>
        <time>2021-09-05T12:13:58Z</time>
      </trkpt>
      <trkpt lat="47.31659" lon="5.58634">
        <ele>218.8</ele>
        <time>2021-09-05T12:14:02Z</time>
      </trkpt>
      <trkpt lat="47.31657" lon="5.58641">
        <ele>218.9</ele>
        <time>2021-09-05T12:14:06Z</time>
      </trkpt>
      <trkpt lat="47.31656" lon="5.58648">
        <ele>219.2</ele>
        <time>2021-09-05T12:14:09Z</time>
      </trkpt>
      <trkpt lat="47.31655" lon="5.58655">
        <ele>219.3</ele>
        <time>2021-09-05T12:14:13Z</time>
      </trkpt>
      <trkpt lat="47.31654" lon="5.58662">
        <ele>219.5</ele>
        <time>2021-09-05T12:14:17Z</time>
      </trkpt>
      <trkpt lat="47.31653" lon="5.5867">
        <ele>220.1</ele>
        <time>2021-09-05T12:14:21Z</time>
      </trkpt>
      <trkpt lat="47.31651" lon="5.58676">
        <ele>220.6</ele>
        <time>2021-09-05T12:14:24Z</time>
      </trkpt>
      <trkpt lat="47.31649" lon="5.58683">
        <ele>220.9</ele>
        <time>2021-09-05T12:14:28Z</time>
      </trkpt>
      <trkpt lat="47.31648" lon="5.58689">
        <ele>221.2</ele>
        <time>2021-09-05T12:14:33Z</time>
      </trkpt>
      <trkpt lat="47.31646" lon="5.58696">
        <ele>221.2</ele>
        <time>2021-09-05T12:14:37Z</time>
      </trkpt>
      <trkpt lat="47.31643" lon="5.58703">
        <ele>221.2</ele>
        <time>2021-09-05T12:14:41Z</time>
      </trkpt>
      <trkpt lat="47.31639" lon="5.5871">
        <ele>221</ele>
        <time>2021-09-05T12:14:45Z</time>
      </trkpt>
      <trkpt lat="47.31636" lon="5.58717">
        <ele>221.4</ele>
        <time>2021-09-05T12:14:49Z</time>
      </trkpt>
      <trkpt lat="47.31634" lon="5.58724">
        <ele>222.2</ele>
        <time>2021-09-05T12:14:53Z</time>
      </trkpt>
      <trkpt lat="47.31632" lon="5.58731">
        <ele>223.6</ele>
        <time>2021-09-05T12:14:58Z</time>
      </trkpt>
      <trkpt lat="47.31631" lon="5.58737">
        <ele>224.9</ele>
        <time>2021-09-05T12:15:02Z</time>
      </trkpt>
      <trkpt lat="47.31629" lon="5.58745">
        <ele>226.3</ele>
        <time>2021-09-05T12:15:07Z</time>
      </trkpt>
      <trkpt lat="47.31628" lon="5.58751">
        <ele>227.6</ele>
        <time>2021-09-05T12:15:15Z</time>
      </trkpt>
      <trkpt lat="47.31626" lon="5.58759">
        <ele>227.9</ele>
        <time>2021-09-05T12:15:20Z</time>
      </trkpt>
      <trkpt lat="47.31625" lon="5.58765">
        <ele>228.1</ele>
        <time>2021-09-05T12:15:24Z</time>
      </trkpt>
      <trkpt lat="47.31623" lon="5.58772">
        <ele>228.1</ele>
        <time>2021-09-05T12:15:29Z</time>
      </trkpt>
      <trkpt lat="47.31619" lon="5.58779">
        <ele>227.8</ele>
        <time>2021-09-05T12:15:34Z</time>
      </trkpt>
      <trkpt lat="47.31615" lon="5.58783">
        <ele>227.8</ele>
        <time>2021-09-05T12:15:39Z</time>
      </trkpt>
      <trkpt lat="47.31613" lon="5.5879">
        <ele>227.9</ele>
        <time>2021-09-05T12:15:45Z</time>
      </trkpt>
      <trkpt lat="47.31612" lon="5.58798">
        <ele>227.9</ele>
        <time>2021-09-05T12:15:52Z</time>
      </trkpt>
      <trkpt lat="47.31611" lon="5.58805">
        <ele>227.8</ele>
        <time>2021-09-05T12:15:58Z</time>
      </trkpt>
      <trkpt lat="47.31609" lon="5.58812">
        <ele>227.6</ele>
        <time>2021-09-05T12:16:02Z</time>
      </trkpt>
      <trkpt lat="47.31606" lon="5.58819">
        <ele>227.3</ele>
        <time>2021-09-05T12:16:07Z</time>
      </trkpt>
      <trkpt lat="47.31604" lon="5.58825">
        <ele>227.2</ele>
        <time>2021-09-05T12:16:11Z</time>
      </trkpt>
      <trkpt lat="47.31603" lon="5.58833">
        <ele>227</ele>
        <time>2021-09-05T12:16:15Z</time>
      </trkpt>
      <trkpt lat="47.316" lon="5.58839">
        <ele>226.9</ele>
        <time>2021-09-05T12:16:18Z</time>
      </trkpt>
      <trkpt lat="47.31598" lon="5.58847">
        <ele>226.7</ele>
        <time>2021-09-05T12:16:22Z</time>
      </trkpt>
      <trkpt lat="47.31596" lon="5.58854">
        <ele>226.2</ele>
        <time>2021-09-05T12:16:26Z</time>
      </trkpt>
      <trkpt lat="47.31595" lon="5.5886">
        <ele>225.4</ele>
        <time>2021-09-05T12:16:32Z</time>
      </trkpt>
      <trkpt lat="47.31592" lon="5.58867">
        <ele>224.7</ele>
        <time>2021-09-05T12:16:38Z</time>
      </trkpt>
      <trkpt lat="47.31591" lon="5.58874">
        <ele>224.1</ele>
        <time>2021-09-05T12:16:44Z</time>
      </trkpt>
      <trkpt lat="47.3159" lon="5.58881">
        <ele>224</ele>
        <time>2021-09-05T12:16:47Z</time>
      </trkpt>
      <trkpt lat="47.31588" lon="5.58888">
        <ele>223.8</ele>
        <time>2021-09-05T12:16:50Z</time>
      </trkpt>
      <trkpt lat="47.31586" lon="5.58894">
        <ele>223.5</ele>
        <time>2021-09-05T12:16:53Z</time>
      </trkpt>
      <trkpt lat="47.31583" lon="5.58899">
        <ele>222.9</ele>
        <time>2021-09-05T12:16:56Z</time>
      </trkpt>
      <trkpt lat="47.31581" lon="5.58906">
        <ele>221.9</ele>
        <time>2021-09-05T12:17:00Z</time>
      </trkpt>
      <trkpt lat="47.31579" lon="5.58912">
        <ele>221.1</ele>
        <time>2021-09-05T12:17:03Z</time>
      </trkpt>
      <trkpt lat="47.31579" lon="5.5892">
        <ele>220.5</ele>
        <time>2021-09-05T12:17:06Z</time>
      </trkpt>
      <trkpt lat="47.31578" lon="5.58928">
        <ele>219.7</ele>
        <time>2021-09-05T12:17:10Z</time>
      </trkpt>
      <trkpt lat="47.31577" lon="5.58936">
        <ele>218.8</ele>
        <time>2021-09-05T12:17:14Z</time>
      </trkpt>
      <trkpt lat="47.31575" lon="5.58942">
        <ele>218.1</ele>
        <time>2021-09-05T12:17:19Z</time>
      </trkpt>
      <trkpt lat="47.31573" lon="5.58948">
        <ele>217.7</ele>
        <time>2021-09-05T12:17:24Z</time>
      </trkpt>
      <trkpt lat="47.31572" lon="5.58957">
        <ele>217.8</ele>
        <time>2021-09-05T12:17:28Z</time>
      </trkpt>
      <trkpt lat="47.3157" lon="5.58965">
        <ele>218.1</ele>
        <time>2021-09-05T12:17:32Z</time>
      </trkpt>
      <trkpt lat="47.31569" lon="5.58971">
        <ele>218.3</ele>
        <time>2021-09-05T12:17:36Z</time>
      </trkpt>
      <trkpt lat="47.31567" lon="5.58978">
        <ele>218</ele>
        <time>2021-09-05T12:17:41Z</time>
      </trkpt>
      <trkpt lat="47.31564" lon="5.58985">
        <ele>217.5</ele>
        <time>2021-09-05T12:17:49Z</time>
      </trkpt>
      <trkpt lat="47.31561" lon="5.5899">
        <ele>216.9</ele>
        <time>2021-09-05T12:17:54Z</time>
      </trkpt>
      <trkpt lat="47.31559" lon="5.58997">
        <ele>216.1</ele>
        <time>2021-09-05T12:17:59Z</time>
      </trkpt>
      <trkpt lat="47.31557" lon="5.59003">
        <ele>215.4</ele>
        <time>2021-09-05T12:18:04Z</time>
      </trkpt>
      <trkpt lat="47.31556" lon="5.5901">
        <ele>215.2</ele>
        <time>2021-09-05T12:18:08Z</time>
      </trkpt>
      <trkpt lat="47.31553" lon="5.59017">
        <ele>215.1</ele>
        <time>2021-09-05T12:18:12Z</time>
      </trkpt>
      <trkpt lat="47.31551" lon="5.59023">
        <ele>215.1</ele>
        <time>2021-09-05T12:18:15Z</time>
      </trkpt>
      <trkpt lat="47.31548" lon="5.59031">
        <ele>215.4</ele>
        <time>2021-09-05T12:18:19Z</time>
      </trkpt>
      <trkpt lat="47.31547" lon="5.59037">
        <ele>215.5</ele>
        <time>2021-09-05T12:18:24Z</time>
      </trkpt>
      <trkpt lat="47.31545" lon="5.59044">
        <ele>215</ele>
        <time>2021-09-05T12:18:29Z</time>
      </trkpt>
      <trkpt lat="47.31543" lon="5.5905">
        <ele>214.6</ele>
        <time>2021-09-05T12:18:34Z</time>
      </trkpt>
      <trkpt lat="47.31542" lon="5.59057">
        <ele>214.6</ele>
        <time>2021-09-05T12:18:38Z</time>
      </trkpt>
      <trkpt lat="47.31541" lon="5.59065">
        <ele>214.5</ele>
        <time>2021-09-05T12:18:42Z</time>
      </trkpt>
      <trkpt lat="47.31539" lon="5.59073">
        <ele>214.5</ele>
        <time>2021-09-05T12:18:46Z</time>
      </trkpt>
      <trkpt lat="47.31537" lon="5.5908">
        <ele>214.7</ele>
        <time>2021-09-05T12:18:50Z</time>
      </trkpt>
      <trkpt lat="47.31534" lon="5.59087">
        <ele>215.1</ele>
        <time>2021-09-05T12:18:54Z</time>
      </trkpt>
      <trkpt lat="47.31532" lon="5.59093">
        <ele>215.7</ele>
        <time>2021-09-05T12:18:58Z</time>
      </trkpt>
      <trkpt lat="47.31529" lon="5.59098">
        <ele>216.3</ele>
        <time>2021-09-05T12:19:02Z</time>
      </trkpt>
      <trkpt lat="47.31528" lon="5.59107">
        <ele>217.4</ele>
        <time>2021-09-05T12:19:06Z</time>
      </trkpt>
      <trkpt lat="47.31528" lon="5.59114">
        <ele>218.6</ele>
        <time>2021-09-05T12:19:09Z</time>
      </trkpt>
      <trkpt lat="47.31528" lon="5.59122">
        <ele>220.5</ele>
        <time>2021-09-05T12:19:13Z</time>
      </trkpt>
      <trkpt lat="47.31527" lon="5.59128">
        <ele>222.3</ele>
        <time>2021-09-05T12:19:17Z</time>
      </trkpt>
      <trkpt lat="47.31525" lon="5.59136">
        <ele>224.2</ele>
        <time>2021-09-05T12:19:21Z</time>
      </trkpt>
      <trkpt lat="47.31521" lon="5.5914">
        <ele>224.8</ele>
        <time>2021-09-05T12:19:25Z</time>
      </trkpt>
      <trkpt lat="47.31519" lon="5.59146">
        <ele>224.2</ele>
        <time>2021-09-05T12:19:31Z</time>
      </trkpt>
      <trkpt lat="47.31519" lon="5.59154">
        <ele>224.1</ele>
        <time>2021-09-05T12:19:36Z</time>
      </trkpt>
      <trkpt lat="47.31518" lon="5.5916">
        <ele>224.3</ele>
        <time>2021-09-05T12:19:40Z</time>
      </trkpt>
      <trkpt lat="47.31516" lon="5.59167">
        <ele>224.6</ele>
        <time>2021-09-05T12:19:45Z</time>
      </trkpt>
      <trkpt lat="47.31515" lon="5.59174">
        <ele>224.1</ele>
        <time>2021-09-05T12:19:52Z</time>
      </trkpt>
      <trkpt lat="47.31512" lon="5.59179">
        <ele>223.7</ele>
        <time>2021-09-05T12:19:56Z</time>
      </trkpt>
      <trkpt lat="47.3151" lon="5.59185">
        <ele>223.4</ele>
        <time>2021-09-05T12:20:01Z</time>
      </trkpt>
      <trkpt lat="47.31508" lon="5.59194">
        <ele>223.5</ele>
        <time>2021-09-05T12:20:05Z</time>
      </trkpt>
      <trkpt lat="47.31506" lon="5.59201">
        <ele>223.1</ele>
        <time>2021-09-05T12:20:09Z</time>
      </trkpt>
      <trkpt lat="47.31505" lon="5.59208">
        <ele>222.6</ele>
        <time>2021-09-05T12:20:14Z</time>
      </trkpt>
      <trkpt lat="47.31503" lon="5.59215">
        <ele>222</ele>
        <time>2021-09-05T12:20:20Z</time>
      </trkpt>
      <trkpt lat="47.31501" lon="5.59222">
        <ele>221.6</ele>
        <time>2021-09-05T12:20:24Z</time>
      </trkpt>
      <trkpt lat="47.31499" lon="5.59229">
        <ele>221</ele>
        <time>2021-09-05T12:20:29Z</time>
      </trkpt>
      <trkpt lat="47.31498" lon="5.59236">
        <ele>220.6</ele>
        <time>2021-09-05T12:20:35Z</time>
      </trkpt>
      <trkpt lat="47.31496" lon="5.59243">
        <ele>220.6</ele>
        <time>2021-09-05T12:20:39Z</time>
      </trkpt>
      <trkpt lat="47.31494" lon="5.5925">
        <ele>220.5</ele>
        <time>2021-09-05T12:20:46Z</time>
      </trkpt>
      <trkpt lat="47.31492" lon="5.59257">
        <ele>220.7</ele>
        <time>2021-09-05T12:20:51Z</time>
      </trkpt>
      <trkpt lat="47.3149" lon="5.59263">
        <ele>220.8</ele>
        <time>2021-09-05T12:20:54Z</time>
      </trkpt>
      <trkpt lat="47.31487" lon="5.5927">
        <ele>220.6</ele>
        <time>2021-09-05T12:20:58Z</time>
      </trkpt>
      <trkpt lat="47.31484" lon="5.59276">
        <ele>220.2</ele>
        <time>2021-09-05T12:21:03Z</time>
      </trkpt>
      <trkpt lat="47.31484" lon="5.59284">
        <ele>220.5</ele>
        <time>2021-09-05T12:21:06Z</time>
      </trkpt>
      <trkpt lat="47.31482" lon="5.59291">
        <ele>220.8</ele>
        <time>2021-09-05T12:21:09Z</time>
      </trkpt>
      <trkpt lat="47.3148" lon="5.59297">
        <ele>220.9</ele>
        <time>2021-09-05T12:21:13Z</time>
      </trkpt>
      <trkpt lat="47.31476" lon="5.59303">
        <ele>220.4</ele>
        <time>2021-09-05T12:21:18Z</time>
      </trkpt>
      <trkpt lat="47.31475" lon="5.59309">
        <ele>219.5</ele>
        <time>2021-09-05T12:21:24Z</time>
      </trkpt>
      <trkpt lat="47.31474" lon="5.59316">
        <ele>219.3</ele>
        <time>2021-09-05T12:21:29Z</time>
      </trkpt>
      <trkpt lat="47.31473" lon="5.59323">
        <ele>219.4</ele>
        <time>2021-09-05T12:21:32Z</time>
      </trkpt>
      <trkpt lat="47.31471" lon="5.5933">
        <ele>219.4</ele>
        <time>2021-09-05T12:21:35Z</time>
      </trkpt>
      <trkpt lat="47.3147" lon="5.59337">
        <ele>219.7</ele>
        <time>2021-09-05T12:21:38Z</time>
      </trkpt>
      <trkpt lat="47.31467" lon="5.59344">
        <ele>219.7</ele>
        <time>2021-09-05T12:21:42Z</time>
      </trkpt>
      <trkpt lat="47.31465" lon="5.5935">
        <ele>219.4</ele>
        <time>2021-09-05T12:21:47Z</time>
      </trkpt>
      <trkpt lat="47.31464" lon="5.59356">
        <ele>219.3</ele>
        <time>2021-09-05T12:21:52Z</time>
      </trkpt>
      <trkpt lat="47.31462" lon="5.59363">
        <ele>219.2</ele>
        <time>2021-09-05T12:21:56Z</time>
      </trkpt>
      <trkpt lat="47.31461" lon="5.5937">
        <ele>219.1</ele>
        <time>2021-09-05T12:22:00Z</time>
      </trkpt>
      <trkpt lat="47.31457" lon="5.59375">
        <ele>218.4</ele>
        <time>2021-09-05T12:22:06Z</time>
      </trkpt>
      <trkpt lat="47.31454" lon="5.59382">
        <ele>217.9</ele>
        <time>2021-09-05T12:22:11Z</time>
      </trkpt>
      <trkpt lat="47.31454" lon="5.59389">
        <ele>218.5</ele>
        <time>2021-09-05T12:22:20Z</time>
      </trkpt>
      <trkpt lat="47.31453" lon="5.59395">
        <ele>218.4</ele>
        <time>2021-09-05T12:22:29Z</time>
      </trkpt>
      <trkpt lat="47.31454" lon="5.59402">
        <ele>218</ele>
        <time>2021-09-05T12:22:34Z</time>
      </trkpt>
      <trkpt lat="47.31454" lon="5.59395">
        <ele>223.8</ele>
        <time>2021-09-05T12:22:53Z</time>
      </trkpt>
      <trkpt lat="47.3145" lon="5.59399">
        <ele>226</ele>
        <time>2021-09-05T12:22:58Z</time>
      </trkpt>
      <trkpt lat="47.31446" lon="5.59396">
        <ele>231.7</ele>
        <time>2021-09-05T12:23:13Z</time>
      </trkpt>
      <trkpt lat="47.3145" lon="5.59394">
        <ele>232.8</ele>
        <time>2021-09-05T12:24:11Z</time>
      </trkpt>
      <trkpt lat="47.31445" lon="5.59397">
        <ele>232.8</ele>
        <time>2021-09-05T12:24:24Z</time>
      </trkpt>
      <trkpt lat="47.3145" lon="5.59394">
        <ele>231.5</ele>
        <time>2021-09-05T12:25:06Z</time>
      </trkpt>
      <trkpt lat="47.31456" lon="5.59397">
        <ele>232.3</ele>
        <time>2021-09-05T12:25:14Z</time>
      </trkpt>
      <trkpt lat="47.3145" lon="5.59396">
        <ele>232.1</ele>
        <time>2021-09-05T12:26:32Z</time>
      </trkpt>
      <trkpt lat="47.31443" lon="5.594">
        <ele>228.7</ele>
        <time>2021-09-05T12:26:46Z</time>
      </trkpt>
      <trkpt lat="47.31448" lon="5.59399">
        <ele>227.8</ele>
        <time>2021-09-05T12:27:07Z</time>
      </trkpt>
      <trkpt lat="47.31449" lon="5.59392">
        <ele>228.8</ele>
        <time>2021-09-05T12:27:18Z</time>
      </trkpt>
      <trkpt lat="47.31448" lon="5.59399">
        <ele>228.9</ele>
        <time>2021-09-05T12:27:54Z</time>
      </trkpt>
      <trkpt lat="47.31451" lon="5.59394">
        <ele>229.3</ele>
        <time>2021-09-05T12:28:02Z</time>
      </trkpt>
      <trkpt lat="47.31448" lon="5.59389">
        <ele>234.7</ele>
        <time>2021-09-05T12:28:46Z</time>
      </trkpt>
      <trkpt lat="47.31448" lon="5.59396">
        <ele>234.1</ele>
        <time>2021-09-05T12:28:57Z</time>
      </trkpt>
      <trkpt lat="47.3145" lon="5.59403">
        <ele>232.9</ele>
        <time>2021-09-05T12:29:12Z</time>
      </trkpt>
      <trkpt lat="47.31452" lon="5.59409">
        <ele>232.8</ele>
        <time>2021-09-05T12:29:16Z</time>
      </trkpt>
      <trkpt lat="47.31454" lon="5.59416">
        <ele>232.7</ele>
        <time>2021-09-05T12:29:20Z</time>
      </trkpt>
      <trkpt lat="47.31456" lon="5.59423">
        <ele>231.8</ele>
        <time>2021-09-05T12:29:24Z</time>
      </trkpt>
      <trkpt lat="47.31457" lon="5.5943">
        <ele>230.7</ele>
        <time>2021-09-05T12:29:28Z</time>
      </trkpt>
      <trkpt lat="47.31456" lon="5.59438">
        <ele>229.4</ele>
        <time>2021-09-05T12:29:32Z</time>
      </trkpt>
      <trkpt lat="47.31454" lon="5.59444">
        <ele>227.9</ele>
        <time>2021-09-05T12:29:38Z</time>
      </trkpt>
      <trkpt lat="47.3145" lon="5.59447">
        <ele>226</ele>
        <time>2021-09-05T12:29:46Z</time>
      </trkpt>
      <trkpt lat="47.31446" lon="5.59453">
        <ele>224.9</ele>
        <time>2021-09-05T12:29:52Z</time>
      </trkpt>
      <trkpt lat="47.31444" lon="5.59461">
        <ele>224.7</ele>
        <time>2021-09-05T12:29:57Z</time>
      </trkpt>
      <trkpt lat="47.31444" lon="5.59468">
        <ele>224.6</ele>
        <time>2021-09-05T12:30:02Z</time>
      </trkpt>
      <trkpt lat="47.31443" lon="5.59475">
        <ele>224.5</ele>
        <time>2021-09-05T12:30:09Z</time>
      </trkpt>
      <trkpt lat="47.3144" lon="5.59482">
        <ele>224.3</ele>
        <time>2021-09-05T12:30:15Z</time>
      </trkpt>
      <trkpt lat="47.31438" lon="5.59489">
        <ele>224.3</ele>
        <time>2021-09-05T12:30:19Z</time>
      </trkpt>
      <trkpt lat="47.31434" lon="5.59495">
        <ele>224.3</ele>
        <time>2021-09-05T12:30:24Z</time>
      </trkpt>
      <trkpt lat="47.3143" lon="5.59501">
        <ele>224.4</ele>
        <time>2021-09-05T12:30:29Z</time>
      </trkpt>
      <trkpt lat="47.31426" lon="5.59506">
        <ele>224.5</ele>
        <time>2021-09-05T12:30:32Z</time>
      </trkpt>
      <trkpt lat="47.31424" lon="5.59513">
        <ele>224.7</ele>
        <time>2021-09-05T12:30:36Z</time>
      </trkpt>
      <trkpt lat="47.31422" lon="5.5952">
        <ele>224.8</ele>
        <time>2021-09-05T12:30:41Z</time>
      </trkpt>
      <trkpt lat="47.31421" lon="5.59527">
        <ele>224.9</ele>
        <time>2021-09-05T12:30:46Z</time>
      </trkpt>
      <trkpt lat="47.31419" lon="5.59534">
        <ele>224.7</ele>
        <time>2021-09-05T12:30:54Z</time>
      </trkpt>
      <trkpt lat="47.31418" lon="5.59542">
        <ele>224.7</ele>
        <time>2021-09-05T12:30:58Z</time>
      </trkpt>
      <trkpt lat="47.31417" lon="5.59549">
        <ele>224.8</ele>
        <time>2021-09-05T12:31:02Z</time>
      </trkpt>
      <trkpt lat="47.31415" lon="5.59556">
        <ele>224.9</ele>
        <time>2021-09-05T12:31:07Z</time>
      </trkpt>
      <trkpt lat="47.31412" lon="5.59562">
        <ele>225.1</ele>
        <time>2021-09-05T12:31:15Z</time>
      </trkpt>
      <trkpt lat="47.31411" lon="5.59569">
        <ele>224.8</ele>
        <time>2021-09-05T12:31:22Z</time>
      </trkpt>
      <trkpt lat="47.31409" lon="5.59575">
        <ele>224.6</ele>
        <time>2021-09-05T12:31:29Z</time>
      </trkpt>
      <trkpt lat="47.31407" lon="5.59585">
        <ele>225.1</ele>
        <time>2021-09-05T12:31:32Z</time>
      </trkpt>
      <trkpt lat="47.31405" lon="5.59592">
        <ele>225.4</ele>
        <time>2021-09-05T12:31:35Z</time>
      </trkpt>
      <trkpt lat="47.31402" lon="5.59602">
        <ele>225.8</ele>
        <time>2021-09-05T12:31:38Z</time>
      </trkpt>
      <trkpt lat="47.314" lon="5.59609">
        <ele>226</ele>
        <time>2021-09-05T12:31:41Z</time>
      </trkpt>
      <trkpt lat="47.31398" lon="5.59616">
        <ele>226.3</ele>
        <time>2021-09-05T12:31:44Z</time>
      </trkpt>
      <trkpt lat="47.31396" lon="5.59622">
        <ele>226.7</ele>
        <time>2021-09-05T12:31:47Z</time>
      </trkpt>
      <trkpt lat="47.31393" lon="5.59628">
        <ele>227.1</ele>
        <time>2021-09-05T12:31:50Z</time>
      </trkpt>
      <trkpt lat="47.31391" lon="5.59634">
        <ele>227.4</ele>
        <time>2021-09-05T12:31:53Z</time>
      </trkpt>
      <trkpt lat="47.31389" lon="5.59641">
        <ele>227.8</ele>
        <time>2021-09-05T12:31:57Z</time>
      </trkpt>
      <trkpt lat="47.31387" lon="5.59647">
        <ele>228.2</ele>
        <time>2021-09-05T12:32:03Z</time>
      </trkpt>
      <trkpt lat="47.31385" lon="5.59654">
        <ele>228.4</ele>
        <time>2021-09-05T12:32:09Z</time>
      </trkpt>
      <trkpt lat="47.31383" lon="5.5966">
        <ele>228.8</ele>
        <time>2021-09-05T12:32:12Z</time>
      </trkpt>
      <trkpt lat="47.31381" lon="5.59666">
        <ele>228.6</ele>
        <time>2021-09-05T12:32:16Z</time>
      </trkpt>
      <trkpt lat="47.31378" lon="5.59672">
        <ele>227.8</ele>
        <time>2021-09-05T12:32:20Z</time>
      </trkpt>
      <trkpt lat="47.31375" lon="5.59679">
        <ele>227.5</ele>
        <time>2021-09-05T12:32:25Z</time>
      </trkpt>
      <trkpt lat="47.31371" lon="5.59683">
        <ele>227.5</ele>
        <time>2021-09-05T12:32:30Z</time>
      </trkpt>
      <trkpt lat="47.31367" lon="5.59688">
        <ele>227.6</ele>
        <time>2021-09-05T12:32:35Z</time>
      </trkpt>
      <trkpt lat="47.31363" lon="5.59691">
        <ele>227.5</ele>
        <time>2021-09-05T12:32:40Z</time>
      </trkpt>
      <trkpt lat="47.3136" lon="5.59697">
        <ele>227.1</ele>
        <time>2021-09-05T12:32:48Z</time>
      </trkpt>
      <trkpt lat="47.31355" lon="5.59699">
        <ele>227.4</ele>
        <time>2021-09-05T12:32:54Z</time>
      </trkpt>
      <trkpt lat="47.31351" lon="5.59704">
        <ele>228.1</ele>
        <time>2021-09-05T12:32:59Z</time>
      </trkpt>
      <trkpt lat="47.31346" lon="5.59706">
        <ele>228.5</ele>
        <time>2021-09-05T12:33:05Z</time>
      </trkpt>
      <trkpt lat="47.31342" lon="5.59711">
        <ele>229.3</ele>
        <time>2021-09-05T12:33:12Z</time>
      </trkpt>
      <trkpt lat="47.31338" lon="5.59718">
        <ele>229.6</ele>
        <time>2021-09-05T12:33:16Z</time>
      </trkpt>
      <trkpt lat="47.31335" lon="5.59723">
        <ele>230</ele>
        <time>2021-09-05T12:33:21Z</time>
      </trkpt>
      <trkpt lat="47.31332" lon="5.59729">
        <ele>230.6</ele>
        <time>2021-09-05T12:33:25Z</time>
      </trkpt>
      <trkpt lat="47.31329" lon="5.59735">
        <ele>231.5</ele>
        <time>2021-09-05T12:33:30Z</time>
      </trkpt>
      <trkpt lat="47.31326" lon="5.5974">
        <ele>231.9</ele>
        <time>2021-09-05T12:33:33Z</time>
      </trkpt>
      <trkpt lat="47.31321" lon="5.59745">
        <ele>232.5</ele>
        <time>2021-09-05T12:33:37Z</time>
      </trkpt>
      <trkpt lat="47.31317" lon="5.5975">
        <ele>232.7</ele>
        <time>2021-09-05T12:33:42Z</time>
      </trkpt>
      <trkpt lat="47.31313" lon="5.59755">
        <ele>232.9</ele>
        <time>2021-09-05T12:33:46Z</time>
      </trkpt>
      <trkpt lat="47.3131" lon="5.59759">
        <ele>232.9</ele>
        <time>2021-09-05T12:33:50Z</time>
      </trkpt>
      <trkpt lat="47.31306" lon="5.59767">
        <ele>232.9</ele>
        <time>2021-09-05T12:33:54Z</time>
      </trkpt>
      <trkpt lat="47.31303" lon="5.59772">
        <ele>233.2</ele>
        <time>2021-09-05T12:33:57Z</time>
      </trkpt>
      <trkpt lat="47.31299" lon="5.59777">
        <ele>234.6</ele>
        <time>2021-09-05T12:34:03Z</time>
      </trkpt>
      <trkpt lat="47.31294" lon="5.59781">
        <ele>235.7</ele>
        <time>2021-09-05T12:34:07Z</time>
      </trkpt>
      <trkpt lat="47.31289" lon="5.59784">
        <ele>236.8</ele>
        <time>2021-09-05T12:34:12Z</time>
      </trkpt>
      <trkpt lat="47.31285" lon="5.59787">
        <ele>237.3</ele>
        <time>2021-09-05T12:34:18Z</time>
      </trkpt>
      <trkpt lat="47.31282" lon="5.59793">
        <ele>237.3</ele>
        <time>2021-09-05T12:34:22Z</time>
      </trkpt>
      <trkpt lat="47.31279" lon="5.59799">
        <ele>237.1</ele>
        <time>2021-09-05T12:34:27Z</time>
      </trkpt>
      <trkpt lat="47.31277" lon="5.59805">
        <ele>236.8</ele>
        <time>2021-09-05T12:34:31Z</time>
      </trkpt>
      <trkpt lat="47.31274" lon="5.59812">
        <ele>236.9</ele>
        <time>2021-09-05T12:34:35Z</time>
      </trkpt>
      <trkpt lat="47.31271" lon="5.59819">
        <ele>236.9</ele>
        <time>2021-09-05T12:34:39Z</time>
      </trkpt>
      <trkpt lat="47.31268" lon="5.59824">
        <ele>236.5</ele>
        <time>2021-09-05T12:34:46Z</time>
      </trkpt>
      <trkpt lat="47.31264" lon="5.59828">
        <ele>236.1</ele>
        <time>2021-09-05T12:34:49Z</time>
      </trkpt>
      <trkpt lat="47.31259" lon="5.59831">
        <ele>235.5</ele>
        <time>2021-09-05T12:34:53Z</time>
      </trkpt>
      <trkpt lat="47.31255" lon="5.59835">
        <ele>235.1</ele>
        <time>2021-09-05T12:34:57Z</time>
      </trkpt>
      <trkpt lat="47.31251" lon="5.59838">
        <ele>234.7</ele>
        <time>2021-09-05T12:35:02Z</time>
      </trkpt>
      <trkpt lat="47.31247" lon="5.59841">
        <ele>234.7</ele>
        <time>2021-09-05T12:35:06Z</time>
      </trkpt>
      <trkpt lat="47.31243" lon="5.59845">
        <ele>235.1</ele>
        <time>2021-09-05T12:35:10Z</time>
      </trkpt>
      <trkpt lat="47.31239" lon="5.5985">
        <ele>235.1</ele>
        <time>2021-09-05T12:35:17Z</time>
      </trkpt>
      <trkpt lat="47.31235" lon="5.59854">
        <ele>235</ele>
        <time>2021-09-05T12:35:37Z</time>
      </trkpt>
      <trkpt lat="47.31231" lon="5.5986">
        <ele>236.3</ele>
        <time>2021-09-05T12:35:42Z</time>
      </trkpt>
      <trkpt lat="47.31228" lon="5.59865">
        <ele>237.5</ele>
        <time>2021-09-05T12:35:47Z</time>
      </trkpt>
      <trkpt lat="47.31224" lon="5.59867">
        <ele>238.3</ele>
        <time>2021-09-05T12:35:56Z</time>
      </trkpt>
      <trkpt lat="47.31219" lon="5.59869">
        <ele>238.2</ele>
        <time>2021-09-05T12:36:02Z</time>
      </trkpt>
      <trkpt lat="47.31214" lon="5.59871">
        <ele>237.7</ele>
        <time>2021-09-05T12:36:07Z</time>
      </trkpt>
      <trkpt lat="47.3121" lon="5.59875">
        <ele>236.9</ele>
        <time>2021-09-05T12:36:12Z</time>
      </trkpt>
      <trkpt lat="47.31206" lon="5.59879">
        <ele>236.2</ele>
        <time>2021-09-05T12:36:17Z</time>
      </trkpt>
      <trkpt lat="47.31201" lon="5.59882">
        <ele>235.5</ele>
        <time>2021-09-05T12:36:22Z</time>
      </trkpt>
      <trkpt lat="47.31196" lon="5.59884">
        <ele>235</ele>
        <time>2021-09-05T12:36:27Z</time>
      </trkpt>
      <trkpt lat="47.31192" lon="5.59889">
        <ele>234.4</ele>
        <time>2021-09-05T12:36:34Z</time>
      </trkpt>
      <trkpt lat="47.31188" lon="5.59894">
        <ele>233.9</ele>
        <time>2021-09-05T12:36:39Z</time>
      </trkpt>
      <trkpt lat="47.31185" lon="5.59899">
        <ele>233.5</ele>
        <time>2021-09-05T12:36:43Z</time>
      </trkpt>
      <trkpt lat="47.3118" lon="5.59903">
        <ele>232.9</ele>
        <time>2021-09-05T12:36:48Z</time>
      </trkpt>
      <trkpt lat="47.31175" lon="5.59905">
        <ele>232.2</ele>
        <time>2021-09-05T12:36:53Z</time>
      </trkpt>
      <trkpt lat="47.3117" lon="5.59907">
        <ele>231.1</ele>
        <time>2021-09-05T12:36:58Z</time>
      </trkpt>
      <trkpt lat="47.31167" lon="5.59911">
        <ele>230.5</ele>
        <time>2021-09-05T12:37:02Z</time>
      </trkpt>
      <trkpt lat="47.31163" lon="5.59915">
        <ele>230.1</ele>
        <time>2021-09-05T12:37:06Z</time>
      </trkpt>
      <trkpt lat="47.31159" lon="5.5992">
        <ele>229.8</ele>
        <time>2021-09-05T12:37:09Z</time>
      </trkpt>
      <trkpt lat="47.31156" lon="5.59926">
        <ele>229.2</ele>
        <time>2021-09-05T12:37:14Z</time>
      </trkpt>
      <trkpt lat="47.31151" lon="5.59929">
        <ele>228.8</ele>
        <time>2021-09-05T12:37:19Z</time>
      </trkpt>
      <trkpt lat="47.31147" lon="5.59932">
        <ele>228.6</ele>
        <time>2021-09-05T12:37:23Z</time>
      </trkpt>
      <trkpt lat="47.31142" lon="5.59936">
        <ele>228.6</ele>
        <time>2021-09-05T12:37:27Z</time>
      </trkpt>
      <trkpt lat="47.31138" lon="5.59939">
        <ele>228.5</ele>
        <time>2021-09-05T12:37:30Z</time>
      </trkpt>
      <trkpt lat="47.31133" lon="5.59941">
        <ele>228.7</ele>
        <time>2021-09-05T12:37:33Z</time>
      </trkpt>
      <trkpt lat="47.31128" lon="5.59943">
        <ele>228.8</ele>
        <time>2021-09-05T12:37:36Z</time>
      </trkpt>
      <trkpt lat="47.31123" lon="5.59946">
        <ele>228.9</ele>
        <time>2021-09-05T12:37:40Z</time>
      </trkpt>
      <trkpt lat="47.31119" lon="5.5995">
        <ele>229</ele>
        <time>2021-09-05T12:37:45Z</time>
      </trkpt>
      <trkpt lat="47.31114" lon="5.5995">
        <ele>228.6</ele>
        <time>2021-09-05T12:37:50Z</time>
      </trkpt>
      <trkpt lat="47.3111" lon="5.59953">
        <ele>227.6</ele>
        <time>2021-09-05T12:37:56Z</time>
      </trkpt>
      <trkpt lat="47.31106" lon="5.59956">
        <ele>226.6</ele>
        <time>2021-09-05T12:38:01Z</time>
      </trkpt>
      <trkpt lat="47.31102" lon="5.59961">
        <ele>226.1</ele>
        <time>2021-09-05T12:38:05Z</time>
      </trkpt>
      <trkpt lat="47.31098" lon="5.59963">
        <ele>225.5</ele>
        <time>2021-09-05T12:38:10Z</time>
      </trkpt>
      <trkpt lat="47.31093" lon="5.59966">
        <ele>225.3</ele>
        <time>2021-09-05T12:38:16Z</time>
      </trkpt>
      <trkpt lat="47.31089" lon="5.59972">
        <ele>225</ele>
        <time>2021-09-05T12:38:21Z</time>
      </trkpt>
      <trkpt lat="47.31087" lon="5.59977">
        <ele>224.4</ele>
        <time>2021-09-05T12:38:26Z</time>
      </trkpt>
      <trkpt lat="47.31083" lon="5.59982">
        <ele>223.6</ele>
        <time>2021-09-05T12:38:32Z</time>
      </trkpt>
      <trkpt lat="47.31079" lon="5.59986">
        <ele>223.2</ele>
        <time>2021-09-05T12:38:36Z</time>
      </trkpt>
      <trkpt lat="47.31074" lon="5.5999">
        <ele>222.8</ele>
        <time>2021-09-05T12:38:39Z</time>
      </trkpt>
      <trkpt lat="47.3107" lon="5.59994">
        <ele>222.5</ele>
        <time>2021-09-05T12:38:42Z</time>
      </trkpt>
      <trkpt lat="47.31067" lon="5.59998">
        <ele>222.1</ele>
        <time>2021-09-05T12:38:46Z</time>
      </trkpt>
      <trkpt lat="47.31062" lon="5.60002">
        <ele>221.5</ele>
        <time>2021-09-05T12:38:52Z</time>
      </trkpt>
      <trkpt lat="47.31058" lon="5.60007">
        <ele>221.3</ele>
        <time>2021-09-05T12:38:56Z</time>
      </trkpt>
      <trkpt lat="47.31054" lon="5.6001">
        <ele>221.4</ele>
        <time>2021-09-05T12:39:02Z</time>
      </trkpt>
      <trkpt lat="47.31049" lon="5.60014">
        <ele>223.1</ele>
        <time>2021-09-05T12:39:08Z</time>
      </trkpt>
      <trkpt lat="47.31044" lon="5.60017">
        <ele>224.1</ele>
        <time>2021-09-05T12:39:13Z</time>
      </trkpt>
      <trkpt lat="47.3104" lon="5.60014">
        <ele>223.9</ele>
        <time>2021-09-05T12:39:22Z</time>
      </trkpt>
      <trkpt lat="47.31035" lon="5.60015">
        <ele>224.1</ele>
        <time>2021-09-05T12:39:26Z</time>
      </trkpt>
      <trkpt lat="47.3103" lon="5.60011">
        <ele>224.4</ele>
        <time>2021-09-05T12:39:31Z</time>
      </trkpt>
      <trkpt lat="47.31026" lon="5.60008">
        <ele>225</ele>
        <time>2021-09-05T12:39:37Z</time>
      </trkpt>
      <trkpt lat="47.31021" lon="5.60006">
        <ele>225</ele>
        <time>2021-09-05T12:39:45Z</time>
      </trkpt>
      <trkpt lat="47.31016" lon="5.60005">
        <ele>224.7</ele>
        <time>2021-09-05T12:39:51Z</time>
      </trkpt>
      <trkpt lat="47.31012" lon="5.60002">
        <ele>224.5</ele>
        <time>2021-09-05T12:39:57Z</time>
      </trkpt>
      <trkpt lat="47.3101" lon="5.59995">
        <ele>224.8</ele>
        <time>2021-09-05T12:40:19Z</time>
      </trkpt>
      <trkpt lat="47.31006" lon="5.59999">
        <ele>224.8</ele>
        <time>2021-09-05T12:40:25Z</time>
      </trkpt>
      <trkpt lat="47.31003" lon="5.60005">
        <ele>225.6</ele>
        <time>2021-09-05T12:40:35Z</time>
      </trkpt>
      <trkpt lat="47.30999" lon="5.6001">
        <ele>226.3</ele>
        <time>2021-09-05T12:40:49Z</time>
      </trkpt>
      <trkpt lat="47.31001" lon="5.60017">
        <ele>226.8</ele>
        <time>2021-09-05T12:40:56Z</time>
      </trkpt>
      <trkpt lat="47.31001" lon="5.60024">
        <ele>227.2</ele>
        <time>2021-09-05T12:41:02Z</time>
      </trkpt>
      <trkpt lat="47.31004" lon="5.60031">
        <ele>227.4</ele>
        <time>2021-09-05T12:41:08Z</time>
      </trkpt>
      <trkpt lat="47.31007" lon="5.60036">
        <ele>227.7</ele>
        <time>2021-09-05T12:41:14Z</time>
      </trkpt>
      <trkpt lat="47.31007" lon="5.60043">
        <ele>227.3</ele>
        <time>2021-09-05T12:41:21Z</time>
      </trkpt>
      <trkpt lat="47.31008" lon="5.6005">
        <ele>226.7</ele>
        <time>2021-09-05T12:41:26Z</time>
      </trkpt>
      <trkpt lat="47.31009" lon="5.60057">
        <ele>226</ele>
        <time>2021-09-05T12:41:34Z</time>
      </trkpt>
      <trkpt lat="47.3101" lon="5.60064">
        <ele>225.9</ele>
        <time>2021-09-05T12:41:38Z</time>
      </trkpt>
      <trkpt lat="47.31011" lon="5.60071">
        <ele>225.9</ele>
        <time>2021-09-05T12:41:44Z</time>
      </trkpt>
      <trkpt lat="47.31013" lon="5.60079">
        <ele>225.9</ele>
        <time>2021-09-05T12:41:51Z</time>
      </trkpt>
      <trkpt lat="47.31014" lon="5.60086">
        <ele>226.2</ele>
        <time>2021-09-05T12:41:55Z</time>
      </trkpt>
      <trkpt lat="47.31016" lon="5.60092">
        <ele>226.7</ele>
        <time>2021-09-05T12:41:59Z</time>
      </trkpt>
      <trkpt lat="47.31018" lon="5.60098">
        <ele>227</ele>
        <time>2021-09-05T12:42:03Z</time>
      </trkpt>
      <trkpt lat="47.3102" lon="5.60105">
        <ele>226.2</ele>
        <time>2021-09-05T12:42:10Z</time>
      </trkpt>
      <trkpt lat="47.31021" lon="5.60113">
        <ele>225.3</ele>
        <time>2021-09-05T12:42:15Z</time>
      </trkpt>
      <trkpt lat="47.31023" lon="5.6012">
        <ele>224.4</ele>
        <time>2021-09-05T12:42:20Z</time>
      </trkpt>
      <trkpt lat="47.31026" lon="5.60125">
        <ele>223.7</ele>
        <time>2021-09-05T12:42:25Z</time>
      </trkpt>
      <trkpt lat="47.31026" lon="5.60133">
        <ele>223</ele>
        <time>2021-09-05T12:42:30Z</time>
      </trkpt>
      <trkpt lat="47.31026" lon="5.6014">
        <ele>222</ele>
        <time>2021-09-05T12:42:35Z</time>
      </trkpt>
      <trkpt lat="47.31027" lon="5.60148">
        <ele>220.9</ele>
        <time>2021-09-05T12:42:40Z</time>
      </trkpt>
      <trkpt lat="47.31026" lon="5.60155">
        <ele>220.1</ele>
        <time>2021-09-05T12:42:44Z</time>
      </trkpt>
      <trkpt lat="47.31028" lon="5.60162">
        <ele>219.5</ele>
        <time>2021-09-05T12:42:49Z</time>
      </trkpt>
      <trkpt lat="47.3103" lon="5.60168">
        <ele>219.7</ele>
        <time>2021-09-05T12:42:54Z</time>
      </trkpt>
      <trkpt lat="47.31031" lon="5.60176">
        <ele>220.2</ele>
        <time>2021-09-05T12:42:59Z</time>
      </trkpt>
      <trkpt lat="47.31031" lon="5.60183">
        <ele>220.8</ele>
        <time>2021-09-05T12:43:05Z</time>
      </trkpt>
      <trkpt lat="47.31033" lon="5.6019">
        <ele>221.1</ele>
        <time>2021-09-05T12:43:11Z</time>
      </trkpt>
      <trkpt lat="47.31036" lon="5.60196">
        <ele>220.9</ele>
        <time>2021-09-05T12:43:18Z</time>
      </trkpt>
      <trkpt lat="47.3104" lon="5.60201">
        <ele>220.7</ele>
        <time>2021-09-05T12:43:23Z</time>
      </trkpt>
      <trkpt lat="47.31042" lon="5.60206">
        <ele>220.5</ele>
        <time>2021-09-05T12:43:28Z</time>
      </trkpt>
      <trkpt lat="47.31043" lon="5.60213">
        <ele>220.2</ele>
        <time>2021-09-05T12:43:34Z</time>
      </trkpt>
      <trkpt lat="47.31046" lon="5.60223">
        <ele>220.4</ele>
        <time>2021-09-05T12:43:46Z</time>
      </trkpt>
      <trkpt lat="47.3105" lon="5.60228">
        <ele>219.9</ele>
        <time>2021-09-05T12:43:50Z</time>
      </trkpt>
      <trkpt lat="47.31051" lon="5.60234">
        <ele>219.3</ele>
        <time>2021-09-05T12:43:59Z</time>
      </trkpt>
      <trkpt lat="47.31055" lon="5.6024">
        <ele>219.1</ele>
        <time>2021-09-05T12:44:06Z</time>
      </trkpt>
      <trkpt lat="47.31058" lon="5.60246">
        <ele>219.2</ele>
        <time>2021-09-05T12:44:13Z</time>
      </trkpt>
      <trkpt lat="47.31058" lon="5.60253">
        <ele>218.4</ele>
        <time>2021-09-05T12:44:19Z</time>
      </trkpt>
      <trkpt lat="47.31059" lon="5.60261">
        <ele>217.6</ele>
        <time>2021-09-05T12:44:24Z</time>
      </trkpt>
      <trkpt lat="47.3106" lon="5.60269">
        <ele>217.1</ele>
        <time>2021-09-05T12:44:29Z</time>
      </trkpt>
      <trkpt lat="47.31061" lon="5.60275">
        <ele>216.7</ele>
        <time>2021-09-05T12:44:33Z</time>
      </trkpt>
      <trkpt lat="47.31062" lon="5.60282">
        <ele>216.2</ele>
        <time>2021-09-05T12:44:37Z</time>
      </trkpt>
      <trkpt lat="47.31064" lon="5.60289">
        <ele>216</ele>
        <time>2021-09-05T12:44:42Z</time>
      </trkpt>
      <trkpt lat="47.31065" lon="5.60296">
        <ele>216.2</ele>
        <time>2021-09-05T12:44:46Z</time>
      </trkpt>
      <trkpt lat="47.31066" lon="5.60303">
        <ele>216.6</ele>
        <time>2021-09-05T12:44:52Z</time>
      </trkpt>
      <trkpt lat="47.31069" lon="5.60309">
        <ele>216.9</ele>
        <time>2021-09-05T12:44:59Z</time>
      </trkpt>
      <trkpt lat="47.31071" lon="5.60317">
        <ele>217.3</ele>
        <time>2021-09-05T12:45:06Z</time>
      </trkpt>
      <trkpt lat="47.31071" lon="5.60324">
        <ele>217.8</ele>
        <time>2021-09-05T12:45:11Z</time>
      </trkpt>
      <trkpt lat="47.31072" lon="5.60332">
        <ele>218.7</ele>
        <time>2021-09-05T12:45:16Z</time>
      </trkpt>
      <trkpt lat="47.31074" lon="5.6034">
        <ele>219</ele>
        <time>2021-09-05T12:45:21Z</time>
      </trkpt>
      <trkpt lat="47.31074" lon="5.60346">
        <ele>218.7</ele>
        <time>2021-09-05T12:45:33Z</time>
      </trkpt>
      <trkpt lat="47.31072" lon="5.60352">
        <ele>219.3</ele>
        <time>2021-09-05T12:45:39Z</time>
      </trkpt>
      <trkpt lat="47.31068" lon="5.6035">
        <ele>223.3</ele>
        <time>2021-09-05T12:47:09Z</time>
      </trkpt>
      <trkpt lat="47.31061" lon="5.60352">
        <ele>224.2</ele>
        <time>2021-09-05T12:47:14Z</time>
      </trkpt>
      <trkpt lat="47.31058" lon="5.60357">
        <ele>223.9</ele>
        <time>2021-09-05T12:47:18Z</time>
      </trkpt>
      <trkpt lat="47.31057" lon="5.60363">
        <ele>223.9</ele>
        <time>2021-09-05T12:47:24Z</time>
      </trkpt>
      <trkpt lat="47.3105" lon="5.60373">
        <ele>223.2</ele>
        <time>2021-09-05T12:47:27Z</time>
      </trkpt>
      <trkpt lat="47.31044" lon="5.60381">
        <ele>222.9</ele>
        <time>2021-09-05T12:47:30Z</time>
      </trkpt>
      <trkpt lat="47.3105" lon="5.60381">
        <ele>222.8</ele>
        <time>2021-09-05T12:47:46Z</time>
      </trkpt>
      <trkpt lat="47.31055" lon="5.60376">
        <ele>223.5</ele>
        <time>2021-09-05T12:47:49Z</time>
      </trkpt>
      <trkpt lat="47.31059" lon="5.60372">
        <ele>223.3</ele>
        <time>2021-09-05T12:47:53Z</time>
      </trkpt>
      <trkpt lat="47.31062" lon="5.60365">
        <ele>222.5</ele>
        <time>2021-09-05T12:47:57Z</time>
      </trkpt>
      <trkpt lat="47.31066" lon="5.60365">
        <ele>221.3</ele>
        <time>2021-09-05T12:48:15Z</time>
      </trkpt>
      <trkpt lat="47.31071" lon="5.60369">
        <ele>221.2</ele>
        <time>2021-09-05T12:48:23Z</time>
      </trkpt>
      <trkpt lat="47.31075" lon="5.60373">
        <ele>221.2</ele>
        <time>2021-09-05T12:48:27Z</time>
      </trkpt>
      <trkpt lat="47.3108" lon="5.60377">
        <ele>221.4</ele>
        <time>2021-09-05T12:48:31Z</time>
      </trkpt>
      <trkpt lat="47.31084" lon="5.60381">
        <ele>221.6</ele>
        <time>2021-09-05T12:48:35Z</time>
      </trkpt>
      <trkpt lat="47.31088" lon="5.60385">
        <ele>221.1</ele>
        <time>2021-09-05T12:48:40Z</time>
      </trkpt>
      <trkpt lat="47.31092" lon="5.60389">
        <ele>220.9</ele>
        <time>2021-09-05T12:48:44Z</time>
      </trkpt>
      <trkpt lat="47.31095" lon="5.60394">
        <ele>220.8</ele>
        <time>2021-09-05T12:48:48Z</time>
      </trkpt>
      <trkpt lat="47.31098" lon="5.604">
        <ele>220.5</ele>
        <time>2021-09-05T12:48:53Z</time>
      </trkpt>
      <trkpt lat="47.31102" lon="5.60404">
        <ele>220.3</ele>
        <time>2021-09-05T12:48:57Z</time>
      </trkpt>
      <trkpt lat="47.31107" lon="5.60408">
        <ele>220.7</ele>
        <time>2021-09-05T12:49:02Z</time>
      </trkpt>
      <trkpt lat="47.31109" lon="5.60414">
        <ele>220.8</ele>
        <time>2021-09-05T12:49:06Z</time>
      </trkpt>
      <trkpt lat="47.3111" lon="5.60421">
        <ele>220.5</ele>
        <time>2021-09-05T12:49:11Z</time>
      </trkpt>
      <trkpt lat="47.31111" lon="5.60428">
        <ele>219.8</ele>
        <time>2021-09-05T12:49:16Z</time>
      </trkpt>
      <trkpt lat="47.31113" lon="5.60436">
        <ele>219</ele>
        <time>2021-09-05T12:49:21Z</time>
      </trkpt>
      <trkpt lat="47.31115" lon="5.60443">
        <ele>218.5</ele>
        <time>2021-09-05T12:49:26Z</time>
      </trkpt>
      <trkpt lat="47.31119" lon="5.60447">
        <ele>217.9</ele>
        <time>2021-09-05T12:49:32Z</time>
      </trkpt>
      <trkpt lat="47.31118" lon="5.60455">
        <ele>217.1</ele>
        <time>2021-09-05T12:49:37Z</time>
      </trkpt>
      <trkpt lat="47.31117" lon="5.60462">
        <ele>216.1</ele>
        <time>2021-09-05T12:49:42Z</time>
      </trkpt>
      <trkpt lat="47.31119" lon="5.60469">
        <ele>214.2</ele>
        <time>2021-09-05T12:49:50Z</time>
      </trkpt>
      <trkpt lat="47.31123" lon="5.60473">
        <ele>213.1</ele>
        <time>2021-09-05T12:49:55Z</time>
      </trkpt>
      <trkpt lat="47.31128" lon="5.60476">
        <ele>212.2</ele>
        <time>2021-09-05T12:49:59Z</time>
      </trkpt>
      <trkpt lat="47.31132" lon="5.6048">
        <ele>211.3</ele>
        <time>2021-09-05T12:50:03Z</time>
      </trkpt>
      <trkpt lat="47.31135" lon="5.60486">
        <ele>210.4</ele>
        <time>2021-09-05T12:50:07Z</time>
      </trkpt>
      <trkpt lat="47.31137" lon="5.60492">
        <ele>209.7</ele>
        <time>2021-09-05T12:50:11Z</time>
      </trkpt>
      <trkpt lat="47.31139" lon="5.60499">
        <ele>208.9</ele>
        <time>2021-09-05T12:50:15Z</time>
      </trkpt>
      <trkpt lat="47.31142" lon="5.60505">
        <ele>208.1</ele>
        <time>2021-09-05T12:50:19Z</time>
      </trkpt>
      <trkpt lat="47.31145" lon="5.60511">
        <ele>207.3</ele>
        <time>2021-09-05T12:50:23Z</time>
      </trkpt>
      <trkpt lat="47.31148" lon="5.60517">
        <ele>206.3</ele>
        <time>2021-09-05T12:50:28Z</time>
      </trkpt>
      <trkpt lat="47.31152" lon="5.60523">
        <ele>205.8</ele>
        <time>2021-09-05T12:50:32Z</time>
      </trkpt>
      <trkpt lat="47.31156" lon="5.60529">
        <ele>206.1</ele>
        <time>2021-09-05T12:50:36Z</time>
      </trkpt>
      <trkpt lat="47.31159" lon="5.60536">
        <ele>206.4</ele>
        <time>2021-09-05T12:50:41Z</time>
      </trkpt>
      <trkpt lat="47.31161" lon="5.60542">
        <ele>206.7</ele>
        <time>2021-09-05T12:50:45Z</time>
      </trkpt>
      <trkpt lat="47.31163" lon="5.60549">
        <ele>207</ele>
        <time>2021-09-05T12:50:49Z</time>
      </trkpt>
      <trkpt lat="47.31166" lon="5.60554">
        <ele>207.8</ele>
        <time>2021-09-05T12:50:53Z</time>
      </trkpt>
      <trkpt lat="47.31169" lon="5.60561">
        <ele>208.3</ele>
        <time>2021-09-05T12:50:58Z</time>
      </trkpt>
      <trkpt lat="47.3117" lon="5.60567">
        <ele>208.7</ele>
        <time>2021-09-05T12:51:02Z</time>
      </trkpt>
      <trkpt lat="47.31174" lon="5.60573">
        <ele>208.9</ele>
        <time>2021-09-05T12:51:07Z</time>
      </trkpt>
      <trkpt lat="47.31178" lon="5.60577">
        <ele>209</ele>
        <time>2021-09-05T12:51:11Z</time>
      </trkpt>
      <trkpt lat="47.31182" lon="5.60581">
        <ele>209.8</ele>
        <time>2021-09-05T12:51:14Z</time>
      </trkpt>
      <trkpt lat="47.31186" lon="5.60585">
        <ele>210.8</ele>
        <time>2021-09-05T12:51:17Z</time>
      </trkpt>
      <trkpt lat="47.31191" lon="5.6059">
        <ele>212</ele>
        <time>2021-09-05T12:51:21Z</time>
      </trkpt>
      <trkpt lat="47.31193" lon="5.60597">
        <ele>212.9</ele>
        <time>2021-09-05T12:51:26Z</time>
      </trkpt>
      <trkpt lat="47.31197" lon="5.60603">
        <ele>213.4</ele>
        <time>2021-09-05T12:51:30Z</time>
      </trkpt>
      <trkpt lat="47.31199" lon="5.60608">
        <ele>213.9</ele>
        <time>2021-09-05T12:51:34Z</time>
      </trkpt>
      <trkpt lat="47.31201" lon="5.60615">
        <ele>214.8</ele>
        <time>2021-09-05T12:51:40Z</time>
      </trkpt>
      <trkpt lat="47.31202" lon="5.60622">
        <ele>215.2</ele>
        <time>2021-09-05T12:51:44Z</time>
      </trkpt>
      <trkpt lat="47.31205" lon="5.60629">
        <ele>215.6</ele>
        <time>2021-09-05T12:51:49Z</time>
      </trkpt>
      <trkpt lat="47.31208" lon="5.60634">
        <ele>216</ele>
        <time>2021-09-05T12:51:53Z</time>
      </trkpt>
      <trkpt lat="47.31211" lon="5.60639">
        <ele>216.4</ele>
        <time>2021-09-05T12:51:57Z</time>
      </trkpt>
      <trkpt lat="47.31215" lon="5.60645">
        <ele>217</ele>
        <time>2021-09-05T12:52:02Z</time>
      </trkpt>
      <trkpt lat="47.31217" lon="5.60652">
        <ele>217.4</ele>
        <time>2021-09-05T12:52:06Z</time>
      </trkpt>
      <trkpt lat="47.31219" lon="5.60659">
        <ele>217.9</ele>
        <time>2021-09-05T12:52:10Z</time>
      </trkpt>
      <trkpt lat="47.31221" lon="5.60666">
        <ele>218.7</ele>
        <time>2021-09-05T12:52:16Z</time>
      </trkpt>
      <trkpt lat="47.31223" lon="5.60673">
        <ele>219.4</ele>
        <time>2021-09-05T12:52:21Z</time>
      </trkpt>
      <trkpt lat="47.31224" lon="5.6068">
        <ele>220.2</ele>
        <time>2021-09-05T12:52:26Z</time>
      </trkpt>
      <trkpt lat="47.31224" lon="5.60688">
        <ele>220.9</ele>
        <time>2021-09-05T12:52:31Z</time>
      </trkpt>
      <trkpt lat="47.31224" lon="5.60695">
        <ele>221.6</ele>
        <time>2021-09-05T12:52:37Z</time>
      </trkpt>
      <trkpt lat="47.31224" lon="5.60702">
        <ele>222</ele>
        <time>2021-09-05T12:52:43Z</time>
      </trkpt>
      <trkpt lat="47.31223" lon="5.60709">
        <ele>222</ele>
        <time>2021-09-05T12:52:48Z</time>
      </trkpt>
      <trkpt lat="47.3122" lon="5.60715">
        <ele>221.8</ele>
        <time>2021-09-05T12:52:55Z</time>
      </trkpt>
      <trkpt lat="47.31225" lon="5.60717">
        <ele>220.9</ele>
        <time>2021-09-05T12:53:17Z</time>
      </trkpt>
      <trkpt lat="47.3123" lon="5.60717">
        <ele>220.8</ele>
        <time>2021-09-05T12:53:22Z</time>
      </trkpt>
      <trkpt lat="47.31235" lon="5.60719">
        <ele>221</ele>
        <time>2021-09-05T12:53:26Z</time>
      </trkpt>
      <trkpt lat="47.31239" lon="5.60718">
        <ele>221.1</ele>
        <time>2021-09-05T12:53:29Z</time>
      </trkpt>
      <trkpt lat="47.31245" lon="5.60718">
        <ele>221</ele>
        <time>2021-09-05T12:53:32Z</time>
      </trkpt>
      <trkpt lat="47.3125" lon="5.60718">
        <ele>220.8</ele>
        <time>2021-09-05T12:53:36Z</time>
      </trkpt>
      <trkpt lat="47.31253" lon="5.60723">
        <ele>220.6</ele>
        <time>2021-09-05T12:53:41Z</time>
      </trkpt>
      <trkpt lat="47.31255" lon="5.60731">
        <ele>220.6</ele>
        <time>2021-09-05T12:53:47Z</time>
      </trkpt>
      <trkpt lat="47.31258" lon="5.60737">
        <ele>220.2</ele>
        <time>2021-09-05T12:53:51Z</time>
      </trkpt>
      <trkpt lat="47.31262" lon="5.60742">
        <ele>219.5</ele>
        <time>2021-09-05T12:53:56Z</time>
      </trkpt>
      <trkpt lat="47.31264" lon="5.60748">
        <ele>218</ele>
        <time>2021-09-05T12:54:02Z</time>
      </trkpt>
      <trkpt lat="47.31265" lon="5.60755">
        <ele>216.7</ele>
        <time>2021-09-05T12:54:06Z</time>
      </trkpt>
      <trkpt lat="47.31266" lon="5.60761">
        <ele>215.6</ele>
        <time>2021-09-05T12:54:10Z</time>
      </trkpt>
      <trkpt lat="47.3127" lon="5.60766">
        <ele>214.4</ele>
        <time>2021-09-05T12:54:14Z</time>
      </trkpt>
      <trkpt lat="47.31272" lon="5.60772">
        <ele>212.5</ele>
        <time>2021-09-05T12:54:19Z</time>
      </trkpt>
      <trkpt lat="47.31276" lon="5.60777">
        <ele>210.5</ele>
        <time>2021-09-05T12:54:24Z</time>
      </trkpt>
      <trkpt lat="47.31279" lon="5.60782">
        <ele>209.3</ele>
        <time>2021-09-05T12:54:28Z</time>
      </trkpt>
      <trkpt lat="47.31281" lon="5.60788">
        <ele>208.1</ele>
        <time>2021-09-05T12:54:32Z</time>
      </trkpt>
      <trkpt lat="47.3128" lon="5.60795">
        <ele>206.4</ele>
        <time>2021-09-05T12:54:37Z</time>
      </trkpt>
      <trkpt lat="47.31283" lon="5.60801">
        <ele>204.9</ele>
        <time>2021-09-05T12:54:44Z</time>
      </trkpt>
      <trkpt lat="47.31288" lon="5.60803">
        <ele>204.8</ele>
        <time>2021-09-05T12:54:50Z</time>
      </trkpt>
      <trkpt lat="47.3129" lon="5.60809">
        <ele>206.6</ele>
        <time>2021-09-05T12:55:02Z</time>
      </trkpt>
      <trkpt lat="47.31287" lon="5.60814">
        <ele>209.5</ele>
        <time>2021-09-05T12:55:22Z</time>
      </trkpt>
      <trkpt lat="47.31283" lon="5.60818">
        <ele>211.4</ele>
        <time>2021-09-05T12:55:35Z</time>
      </trkpt>
      <trkpt lat="47.31281" lon="5.60822">
        <ele>214.7</ele>
        <time>2021-09-05T12:56:53Z</time>
      </trkpt>
      <trkpt lat="47.31276" lon="5.60822">
        <ele>213.4</ele>
        <time>2021-09-05T12:57:16Z</time>
      </trkpt>
      <trkpt lat="47.3128" lon="5.60817">
        <ele>214.7</ele>
        <time>2021-09-05T12:57:34Z</time>
      </trkpt>
      <trkpt lat="47.31285" lon="5.60817">
        <ele>214.7</ele>
        <time>2021-09-05T12:57:39Z</time>
      </trkpt>
      <trkpt lat="47.31279" lon="5.60821">
        <ele>211.4</ele>
        <time>2021-09-05T12:58:01Z</time>
      </trkpt>
      <trkpt lat="47.31276" lon="5.60828">
        <ele>214.2</ele>
        <time>2021-09-05T12:58:36Z</time>
      </trkpt>
      <trkpt lat="47.31272" lon="5.60832">
        <ele>215.5</ele>
        <time>2021-09-05T12:58:42Z</time>
      </trkpt>
      <trkpt lat="47.31267" lon="5.60835">
        <ele>215.5</ele>
        <time>2021-09-05T12:58:48Z</time>
      </trkpt>
      <trkpt lat="47.31263" lon="5.60836">
        <ele>215.1</ele>
        <time>2021-09-05T12:59:04Z</time>
      </trkpt>
      <trkpt lat="47.31267" lon="5.60837">
        <ele>216.2</ele>
        <time>2021-09-05T12:59:15Z</time>
      </trkpt>
      <trkpt lat="47.31263" lon="5.60839">
        <ele>218.7</ele>
        <time>2021-09-05T12:59:52Z</time>
      </trkpt>
      <trkpt lat="47.31259" lon="5.60835">
        <ele>218</ele>
        <time>2021-09-05T13:00:03Z</time>
      </trkpt>
      <trkpt lat="47.31265" lon="5.60835">
        <ele>219.6</ele>
        <time>2021-09-05T13:03:15Z</time>
      </trkpt>
      <trkpt lat="47.3127" lon="5.60831">
        <ele>220.5</ele>
        <time>2021-09-05T13:03:18Z</time>
      </trkpt>
      <trkpt lat="47.31275" lon="5.60827">
        <ele>221.5</ele>
        <time>2021-09-05T13:03:21Z</time>
      </trkpt>
      <trkpt lat="47.31282" lon="5.60822">
        <ele>222.2</ele>
        <time>2021-09-05T13:03:24Z</time>
      </trkpt>
      <trkpt lat="47.3129" lon="5.60815">
        <ele>222.7</ele>
        <time>2021-09-05T13:03:27Z</time>
      </trkpt>
      <trkpt lat="47.31296" lon="5.60803">
        <ele>222.8</ele>
        <time>2021-09-05T13:03:30Z</time>
      </trkpt>
      <trkpt lat="47.31293" lon="5.6079">
        <ele>222.8</ele>
        <time>2021-09-05T13:03:33Z</time>
      </trkpt>
      <trkpt lat="47.31285" lon="5.60775">
        <ele>222.6</ele>
        <time>2021-09-05T13:03:36Z</time>
      </trkpt>
      <trkpt lat="47.31276" lon="5.60759">
        <ele>222.5</ele>
        <time>2021-09-05T13:03:39Z</time>
      </trkpt>
      <trkpt lat="47.31266" lon="5.60743">
        <ele>222.2</ele>
        <time>2021-09-05T13:03:42Z</time>
      </trkpt>
      <trkpt lat="47.3126" lon="5.6073">
        <ele>222</ele>
        <time>2021-09-05T13:03:45Z</time>
      </trkpt>
      <trkpt lat="47.31256" lon="5.60722">
        <ele>221.1</ele>
        <time>2021-09-05T13:03:48Z</time>
      </trkpt>
      <trkpt lat="47.31248" lon="5.60715">
        <ele>220.2</ele>
        <time>2021-09-05T13:03:51Z</time>
      </trkpt>
      <trkpt lat="47.31237" lon="5.60706">
        <ele>219.7</ele>
        <time>2021-09-05T13:03:54Z</time>
      </trkpt>
      <trkpt lat="47.31226" lon="5.60708">
        <ele>219.5</ele>
        <time>2021-09-05T13:03:57Z</time>
      </trkpt>
      <trkpt lat="47.3121" lon="5.60721">
        <ele>219.3</ele>
        <time>2021-09-05T13:04:00Z</time>
      </trkpt>
      <trkpt lat="47.3119" lon="5.60739">
        <ele>218.7</ele>
        <time>2021-09-05T13:04:03Z</time>
      </trkpt>
      <trkpt lat="47.31169" lon="5.60757">
        <ele>218.4</ele>
        <time>2021-09-05T13:04:06Z</time>
      </trkpt>
      <trkpt lat="47.31148" lon="5.60776">
        <ele>218.7</ele>
        <time>2021-09-05T13:04:09Z</time>
      </trkpt>
      <trkpt lat="47.31131" lon="5.60792">
        <ele>219</ele>
        <time>2021-09-05T13:04:12Z</time>
      </trkpt>
      <trkpt lat="47.31116" lon="5.60807">
        <ele>219.1</ele>
        <time>2021-09-05T13:04:15Z</time>
      </trkpt>
      <trkpt lat="47.31098" lon="5.6082">
        <ele>219</ele>
        <time>2021-09-05T13:04:18Z</time>
      </trkpt>
      <trkpt lat="47.31078" lon="5.60833">
        <ele>218.6</ele>
        <time>2021-09-05T13:04:21Z</time>
      </trkpt>
      <trkpt lat="47.31055" lon="5.60846">
        <ele>218.6</ele>
        <time>2021-09-05T13:04:24Z</time>
      </trkpt>
      <trkpt lat="47.3103" lon="5.60859">
        <ele>218.7</ele>
        <time>2021-09-05T13:04:27Z</time>
      </trkpt>
      <trkpt lat="47.31006" lon="5.6087">
        <ele>218.9</ele>
        <time>2021-09-05T13:04:30Z</time>
      </trkpt>
      <trkpt lat="47.30983" lon="5.6088">
        <ele>219.2</ele>
        <time>2021-09-05T13:04:33Z</time>
      </trkpt>
      <trkpt lat="47.30962" lon="5.60889">
        <ele>219.5</ele>
        <time>2021-09-05T13:04:36Z</time>
      </trkpt>
      <trkpt lat="47.30941" lon="5.60886">
        <ele>219.9</ele>
        <time>2021-09-05T13:04:39Z</time>
      </trkpt>
      <trkpt lat="47.30919" lon="5.6087">
        <ele>220.4</ele>
        <time>2021-09-05T13:04:42Z</time>
      </trkpt>
      <trkpt lat="47.30894" lon="5.60847">
        <ele>221.2</ele>
        <time>2021-09-05T13:04:45Z</time>
      </trkpt>
      <trkpt lat="47.3087" lon="5.60823">
        <ele>222.2</ele>
        <time>2021-09-05T13:04:48Z</time>
      </trkpt>
      <trkpt lat="47.30846" lon="5.608">
        <ele>223.2</ele>
        <time>2021-09-05T13:04:51Z</time>
      </trkpt>
      <trkpt lat="47.30821" lon="5.60787">
        <ele>223.8</ele>
        <time>2021-09-05T13:04:54Z</time>
      </trkpt>
      <trkpt lat="47.30791" lon="5.60794">
        <ele>222.9</ele>
        <time>2021-09-05T13:04:57Z</time>
      </trkpt>
      <trkpt lat="47.30759" lon="5.60811">
        <ele>221.3</ele>
        <time>2021-09-05T13:05:00Z</time>
      </trkpt>
      <trkpt lat="47.30723" lon="5.60829">
        <ele>219.1</ele>
        <time>2021-09-05T13:05:03Z</time>
      </trkpt>
      <trkpt lat="47.30682" lon="5.60847">
        <ele>217.8</ele>
        <time>2021-09-05T13:05:06Z</time>
      </trkpt>
      <trkpt lat="47.3064" lon="5.60866">
        <ele>217.3</ele>
        <time>2021-09-05T13:05:09Z</time>
      </trkpt>
      <trkpt lat="47.30597" lon="5.60885">
        <ele>217.4</ele>
        <time>2021-09-05T13:05:12Z</time>
      </trkpt>
      <trkpt lat="47.30556" lon="5.60898">
        <ele>218</ele>
        <time>2021-09-05T13:05:15Z</time>
      </trkpt>
      <trkpt lat="47.30516" lon="5.60899">
        <ele>218.8</ele>
        <time>2021-09-05T13:05:18Z</time>
      </trkpt>
      <trkpt lat="47.30475" lon="5.60899">
        <ele>219.3</ele>
        <time>2021-09-05T13:05:21Z</time>
      </trkpt>
      <trkpt lat="47.30432" lon="5.60901">
        <ele>219.9</ele>
        <time>2021-09-05T13:05:24Z</time>
      </trkpt>
      <trkpt lat="47.3039" lon="5.60909">
        <ele>220.9</ele>
        <time>2021-09-05T13:05:27Z</time>
      </trkpt>
      <trkpt lat="47.30347" lon="5.60921">
        <ele>222.1</ele>
        <time>2021-09-05T13:05:30Z</time>
      </trkpt>
      <trkpt lat="47.30303" lon="5.60928">
        <ele>223.4</ele>
        <time>2021-09-05T13:05:33Z</time>
      </trkpt>
      <trkpt lat="47.30259" lon="5.6093">
        <ele>224.5</ele>
        <time>2021-09-05T13:05:36Z</time>
      </trkpt>
      <trkpt lat="47.30216" lon="5.6093">
        <ele>225.8</ele>
        <time>2021-09-05T13:05:39Z</time>
      </trkpt>
      <trkpt lat="47.30176" lon="5.60922">
        <ele>226.6</ele>
        <time>2021-09-05T13:05:42Z</time>
      </trkpt>
      <trkpt lat="47.30138" lon="5.60906">
        <ele>227.3</ele>
        <time>2021-09-05T13:05:45Z</time>
      </trkpt>
      <trkpt lat="47.30098" lon="5.6089">
        <ele>227.6</ele>
        <time>2021-09-05T13:05:48Z</time>
      </trkpt>
      <trkpt lat="47.30056" lon="5.60875">
        <ele>227.9</ele>
        <time>2021-09-05T13:05:51Z</time>
      </trkpt>
      <trkpt lat="47.30012" lon="5.60864">
        <ele>228.5</ele>
        <time>2021-09-05T13:05:54Z</time>
      </trkpt>
      <trkpt lat="47.29967" lon="5.60855">
        <ele>229.2</ele>
        <time>2021-09-05T13:05:57Z</time>
      </trkpt>
      <trkpt lat="47.29924" lon="5.60847">
        <ele>229.4</ele>
        <time>2021-09-05T13:06:00Z</time>
      </trkpt>
      <trkpt lat="47.29882" lon="5.60838">
        <ele>229.5</ele>
        <time>2021-09-05T13:06:03Z</time>
      </trkpt>
      <trkpt lat="47.29841" lon="5.60829">
        <ele>229.4</ele>
        <time>2021-09-05T13:06:06Z</time>
      </trkpt>
      <trkpt lat="47.29798" lon="5.60821">
        <ele>229.3</ele>
        <time>2021-09-05T13:06:09Z</time>
      </trkpt>
      <trkpt lat="47.29754" lon="5.60812">
        <ele>229.3</ele>
        <time>2021-09-05T13:06:12Z</time>
      </trkpt>
      <trkpt lat="47.29708" lon="5.60801">
        <ele>229</ele>
        <time>2021-09-05T13:06:15Z</time>
      </trkpt>
      <trkpt lat="47.29663" lon="5.60786">
        <ele>229.4</ele>
        <time>2021-09-05T13:06:18Z</time>
      </trkpt>
      <trkpt lat="47.29618" lon="5.60769">
        <ele>230.6</ele>
        <time>2021-09-05T13:06:21Z</time>
      </trkpt>
      <trkpt lat="47.29575" lon="5.6075">
        <ele>232</ele>
        <time>2021-09-05T13:06:24Z</time>
      </trkpt>
      <trkpt lat="47.29532" lon="5.60731">
        <ele>233.3</ele>
        <time>2021-09-05T13:06:27Z</time>
      </trkpt>
      <trkpt lat="47.29489" lon="5.60711">
        <ele>234.2</ele>
        <time>2021-09-05T13:06:30Z</time>
      </trkpt>
      <trkpt lat="47.29445" lon="5.60692">
        <ele>235</ele>
        <time>2021-09-05T13:06:33Z</time>
      </trkpt>
      <trkpt lat="47.294" lon="5.60675">
        <ele>235.9</ele>
        <time>2021-09-05T13:06:36Z</time>
      </trkpt>
      <trkpt lat="47.29358" lon="5.6066">
        <ele>236.9</ele>
        <time>2021-09-05T13:06:39Z</time>
      </trkpt>
      <trkpt lat="47.2932" lon="5.60642">
        <ele>237.3</ele>
        <time>2021-09-05T13:06:42Z</time>
      </trkpt>
      <trkpt lat="47.29286" lon="5.60616">
        <ele>237.1</ele>
        <time>2021-09-05T13:06:45Z</time>
      </trkpt>
      <trkpt lat="47.29254" lon="5.6059">
        <ele>236.9</ele>
        <time>2021-09-05T13:06:48Z</time>
      </trkpt>
      <trkpt lat="47.29227" lon="5.60578">
        <ele>236.8</ele>
        <time>2021-09-05T13:06:51Z</time>
      </trkpt>
      <trkpt lat="47.29213" lon="5.60575">
        <ele>236.7</ele>
        <time>2021-09-05T13:06:54Z</time>
      </trkpt>
      <trkpt lat="47.29208" lon="5.60575">
        <ele>236.8</ele>
        <time>2021-09-05T13:06:58Z</time>
      </trkpt>
      <trkpt lat="47.29203" lon="5.60567">
        <ele>237.5</ele>
        <time>2021-09-05T13:07:06Z</time>
      </trkpt>
      <trkpt lat="47.29195" lon="5.60543">
        <ele>238</ele>
        <time>2021-09-05T13:07:09Z</time>
      </trkpt>
      <trkpt lat="47.29182" lon="5.60505">
        <ele>238.2</ele>
        <time>2021-09-05T13:07:12Z</time>
      </trkpt>
      <trkpt lat="47.29168" lon="5.60456">
        <ele>237.9</ele>
        <time>2021-09-05T13:07:15Z</time>
      </trkpt>
      <trkpt lat="47.2915" lon="5.60402">
        <ele>238.1</ele>
        <time>2021-09-05T13:07:18Z</time>
      </trkpt>
      <trkpt lat="47.2913" lon="5.60341">
        <ele>237.8</ele>
        <time>2021-09-05T13:07:21Z</time>
      </trkpt>
      <trkpt lat="47.2911" lon="5.60276">
        <ele>236.8</ele>
        <time>2021-09-05T13:07:24Z</time>
      </trkpt>
      <trkpt lat="47.29087" lon="5.60207">
        <ele>236.1</ele>
        <time>2021-09-05T13:07:27Z</time>
      </trkpt>
      <trkpt lat="47.29064" lon="5.60136">
        <ele>235.9</ele>
        <time>2021-09-05T13:07:30Z</time>
      </trkpt>
      <trkpt lat="47.29041" lon="5.60066">
        <ele>236.1</ele>
        <time>2021-09-05T13:07:33Z</time>
      </trkpt>
      <trkpt lat="47.29017" lon="5.59995">
        <ele>235.8</ele>
        <time>2021-09-05T13:07:36Z</time>
      </trkpt>
      <trkpt lat="47.28993" lon="5.59922">
        <ele>234.8</ele>
        <time>2021-09-05T13:07:39Z</time>
      </trkpt>
      <trkpt lat="47.28969" lon="5.59847">
        <ele>233.6</ele>
        <time>2021-09-05T13:07:42Z</time>
      </trkpt>
      <trkpt lat="47.28945" lon="5.59773">
        <ele>232.7</ele>
        <time>2021-09-05T13:07:45Z</time>
      </trkpt>
      <trkpt lat="47.2892" lon="5.597">
        <ele>232.2</ele>
        <time>2021-09-05T13:07:48Z</time>
      </trkpt>
      <trkpt lat="47.28895" lon="5.59626">
        <ele>231.6</ele>
        <time>2021-09-05T13:07:51Z</time>
      </trkpt>
      <trkpt lat="47.2887" lon="5.59551">
        <ele>231.1</ele>
        <time>2021-09-05T13:07:54Z</time>
      </trkpt>
      <trkpt lat="47.28846" lon="5.59477">
        <ele>230.9</ele>
        <time>2021-09-05T13:07:57Z</time>
      </trkpt>
      <trkpt lat="47.28822" lon="5.59405">
        <ele>231.1</ele>
        <time>2021-09-05T13:08:00Z</time>
      </trkpt>
      <trkpt lat="47.28798" lon="5.59333">
        <ele>231.2</ele>
        <time>2021-09-05T13:08:03Z</time>
      </trkpt>
      <trkpt lat="47.28774" lon="5.59261">
        <ele>231.1</ele>
        <time>2021-09-05T13:08:06Z</time>
      </trkpt>
      <trkpt lat="47.2875" lon="5.59188">
        <ele>230.2</ele>
        <time>2021-09-05T13:08:09Z</time>
      </trkpt>
      <trkpt lat="47.28726" lon="5.59115">
        <ele>228.9</ele>
        <time>2021-09-05T13:08:12Z</time>
      </trkpt>
      <trkpt lat="47.28702" lon="5.59043">
        <ele>227</ele>
        <time>2021-09-05T13:08:15Z</time>
      </trkpt>
      <trkpt lat="47.28677" lon="5.58971">
        <ele>224.9</ele>
        <time>2021-09-05T13:08:18Z</time>
      </trkpt>
      <trkpt lat="47.28652" lon="5.589">
        <ele>223</ele>
        <time>2021-09-05T13:08:21Z</time>
      </trkpt>
      <trkpt lat="47.28628" lon="5.58829">
        <ele>220.7</ele>
        <time>2021-09-05T13:08:24Z</time>
      </trkpt>
      <trkpt lat="47.28605" lon="5.58757">
        <ele>218.7</ele>
        <time>2021-09-05T13:08:27Z</time>
      </trkpt>
      <trkpt lat="47.28582" lon="5.58687">
        <ele>217.1</ele>
        <time>2021-09-05T13:08:30Z</time>
      </trkpt>
      <trkpt lat="47.28559" lon="5.58615">
        <ele>216.1</ele>
        <time>2021-09-05T13:08:33Z</time>
      </trkpt>
      <trkpt lat="47.28535" lon="5.58544">
        <ele>215.1</ele>
        <time>2021-09-05T13:08:36Z</time>
      </trkpt>
      <trkpt lat="47.28512" lon="5.58474">
        <ele>214.4</ele>
        <time>2021-09-05T13:08:39Z</time>
      </trkpt>
      <trkpt lat="47.28489" lon="5.58404">
        <ele>213.5</ele>
        <time>2021-09-05T13:08:42Z</time>
      </trkpt>
      <trkpt lat="47.28466" lon="5.58336">
        <ele>212.6</ele>
        <time>2021-09-05T13:08:45Z</time>
      </trkpt>
      <trkpt lat="47.28444" lon="5.58271">
        <ele>212.1</ele>
        <time>2021-09-05T13:08:48Z</time>
      </trkpt>
      <trkpt lat="47.28424" lon="5.58209">
        <ele>211.9</ele>
        <time>2021-09-05T13:08:51Z</time>
      </trkpt>
      <trkpt lat="47.28404" lon="5.5815">
        <ele>212</ele>
        <time>2021-09-05T13:08:54Z</time>
      </trkpt>
      <trkpt lat="47.28387" lon="5.58096">
        <ele>212.3</ele>
        <time>2021-09-05T13:08:57Z</time>
      </trkpt>
      <trkpt lat="47.28373" lon="5.58046">
        <ele>212.7</ele>
        <time>2021-09-05T13:09:00Z</time>
      </trkpt>
      <trkpt lat="47.2837" lon="5.58005">
        <ele>212.9</ele>
        <time>2021-09-05T13:09:03Z</time>
      </trkpt>
      <trkpt lat="47.28367" lon="5.57972">
        <ele>213.4</ele>
        <time>2021-09-05T13:09:06Z</time>
      </trkpt>
      <trkpt lat="47.28352" lon="5.57949">
        <ele>213.7</ele>
        <time>2021-09-05T13:09:09Z</time>
      </trkpt>
      <trkpt lat="47.28335" lon="5.57925">
        <ele>214</ele>
        <time>2021-09-05T13:09:12Z</time>
      </trkpt>
      <trkpt lat="47.28318" lon="5.57886">
        <ele>213.8</ele>
        <time>2021-09-05T13:09:15Z</time>
      </trkpt>
      <trkpt lat="47.28301" lon="5.57835">
        <ele>213.9</ele>
        <time>2021-09-05T13:09:18Z</time>
      </trkpt>
      <trkpt lat="47.28282" lon="5.57778">
        <ele>213.6</ele>
        <time>2021-09-05T13:09:21Z</time>
      </trkpt>
      <trkpt lat="47.28262" lon="5.57716">
        <ele>213</ele>
        <time>2021-09-05T13:09:24Z</time>
      </trkpt>
      <trkpt lat="47.28242" lon="5.57654">
        <ele>212.4</ele>
        <time>2021-09-05T13:09:27Z</time>
      </trkpt>
      <trkpt lat="47.2822" lon="5.57589">
        <ele>212</ele>
        <time>2021-09-05T13:09:30Z</time>
      </trkpt>
      <trkpt lat="47.28198" lon="5.57524">
        <ele>211.9</ele>
        <time>2021-09-05T13:09:33Z</time>
      </trkpt>
      <trkpt lat="47.28176" lon="5.5746">
        <ele>211.9</ele>
        <time>2021-09-05T13:09:36Z</time>
      </trkpt>
      <trkpt lat="47.28155" lon="5.57398">
        <ele>212.1</ele>
        <time>2021-09-05T13:09:39Z</time>
      </trkpt>
      <trkpt lat="47.28136" lon="5.57339">
        <ele>212</ele>
        <time>2021-09-05T13:09:42Z</time>
      </trkpt>
      <trkpt lat="47.28116" lon="5.57281">
        <ele>211.5</ele>
        <time>2021-09-05T13:09:45Z</time>
      </trkpt>
      <trkpt lat="47.28098" lon="5.57225">
        <ele>210.8</ele>
        <time>2021-09-05T13:09:48Z</time>
      </trkpt>
      <trkpt lat="47.28081" lon="5.57173">
        <ele>210.3</ele>
        <time>2021-09-05T13:09:51Z</time>
      </trkpt>
      <trkpt lat="47.28065" lon="5.57125">
        <ele>209.8</ele>
        <time>2021-09-05T13:09:54Z</time>
      </trkpt>
      <trkpt lat="47.28049" lon="5.57081">
        <ele>209.5</ele>
        <time>2021-09-05T13:09:57Z</time>
      </trkpt>
      <trkpt lat="47.28029" lon="5.57044">
        <ele>209.1</ele>
        <time>2021-09-05T13:10:00Z</time>
      </trkpt>
      <trkpt lat="47.28007" lon="5.57009">
        <ele>208.4</ele>
        <time>2021-09-05T13:10:03Z</time>
      </trkpt>
      <trkpt lat="47.27985" lon="5.56975">
        <ele>207.7</ele>
        <time>2021-09-05T13:10:06Z</time>
      </trkpt>
      <trkpt lat="47.27971" lon="5.56952">
        <ele>206.9</ele>
        <time>2021-09-05T13:10:09Z</time>
      </trkpt>
      <trkpt lat="47.27967" lon="5.56944">
        <ele>206.4</ele>
        <time>2021-09-05T13:10:12Z</time>
      </trkpt>
      <trkpt lat="47.27963" lon="5.56939">
        <ele>205.5</ele>
        <time>2021-09-05T13:10:24Z</time>
      </trkpt>
      <trkpt lat="47.27954" lon="5.56925">
        <ele>204.9</ele>
        <time>2021-09-05T13:10:27Z</time>
      </trkpt>
      <trkpt lat="47.27939" lon="5.56902">
        <ele>203.6</ele>
        <time>2021-09-05T13:10:30Z</time>
      </trkpt>
      <trkpt lat="47.27922" lon="5.56876">
        <ele>202</ele>
        <time>2021-09-05T13:10:33Z</time>
      </trkpt>
      <trkpt lat="47.27907" lon="5.56859">
        <ele>200.7</ele>
        <time>2021-09-05T13:10:36Z</time>
      </trkpt>
      <trkpt lat="47.27896" lon="5.56856">
        <ele>199.8</ele>
        <time>2021-09-05T13:10:39Z</time>
      </trkpt>
      <trkpt lat="47.27888" lon="5.56868">
        <ele>198.8</ele>
        <time>2021-09-05T13:10:42Z</time>
      </trkpt>
      <trkpt lat="47.2788" lon="5.56884">
        <ele>197.7</ele>
        <time>2021-09-05T13:10:45Z</time>
      </trkpt>
      <trkpt lat="47.27872" lon="5.5689">
        <ele>196.1</ele>
        <time>2021-09-05T13:10:48Z</time>
      </trkpt>
      <trkpt lat="47.27864" lon="5.56888">
        <ele>194.1</ele>
        <time>2021-09-05T13:10:51Z</time>
      </trkpt>
      <trkpt lat="47.27859" lon="5.56882">
        <ele>192.2</ele>
        <time>2021-09-05T13:10:54Z</time>
      </trkpt>
      <trkpt lat="47.27855" lon="5.5687">
        <ele>190</ele>
        <time>2021-09-05T13:10:57Z</time>
      </trkpt>
      <trkpt lat="47.27852" lon="5.56853">
        <ele>187.9</ele>
        <time>2021-09-05T13:11:00Z</time>
      </trkpt>
      <trkpt lat="47.27848" lon="5.56837">
        <ele>186.8</ele>
        <time>2021-09-05T13:11:03Z</time>
      </trkpt>
      <trkpt lat="47.27843" lon="5.56823">
        <ele>186.4</ele>
        <time>2021-09-05T13:11:06Z</time>
      </trkpt>
      <trkpt lat="47.27839" lon="5.56814">
        <ele>186.6</ele>
        <time>2021-09-05T13:11:09Z</time>
      </trkpt>
      <trkpt lat="47.27834" lon="5.56808">
        <ele>187.2</ele>
        <time>2021-09-05T13:11:12Z</time>
      </trkpt>
      <trkpt lat="47.27831" lon="5.56803">
        <ele>187.9</ele>
        <time>2021-09-05T13:11:15Z</time>
      </trkpt>
      <trkpt lat="47.27827" lon="5.56794">
        <ele>189</ele>
        <time>2021-09-05T13:13:21Z</time>
      </trkpt>
      <trkpt lat="47.27826" lon="5.56787">
        <ele>188.8</ele>
        <time>2021-09-05T13:13:24Z</time>
      </trkpt>
      <trkpt lat="47.27824" lon="5.5678">
        <ele>188.1</ele>
        <time>2021-09-05T13:13:28Z</time>
      </trkpt>
      <trkpt lat="47.27822" lon="5.56773">
        <ele>187.4</ele>
        <time>2021-09-05T13:13:32Z</time>
      </trkpt>
      <trkpt lat="47.27821" lon="5.56766">
        <ele>186.9</ele>
        <time>2021-09-05T13:13:35Z</time>
      </trkpt>
      <trkpt lat="47.27818" lon="5.56758">
        <ele>186.5</ele>
        <time>2021-09-05T13:13:38Z</time>
      </trkpt>
      <trkpt lat="47.27815" lon="5.5675">
        <ele>186</ele>
        <time>2021-09-05T13:13:41Z</time>
      </trkpt>
      <trkpt lat="47.27812" lon="5.56744">
        <ele>185.7</ele>
        <time>2021-09-05T13:13:44Z</time>
      </trkpt>
      <trkpt lat="47.27809" lon="5.56737">
        <ele>185.7</ele>
        <time>2021-09-05T13:13:47Z</time>
      </trkpt>
    </trkseg>
  </trk>
</gpx>